<?xml version="1.0" encoding="UTF-8" standalone="no" ?>
<gpx xmlns="http://www.topografix.com/GPX/1/1" xmlns:xsi="http://www.w3.org/2001/XMLSchema-instance" xsi:schemaLocation="http://www.topografix.com/GPX/1/1 http://www.topografix.com/GPX/1/1/gpx.xsd" version="1.1" creator="VisuGPX - https://www.visugpx.com">
  <metadata>
    <name>BOUCLE VINDRY - GRAND COLOMBIER_298 KMS_4520 D+</name>
  </metadata>
  <trk>
    <name><![CDATA[BOUCLE VINDRY - GRAND COLOMBIER_301 KMS_4520 D+]]></name>
    <trkseg>
      <trkpt lat="45.88513" lon="4.48794">
        <ele>422.3454284668</ele>
        <time>2020-08-24T20:17:26Z</time>
      </trkpt>
      <trkpt lat="45.8855" lon="4.48871">
        <ele>424.23138427734</ele>
        <time>2020-08-24T20:17:26Z</time>
      </trkpt>
      <trkpt lat="45.8855" lon="4.48925">
        <ele>423.01333618164</ele>
        <time>2020-08-24T20:17:26Z</time>
      </trkpt>
      <trkpt lat="45.88559" lon="4.48973">
        <ele>422.75726318359</ele>
        <time>2020-08-24T20:17:26Z</time>
      </trkpt>
      <trkpt lat="45.88557" lon="4.48993">
        <ele>422.48803710938</ele>
        <time>2020-08-24T20:17:26Z</time>
      </trkpt>
      <trkpt lat="45.88532" lon="4.49047">
        <ele>420.19131469727</ele>
        <time>2020-08-24T20:17:26Z</time>
      </trkpt>
      <trkpt lat="45.88471" lon="4.49148">
        <ele>418.51010131836</ele>
        <time>2020-08-24T20:17:26Z</time>
      </trkpt>
      <trkpt lat="45.88446" lon="4.49243">
        <ele>415.10763549805</ele>
        <time>2020-08-24T20:17:26Z</time>
      </trkpt>
      <trkpt lat="45.88408" lon="4.49335">
        <ele>411.85949707031</ele>
        <time>2020-08-24T20:17:26Z</time>
      </trkpt>
      <trkpt lat="45.8833" lon="4.4947">
        <ele>404.21313476562</ele>
        <time>2020-08-24T20:17:26Z</time>
      </trkpt>
      <trkpt lat="45.88236" lon="4.49654">
        <ele>396.47247314453</ele>
        <time>2020-08-24T20:17:26Z</time>
      </trkpt>
      <trkpt lat="45.88203" lon="4.49762">
        <ele>395.5009765625</ele>
        <time>2020-08-24T20:17:26Z</time>
      </trkpt>
      <trkpt lat="45.88166" lon="4.49917">
        <ele>390.04586791992</ele>
        <time>2020-08-24T20:17:26Z</time>
      </trkpt>
      <trkpt lat="45.8804" lon="4.50138">
        <ele>378.97918701172</ele>
        <time>2020-08-24T20:17:27Z</time>
      </trkpt>
      <trkpt lat="45.88032" lon="4.50176">
        <ele>377.11633300781</ele>
        <time>2020-08-24T20:17:27Z</time>
      </trkpt>
      <trkpt lat="45.88039" lon="4.50241">
        <ele>371.16122436523</ele>
        <time>2020-08-24T20:17:27Z</time>
      </trkpt>
      <trkpt lat="45.88034" lon="4.50271">
        <ele>368.14566040039</ele>
        <time>2020-08-24T20:17:27Z</time>
      </trkpt>
      <trkpt lat="45.8802" lon="4.50301">
        <ele>366.57699584961</ele>
        <time>2020-08-24T20:17:27Z</time>
      </trkpt>
      <trkpt lat="45.87995" lon="4.50332">
        <ele>365.73175048828</ele>
        <time>2020-08-24T20:17:28Z</time>
      </trkpt>
      <trkpt lat="45.87976" lon="4.50383">
        <ele>364.67422485352</ele>
        <time>2020-08-24T20:17:28Z</time>
      </trkpt>
      <trkpt lat="45.87946" lon="4.50423">
        <ele>363.34359741211</ele>
        <time>2020-08-24T20:17:28Z</time>
      </trkpt>
      <trkpt lat="45.8793" lon="4.50474">
        <ele>361.27590942383</ele>
        <time>2020-08-24T20:17:28Z</time>
      </trkpt>
      <trkpt lat="45.87911" lon="4.50576">
        <ele>356.69448852539</ele>
        <time>2020-08-24T20:17:29Z</time>
      </trkpt>
      <trkpt lat="45.87895" lon="4.5062">
        <ele>355.63900756836</ele>
        <time>2020-08-24T20:17:29Z</time>
      </trkpt>
      <trkpt lat="45.87866" lon="4.50677">
        <ele>354.56997680664</ele>
        <time>2020-08-24T20:17:29Z</time>
      </trkpt>
      <trkpt lat="45.8785" lon="4.50697">
        <ele>354.51998901367</ele>
        <time>2020-08-24T20:17:29Z</time>
      </trkpt>
      <trkpt lat="45.87825" lon="4.50715">
        <ele>353.18148803711</ele>
        <time>2020-08-24T20:17:30Z</time>
      </trkpt>
      <trkpt lat="45.87793" lon="4.50717">
        <ele>353.76388549805</ele>
        <time>2020-08-24T20:17:30Z</time>
      </trkpt>
      <trkpt lat="45.87786" lon="4.50724">
        <ele>353.17596435547</ele>
        <time>2020-08-24T20:17:30Z</time>
      </trkpt>
      <trkpt lat="45.87825" lon="4.51093">
        <ele>336.28698730469</ele>
        <time>2020-08-24T20:17:30Z</time>
      </trkpt>
      <trkpt lat="45.87827" lon="4.51222">
        <ele>334.72900390625</ele>
        <time>2020-08-24T20:17:31Z</time>
      </trkpt>
      <trkpt lat="45.87832" lon="4.51242">
        <ele>334.92422485352</ele>
        <time>2020-08-24T20:17:31Z</time>
      </trkpt>
      <trkpt lat="45.87852" lon="4.51268">
        <ele>335.65280151367</ele>
        <time>2020-08-24T20:17:32Z</time>
      </trkpt>
      <trkpt lat="45.87858" lon="4.51283">
        <ele>335.85827636719</ele>
        <time>2020-08-24T20:17:32Z</time>
      </trkpt>
      <trkpt lat="45.87857" lon="4.51299">
        <ele>336.76123046875</ele>
        <time>2020-08-24T20:17:32Z</time>
      </trkpt>
      <trkpt lat="45.87834" lon="4.51334">
        <ele>337.47436523438</ele>
        <time>2020-08-24T20:17:33Z</time>
      </trkpt>
      <trkpt lat="45.87832" lon="4.51352">
        <ele>337.99307250977</ele>
        <time>2020-08-24T20:17:33Z</time>
      </trkpt>
      <trkpt lat="45.87873" lon="4.5149">
        <ele>342.77008056641</ele>
        <time>2020-08-24T20:17:33Z</time>
      </trkpt>
      <trkpt lat="45.879" lon="4.51533">
        <ele>344.88323974609</ele>
        <time>2020-08-24T20:17:34Z</time>
      </trkpt>
      <trkpt lat="45.87946" lon="4.51564">
        <ele>347.63082885742</ele>
        <time>2020-08-24T20:17:34Z</time>
      </trkpt>
      <trkpt lat="45.88069" lon="4.51622">
        <ele>354.41253662109</ele>
        <time>2020-08-24T20:17:35Z</time>
      </trkpt>
      <trkpt lat="45.88318" lon="4.51663">
        <ele>361.31439208984</ele>
        <time>2020-08-24T20:17:35Z</time>
      </trkpt>
      <trkpt lat="45.88416" lon="4.51652">
        <ele>364.12921142578</ele>
        <time>2020-08-24T20:17:35Z</time>
      </trkpt>
      <trkpt lat="45.8849" lon="4.51662">
        <ele>364.03863525391</ele>
        <time>2020-08-24T20:17:36Z</time>
      </trkpt>
      <trkpt lat="45.88768" lon="4.51666">
        <ele>374.4153137207</ele>
        <time>2020-08-24T20:17:37Z</time>
      </trkpt>
      <trkpt lat="45.88804" lon="4.51675">
        <ele>375.44366455078</ele>
        <time>2020-08-24T20:17:37Z</time>
      </trkpt>
      <trkpt lat="45.88832" lon="4.51692">
        <ele>375.42858886719</ele>
        <time>2020-08-24T20:17:38Z</time>
      </trkpt>
      <trkpt lat="45.8887" lon="4.5174">
        <ele>375.33883666992</ele>
        <time>2020-08-24T20:17:38Z</time>
      </trkpt>
      <trkpt lat="45.88892" lon="4.51791">
        <ele>374.8137512207</ele>
        <time>2020-08-24T20:17:39Z</time>
      </trkpt>
      <trkpt lat="45.88899" lon="4.51827">
        <ele>373.87457275391</ele>
        <time>2020-08-24T20:17:39Z</time>
      </trkpt>
      <trkpt lat="45.88917" lon="4.52039">
        <ele>372.19354248047</ele>
        <time>2020-08-24T20:17:40Z</time>
      </trkpt>
      <trkpt lat="45.88977" lon="4.52254">
        <ele>367.53237915039</ele>
        <time>2020-08-24T20:17:41Z</time>
      </trkpt>
      <trkpt lat="45.89007" lon="4.52323">
        <ele>367.22317504883</ele>
        <time>2020-08-24T20:17:41Z</time>
      </trkpt>
      <trkpt lat="45.89073" lon="4.52443">
        <ele>370.20056152344</ele>
        <time>2020-08-24T20:17:42Z</time>
      </trkpt>
      <trkpt lat="45.89094" lon="4.52471">
        <ele>371.12850952148</ele>
        <time>2020-08-24T20:17:42Z</time>
      </trkpt>
      <trkpt lat="45.89119" lon="4.52493">
        <ele>371.33306884766</ele>
        <time>2020-08-24T20:17:43Z</time>
      </trkpt>
      <trkpt lat="45.8931" lon="4.52589">
        <ele>374.50616455078</ele>
        <time>2020-08-24T20:17:44Z</time>
      </trkpt>
      <trkpt lat="45.89378" lon="4.5263">
        <ele>374.48544311523</ele>
        <time>2020-08-24T20:17:45Z</time>
      </trkpt>
      <trkpt lat="45.89413" lon="4.52664">
        <ele>374.09576416016</ele>
        <time>2020-08-24T20:17:45Z</time>
      </trkpt>
      <trkpt lat="45.8944" lon="4.52707">
        <ele>374.58819580078</ele>
        <time>2020-08-24T20:17:46Z</time>
      </trkpt>
      <trkpt lat="45.8946" lon="4.52762">
        <ele>377.51950073242</ele>
        <time>2020-08-24T20:17:47Z</time>
      </trkpt>
      <trkpt lat="45.89469" lon="4.52834">
        <ele>378.56805419922</ele>
        <time>2020-08-24T20:17:47Z</time>
      </trkpt>
      <trkpt lat="45.89464" lon="4.52904">
        <ele>380.1838684082</ele>
        <time>2020-08-24T20:17:48Z</time>
      </trkpt>
      <trkpt lat="45.89435" lon="4.53093">
        <ele>382.43109130859</ele>
        <time>2020-08-24T20:17:49Z</time>
      </trkpt>
      <trkpt lat="45.89439" lon="4.53155">
        <ele>381.80392456055</ele>
        <time>2020-08-24T20:17:50Z</time>
      </trkpt>
      <trkpt lat="45.89459" lon="4.5321">
        <ele>381.9284362793</ele>
        <time>2020-08-24T20:17:51Z</time>
      </trkpt>
      <trkpt lat="45.89533" lon="4.53305">
        <ele>383.1457824707</ele>
        <time>2020-08-24T20:17:51Z</time>
      </trkpt>
      <trkpt lat="45.89551" lon="4.53343">
        <ele>384.09069824219</ele>
        <time>2020-08-24T20:17:52Z</time>
      </trkpt>
      <trkpt lat="45.8956" lon="4.53392">
        <ele>385.09799194336</ele>
        <time>2020-08-24T20:17:53Z</time>
      </trkpt>
      <trkpt lat="45.89574" lon="4.53576">
        <ele>379.78704833984</ele>
        <time>2020-08-24T20:17:54Z</time>
      </trkpt>
      <trkpt lat="45.89583" lon="4.53621">
        <ele>377.32077026367</ele>
        <time>2020-08-24T20:17:55Z</time>
      </trkpt>
      <trkpt lat="45.89598" lon="4.53666">
        <ele>375.24899291992</ele>
        <time>2020-08-24T20:17:56Z</time>
      </trkpt>
      <trkpt lat="45.89647" lon="4.5376">
        <ele>369.7737121582</ele>
        <time>2020-08-24T20:17:56Z</time>
      </trkpt>
      <trkpt lat="45.89667" lon="4.53808">
        <ele>370.42980957031</ele>
        <time>2020-08-24T20:17:57Z</time>
      </trkpt>
      <trkpt lat="45.89684" lon="4.53871">
        <ele>372.19769287109</ele>
        <time>2020-08-24T20:17:58Z</time>
      </trkpt>
      <trkpt lat="45.89691" lon="4.53939">
        <ele>372.32974243164</ele>
        <time>2020-08-24T20:17:59Z</time>
      </trkpt>
      <trkpt lat="45.89551" lon="4.55091">
        <ele>338.06875610352</ele>
        <time>2020-08-24T20:18:00Z</time>
      </trkpt>
      <trkpt lat="45.89526" lon="4.55171">
        <ele>340.71490478516</ele>
        <time>2020-08-24T20:18:01Z</time>
      </trkpt>
      <trkpt lat="45.89411" lon="4.55435">
        <ele>331.91027832031</ele>
        <time>2020-08-24T20:18:02Z</time>
      </trkpt>
      <trkpt lat="45.89392" lon="4.5551">
        <ele>328.79946899414</ele>
        <time>2020-08-24T20:18:03Z</time>
      </trkpt>
      <trkpt lat="45.89392" lon="4.55605">
        <ele>324.78680419922</ele>
        <time>2020-08-24T20:18:04Z</time>
      </trkpt>
      <trkpt lat="45.89401" lon="4.55668">
        <ele>320.86825561523</ele>
        <time>2020-08-24T20:18:06Z</time>
      </trkpt>
      <trkpt lat="45.89419" lon="4.55744">
        <ele>316.44021606445</ele>
        <time>2020-08-24T20:18:07Z</time>
      </trkpt>
      <trkpt lat="45.8962" lon="4.56468">
        <ele>306.83465576172</ele>
        <time>2020-08-24T20:18:08Z</time>
      </trkpt>
      <trkpt lat="45.89647" lon="4.5653">
        <ele>304.35842895508</ele>
        <time>2020-08-24T20:18:09Z</time>
      </trkpt>
      <trkpt lat="45.89701" lon="4.56617">
        <ele>297.85778808594</ele>
        <time>2020-08-24T20:18:10Z</time>
      </trkpt>
      <trkpt lat="45.8973" lon="4.56646">
        <ele>296.69546508789</ele>
        <time>2020-08-24T20:18:12Z</time>
      </trkpt>
      <trkpt lat="45.8977" lon="4.56656">
        <ele>295.23947143555</ele>
        <time>2020-08-24T20:18:13Z</time>
      </trkpt>
      <trkpt lat="45.89924" lon="4.56634">
        <ele>292.13366699219</ele>
        <time>2020-08-24T20:18:14Z</time>
      </trkpt>
      <trkpt lat="45.9" lon="4.56595">
        <ele>282.7041015625</ele>
        <time>2020-08-24T20:18:15Z</time>
      </trkpt>
      <trkpt lat="45.90071" lon="4.56609">
        <ele>277.17166137695</ele>
        <time>2020-08-24T20:18:17Z</time>
      </trkpt>
      <trkpt lat="45.90114" lon="4.56631">
        <ele>272.36297607422</ele>
        <time>2020-08-24T20:18:18Z</time>
      </trkpt>
      <trkpt lat="45.90142" lon="4.56665">
        <ele>272.14910888672</ele>
        <time>2020-08-24T20:18:19Z</time>
      </trkpt>
      <trkpt lat="45.90237" lon="4.56848">
        <ele>269.04483032227</ele>
        <time>2020-08-24T20:18:21Z</time>
      </trkpt>
      <trkpt lat="45.90261" lon="4.56871">
        <ele>268.25177001953</ele>
        <time>2020-08-24T20:18:22Z</time>
      </trkpt>
      <trkpt lat="45.90328" lon="4.56899">
        <ele>260.40649414062</ele>
        <time>2020-08-24T20:18:23Z</time>
      </trkpt>
      <trkpt lat="45.9035" lon="4.56927">
        <ele>261.19171142578</ele>
        <time>2020-08-24T20:18:25Z</time>
      </trkpt>
      <trkpt lat="45.90416" lon="4.57115">
        <ele>256.35333251953</ele>
        <time>2020-08-24T20:18:26Z</time>
      </trkpt>
      <trkpt lat="45.90433" lon="4.57177">
        <ele>253.84791564941</ele>
        <time>2020-08-24T20:18:28Z</time>
      </trkpt>
      <trkpt lat="45.90445" lon="4.57198">
        <ele>253.58753967285</ele>
        <time>2020-08-24T20:18:29Z</time>
      </trkpt>
      <trkpt lat="45.90528" lon="4.57302">
        <ele>249.02070617676</ele>
        <time>2020-08-24T20:18:30Z</time>
      </trkpt>
      <trkpt lat="45.90563" lon="4.57331">
        <ele>247.73638916016</ele>
        <time>2020-08-24T20:18:32Z</time>
      </trkpt>
      <trkpt lat="45.90625" lon="4.57345">
        <ele>247.90733337402</ele>
        <time>2020-08-24T20:18:33Z</time>
      </trkpt>
      <trkpt lat="45.90649" lon="4.57359">
        <ele>247.03297424316</ele>
        <time>2020-08-24T20:18:35Z</time>
      </trkpt>
      <trkpt lat="45.90697" lon="4.574">
        <ele>248.37431335449</ele>
        <time>2020-08-24T20:18:36Z</time>
      </trkpt>
      <trkpt lat="45.90704" lon="4.5741">
        <ele>249.25065612793</ele>
        <time>2020-08-24T20:18:38Z</time>
      </trkpt>
      <trkpt lat="45.90705" lon="4.57428">
        <ele>251.03338623047</ele>
        <time>2020-08-24T20:18:39Z</time>
      </trkpt>
      <trkpt lat="45.90688" lon="4.57511">
        <ele>249.98466491699</ele>
        <time>2020-08-24T20:18:41Z</time>
      </trkpt>
      <trkpt lat="45.90661" lon="4.57692">
        <ele>244.98661804199</ele>
        <time>2020-08-24T20:18:42Z</time>
      </trkpt>
      <trkpt lat="45.90638" lon="4.57764">
        <ele>243.08743286133</ele>
        <time>2020-08-24T20:18:44Z</time>
      </trkpt>
      <trkpt lat="45.90629" lon="4.57806">
        <ele>245.64213562012</ele>
        <time>2020-08-24T20:18:45Z</time>
      </trkpt>
      <trkpt lat="45.9061" lon="4.57842">
        <ele>249.83218383789</ele>
        <time>2020-08-24T20:18:47Z</time>
      </trkpt>
      <trkpt lat="45.90572" lon="4.57894">
        <ele>250.27632141113</ele>
        <time>2020-08-24T20:18:48Z</time>
      </trkpt>
      <trkpt lat="45.90348" lon="4.58145">
        <ele>250.04275512695</ele>
        <time>2020-08-24T20:18:50Z</time>
      </trkpt>
      <trkpt lat="45.90047" lon="4.58643">
        <ele>244.52967834473</ele>
        <time>2020-08-24T20:18:51Z</time>
      </trkpt>
      <trkpt lat="45.89987" lon="4.58732">
        <ele>246.19471740723</ele>
        <time>2020-08-24T20:18:53Z</time>
      </trkpt>
      <trkpt lat="45.8992" lon="4.58805">
        <ele>244.63789367676</ele>
        <time>2020-08-24T20:18:55Z</time>
      </trkpt>
      <trkpt lat="45.89811" lon="4.58895">
        <ele>238.51376342773</ele>
        <time>2020-08-24T20:18:56Z</time>
      </trkpt>
      <trkpt lat="45.89764" lon="4.58952">
        <ele>238.48985290527</ele>
        <time>2020-08-24T20:18:58Z</time>
      </trkpt>
      <trkpt lat="45.89657" lon="4.59141">
        <ele>235.32887268066</ele>
        <time>2020-08-24T20:19:00Z</time>
      </trkpt>
      <trkpt lat="45.89609" lon="4.59314">
        <ele>238.75253295898</ele>
        <time>2020-08-24T20:19:02Z</time>
      </trkpt>
      <trkpt lat="45.89581" lon="4.59396">
        <ele>240.69612121582</ele>
        <time>2020-08-24T20:19:03Z</time>
      </trkpt>
      <trkpt lat="45.89534" lon="4.59488">
        <ele>241.9775390625</ele>
        <time>2020-08-24T20:19:05Z</time>
      </trkpt>
      <trkpt lat="45.8942" lon="4.59623">
        <ele>235.26690673828</ele>
        <time>2020-08-24T20:19:07Z</time>
      </trkpt>
      <trkpt lat="45.89282" lon="4.59831">
        <ele>238.62532043457</ele>
        <time>2020-08-24T20:19:09Z</time>
      </trkpt>
      <trkpt lat="45.89164" lon="4.59988">
        <ele>240.31224060059</ele>
        <time>2020-08-24T20:19:11Z</time>
      </trkpt>
      <trkpt lat="45.8914" lon="4.60026">
        <ele>237.6657409668</ele>
        <time>2020-08-24T20:19:13Z</time>
      </trkpt>
      <trkpt lat="45.89116" lon="4.60081">
        <ele>240.71031188965</ele>
        <time>2020-08-24T20:19:14Z</time>
      </trkpt>
      <trkpt lat="45.89098" lon="4.60159">
        <ele>242.4983215332</ele>
        <time>2020-08-24T20:19:16Z</time>
      </trkpt>
      <trkpt lat="45.89063" lon="4.60414">
        <ele>244.62106323242</ele>
        <time>2020-08-24T20:19:18Z</time>
      </trkpt>
      <trkpt lat="45.89041" lon="4.60517">
        <ele>243.24438476562</ele>
        <time>2020-08-24T20:19:20Z</time>
      </trkpt>
      <trkpt lat="45.89003" lon="4.60642">
        <ele>239.16943359375</ele>
        <time>2020-08-24T20:19:22Z</time>
      </trkpt>
      <trkpt lat="45.88914" lon="4.60884">
        <ele>231.38003540039</ele>
        <time>2020-08-24T20:19:24Z</time>
      </trkpt>
      <trkpt lat="45.88893" lon="4.60964">
        <ele>229.62487792969</ele>
        <time>2020-08-24T20:19:26Z</time>
      </trkpt>
      <trkpt lat="45.88883" lon="4.61046">
        <ele>230.78047180176</ele>
        <time>2020-08-24T20:19:28Z</time>
      </trkpt>
      <trkpt lat="45.88875" lon="4.61276">
        <ele>226.04949951172</ele>
        <time>2020-08-24T20:19:30Z</time>
      </trkpt>
      <trkpt lat="45.88863" lon="4.61362">
        <ele>227.73332214355</ele>
        <time>2020-08-24T20:19:32Z</time>
      </trkpt>
      <trkpt lat="45.88843" lon="4.61445">
        <ele>226.26919555664</ele>
        <time>2020-08-24T20:19:34Z</time>
      </trkpt>
      <trkpt lat="45.8874" lon="4.61739">
        <ele>223.17245483398</ele>
        <time>2020-08-24T20:19:36Z</time>
      </trkpt>
      <trkpt lat="45.88625" lon="4.62099">
        <ele>224.28567504883</ele>
        <time>2020-08-24T20:19:39Z</time>
      </trkpt>
      <trkpt lat="45.88516" lon="4.62374">
        <ele>220.44927978516</ele>
        <time>2020-08-24T20:19:41Z</time>
      </trkpt>
      <trkpt lat="45.88411" lon="4.62675">
        <ele>218.67077636719</ele>
        <time>2020-08-24T20:19:43Z</time>
      </trkpt>
      <trkpt lat="45.88375" lon="4.62755">
        <ele>217.84468078613</ele>
        <time>2020-08-24T20:19:45Z</time>
      </trkpt>
      <trkpt lat="45.88246" lon="4.62972">
        <ele>217.51861572266</ele>
        <time>2020-08-24T20:19:48Z</time>
      </trkpt>
      <trkpt lat="45.88215" lon="4.63044">
        <ele>217</ele>
        <time>2020-08-24T20:19:50Z</time>
      </trkpt>
      <trkpt lat="45.8818" lon="4.63171">
        <ele>216.62066650391</ele>
        <time>2020-08-24T20:19:52Z</time>
      </trkpt>
      <trkpt lat="45.88118" lon="4.6348">
        <ele>216</ele>
        <time>2020-08-24T20:19:55Z</time>
      </trkpt>
      <trkpt lat="45.88087" lon="4.63584">
        <ele>216.09358215332</ele>
        <time>2020-08-24T20:19:57Z</time>
      </trkpt>
      <trkpt lat="45.88053" lon="4.63662">
        <ele>215.48333740234</ele>
        <time>2020-08-24T20:19:59Z</time>
      </trkpt>
      <trkpt lat="45.87694" lon="4.64254">
        <ele>211.71726989746</ele>
        <time>2020-08-24T20:20:02Z</time>
      </trkpt>
      <trkpt lat="45.87547" lon="4.64515">
        <ele>211.37683105469</ele>
        <time>2020-08-24T20:20:04Z</time>
      </trkpt>
      <trkpt lat="45.87149" lon="4.65137">
        <ele>214.39859008789</ele>
        <time>2020-08-24T20:20:07Z</time>
      </trkpt>
      <trkpt lat="45.87041" lon="4.65345">
        <ele>220.45796203613</ele>
        <time>2020-08-24T20:20:09Z</time>
      </trkpt>
      <trkpt lat="45.86935" lon="4.65483">
        <ele>222.92735290527</ele>
        <time>2020-08-24T20:20:12Z</time>
      </trkpt>
      <trkpt lat="45.86913" lon="4.65532">
        <ele>222.92684936523</ele>
        <time>2020-08-24T20:20:15Z</time>
      </trkpt>
      <trkpt lat="45.86895" lon="4.656">
        <ele>226.00335693359</ele>
        <time>2020-08-24T20:20:17Z</time>
      </trkpt>
      <trkpt lat="45.86881" lon="4.65741">
        <ele>228.61666870117</ele>
        <time>2020-08-24T20:20:20Z</time>
      </trkpt>
      <trkpt lat="45.86866" lon="4.65821">
        <ele>226.67988586426</ele>
        <time>2020-08-24T20:20:23Z</time>
      </trkpt>
      <trkpt lat="45.86834" lon="4.659">
        <ele>224.9271697998</ele>
        <time>2020-08-24T20:20:26Z</time>
      </trkpt>
      <trkpt lat="45.86796" lon="4.6597">
        <ele>222.90907287598</ele>
        <time>2020-08-24T20:20:28Z</time>
      </trkpt>
      <trkpt lat="45.86762" lon="4.6601">
        <ele>224.14462280273</ele>
        <time>2020-08-24T20:20:31Z</time>
      </trkpt>
      <trkpt lat="45.86723" lon="4.66044">
        <ele>218.32092285156</ele>
        <time>2020-08-24T20:20:34Z</time>
      </trkpt>
      <trkpt lat="45.86613" lon="4.66098">
        <ele>215.32415771484</ele>
        <time>2020-08-24T20:20:37Z</time>
      </trkpt>
      <trkpt lat="45.86508" lon="4.66182">
        <ele>218.22032165527</ele>
        <time>2020-08-24T20:20:39Z</time>
      </trkpt>
      <trkpt lat="45.86471" lon="4.66198">
        <ele>214.53999328613</ele>
        <time>2020-08-24T20:20:42Z</time>
      </trkpt>
      <trkpt lat="45.86381" lon="4.66225">
        <ele>211.32292175293</ele>
        <time>2020-08-24T20:20:45Z</time>
      </trkpt>
      <trkpt lat="45.86328" lon="4.6626">
        <ele>212.98719787598</ele>
        <time>2020-08-24T20:20:48Z</time>
      </trkpt>
      <trkpt lat="45.86299" lon="4.66291">
        <ele>213.14297485352</ele>
        <time>2020-08-24T20:20:51Z</time>
      </trkpt>
      <trkpt lat="45.8627" lon="4.66333">
        <ele>215.89949035645</ele>
        <time>2020-08-24T20:20:53Z</time>
      </trkpt>
      <trkpt lat="45.86159" lon="4.66539">
        <ele>212.62879943848</ele>
        <time>2020-08-24T20:20:56Z</time>
      </trkpt>
      <trkpt lat="45.86127" lon="4.66574">
        <ele>215.35163879395</ele>
        <time>2020-08-24T20:20:59Z</time>
      </trkpt>
      <trkpt lat="45.86068" lon="4.66613">
        <ele>211.62379455566</ele>
        <time>2020-08-24T20:21:02Z</time>
      </trkpt>
      <trkpt lat="45.8604" lon="4.66639">
        <ele>212.91899108887</ele>
        <time>2020-08-24T20:21:05Z</time>
      </trkpt>
      <trkpt lat="45.85996" lon="4.66695">
        <ele>214.29643249512</ele>
        <time>2020-08-24T20:21:08Z</time>
      </trkpt>
      <trkpt lat="45.85966" lon="4.66764">
        <ele>216.23921203613</ele>
        <time>2020-08-24T20:21:11Z</time>
      </trkpt>
      <trkpt lat="45.85905" lon="4.66965">
        <ele>208.12516784668</ele>
        <time>2020-08-24T20:21:14Z</time>
      </trkpt>
      <trkpt lat="45.85862" lon="4.67434">
        <ele>215.35202026367</ele>
        <time>2020-08-24T20:21:17Z</time>
      </trkpt>
      <trkpt lat="45.8585" lon="4.67483">
        <ele>215.75241088867</ele>
        <time>2020-08-24T20:21:20Z</time>
      </trkpt>
      <trkpt lat="45.85824" lon="4.67534">
        <ele>211.36390686035</ele>
        <time>2020-08-24T20:21:23Z</time>
      </trkpt>
      <trkpt lat="45.85783" lon="4.67585">
        <ele>214.5311126709</ele>
        <time>2020-08-24T20:21:26Z</time>
      </trkpt>
      <trkpt lat="45.85759" lon="4.67606">
        <ele>212.42893981934</ele>
        <time>2020-08-24T20:21:29Z</time>
      </trkpt>
      <trkpt lat="45.85653" lon="4.67675">
        <ele>209.34756469727</ele>
        <time>2020-08-24T20:21:32Z</time>
      </trkpt>
      <trkpt lat="45.85614" lon="4.67718">
        <ele>209.37121582031</ele>
        <time>2020-08-24T20:21:35Z</time>
      </trkpt>
      <trkpt lat="45.85592" lon="4.67757">
        <ele>210.84275817871</ele>
        <time>2020-08-24T20:21:38Z</time>
      </trkpt>
      <trkpt lat="45.85581" lon="4.67792">
        <ele>208.48207092285</ele>
        <time>2020-08-24T20:21:41Z</time>
      </trkpt>
      <trkpt lat="45.85572" lon="4.67841">
        <ele>207.52572631836</ele>
        <time>2020-08-24T20:21:44Z</time>
      </trkpt>
      <trkpt lat="45.85568" lon="4.67917">
        <ele>205.00201416016</ele>
        <time>2020-08-24T20:21:47Z</time>
      </trkpt>
      <trkpt lat="45.85636" lon="4.68059">
        <ele>201.41221618652</ele>
        <time>2020-08-24T20:21:50Z</time>
      </trkpt>
      <trkpt lat="45.85662" lon="4.68098">
        <ele>201.36199951172</ele>
        <time>2020-08-24T20:21:53Z</time>
      </trkpt>
      <trkpt lat="45.85807" lon="4.68277">
        <ele>203.03932189941</ele>
        <time>2020-08-24T20:21:56Z</time>
      </trkpt>
      <trkpt lat="45.85842" lon="4.68337">
        <ele>202.4889831543</ele>
        <time>2020-08-24T20:21:59Z</time>
      </trkpt>
      <trkpt lat="45.85857" lon="4.68382">
        <ele>202.14645385742</ele>
        <time>2020-08-24T20:22:03Z</time>
      </trkpt>
      <trkpt lat="45.85877" lon="4.68481">
        <ele>201.22894287109</ele>
        <time>2020-08-24T20:22:06Z</time>
      </trkpt>
      <trkpt lat="45.85893" lon="4.6862">
        <ele>199.26293945312</ele>
        <time>2020-08-24T20:22:09Z</time>
      </trkpt>
      <trkpt lat="45.85893" lon="4.68683">
        <ele>198.41612243652</ele>
        <time>2020-08-24T20:22:12Z</time>
      </trkpt>
      <trkpt lat="45.85871" lon="4.6885">
        <ele>198.2216796875</ele>
        <time>2020-08-24T20:22:15Z</time>
      </trkpt>
      <trkpt lat="45.85864" lon="4.68944">
        <ele>197.11343383789</ele>
        <time>2020-08-24T20:22:18Z</time>
      </trkpt>
      <trkpt lat="45.85871" lon="4.69011">
        <ele>197.68807983398</ele>
        <time>2020-08-24T20:22:22Z</time>
      </trkpt>
      <trkpt lat="45.85889" lon="4.69052">
        <ele>197.99655151367</ele>
        <time>2020-08-24T20:22:25Z</time>
      </trkpt>
      <trkpt lat="45.85919" lon="4.69084">
        <ele>197.28019714355</ele>
        <time>2020-08-24T20:22:28Z</time>
      </trkpt>
      <trkpt lat="45.85953" lon="4.69096">
        <ele>196.52207946777</ele>
        <time>2020-08-24T20:22:31Z</time>
      </trkpt>
      <trkpt lat="45.85985" lon="4.69097">
        <ele>196.5866394043</ele>
        <time>2020-08-24T20:22:35Z</time>
      </trkpt>
      <trkpt lat="45.86224" lon="4.69075">
        <ele>213.75244140625</ele>
        <time>2020-08-24T20:22:38Z</time>
      </trkpt>
      <trkpt lat="45.86278" lon="4.69092">
        <ele>215.29612731934</ele>
        <time>2020-08-24T20:22:41Z</time>
      </trkpt>
      <trkpt lat="45.86311" lon="4.6912">
        <ele>215.3009185791</ele>
        <time>2020-08-24T20:22:45Z</time>
      </trkpt>
      <trkpt lat="45.86367" lon="4.69209">
        <ele>218.52510070801</ele>
        <time>2020-08-24T20:22:48Z</time>
      </trkpt>
      <trkpt lat="45.8645" lon="4.69388">
        <ele>219.72160339355</ele>
        <time>2020-08-24T20:22:51Z</time>
      </trkpt>
      <trkpt lat="45.86628" lon="4.69663">
        <ele>218.13331604004</ele>
        <time>2020-08-24T20:22:55Z</time>
      </trkpt>
      <trkpt lat="45.86669" lon="4.69707">
        <ele>217.6515045166</ele>
        <time>2020-08-24T20:22:58Z</time>
      </trkpt>
      <trkpt lat="45.86833" lon="4.6986">
        <ele>217</ele>
        <time>2020-08-24T20:23:01Z</time>
      </trkpt>
      <trkpt lat="45.86961" lon="4.69965">
        <ele>217.7179107666</ele>
        <time>2020-08-24T20:23:05Z</time>
      </trkpt>
      <trkpt lat="45.86986" lon="4.70001">
        <ele>217.58848571777</ele>
        <time>2020-08-24T20:23:08Z</time>
      </trkpt>
      <trkpt lat="45.87015" lon="4.70006">
        <ele>217.87187194824</ele>
        <time>2020-08-24T20:23:12Z</time>
      </trkpt>
      <trkpt lat="45.8703" lon="4.70019">
        <ele>217.90435791016</ele>
        <time>2020-08-24T20:23:15Z</time>
      </trkpt>
      <trkpt lat="45.87122" lon="4.70184">
        <ele>217.04217529297</ele>
        <time>2020-08-24T20:23:19Z</time>
      </trkpt>
      <trkpt lat="45.87264" lon="4.70374">
        <ele>217.23951721191</ele>
        <time>2020-08-24T20:23:22Z</time>
      </trkpt>
      <trkpt lat="45.87279" lon="4.70406">
        <ele>215.52577209473</ele>
        <time>2020-08-24T20:23:26Z</time>
      </trkpt>
      <trkpt lat="45.87311" lon="4.70444">
        <ele>213.64669799805</ele>
        <time>2020-08-24T20:23:29Z</time>
      </trkpt>
      <trkpt lat="45.87413" lon="4.70608">
        <ele>210.57215881348</ele>
        <time>2020-08-24T20:23:33Z</time>
      </trkpt>
      <trkpt lat="45.87441" lon="4.70779">
        <ele>211.3525390625</ele>
        <time>2020-08-24T20:23:37Z</time>
      </trkpt>
      <trkpt lat="45.87487" lon="4.70964">
        <ele>215.67010498047</ele>
        <time>2020-08-24T20:23:40Z</time>
      </trkpt>
      <trkpt lat="45.87541" lon="4.71055">
        <ele>214.65113830566</ele>
        <time>2020-08-24T20:23:44Z</time>
      </trkpt>
      <trkpt lat="45.87574" lon="4.71083">
        <ele>216.29222106934</ele>
        <time>2020-08-24T20:23:47Z</time>
      </trkpt>
      <trkpt lat="45.87591" lon="4.71084">
        <ele>216.96170043945</ele>
        <time>2020-08-24T20:23:51Z</time>
      </trkpt>
      <trkpt lat="45.87616" lon="4.71077">
        <ele>217.60250854492</ele>
        <time>2020-08-24T20:23:55Z</time>
      </trkpt>
      <trkpt lat="45.87817" lon="4.71002">
        <ele>224.26376342773</ele>
        <time>2020-08-24T20:23:58Z</time>
      </trkpt>
      <trkpt lat="45.87918" lon="4.70943">
        <ele>224.33987426758</ele>
        <time>2020-08-24T20:24:02Z</time>
      </trkpt>
      <trkpt lat="45.88068" lon="4.70845">
        <ele>229.28927612305</ele>
        <time>2020-08-24T20:24:06Z</time>
      </trkpt>
      <trkpt lat="45.88078" lon="4.70842">
        <ele>229.51574707031</ele>
        <time>2020-08-24T20:24:10Z</time>
      </trkpt>
      <trkpt lat="45.88105" lon="4.70847">
        <ele>230.16520690918</ele>
        <time>2020-08-24T20:24:13Z</time>
      </trkpt>
      <trkpt lat="45.88127" lon="4.70812">
        <ele>231.80139160156</ele>
        <time>2020-08-24T20:24:17Z</time>
      </trkpt>
      <trkpt lat="45.88157" lon="4.70782">
        <ele>233.28440856934</ele>
        <time>2020-08-24T20:24:21Z</time>
      </trkpt>
      <trkpt lat="45.88227" lon="4.70735">
        <ele>236.5697479248</ele>
        <time>2020-08-24T20:24:25Z</time>
      </trkpt>
      <trkpt lat="45.88833" lon="4.70255">
        <ele>238.87103271484</ele>
        <time>2020-08-24T20:24:28Z</time>
      </trkpt>
      <trkpt lat="45.8915" lon="4.70068">
        <ele>230.63510131836</ele>
        <time>2020-08-24T20:24:32Z</time>
      </trkpt>
      <trkpt lat="45.89301" lon="4.70006">
        <ele>228.05058288574</ele>
        <time>2020-08-24T20:24:36Z</time>
      </trkpt>
      <trkpt lat="45.89337" lon="4.69997">
        <ele>228.73355102539</ele>
        <time>2020-08-24T20:24:40Z</time>
      </trkpt>
      <trkpt lat="45.89367" lon="4.69998">
        <ele>228.27223205566</ele>
        <time>2020-08-24T20:24:44Z</time>
      </trkpt>
      <trkpt lat="45.89761" lon="4.70069">
        <ele>221.85211181641</ele>
        <time>2020-08-24T20:24:48Z</time>
      </trkpt>
      <trkpt lat="45.90055" lon="4.7009">
        <ele>226.13090515137</ele>
        <time>2020-08-24T20:24:52Z</time>
      </trkpt>
      <trkpt lat="45.90113" lon="4.70084">
        <ele>227.0280456543</ele>
        <time>2020-08-24T20:24:57Z</time>
      </trkpt>
      <trkpt lat="45.90394" lon="4.70035">
        <ele>228.05709838867</ele>
        <time>2020-08-24T20:25:01Z</time>
      </trkpt>
      <trkpt lat="45.90457" lon="4.70031">
        <ele>227.56553649902</ele>
        <time>2020-08-24T20:25:05Z</time>
      </trkpt>
      <trkpt lat="45.90525" lon="4.70041">
        <ele>226.65620422363</ele>
        <time>2020-08-24T20:25:09Z</time>
      </trkpt>
      <trkpt lat="45.90559" lon="4.70055">
        <ele>225.76887512207</ele>
        <time>2020-08-24T20:25:13Z</time>
      </trkpt>
      <trkpt lat="45.90659" lon="4.7011">
        <ele>224.14497375488</ele>
        <time>2020-08-24T20:25:18Z</time>
      </trkpt>
      <trkpt lat="45.907" lon="4.70145">
        <ele>221.78446960449</ele>
        <time>2020-08-24T20:25:22Z</time>
      </trkpt>
      <trkpt lat="45.90933" lon="4.70133">
        <ele>221.04960632324</ele>
        <time>2020-08-24T20:25:26Z</time>
      </trkpt>
      <trkpt lat="45.90988" lon="4.70147">
        <ele>220.2462310791</ele>
        <time>2020-08-24T20:25:30Z</time>
      </trkpt>
      <trkpt lat="45.91306" lon="4.70252">
        <ele>214.86276245117</ele>
        <time>2020-08-24T20:25:35Z</time>
      </trkpt>
      <trkpt lat="45.9135" lon="4.7028">
        <ele>212.03128051758</ele>
        <time>2020-08-24T20:25:39Z</time>
      </trkpt>
      <trkpt lat="45.91588" lon="4.70471">
        <ele>203.90217590332</ele>
        <time>2020-08-24T20:25:43Z</time>
      </trkpt>
      <trkpt lat="45.91687" lon="4.70553">
        <ele>198.41485595703</ele>
        <time>2020-08-24T20:25:48Z</time>
      </trkpt>
      <trkpt lat="45.91719" lon="4.70591">
        <ele>197.03851318359</ele>
        <time>2020-08-24T20:25:52Z</time>
      </trkpt>
      <trkpt lat="45.91791" lon="4.70613">
        <ele>194.64152526855</ele>
        <time>2020-08-24T20:25:56Z</time>
      </trkpt>
      <trkpt lat="45.91855" lon="4.70617">
        <ele>195.26834106445</ele>
        <time>2020-08-24T20:26:01Z</time>
      </trkpt>
      <trkpt lat="45.91923" lon="4.70613">
        <ele>195.77833557129</ele>
        <time>2020-08-24T20:26:05Z</time>
      </trkpt>
      <trkpt lat="45.92023" lon="4.70599">
        <ele>194.66213989258</ele>
        <time>2020-08-24T20:26:10Z</time>
      </trkpt>
      <trkpt lat="45.92154" lon="4.70588">
        <ele>192.93054199219</ele>
        <time>2020-08-24T20:26:14Z</time>
      </trkpt>
      <trkpt lat="45.92231" lon="4.70599">
        <ele>197.41459655762</ele>
        <time>2020-08-24T20:26:19Z</time>
      </trkpt>
      <trkpt lat="45.92285" lon="4.70616">
        <ele>197.68240356445</ele>
        <time>2020-08-24T20:26:23Z</time>
      </trkpt>
      <trkpt lat="45.92539" lon="4.70763">
        <ele>197.90121459961</ele>
        <time>2020-08-24T20:26:28Z</time>
      </trkpt>
      <trkpt lat="45.92614" lon="4.70825">
        <ele>200.28265380859</ele>
        <time>2020-08-24T20:26:32Z</time>
      </trkpt>
      <trkpt lat="45.92643" lon="4.70862">
        <ele>201.037109375</ele>
        <time>2020-08-24T20:26:37Z</time>
      </trkpt>
      <trkpt lat="45.92711" lon="4.7091">
        <ele>197.88926696777</ele>
        <time>2020-08-24T20:26:42Z</time>
      </trkpt>
      <trkpt lat="45.92785" lon="4.7093">
        <ele>198.26573181152</ele>
        <time>2020-08-24T20:26:46Z</time>
      </trkpt>
      <trkpt lat="45.92814" lon="4.70946">
        <ele>198.08143615723</ele>
        <time>2020-08-24T20:26:51Z</time>
      </trkpt>
      <trkpt lat="45.92846" lon="4.70942">
        <ele>198.46900939941</ele>
        <time>2020-08-24T20:26:55Z</time>
      </trkpt>
      <trkpt lat="45.92964" lon="4.70969">
        <ele>199.31509399414</ele>
        <time>2020-08-24T20:27:00Z</time>
      </trkpt>
      <trkpt lat="45.93032" lon="4.70997">
        <ele>198.95231628418</ele>
        <time>2020-08-24T20:27:05Z</time>
      </trkpt>
      <trkpt lat="45.93077" lon="4.71035">
        <ele>198.04661560059</ele>
        <time>2020-08-24T20:27:09Z</time>
      </trkpt>
      <trkpt lat="45.93127" lon="4.71112">
        <ele>191.93827819824</ele>
        <time>2020-08-24T20:27:14Z</time>
      </trkpt>
      <trkpt lat="45.93441" lon="4.71813">
        <ele>180.57766723633</ele>
        <time>2020-08-24T20:27:19Z</time>
      </trkpt>
      <trkpt lat="45.93458" lon="4.71844">
        <ele>179.76469421387</ele>
        <time>2020-08-24T20:27:23Z</time>
      </trkpt>
      <trkpt lat="45.93471" lon="4.71853">
        <ele>179.13153076172</ele>
        <time>2020-08-24T20:27:28Z</time>
      </trkpt>
      <trkpt lat="45.93493" lon="4.71854">
        <ele>179.22366333008</ele>
        <time>2020-08-24T20:27:33Z</time>
      </trkpt>
      <trkpt lat="45.93586" lon="4.71835">
        <ele>178.98106384277</ele>
        <time>2020-08-24T20:27:38Z</time>
      </trkpt>
      <trkpt lat="45.93629" lon="4.71802">
        <ele>178.78546142578</ele>
        <time>2020-08-24T20:27:43Z</time>
      </trkpt>
      <trkpt lat="45.93664" lon="4.71786">
        <ele>177.84663391113</ele>
        <time>2020-08-24T20:27:47Z</time>
      </trkpt>
      <trkpt lat="45.93691" lon="4.71779">
        <ele>176.40452575684</ele>
        <time>2020-08-24T20:27:52Z</time>
      </trkpt>
      <trkpt lat="45.93719" lon="4.71777">
        <ele>175.10803222656</ele>
        <time>2020-08-24T20:27:57Z</time>
      </trkpt>
      <trkpt lat="45.93757" lon="4.71755">
        <ele>175</ele>
        <time>2020-08-24T20:28:02Z</time>
      </trkpt>
      <trkpt lat="45.93974" lon="4.71674">
        <ele>176.62362670898</ele>
        <time>2020-08-24T20:28:07Z</time>
      </trkpt>
      <trkpt lat="45.93987" lon="4.71672">
        <ele>175.99880981445</ele>
        <time>2020-08-24T20:28:12Z</time>
      </trkpt>
      <trkpt lat="45.93998" lon="4.71678">
        <ele>175.56326293945</ele>
        <time>2020-08-24T20:28:16Z</time>
      </trkpt>
      <trkpt lat="45.94014" lon="4.71707">
        <ele>175.08169555664</ele>
        <time>2020-08-24T20:28:21Z</time>
      </trkpt>
      <trkpt lat="45.94039" lon="4.71736">
        <ele>173.87289428711</ele>
        <time>2020-08-24T20:28:26Z</time>
      </trkpt>
      <trkpt lat="45.94098" lon="4.71861">
        <ele>172.03134155273</ele>
        <time>2020-08-24T20:28:31Z</time>
      </trkpt>
      <trkpt lat="45.94117" lon="4.71908">
        <ele>172.02320861816</ele>
        <time>2020-08-24T20:28:36Z</time>
      </trkpt>
      <trkpt lat="45.94124" lon="4.71951">
        <ele>172.51728820801</ele>
        <time>2020-08-24T20:28:41Z</time>
      </trkpt>
      <trkpt lat="45.94147" lon="4.71979">
        <ele>172.30023193359</ele>
        <time>2020-08-24T20:28:46Z</time>
      </trkpt>
      <trkpt lat="45.94162" lon="4.72008">
        <ele>172.64849853516</ele>
        <time>2020-08-24T20:28:51Z</time>
      </trkpt>
      <trkpt lat="45.94365" lon="4.72476">
        <ele>172.85884094238</ele>
        <time>2020-08-24T20:28:56Z</time>
      </trkpt>
      <trkpt lat="45.94388" lon="4.72546">
        <ele>173.85566711426</ele>
        <time>2020-08-24T20:29:01Z</time>
      </trkpt>
      <trkpt lat="45.94434" lon="4.72873">
        <ele>166</ele>
        <time>2020-08-24T20:29:06Z</time>
      </trkpt>
      <trkpt lat="45.94498" lon="4.73397">
        <ele>177.65605163574</ele>
        <time>2020-08-24T20:29:11Z</time>
      </trkpt>
      <trkpt lat="45.945" lon="4.73499">
        <ele>181.30558776855</ele>
        <time>2020-08-24T20:29:16Z</time>
      </trkpt>
      <trkpt lat="45.94496" lon="4.73606">
        <ele>183.57461547852</ele>
        <time>2020-08-24T20:29:21Z</time>
      </trkpt>
      <trkpt lat="45.94476" lon="4.7376">
        <ele>185.69027709961</ele>
        <time>2020-08-24T20:29:26Z</time>
      </trkpt>
      <trkpt lat="45.94478" lon="4.73771">
        <ele>185.85571289062</ele>
        <time>2020-08-24T20:29:31Z</time>
      </trkpt>
      <trkpt lat="45.94554" lon="4.73841">
        <ele>186.96195983887</ele>
        <time>2020-08-24T20:29:36Z</time>
      </trkpt>
      <trkpt lat="45.94621" lon="4.73916">
        <ele>187.3254699707</ele>
        <time>2020-08-24T20:29:42Z</time>
      </trkpt>
      <trkpt lat="45.94804" lon="4.74166">
        <ele>189.54376220703</ele>
        <time>2020-08-24T20:29:47Z</time>
      </trkpt>
      <trkpt lat="45.95089" lon="4.7471">
        <ele>194.62603759766</ele>
        <time>2020-08-24T20:29:52Z</time>
      </trkpt>
      <trkpt lat="45.95369" lon="4.75152">
        <ele>192.62661743164</ele>
        <time>2020-08-24T20:29:58Z</time>
      </trkpt>
      <trkpt lat="45.95442" lon="4.75276">
        <ele>191.70108032227</ele>
        <time>2020-08-24T20:30:03Z</time>
      </trkpt>
      <trkpt lat="45.955" lon="4.75395">
        <ele>189.93977355957</ele>
        <time>2020-08-24T20:30:08Z</time>
      </trkpt>
      <trkpt lat="45.95511" lon="4.7544">
        <ele>188.74754333496</ele>
        <time>2020-08-24T20:30:14Z</time>
      </trkpt>
      <trkpt lat="45.95508" lon="4.75468">
        <ele>187.37567138672</ele>
        <time>2020-08-24T20:30:19Z</time>
      </trkpt>
      <trkpt lat="45.95514" lon="4.75487">
        <ele>187.13522338867</ele>
        <time>2020-08-24T20:30:25Z</time>
      </trkpt>
      <trkpt lat="45.95583" lon="4.75561">
        <ele>189.37786865234</ele>
        <time>2020-08-24T20:30:30Z</time>
      </trkpt>
      <trkpt lat="45.95609" lon="4.75617">
        <ele>188.61015319824</ele>
        <time>2020-08-24T20:30:35Z</time>
      </trkpt>
      <trkpt lat="45.95654" lon="4.7586">
        <ele>186.71881103516</ele>
        <time>2020-08-24T20:30:41Z</time>
      </trkpt>
      <trkpt lat="45.95669" lon="4.75906">
        <ele>186.50846862793</ele>
        <time>2020-08-24T20:30:46Z</time>
      </trkpt>
      <trkpt lat="45.95747" lon="4.76081">
        <ele>186.58778381348</ele>
        <time>2020-08-24T20:30:52Z</time>
      </trkpt>
      <trkpt lat="45.95759" lon="4.76135">
        <ele>186.33486938477</ele>
        <time>2020-08-24T20:30:57Z</time>
      </trkpt>
      <trkpt lat="45.95773" lon="4.76391">
        <ele>185.8201751709</ele>
        <time>2020-08-24T20:31:03Z</time>
      </trkpt>
      <trkpt lat="45.9583" lon="4.76798">
        <ele>191</ele>
        <time>2020-08-24T20:31:09Z</time>
      </trkpt>
      <trkpt lat="45.95824" lon="4.76849">
        <ele>190.47212219238</ele>
        <time>2020-08-24T20:31:14Z</time>
      </trkpt>
      <trkpt lat="45.95802" lon="4.76967">
        <ele>189.94027709961</ele>
        <time>2020-08-24T20:31:20Z</time>
      </trkpt>
      <trkpt lat="45.95803" lon="4.77011">
        <ele>190.51692199707</ele>
        <time>2020-08-24T20:31:25Z</time>
      </trkpt>
      <trkpt lat="45.95845" lon="4.77131">
        <ele>194.1455078125</ele>
        <time>2020-08-24T20:31:31Z</time>
      </trkpt>
      <trkpt lat="45.95898" lon="4.7734">
        <ele>196.15335083008</ele>
        <time>2020-08-24T20:31:37Z</time>
      </trkpt>
      <trkpt lat="45.95992" lon="4.77592">
        <ele>199.90626525879</ele>
        <time>2020-08-24T20:31:42Z</time>
      </trkpt>
      <trkpt lat="45.96009" lon="4.77607">
        <ele>201.27355957031</ele>
        <time>2020-08-24T20:31:48Z</time>
      </trkpt>
      <trkpt lat="45.96066" lon="4.77684">
        <ele>202.6669921875</ele>
        <time>2020-08-24T20:31:54Z</time>
      </trkpt>
      <trkpt lat="45.96204" lon="4.7791">
        <ele>206.6097869873</ele>
        <time>2020-08-24T20:32:00Z</time>
      </trkpt>
      <trkpt lat="45.96234" lon="4.77953">
        <ele>208.98361206055</ele>
        <time>2020-08-24T20:32:05Z</time>
      </trkpt>
      <trkpt lat="45.96305" lon="4.7802">
        <ele>207.10998535156</ele>
        <time>2020-08-24T20:32:11Z</time>
      </trkpt>
      <trkpt lat="45.96393" lon="4.78116">
        <ele>204.64268493652</ele>
        <time>2020-08-24T20:32:17Z</time>
      </trkpt>
      <trkpt lat="45.96458" lon="4.78176">
        <ele>206.34065246582</ele>
        <time>2020-08-24T20:32:23Z</time>
      </trkpt>
      <trkpt lat="45.96495" lon="4.78202">
        <ele>209.10935974121</ele>
        <time>2020-08-24T20:32:28Z</time>
      </trkpt>
      <trkpt lat="45.96553" lon="4.78288">
        <ele>204.59616088867</ele>
        <time>2020-08-24T20:32:34Z</time>
      </trkpt>
      <trkpt lat="45.96751" lon="4.78483">
        <ele>205.63299560547</ele>
        <time>2020-08-24T20:32:40Z</time>
      </trkpt>
      <trkpt lat="45.96774" lon="4.78512">
        <ele>205.10079956055</ele>
        <time>2020-08-24T20:32:46Z</time>
      </trkpt>
      <trkpt lat="45.96817" lon="4.78582">
        <ele>204.48936462402</ele>
        <time>2020-08-24T20:32:52Z</time>
      </trkpt>
      <trkpt lat="45.96838" lon="4.78638">
        <ele>203.97999572754</ele>
        <time>2020-08-24T20:32:58Z</time>
      </trkpt>
      <trkpt lat="45.96914" lon="4.78798">
        <ele>203.95179748535</ele>
        <time>2020-08-24T20:33:04Z</time>
      </trkpt>
      <trkpt lat="45.96938" lon="4.78835">
        <ele>204.67797851562</ele>
        <time>2020-08-24T20:33:10Z</time>
      </trkpt>
      <trkpt lat="45.97005" lon="4.78915">
        <ele>207.11891174316</ele>
        <time>2020-08-24T20:33:16Z</time>
      </trkpt>
      <trkpt lat="45.97041" lon="4.78972">
        <ele>207.77619934082</ele>
        <time>2020-08-24T20:33:21Z</time>
      </trkpt>
      <trkpt lat="45.97083" lon="4.79111">
        <ele>206.22964477539</ele>
        <time>2020-08-24T20:33:27Z</time>
      </trkpt>
      <trkpt lat="45.97109" lon="4.7916">
        <ele>207.81405639648</ele>
        <time>2020-08-24T20:33:33Z</time>
      </trkpt>
      <trkpt lat="45.97157" lon="4.79272">
        <ele>207.43588256836</ele>
        <time>2020-08-24T20:33:39Z</time>
      </trkpt>
      <trkpt lat="45.9722" lon="4.79429">
        <ele>210.00500488281</ele>
        <time>2020-08-24T20:33:45Z</time>
      </trkpt>
      <trkpt lat="45.97241" lon="4.79492">
        <ele>212.40501403809</ele>
        <time>2020-08-24T20:33:51Z</time>
      </trkpt>
      <trkpt lat="45.97254" lon="4.79575">
        <ele>214.50338745117</ele>
        <time>2020-08-24T20:33:57Z</time>
      </trkpt>
      <trkpt lat="45.97255" lon="4.79651">
        <ele>213.98577880859</ele>
        <time>2020-08-24T20:34:03Z</time>
      </trkpt>
      <trkpt lat="45.97241" lon="4.79753">
        <ele>210.52285766602</ele>
        <time>2020-08-24T20:34:10Z</time>
      </trkpt>
      <trkpt lat="45.97238" lon="4.79812">
        <ele>210.7919921875</ele>
        <time>2020-08-24T20:34:16Z</time>
      </trkpt>
      <trkpt lat="45.97239" lon="4.79849">
        <ele>212.22113037109</ele>
        <time>2020-08-24T20:34:22Z</time>
      </trkpt>
      <trkpt lat="45.97252" lon="4.79903">
        <ele>212.32844543457</ele>
        <time>2020-08-24T20:34:28Z</time>
      </trkpt>
      <trkpt lat="45.97251" lon="4.79913">
        <ele>212.31356811523</ele>
        <time>2020-08-24T20:34:34Z</time>
      </trkpt>
      <trkpt lat="45.97193" lon="4.79928">
        <ele>210.92185974121</ele>
        <time>2020-08-24T20:34:40Z</time>
      </trkpt>
      <trkpt lat="45.97143" lon="4.79934">
        <ele>209.77549743652</ele>
        <time>2020-08-24T20:34:46Z</time>
      </trkpt>
      <trkpt lat="45.97068" lon="4.79961">
        <ele>210.87655639648</ele>
        <time>2020-08-24T20:34:52Z</time>
      </trkpt>
      <trkpt lat="45.9696" lon="4.79944">
        <ele>213.51029968262</ele>
        <time>2020-08-24T20:34:58Z</time>
      </trkpt>
      <trkpt lat="45.96953" lon="4.79947">
        <ele>213.40048217773</ele>
        <time>2020-08-24T20:35:04Z</time>
      </trkpt>
      <trkpt lat="45.9695" lon="4.79957">
        <ele>213.40769958496</ele>
        <time>2020-08-24T20:35:10Z</time>
      </trkpt>
      <trkpt lat="45.96954" lon="4.79973">
        <ele>213.50625610352</ele>
        <time>2020-08-24T20:35:17Z</time>
      </trkpt>
      <trkpt lat="45.96986" lon="4.80021">
        <ele>213.86471557617</ele>
        <time>2020-08-24T20:35:23Z</time>
      </trkpt>
      <trkpt lat="45.97019" lon="4.8005">
        <ele>213.75419616699</ele>
        <time>2020-08-24T20:35:29Z</time>
      </trkpt>
      <trkpt lat="45.97029" lon="4.80079">
        <ele>214.33485412598</ele>
        <time>2020-08-24T20:35:35Z</time>
      </trkpt>
      <trkpt lat="45.97119" lon="4.80212">
        <ele>215.34410095215</ele>
        <time>2020-08-24T20:35:41Z</time>
      </trkpt>
      <trkpt lat="45.97152" lon="4.80288">
        <ele>217.57876586914</ele>
        <time>2020-08-24T20:35:47Z</time>
      </trkpt>
      <trkpt lat="45.97211" lon="4.80471">
        <ele>221.76135253906</ele>
        <time>2020-08-24T20:35:53Z</time>
      </trkpt>
      <trkpt lat="45.97238" lon="4.80577">
        <ele>225.2886505127</ele>
        <time>2020-08-24T20:36:00Z</time>
      </trkpt>
      <trkpt lat="45.97247" lon="4.80692">
        <ele>226.4748840332</ele>
        <time>2020-08-24T20:36:06Z</time>
      </trkpt>
      <trkpt lat="45.97248" lon="4.80799">
        <ele>227.24194335938</ele>
        <time>2020-08-24T20:36:12Z</time>
      </trkpt>
      <trkpt lat="45.97254" lon="4.80829">
        <ele>227.51696777344</ele>
        <time>2020-08-24T20:36:18Z</time>
      </trkpt>
      <trkpt lat="45.97269" lon="4.80844">
        <ele>227.32791137695</ele>
        <time>2020-08-24T20:36:25Z</time>
      </trkpt>
      <trkpt lat="45.97316" lon="4.80865">
        <ele>226.94235229492</ele>
        <time>2020-08-24T20:36:31Z</time>
      </trkpt>
      <trkpt lat="45.97335" lon="4.80888">
        <ele>228.04078674316</ele>
        <time>2020-08-24T20:36:37Z</time>
      </trkpt>
      <trkpt lat="45.97346" lon="4.80921">
        <ele>229.20988464355</ele>
        <time>2020-08-24T20:36:43Z</time>
      </trkpt>
      <trkpt lat="45.97366" lon="4.81046">
        <ele>232.98123168945</ele>
        <time>2020-08-24T20:36:50Z</time>
      </trkpt>
      <trkpt lat="45.97384" lon="4.81102">
        <ele>235.20294189453</ele>
        <time>2020-08-24T20:36:56Z</time>
      </trkpt>
      <trkpt lat="45.97388" lon="4.81246">
        <ele>237.87678527832</ele>
        <time>2020-08-24T20:37:02Z</time>
      </trkpt>
      <trkpt lat="45.97378" lon="4.81349">
        <ele>239.29490661621</ele>
        <time>2020-08-24T20:37:09Z</time>
      </trkpt>
      <trkpt lat="45.97388" lon="4.81399">
        <ele>240.18583679199</ele>
        <time>2020-08-24T20:37:15Z</time>
      </trkpt>
      <trkpt lat="45.97421" lon="4.81454">
        <ele>241.70422363281</ele>
        <time>2020-08-24T20:37:21Z</time>
      </trkpt>
      <trkpt lat="45.97432" lon="4.81499">
        <ele>243.98031616211</ele>
        <time>2020-08-24T20:37:28Z</time>
      </trkpt>
      <trkpt lat="45.97435" lon="4.81774">
        <ele>251.2600402832</ele>
        <time>2020-08-24T20:37:34Z</time>
      </trkpt>
      <trkpt lat="45.97462" lon="4.8206">
        <ele>257.02874755859</ele>
        <time>2020-08-24T20:37:40Z</time>
      </trkpt>
      <trkpt lat="45.97449" lon="4.82114">
        <ele>259.41802978516</ele>
        <time>2020-08-24T20:37:47Z</time>
      </trkpt>
      <trkpt lat="45.97403" lon="4.82184">
        <ele>260.62866210938</ele>
        <time>2020-08-24T20:37:53Z</time>
      </trkpt>
      <trkpt lat="45.97385" lon="4.82227">
        <ele>261.65274047852</ele>
        <time>2020-08-24T20:38:00Z</time>
      </trkpt>
      <trkpt lat="45.97378" lon="4.8236">
        <ele>263.14193725586</ele>
        <time>2020-08-24T20:38:06Z</time>
      </trkpt>
      <trkpt lat="45.97378" lon="4.82473">
        <ele>262.6198425293</ele>
        <time>2020-08-24T20:38:13Z</time>
      </trkpt>
      <trkpt lat="45.97394" lon="4.82627">
        <ele>262.0885925293</ele>
        <time>2020-08-24T20:38:19Z</time>
      </trkpt>
      <trkpt lat="45.97451" lon="4.82975">
        <ele>268.89007568359</ele>
        <time>2020-08-24T20:38:26Z</time>
      </trkpt>
      <trkpt lat="45.97532" lon="4.83257">
        <ele>275.22680664062</ele>
        <time>2020-08-24T20:38:32Z</time>
      </trkpt>
      <trkpt lat="45.97539" lon="4.83398">
        <ele>276.22393798828</ele>
        <time>2020-08-24T20:38:39Z</time>
      </trkpt>
      <trkpt lat="45.97537" lon="4.83607">
        <ele>275.31832885742</ele>
        <time>2020-08-24T20:38:45Z</time>
      </trkpt>
      <trkpt lat="45.97543" lon="4.83776">
        <ele>278.01843261719</ele>
        <time>2020-08-24T20:38:52Z</time>
      </trkpt>
      <trkpt lat="45.97541" lon="4.83829">
        <ele>278.20263671875</ele>
        <time>2020-08-24T20:38:59Z</time>
      </trkpt>
      <trkpt lat="45.97478" lon="4.84162">
        <ele>277.96179199219</ele>
        <time>2020-08-24T20:39:05Z</time>
      </trkpt>
      <trkpt lat="45.97427" lon="4.8456">
        <ele>276.72213745117</ele>
        <time>2020-08-24T20:39:12Z</time>
      </trkpt>
      <trkpt lat="45.97408" lon="4.84662">
        <ele>276.60363769531</ele>
        <time>2020-08-24T20:39:19Z</time>
      </trkpt>
      <trkpt lat="45.97383" lon="4.84739">
        <ele>277.19659423828</ele>
        <time>2020-08-24T20:39:25Z</time>
      </trkpt>
      <trkpt lat="45.97341" lon="4.84843">
        <ele>277.55230712891</ele>
        <time>2020-08-24T20:39:32Z</time>
      </trkpt>
      <trkpt lat="45.97271" lon="4.84966">
        <ele>278.32104492188</ele>
        <time>2020-08-24T20:39:39Z</time>
      </trkpt>
      <trkpt lat="45.97112" lon="4.85301">
        <ele>279.05480957031</ele>
        <time>2020-08-24T20:39:46Z</time>
      </trkpt>
      <trkpt lat="45.97025" lon="4.85566">
        <ele>281.64938354492</ele>
        <time>2020-08-24T20:39:53Z</time>
      </trkpt>
      <trkpt lat="45.96915" lon="4.85983">
        <ele>286.3567199707</ele>
        <time>2020-08-24T20:40:00Z</time>
      </trkpt>
      <trkpt lat="45.96858" lon="4.86405">
        <ele>289.18450927734</ele>
        <time>2020-08-24T20:40:07Z</time>
      </trkpt>
      <trkpt lat="45.96836" lon="4.86495">
        <ele>289.59658813477</ele>
        <time>2020-08-24T20:40:14Z</time>
      </trkpt>
      <trkpt lat="45.96531" lon="4.87009">
        <ele>283.69052124023</ele>
        <time>2020-08-24T20:40:21Z</time>
      </trkpt>
      <trkpt lat="45.96252" lon="4.87368">
        <ele>283.33404541016</ele>
        <time>2020-08-24T20:40:28Z</time>
      </trkpt>
      <trkpt lat="45.95958" lon="4.87707">
        <ele>289.59243774414</ele>
        <time>2020-08-24T20:40:35Z</time>
      </trkpt>
      <trkpt lat="45.95887" lon="4.87813">
        <ele>288.14627075195</ele>
        <time>2020-08-24T20:40:42Z</time>
      </trkpt>
      <trkpt lat="45.95867" lon="4.87831">
        <ele>287.61248779297</ele>
        <time>2020-08-24T20:40:49Z</time>
      </trkpt>
      <trkpt lat="45.95837" lon="4.87843">
        <ele>287.27764892578</ele>
        <time>2020-08-24T20:40:57Z</time>
      </trkpt>
      <trkpt lat="45.95833" lon="4.87851">
        <ele>287.51547241211</ele>
        <time>2020-08-24T20:41:04Z</time>
      </trkpt>
      <trkpt lat="45.95868" lon="4.88559">
        <ele>288.20550537109</ele>
        <time>2020-08-24T20:41:11Z</time>
      </trkpt>
      <trkpt lat="45.9588" lon="4.88954">
        <ele>288.96694946289</ele>
        <time>2020-08-24T20:41:18Z</time>
      </trkpt>
      <trkpt lat="45.95895" lon="4.8905">
        <ele>289.72213745117</ele>
        <time>2020-08-24T20:41:26Z</time>
      </trkpt>
      <trkpt lat="45.95892" lon="4.89073">
        <ele>289.57540893555</ele>
        <time>2020-08-24T20:41:33Z</time>
      </trkpt>
      <trkpt lat="45.95876" lon="4.89108">
        <ele>289.00759887695</ele>
        <time>2020-08-24T20:41:41Z</time>
      </trkpt>
      <trkpt lat="45.95875" lon="4.89126">
        <ele>288.77658081055</ele>
        <time>2020-08-24T20:41:48Z</time>
      </trkpt>
      <trkpt lat="45.95882" lon="4.89246">
        <ele>288.47018432617</ele>
        <time>2020-08-24T20:41:55Z</time>
      </trkpt>
      <trkpt lat="45.95891" lon="4.90209">
        <ele>289.09994506836</ele>
        <time>2020-08-24T20:42:03Z</time>
      </trkpt>
      <trkpt lat="45.95835" lon="4.91709">
        <ele>301.36184692383</ele>
        <time>2020-08-24T20:42:10Z</time>
      </trkpt>
      <trkpt lat="45.95825" lon="4.91744">
        <ele>302.08801269531</ele>
        <time>2020-08-24T20:42:18Z</time>
      </trkpt>
      <trkpt lat="45.95716" lon="4.91929">
        <ele>299.49810791016</ele>
        <time>2020-08-24T20:42:26Z</time>
      </trkpt>
      <trkpt lat="45.95678" lon="4.92007">
        <ele>299.43795776367</ele>
        <time>2020-08-24T20:42:34Z</time>
      </trkpt>
      <trkpt lat="45.95666" lon="4.92059">
        <ele>299.81533813477</ele>
        <time>2020-08-24T20:42:41Z</time>
      </trkpt>
      <trkpt lat="45.95658" lon="4.92151">
        <ele>299.1540222168</ele>
        <time>2020-08-24T20:42:49Z</time>
      </trkpt>
      <trkpt lat="45.95645" lon="4.92392">
        <ele>293.16098022461</ele>
        <time>2020-08-24T20:42:57Z</time>
      </trkpt>
      <trkpt lat="45.95612" lon="4.92627">
        <ele>293.76824951172</ele>
        <time>2020-08-24T20:43:05Z</time>
      </trkpt>
      <trkpt lat="45.95554" lon="4.92971">
        <ele>293.54595947266</ele>
        <time>2020-08-24T20:43:13Z</time>
      </trkpt>
      <trkpt lat="45.95544" lon="4.93066">
        <ele>291.07934570312</ele>
        <time>2020-08-24T20:43:20Z</time>
      </trkpt>
      <trkpt lat="45.9553" lon="4.93105">
        <ele>290</ele>
        <time>2020-08-24T20:43:28Z</time>
      </trkpt>
      <trkpt lat="45.95502" lon="4.93134">
        <ele>289.74819946289</ele>
        <time>2020-08-24T20:43:36Z</time>
      </trkpt>
      <trkpt lat="45.95455" lon="4.93173">
        <ele>289.63909912109</ele>
        <time>2020-08-24T20:43:44Z</time>
      </trkpt>
      <trkpt lat="45.95445" lon="4.93194">
        <ele>289.88208007812</ele>
        <time>2020-08-24T20:43:52Z</time>
      </trkpt>
      <trkpt lat="45.95449" lon="4.93219">
        <ele>289.9035949707</ele>
        <time>2020-08-24T20:44:00Z</time>
      </trkpt>
      <trkpt lat="45.95555" lon="4.93472">
        <ele>289.1819152832</ele>
        <time>2020-08-24T20:44:08Z</time>
      </trkpt>
      <trkpt lat="45.95571" lon="4.93524">
        <ele>289.49243164062</ele>
        <time>2020-08-24T20:44:16Z</time>
      </trkpt>
      <trkpt lat="45.95558" lon="4.93717">
        <ele>288.10247802734</ele>
        <time>2020-08-24T20:44:24Z</time>
      </trkpt>
      <trkpt lat="45.95561" lon="4.93782">
        <ele>288.77828979492</ele>
        <time>2020-08-24T20:44:32Z</time>
      </trkpt>
      <trkpt lat="45.95556" lon="4.93799">
        <ele>289.16204833984</ele>
        <time>2020-08-24T20:44:40Z</time>
      </trkpt>
      <trkpt lat="45.95537" lon="4.93823">
        <ele>290.12417602539</ele>
        <time>2020-08-24T20:44:47Z</time>
      </trkpt>
      <trkpt lat="45.95531" lon="4.93841">
        <ele>290.56335449219</ele>
        <time>2020-08-24T20:44:55Z</time>
      </trkpt>
      <trkpt lat="45.95525" lon="4.93988">
        <ele>290.9599609375</ele>
        <time>2020-08-24T20:45:03Z</time>
      </trkpt>
      <trkpt lat="45.95512" lon="4.93995">
        <ele>290.81500244141</ele>
        <time>2020-08-24T20:45:11Z</time>
      </trkpt>
      <trkpt lat="45.95483" lon="4.93988">
        <ele>289.43121337891</ele>
        <time>2020-08-24T20:45:19Z</time>
      </trkpt>
      <trkpt lat="45.9546" lon="4.9399">
        <ele>288.8317565918</ele>
        <time>2020-08-24T20:45:27Z</time>
      </trkpt>
      <trkpt lat="45.95365" lon="4.94018">
        <ele>289.11737060547</ele>
        <time>2020-08-24T20:45:35Z</time>
      </trkpt>
      <trkpt lat="45.9531" lon="4.94023">
        <ele>287.84710693359</ele>
        <time>2020-08-24T20:45:43Z</time>
      </trkpt>
      <trkpt lat="45.95297" lon="4.94035">
        <ele>288.12194824219</ele>
        <time>2020-08-24T20:45:52Z</time>
      </trkpt>
      <trkpt lat="45.9524" lon="4.94198">
        <ele>288.69583129883</ele>
        <time>2020-08-24T20:46:00Z</time>
      </trkpt>
      <trkpt lat="45.95225" lon="4.94338">
        <ele>287.98931884766</ele>
        <time>2020-08-24T20:46:08Z</time>
      </trkpt>
      <trkpt lat="45.95191" lon="4.94441">
        <ele>289.20651245117</ele>
        <time>2020-08-24T20:46:16Z</time>
      </trkpt>
      <trkpt lat="45.95176" lon="4.94609">
        <ele>289.42669677734</ele>
        <time>2020-08-24T20:46:24Z</time>
      </trkpt>
      <trkpt lat="45.95148" lon="4.94675">
        <ele>289.44915771484</ele>
        <time>2020-08-24T20:46:32Z</time>
      </trkpt>
      <trkpt lat="45.9515" lon="4.94695">
        <ele>289.61590576172</ele>
        <time>2020-08-24T20:46:40Z</time>
      </trkpt>
      <trkpt lat="45.95194" lon="4.94751">
        <ele>287.17926025391</ele>
        <time>2020-08-24T20:46:48Z</time>
      </trkpt>
      <trkpt lat="45.95199" lon="4.94773">
        <ele>286.4176940918</ele>
        <time>2020-08-24T20:46:56Z</time>
      </trkpt>
      <trkpt lat="45.95187" lon="4.94785">
        <ele>286.85754394531</ele>
        <time>2020-08-24T20:47:04Z</time>
      </trkpt>
      <trkpt lat="45.95131" lon="4.94814">
        <ele>288.83413696289</ele>
        <time>2020-08-24T20:47:13Z</time>
      </trkpt>
      <trkpt lat="45.95099" lon="4.94842">
        <ele>289.01214599609</ele>
        <time>2020-08-24T20:47:21Z</time>
      </trkpt>
      <trkpt lat="45.95008" lon="4.94951">
        <ele>288.55621337891</ele>
        <time>2020-08-24T20:47:29Z</time>
      </trkpt>
      <trkpt lat="45.94994" lon="4.94978">
        <ele>288.24530029297</ele>
        <time>2020-08-24T20:47:37Z</time>
      </trkpt>
      <trkpt lat="45.95004" lon="4.95053">
        <ele>289.28128051758</ele>
        <time>2020-08-24T20:47:45Z</time>
      </trkpt>
      <trkpt lat="45.95" lon="4.95178">
        <ele>290</ele>
        <time>2020-08-24T20:47:53Z</time>
      </trkpt>
      <trkpt lat="45.95015" lon="4.95327">
        <ele>288.53369140625</ele>
        <time>2020-08-24T20:48:02Z</time>
      </trkpt>
      <trkpt lat="45.95016" lon="4.95524">
        <ele>287.7004699707</ele>
        <time>2020-08-24T20:48:10Z</time>
      </trkpt>
      <trkpt lat="45.95027" lon="4.95572">
        <ele>286.98895263672</ele>
        <time>2020-08-24T20:48:18Z</time>
      </trkpt>
      <trkpt lat="45.95063" lon="4.95672">
        <ele>285.79287719727</ele>
        <time>2020-08-24T20:48:26Z</time>
      </trkpt>
      <trkpt lat="45.95093" lon="4.95776">
        <ele>284.72485351562</ele>
        <time>2020-08-24T20:48:35Z</time>
      </trkpt>
      <trkpt lat="45.95156" lon="4.96044">
        <ele>285.06295776367</ele>
        <time>2020-08-24T20:48:43Z</time>
      </trkpt>
      <trkpt lat="45.95163" lon="4.96099">
        <ele>285.97064208984</ele>
        <time>2020-08-24T20:48:51Z</time>
      </trkpt>
      <trkpt lat="45.95162" lon="4.96189">
        <ele>286</ele>
        <time>2020-08-24T20:49:00Z</time>
      </trkpt>
      <trkpt lat="45.95155" lon="4.96252">
        <ele>285.82916259766</ele>
        <time>2020-08-24T20:49:08Z</time>
      </trkpt>
      <trkpt lat="45.95053" lon="4.96548">
        <ele>287.89028930664</ele>
        <time>2020-08-24T20:49:16Z</time>
      </trkpt>
      <trkpt lat="45.95044" lon="4.96596">
        <ele>287.66943359375</ele>
        <time>2020-08-24T20:49:25Z</time>
      </trkpt>
      <trkpt lat="45.95039" lon="4.96663">
        <ele>287.32595825195</ele>
        <time>2020-08-24T20:49:33Z</time>
      </trkpt>
      <trkpt lat="45.95073" lon="4.97527">
        <ele>285.79290771484</ele>
        <time>2020-08-24T20:49:42Z</time>
      </trkpt>
      <trkpt lat="45.95063" lon="4.97806">
        <ele>286.86190795898</ele>
        <time>2020-08-24T20:49:50Z</time>
      </trkpt>
      <trkpt lat="45.95091" lon="4.97938">
        <ele>286.5387878418</ele>
        <time>2020-08-24T20:49:59Z</time>
      </trkpt>
      <trkpt lat="45.95097" lon="4.98032">
        <ele>287.47113037109</ele>
        <time>2020-08-24T20:50:07Z</time>
      </trkpt>
      <trkpt lat="45.95081" lon="4.98165">
        <ele>287.15057373047</ele>
        <time>2020-08-24T20:50:16Z</time>
      </trkpt>
      <trkpt lat="45.95041" lon="4.9829">
        <ele>287.02062988281</ele>
        <time>2020-08-24T20:50:24Z</time>
      </trkpt>
      <trkpt lat="45.94886" lon="4.986">
        <ele>290.8681640625</ele>
        <time>2020-08-24T20:50:33Z</time>
      </trkpt>
      <trkpt lat="45.94841" lon="4.98638">
        <ele>293.10534667969</ele>
        <time>2020-08-24T20:50:42Z</time>
      </trkpt>
      <trkpt lat="45.94833" lon="4.98687">
        <ele>293.69198608398</ele>
        <time>2020-08-24T20:50:50Z</time>
      </trkpt>
      <trkpt lat="45.94817" lon="4.98735">
        <ele>294.20703125</ele>
        <time>2020-08-24T20:50:59Z</time>
      </trkpt>
      <trkpt lat="45.94798" lon="4.98916">
        <ele>293.66189575195</ele>
        <time>2020-08-24T20:51:08Z</time>
      </trkpt>
      <trkpt lat="45.94792" lon="4.99022">
        <ele>291.07971191406</ele>
        <time>2020-08-24T20:51:16Z</time>
      </trkpt>
      <trkpt lat="45.94818" lon="4.99581">
        <ele>289.59893798828</ele>
        <time>2020-08-24T20:51:25Z</time>
      </trkpt>
      <trkpt lat="45.94898" lon="4.99872">
        <ele>286.17782592773</ele>
        <time>2020-08-24T20:51:34Z</time>
      </trkpt>
      <trkpt lat="45.95102" lon="5.00577">
        <ele>284.57666015625</ele>
        <time>2020-08-24T20:51:43Z</time>
      </trkpt>
      <trkpt lat="45.95208" lon="5.01334">
        <ele>282.5852355957</ele>
        <time>2020-08-24T20:51:52Z</time>
      </trkpt>
      <trkpt lat="45.95274" lon="5.01865">
        <ele>282.52963256836</ele>
        <time>2020-08-24T20:52:01Z</time>
      </trkpt>
      <trkpt lat="45.95293" lon="5.01944">
        <ele>282.17272949219</ele>
        <time>2020-08-24T20:52:10Z</time>
      </trkpt>
      <trkpt lat="45.95401" lon="5.0225">
        <ele>279.97790527344</ele>
        <time>2020-08-24T20:52:19Z</time>
      </trkpt>
      <trkpt lat="45.95413" lon="5.02303">
        <ele>281.92367553711</ele>
        <time>2020-08-24T20:52:28Z</time>
      </trkpt>
      <trkpt lat="45.95414" lon="5.0238">
        <ele>279</ele>
        <time>2020-08-24T20:52:37Z</time>
      </trkpt>
      <trkpt lat="45.95361" lon="5.03663">
        <ele>285.35894775391</ele>
        <time>2020-08-24T20:52:46Z</time>
      </trkpt>
      <trkpt lat="45.95326" lon="5.03941">
        <ele>283.53015136719</ele>
        <time>2020-08-24T20:52:56Z</time>
      </trkpt>
      <trkpt lat="45.95334" lon="5.0395">
        <ele>282.95147705078</ele>
        <time>2020-08-24T20:53:05Z</time>
      </trkpt>
      <trkpt lat="45.95359" lon="5.03952">
        <ele>281.71551513672</ele>
        <time>2020-08-24T20:53:14Z</time>
      </trkpt>
      <trkpt lat="45.95778" lon="5.03939">
        <ele>281.59490966797</ele>
        <time>2020-08-24T20:53:24Z</time>
      </trkpt>
      <trkpt lat="45.95859" lon="5.03944">
        <ele>283.46835327148</ele>
        <time>2020-08-24T20:53:33Z</time>
      </trkpt>
      <trkpt lat="45.96245" lon="5.04026">
        <ele>278.75064086914</ele>
        <time>2020-08-24T20:53:42Z</time>
      </trkpt>
      <trkpt lat="45.96307" lon="5.04041">
        <ele>278.00543212891</ele>
        <time>2020-08-24T20:53:52Z</time>
      </trkpt>
      <trkpt lat="45.96319" lon="5.04052">
        <ele>277.86001586914</ele>
        <time>2020-08-24T20:54:01Z</time>
      </trkpt>
      <trkpt lat="45.96325" lon="5.04089">
        <ele>277.78750610352</ele>
        <time>2020-08-24T20:54:11Z</time>
      </trkpt>
      <trkpt lat="45.96322" lon="5.0416">
        <ele>278.06076049805</ele>
        <time>2020-08-24T20:54:20Z</time>
      </trkpt>
      <trkpt lat="45.96276" lon="5.04726">
        <ele>278.14349365234</ele>
        <time>2020-08-24T20:54:30Z</time>
      </trkpt>
      <trkpt lat="45.96276" lon="5.04787">
        <ele>278.47326660156</ele>
        <time>2020-08-24T20:54:39Z</time>
      </trkpt>
      <trkpt lat="45.96282" lon="5.04848">
        <ele>278.23620605469</ele>
        <time>2020-08-24T20:54:49Z</time>
      </trkpt>
      <trkpt lat="45.96585" lon="5.06546">
        <ele>280.42816162109</ele>
        <time>2020-08-24T20:54:59Z</time>
      </trkpt>
      <trkpt lat="45.96911" lon="5.08318">
        <ele>281.52722167969</ele>
        <time>2020-08-24T20:55:09Z</time>
      </trkpt>
      <trkpt lat="45.96931" lon="5.08403">
        <ele>279.62268066406</ele>
        <time>2020-08-24T20:55:19Z</time>
      </trkpt>
      <trkpt lat="45.96959" lon="5.08467">
        <ele>278.12826538086</ele>
        <time>2020-08-24T20:55:29Z</time>
      </trkpt>
      <trkpt lat="45.96997" lon="5.08518">
        <ele>277</ele>
        <time>2020-08-24T20:55:39Z</time>
      </trkpt>
      <trkpt lat="45.97634" lon="5.09144">
        <ele>281.39163208008</ele>
        <time>2020-08-24T20:55:49Z</time>
      </trkpt>
      <trkpt lat="45.97662" lon="5.09177">
        <ele>280.53866577148</ele>
        <time>2020-08-24T20:55:59Z</time>
      </trkpt>
      <trkpt lat="45.97905" lon="5.099">
        <ele>281.82467651367</ele>
        <time>2020-08-24T20:56:10Z</time>
      </trkpt>
      <trkpt lat="45.98023" lon="5.10219">
        <ele>285.89663696289</ele>
        <time>2020-08-24T20:56:20Z</time>
      </trkpt>
      <trkpt lat="45.9803" lon="5.10282">
        <ele>286.71911621094</ele>
        <time>2020-08-24T20:56:30Z</time>
      </trkpt>
      <trkpt lat="45.98016" lon="5.10428">
        <ele>289.34231567383</ele>
        <time>2020-08-24T20:56:40Z</time>
      </trkpt>
      <trkpt lat="45.98019" lon="5.10482">
        <ele>289.72250366211</ele>
        <time>2020-08-24T20:56:51Z</time>
      </trkpt>
      <trkpt lat="45.98029" lon="5.10514">
        <ele>291.22436523438</ele>
        <time>2020-08-24T20:57:01Z</time>
      </trkpt>
      <trkpt lat="45.98062" lon="5.10557">
        <ele>293.61135864258</ele>
        <time>2020-08-24T20:57:12Z</time>
      </trkpt>
      <trkpt lat="45.98133" lon="5.10618">
        <ele>293.14770507812</ele>
        <time>2020-08-24T20:57:22Z</time>
      </trkpt>
      <trkpt lat="45.98256" lon="5.10706">
        <ele>288.39007568359</ele>
        <time>2020-08-24T20:57:32Z</time>
      </trkpt>
      <trkpt lat="45.9847" lon="5.10875">
        <ele>282.03329467773</ele>
        <time>2020-08-24T20:57:43Z</time>
      </trkpt>
      <trkpt lat="45.98497" lon="5.10903">
        <ele>282.31951904297</ele>
        <time>2020-08-24T20:57:53Z</time>
      </trkpt>
      <trkpt lat="45.98517" lon="5.10938">
        <ele>282.73397827148</ele>
        <time>2020-08-24T20:58:04Z</time>
      </trkpt>
      <trkpt lat="45.98559" lon="5.11043">
        <ele>283.94058227539</ele>
        <time>2020-08-24T20:58:14Z</time>
      </trkpt>
      <trkpt lat="45.98579" lon="5.11112">
        <ele>283.18161010742</ele>
        <time>2020-08-24T20:58:25Z</time>
      </trkpt>
      <trkpt lat="45.98588" lon="5.11323">
        <ele>283.00140380859</ele>
        <time>2020-08-24T20:58:35Z</time>
      </trkpt>
      <trkpt lat="45.98611" lon="5.11419">
        <ele>284.25115966797</ele>
        <time>2020-08-24T20:58:46Z</time>
      </trkpt>
      <trkpt lat="45.9884" lon="5.12156">
        <ele>289</ele>
        <time>2020-08-24T20:58:56Z</time>
      </trkpt>
      <trkpt lat="45.989" lon="5.12334">
        <ele>289.51675415039</ele>
        <time>2020-08-24T20:59:07Z</time>
      </trkpt>
      <trkpt lat="45.98922" lon="5.12381">
        <ele>288.89852905273</ele>
        <time>2020-08-24T20:59:17Z</time>
      </trkpt>
      <trkpt lat="45.98967" lon="5.12453">
        <ele>287.19909667969</ele>
        <time>2020-08-24T20:59:28Z</time>
      </trkpt>
      <trkpt lat="45.99353" lon="5.12995">
        <ele>285</ele>
        <time>2020-08-24T20:59:39Z</time>
      </trkpt>
      <trkpt lat="45.99471" lon="5.13168">
        <ele>284.35693359375</ele>
        <time>2020-08-24T20:59:50Z</time>
      </trkpt>
      <trkpt lat="45.99492" lon="5.13212">
        <ele>283.98486328125</ele>
        <time>2020-08-24T21:00:00Z</time>
      </trkpt>
      <trkpt lat="45.99601" lon="5.13501">
        <ele>284.03720092773</ele>
        <time>2020-08-24T21:00:11Z</time>
      </trkpt>
      <trkpt lat="45.99652" lon="5.13675">
        <ele>285.44052124023</ele>
        <time>2020-08-24T21:00:22Z</time>
      </trkpt>
      <trkpt lat="45.99666" lon="5.13748">
        <ele>285.09606933594</ele>
        <time>2020-08-24T21:00:33Z</time>
      </trkpt>
      <trkpt lat="45.99734" lon="5.14288">
        <ele>286.47900390625</ele>
        <time>2020-08-24T21:00:44Z</time>
      </trkpt>
      <trkpt lat="45.9976" lon="5.1453">
        <ele>288.16253662109</ele>
        <time>2020-08-24T21:00:55Z</time>
      </trkpt>
      <trkpt lat="45.99778" lon="5.15071">
        <ele>289.58212280273</ele>
        <time>2020-08-24T21:01:06Z</time>
      </trkpt>
      <trkpt lat="45.9979" lon="5.15128">
        <ele>291</ele>
        <time>2020-08-24T21:01:17Z</time>
      </trkpt>
      <trkpt lat="45.99858" lon="5.15314">
        <ele>288.83093261719</ele>
        <time>2020-08-24T21:01:28Z</time>
      </trkpt>
      <trkpt lat="45.99872" lon="5.15365">
        <ele>289.52798461914</ele>
        <time>2020-08-24T21:01:39Z</time>
      </trkpt>
      <trkpt lat="45.999" lon="5.15563">
        <ele>289.52307128906</ele>
        <time>2020-08-24T21:01:50Z</time>
      </trkpt>
      <trkpt lat="45.99904" lon="5.15619">
        <ele>289.72421264648</ele>
        <time>2020-08-24T21:02:01Z</time>
      </trkpt>
      <trkpt lat="45.99901" lon="5.15659">
        <ele>289.46633911133</ele>
        <time>2020-08-24T21:02:12Z</time>
      </trkpt>
      <trkpt lat="45.99826" lon="5.1616">
        <ele>295.73782348633</ele>
        <time>2020-08-24T21:02:23Z</time>
      </trkpt>
      <trkpt lat="45.99829" lon="5.16264">
        <ele>298.5085144043</ele>
        <time>2020-08-24T21:02:34Z</time>
      </trkpt>
      <trkpt lat="45.99868" lon="5.16428">
        <ele>299.4772644043</ele>
        <time>2020-08-24T21:02:46Z</time>
      </trkpt>
      <trkpt lat="45.99868" lon="5.1647">
        <ele>301.07434082031</ele>
        <time>2020-08-24T21:02:57Z</time>
      </trkpt>
      <trkpt lat="45.9986" lon="5.165">
        <ele>303.70162963867</ele>
        <time>2020-08-24T21:03:08Z</time>
      </trkpt>
      <trkpt lat="45.99816" lon="5.16584">
        <ele>305.29205322266</ele>
        <time>2020-08-24T21:03:19Z</time>
      </trkpt>
      <trkpt lat="45.998" lon="5.16632">
        <ele>304.61026000977</ele>
        <time>2020-08-24T21:03:30Z</time>
      </trkpt>
      <trkpt lat="45.99715" lon="5.17029">
        <ele>297.40048217773</ele>
        <time>2020-08-24T21:03:42Z</time>
      </trkpt>
      <trkpt lat="45.99682" lon="5.1714">
        <ele>295.47933959961</ele>
        <time>2020-08-24T21:03:53Z</time>
      </trkpt>
      <trkpt lat="45.99689" lon="5.17168">
        <ele>295.57015991211</ele>
        <time>2020-08-24T21:04:04Z</time>
      </trkpt>
      <trkpt lat="45.99733" lon="5.17266">
        <ele>295.75164794922</ele>
        <time>2020-08-24T21:04:16Z</time>
      </trkpt>
      <trkpt lat="45.99841" lon="5.17377">
        <ele>291.88668823242</ele>
        <time>2020-08-24T21:04:27Z</time>
      </trkpt>
      <trkpt lat="45.99878" lon="5.17445">
        <ele>288.64743041992</ele>
        <time>2020-08-24T21:04:38Z</time>
      </trkpt>
      <trkpt lat="45.99884" lon="5.17481">
        <ele>287.66705322266</ele>
        <time>2020-08-24T21:04:50Z</time>
      </trkpt>
      <trkpt lat="45.99901" lon="5.17507">
        <ele>287.57000732422</ele>
        <time>2020-08-24T21:05:01Z</time>
      </trkpt>
      <trkpt lat="45.99912" lon="5.17533">
        <ele>287.38131713867</ele>
        <time>2020-08-24T21:05:12Z</time>
      </trkpt>
      <trkpt lat="46.00144" lon="5.18178">
        <ele>288</ele>
        <time>2020-08-24T21:05:24Z</time>
      </trkpt>
      <trkpt lat="46.00282" lon="5.18532">
        <ele>290.02365112305</ele>
        <time>2020-08-24T21:05:35Z</time>
      </trkpt>
      <trkpt lat="46.00275" lon="5.18564">
        <ele>290.63217163086</ele>
        <time>2020-08-24T21:05:47Z</time>
      </trkpt>
      <trkpt lat="46.00208" lon="5.18711">
        <ele>298.59167480469</ele>
        <time>2020-08-24T21:05:58Z</time>
      </trkpt>
      <trkpt lat="46.00176" lon="5.18876">
        <ele>300.43948364258</ele>
        <time>2020-08-24T21:06:10Z</time>
      </trkpt>
      <trkpt lat="46.00154" lon="5.19213">
        <ele>302.89144897461</ele>
        <time>2020-08-24T21:06:21Z</time>
      </trkpt>
      <trkpt lat="46.00126" lon="5.19521">
        <ele>307.37789916992</ele>
        <time>2020-08-24T21:06:33Z</time>
      </trkpt>
      <trkpt lat="46.00128" lon="5.19654">
        <ele>307</ele>
        <time>2020-08-24T21:06:44Z</time>
      </trkpt>
      <trkpt lat="46.00118" lon="5.19832">
        <ele>306.84027099609</ele>
        <time>2020-08-24T21:06:56Z</time>
      </trkpt>
      <trkpt lat="46.00123" lon="5.20033">
        <ele>309.48693847656</ele>
        <time>2020-08-24T21:07:08Z</time>
      </trkpt>
      <trkpt lat="46.00121" lon="5.20188">
        <ele>309.78213500977</ele>
        <time>2020-08-24T21:07:19Z</time>
      </trkpt>
      <trkpt lat="46.00097" lon="5.20262">
        <ele>309.93200683594</ele>
        <time>2020-08-24T21:07:31Z</time>
      </trkpt>
      <trkpt lat="46.00009" lon="5.20483">
        <ele>311.22235107422</ele>
        <time>2020-08-24T21:07:43Z</time>
      </trkpt>
      <trkpt lat="45.99981" lon="5.20595">
        <ele>313.25854492188</ele>
        <time>2020-08-24T21:07:54Z</time>
      </trkpt>
      <trkpt lat="45.9997" lon="5.20877">
        <ele>321.42349243164</ele>
        <time>2020-08-24T21:08:06Z</time>
      </trkpt>
      <trkpt lat="45.99922" lon="5.21275">
        <ele>314.96896362305</ele>
        <time>2020-08-24T21:08:18Z</time>
      </trkpt>
      <trkpt lat="45.99918" lon="5.21812">
        <ele>320.04901123047</ele>
        <time>2020-08-24T21:08:30Z</time>
      </trkpt>
      <trkpt lat="45.99935" lon="5.21909">
        <ele>320.23980712891</ele>
        <time>2020-08-24T21:08:42Z</time>
      </trkpt>
      <trkpt lat="46.00079" lon="5.22272">
        <ele>311.97998046875</ele>
        <time>2020-08-24T21:08:54Z</time>
      </trkpt>
      <trkpt lat="46.0011" lon="5.22375">
        <ele>312.04132080078</ele>
        <time>2020-08-24T21:09:06Z</time>
      </trkpt>
      <trkpt lat="46.00128" lon="5.22461">
        <ele>313.9801940918</ele>
        <time>2020-08-24T21:09:18Z</time>
      </trkpt>
      <trkpt lat="46.00148" lon="5.22497">
        <ele>314.84423828125</ele>
        <time>2020-08-24T21:09:30Z</time>
      </trkpt>
      <trkpt lat="46.00205" lon="5.22558">
        <ele>316</ele>
        <time>2020-08-24T21:09:42Z</time>
      </trkpt>
      <trkpt lat="46.0022" lon="5.22586">
        <ele>316</ele>
        <time>2020-08-24T21:09:54Z</time>
      </trkpt>
      <trkpt lat="46.00273" lon="5.22885">
        <ele>319.4990234375</ele>
        <time>2020-08-24T21:10:06Z</time>
      </trkpt>
      <trkpt lat="46.00343" lon="5.23024">
        <ele>320.50402832031</ele>
        <time>2020-08-24T21:10:18Z</time>
      </trkpt>
      <trkpt lat="46.00421" lon="5.23248">
        <ele>317.21334838867</ele>
        <time>2020-08-24T21:10:30Z</time>
      </trkpt>
      <trkpt lat="46.00436" lon="5.23298">
        <ele>316.37683105469</ele>
        <time>2020-08-24T21:10:42Z</time>
      </trkpt>
      <trkpt lat="46.00453" lon="5.23407">
        <ele>311.26272583008</ele>
        <time>2020-08-24T21:10:54Z</time>
      </trkpt>
      <trkpt lat="46.00468" lon="5.23455">
        <ele>309.34869384766</ele>
        <time>2020-08-24T21:11:06Z</time>
      </trkpt>
      <trkpt lat="46.00585" lon="5.23739">
        <ele>307.67590332031</ele>
        <time>2020-08-24T21:11:18Z</time>
      </trkpt>
      <trkpt lat="46.00654" lon="5.23838">
        <ele>307.85494995117</ele>
        <time>2020-08-24T21:11:30Z</time>
      </trkpt>
      <trkpt lat="46.00674" lon="5.23885">
        <ele>308.55014038086</ele>
        <time>2020-08-24T21:11:43Z</time>
      </trkpt>
      <trkpt lat="46.00852" lon="5.24809">
        <ele>303.89114379883</ele>
        <time>2020-08-24T21:11:55Z</time>
      </trkpt>
      <trkpt lat="46.00866" lon="5.24917">
        <ele>301.23751831055</ele>
        <time>2020-08-24T21:12:07Z</time>
      </trkpt>
      <trkpt lat="46.00875" lon="5.25069">
        <ele>295.28311157227</ele>
        <time>2020-08-24T21:12:20Z</time>
      </trkpt>
      <trkpt lat="46.00872" lon="5.25165">
        <ele>291.07070922852</ele>
        <time>2020-08-24T21:12:32Z</time>
      </trkpt>
      <trkpt lat="46.00855" lon="5.25244">
        <ele>286.27862548828</ele>
        <time>2020-08-24T21:12:44Z</time>
      </trkpt>
      <trkpt lat="46.00812" lon="5.25321">
        <ele>283.09240722656</ele>
        <time>2020-08-24T21:12:57Z</time>
      </trkpt>
      <trkpt lat="46.00754" lon="5.25392">
        <ele>280.08343505859</ele>
        <time>2020-08-24T21:13:09Z</time>
      </trkpt>
      <trkpt lat="46.00728" lon="5.25435">
        <ele>280.32620239258</ele>
        <time>2020-08-24T21:13:21Z</time>
      </trkpt>
      <trkpt lat="46.0069" lon="5.25526">
        <ele>275.86486816406</ele>
        <time>2020-08-24T21:13:34Z</time>
      </trkpt>
      <trkpt lat="46.00645" lon="5.25615">
        <ele>269.41943359375</ele>
        <time>2020-08-24T21:13:46Z</time>
      </trkpt>
      <trkpt lat="46.00629" lon="5.25675">
        <ele>268.53372192383</ele>
        <time>2020-08-24T21:13:58Z</time>
      </trkpt>
      <trkpt lat="46.00623" lon="5.25848">
        <ele>261.10705566406</ele>
        <time>2020-08-24T21:14:11Z</time>
      </trkpt>
      <trkpt lat="46.00632" lon="5.26032">
        <ele>265.16625976562</ele>
        <time>2020-08-24T21:14:23Z</time>
      </trkpt>
      <trkpt lat="46.00623" lon="5.2631">
        <ele>258.3359375</ele>
        <time>2020-08-24T21:14:36Z</time>
      </trkpt>
      <trkpt lat="46.00633" lon="5.26442">
        <ele>262.73345947266</ele>
        <time>2020-08-24T21:14:48Z</time>
      </trkpt>
      <trkpt lat="46.00623" lon="5.26661">
        <ele>257.30529785156</ele>
        <time>2020-08-24T21:15:01Z</time>
      </trkpt>
      <trkpt lat="46.00628" lon="5.26863">
        <ele>262.33743286133</ele>
        <time>2020-08-24T21:15:13Z</time>
      </trkpt>
      <trkpt lat="46.00638" lon="5.27022">
        <ele>263.66775512695</ele>
        <time>2020-08-24T21:15:26Z</time>
      </trkpt>
      <trkpt lat="46.00636" lon="5.27064">
        <ele>264.28042602539</ele>
        <time>2020-08-24T21:15:39Z</time>
      </trkpt>
      <trkpt lat="46.00628" lon="5.27131">
        <ele>264.86798095703</ele>
        <time>2020-08-24T21:15:51Z</time>
      </trkpt>
      <trkpt lat="46.00611" lon="5.27203">
        <ele>264.95083618164</ele>
        <time>2020-08-24T21:16:04Z</time>
      </trkpt>
      <trkpt lat="46.00604" lon="5.27311">
        <ele>260.89797973633</ele>
        <time>2020-08-24T21:16:16Z</time>
      </trkpt>
      <trkpt lat="46.00578" lon="5.27519">
        <ele>255.01312255859</ele>
        <time>2020-08-24T21:16:29Z</time>
      </trkpt>
      <trkpt lat="46.0057" lon="5.27707">
        <ele>251.03135681152</ele>
        <time>2020-08-24T21:16:42Z</time>
      </trkpt>
      <trkpt lat="46.00516" lon="5.27894">
        <ele>250.62554931641</ele>
        <time>2020-08-24T21:16:54Z</time>
      </trkpt>
      <trkpt lat="46.00493" lon="5.28041">
        <ele>249.0676574707</ele>
        <time>2020-08-24T21:17:07Z</time>
      </trkpt>
      <trkpt lat="46.00453" lon="5.28137">
        <ele>247.88893127441</ele>
        <time>2020-08-24T21:17:20Z</time>
      </trkpt>
      <trkpt lat="46.00442" lon="5.28175">
        <ele>248.72402954102</ele>
        <time>2020-08-24T21:17:32Z</time>
      </trkpt>
      <trkpt lat="46.00449" lon="5.2852">
        <ele>255.42091369629</ele>
        <time>2020-08-24T21:17:45Z</time>
      </trkpt>
      <trkpt lat="46.00456" lon="5.28598">
        <ele>254.13848876953</ele>
        <time>2020-08-24T21:17:58Z</time>
      </trkpt>
      <trkpt lat="46.00449" lon="5.28671">
        <ele>248.14392089844</ele>
        <time>2020-08-24T21:18:11Z</time>
      </trkpt>
      <trkpt lat="46.00388" lon="5.28801">
        <ele>238.79032897949</ele>
        <time>2020-08-24T21:18:23Z</time>
      </trkpt>
      <trkpt lat="46.00365" lon="5.28817">
        <ele>237.86331176758</ele>
        <time>2020-08-24T21:18:36Z</time>
      </trkpt>
      <trkpt lat="46.00337" lon="5.28812">
        <ele>237.31159973145</ele>
        <time>2020-08-24T21:18:49Z</time>
      </trkpt>
      <trkpt lat="46.00323" lon="5.28858">
        <ele>236.43725585938</ele>
        <time>2020-08-24T21:19:02Z</time>
      </trkpt>
      <trkpt lat="46.00298" lon="5.28906">
        <ele>235.69058227539</ele>
        <time>2020-08-24T21:19:15Z</time>
      </trkpt>
      <trkpt lat="46.00431" lon="5.29095">
        <ele>241.19264221191</ele>
        <time>2020-08-24T21:19:28Z</time>
      </trkpt>
      <trkpt lat="46.00425" lon="5.29342">
        <ele>238.46440124512</ele>
        <time>2020-08-24T21:19:40Z</time>
      </trkpt>
      <trkpt lat="46.00409" lon="5.29378">
        <ele>233.81602478027</ele>
        <time>2020-08-24T21:19:53Z</time>
      </trkpt>
      <trkpt lat="46.00289" lon="5.29546">
        <ele>230.99447631836</ele>
        <time>2020-08-24T21:20:06Z</time>
      </trkpt>
      <trkpt lat="46.00272" lon="5.29589">
        <ele>231.50303649902</ele>
        <time>2020-08-24T21:20:19Z</time>
      </trkpt>
      <trkpt lat="46.00268" lon="5.29641">
        <ele>232.13479614258</ele>
        <time>2020-08-24T21:20:32Z</time>
      </trkpt>
      <trkpt lat="46.00275" lon="5.29674">
        <ele>232.52751159668</ele>
        <time>2020-08-24T21:20:45Z</time>
      </trkpt>
      <trkpt lat="46.00298" lon="5.29736">
        <ele>232.73948669434</ele>
        <time>2020-08-24T21:20:58Z</time>
      </trkpt>
      <trkpt lat="46.00607" lon="5.30551">
        <ele>231.58052062988</ele>
        <time>2020-08-24T21:21:11Z</time>
      </trkpt>
      <trkpt lat="46.00661" lon="5.30673">
        <ele>231.48420715332</ele>
        <time>2020-08-24T21:21:24Z</time>
      </trkpt>
      <trkpt lat="46.00742" lon="5.30823">
        <ele>230.19802856445</ele>
        <time>2020-08-24T21:21:37Z</time>
      </trkpt>
      <trkpt lat="46.00757" lon="5.30865">
        <ele>230.38026428223</ele>
        <time>2020-08-24T21:21:50Z</time>
      </trkpt>
      <trkpt lat="46.00769" lon="5.30949">
        <ele>231.35461425781</ele>
        <time>2020-08-24T21:22:03Z</time>
      </trkpt>
      <trkpt lat="46.00767" lon="5.31069">
        <ele>230.76599121094</ele>
        <time>2020-08-24T21:22:16Z</time>
      </trkpt>
      <trkpt lat="46.00772" lon="5.3132">
        <ele>229.72273254395</ele>
        <time>2020-08-24T21:22:30Z</time>
      </trkpt>
      <trkpt lat="46.00767" lon="5.31414">
        <ele>229.32023620605</ele>
        <time>2020-08-24T21:22:43Z</time>
      </trkpt>
      <trkpt lat="46.00741" lon="5.31636">
        <ele>230.3773651123</ele>
        <time>2020-08-24T21:22:56Z</time>
      </trkpt>
      <trkpt lat="46.00742" lon="5.31678">
        <ele>231.14389038086</ele>
        <time>2020-08-24T21:23:09Z</time>
      </trkpt>
      <trkpt lat="46.00756" lon="5.31715">
        <ele>232</ele>
        <time>2020-08-24T21:23:22Z</time>
      </trkpt>
      <trkpt lat="46.008" lon="5.31775">
        <ele>232</ele>
        <time>2020-08-24T21:23:35Z</time>
      </trkpt>
      <trkpt lat="46.00853" lon="5.31874">
        <ele>232</ele>
        <time>2020-08-24T21:23:49Z</time>
      </trkpt>
      <trkpt lat="46.00957" lon="5.32088">
        <ele>232.77935791016</ele>
        <time>2020-08-24T21:24:02Z</time>
      </trkpt>
      <trkpt lat="46.01002" lon="5.32158">
        <ele>233.62915039062</ele>
        <time>2020-08-24T21:24:15Z</time>
      </trkpt>
      <trkpt lat="46.01068" lon="5.32308">
        <ele>233.95568847656</ele>
        <time>2020-08-24T21:24:29Z</time>
      </trkpt>
      <trkpt lat="46.01096" lon="5.32404">
        <ele>232.61685180664</ele>
        <time>2020-08-24T21:24:42Z</time>
      </trkpt>
      <trkpt lat="46.01146" lon="5.32639">
        <ele>233.94850158691</ele>
        <time>2020-08-24T21:24:55Z</time>
      </trkpt>
      <trkpt lat="46.01191" lon="5.32904">
        <ele>235</ele>
        <time>2020-08-24T21:25:09Z</time>
      </trkpt>
      <trkpt lat="46.01198" lon="5.32985">
        <ele>235.2593536377</ele>
        <time>2020-08-24T21:25:22Z</time>
      </trkpt>
      <trkpt lat="46.01182" lon="5.3348">
        <ele>237.7135925293</ele>
        <time>2020-08-24T21:25:35Z</time>
      </trkpt>
      <trkpt lat="46.01173" lon="5.33577">
        <ele>238.98947143555</ele>
        <time>2020-08-24T21:25:49Z</time>
      </trkpt>
      <trkpt lat="46.01016" lon="5.33991">
        <ele>239.3540802002</ele>
        <time>2020-08-24T21:26:02Z</time>
      </trkpt>
      <trkpt lat="46.00986" lon="5.3403">
        <ele>239.08268737793</ele>
        <time>2020-08-24T21:26:16Z</time>
      </trkpt>
      <trkpt lat="46.00966" lon="5.34072">
        <ele>239.4044342041</ele>
        <time>2020-08-24T21:26:29Z</time>
      </trkpt>
      <trkpt lat="46.00963" lon="5.34087">
        <ele>239.62216186523</ele>
        <time>2020-08-24T21:26:43Z</time>
      </trkpt>
      <trkpt lat="46.00967" lon="5.34129">
        <ele>239.93092346191</ele>
        <time>2020-08-24T21:26:56Z</time>
      </trkpt>
      <trkpt lat="46.00964" lon="5.34155">
        <ele>239.57220458984</ele>
        <time>2020-08-24T21:27:10Z</time>
      </trkpt>
      <trkpt lat="46.00928" lon="5.34265">
        <ele>239.61036682129</ele>
        <time>2020-08-24T21:27:23Z</time>
      </trkpt>
      <trkpt lat="46.00815" lon="5.3452">
        <ele>240.57098388672</ele>
        <time>2020-08-24T21:27:37Z</time>
      </trkpt>
      <trkpt lat="46.00687" lon="5.34779">
        <ele>241</ele>
        <time>2020-08-24T21:27:51Z</time>
      </trkpt>
      <trkpt lat="46.00607" lon="5.34999">
        <ele>245.48892211914</ele>
        <time>2020-08-24T21:28:04Z</time>
      </trkpt>
      <trkpt lat="46.00535" lon="5.35179">
        <ele>245.58912658691</ele>
        <time>2020-08-24T21:28:18Z</time>
      </trkpt>
      <trkpt lat="46.00496" lon="5.35331">
        <ele>242.64329528809</ele>
        <time>2020-08-24T21:28:32Z</time>
      </trkpt>
      <trkpt lat="46.00484" lon="5.35372">
        <ele>243.58540344238</ele>
        <time>2020-08-24T21:28:45Z</time>
      </trkpt>
      <trkpt lat="46.00464" lon="5.35414">
        <ele>244.52947998047</ele>
        <time>2020-08-24T21:28:59Z</time>
      </trkpt>
      <trkpt lat="46.00461" lon="5.35438">
        <ele>244.85290527344</ele>
        <time>2020-08-24T21:29:13Z</time>
      </trkpt>
      <trkpt lat="46.00492" lon="5.35578">
        <ele>246.23851013184</ele>
        <time>2020-08-24T21:29:26Z</time>
      </trkpt>
      <trkpt lat="46.00554" lon="5.35733">
        <ele>247.97563171387</ele>
        <time>2020-08-24T21:29:40Z</time>
      </trkpt>
      <trkpt lat="46.00559" lon="5.35782">
        <ele>249.41258239746</ele>
        <time>2020-08-24T21:29:54Z</time>
      </trkpt>
      <trkpt lat="46.00559" lon="5.35795">
        <ele>248.78515625</ele>
      </trkpt>
      <trkpt lat="46.00555" lon="5.35818">
        <ele>248.93359375</ele>
      </trkpt>
      <trkpt lat="46.00551" lon="5.35837">
        <ele>249.2421875</ele>
      </trkpt>
      <trkpt lat="46.00545" lon="5.35855">
        <ele>249.8125</ele>
      </trkpt>
      <trkpt lat="46.00538" lon="5.3588">
        <ele>250.35546875</ele>
      </trkpt>
      <trkpt lat="46.00535" lon="5.35889">
        <ele>250.671875</ele>
      </trkpt>
      <trkpt lat="46.0053" lon="5.35895">
        <ele>250.828125</ele>
      </trkpt>
      <trkpt lat="46.00525" lon="5.359">
        <ele>251.14453125</ele>
      </trkpt>
      <trkpt lat="46.00506" lon="5.35914">
        <ele>252.1484375</ele>
      </trkpt>
      <trkpt lat="46.00491" lon="5.35928">
        <ele>253.109375</ele>
      </trkpt>
      <trkpt lat="46.0048" lon="5.3594">
        <ele>254.171875</ele>
      </trkpt>
      <trkpt lat="46.00475" lon="5.35949">
        <ele>254.8046875</ele>
      </trkpt>
      <trkpt lat="46.00473" lon="5.35955">
        <ele>255.19140625</ele>
      </trkpt>
      <trkpt lat="46.00471" lon="5.35963">
        <ele>255.73828125</ele>
      </trkpt>
      <trkpt lat="46.0047" lon="5.35977">
        <ele>256.5390625</ele>
      </trkpt>
      <trkpt lat="46.00468" lon="5.35991">
        <ele>257.3203125</ele>
      </trkpt>
      <trkpt lat="46.00474" lon="5.35994">
        <ele>257.5390625</ele>
      </trkpt>
      <trkpt lat="46.00486" lon="5.35997">
        <ele>257.66015625</ele>
      </trkpt>
      <trkpt lat="46.00509" lon="5.36005">
        <ele>257.20703125</ele>
      </trkpt>
      <trkpt lat="46.00519" lon="5.36008">
        <ele>257.0234375</ele>
      </trkpt>
      <trkpt lat="46.00542" lon="5.3602">
        <ele>257.6640625</ele>
      </trkpt>
      <trkpt lat="46.00547" lon="5.36023">
        <ele>258.04296875</ele>
      </trkpt>
      <trkpt lat="46.0056" lon="5.36025">
        <ele>258.5859375</ele>
      </trkpt>
      <trkpt lat="46.00582" lon="5.36028">
        <ele>259.421875</ele>
      </trkpt>
      <trkpt lat="46.00643" lon="5.36035">
        <ele>261.11328125</ele>
      </trkpt>
      <trkpt lat="46.00664" lon="5.36035">
        <ele>261.09375</ele>
      </trkpt>
      <trkpt lat="46.00677" lon="5.36036">
        <ele>260.87890625</ele>
      </trkpt>
      <trkpt lat="46.00692" lon="5.36039">
        <ele>260.359375</ele>
      </trkpt>
      <trkpt lat="46.00701" lon="5.36043">
        <ele>260.10546875</ele>
      </trkpt>
      <trkpt lat="46.00707" lon="5.36045">
        <ele>259.93359375</ele>
      </trkpt>
      <trkpt lat="46.00713" lon="5.36049">
        <ele>259.734375</ele>
      </trkpt>
      <trkpt lat="46.00746" lon="5.3607">
        <ele>258.80859375</ele>
      </trkpt>
      <trkpt lat="46.0078" lon="5.36092">
        <ele>257.16015625</ele>
      </trkpt>
      <trkpt lat="46.00793" lon="5.361">
        <ele>256.46484375</ele>
      </trkpt>
      <trkpt lat="46.008" lon="5.36106">
        <ele>256.2734375</ele>
      </trkpt>
      <trkpt lat="46.00808" lon="5.36112">
        <ele>256.0234375</ele>
      </trkpt>
      <trkpt lat="46.00814" lon="5.36118">
        <ele>255.83984375</ele>
      </trkpt>
      <trkpt lat="46.0082" lon="5.36125">
        <ele>255.6328125</ele>
      </trkpt>
      <trkpt lat="46.00841" lon="5.36152">
        <ele>254.453125</ele>
      </trkpt>
      <trkpt lat="46.00871" lon="5.36189">
        <ele>253.140625</ele>
      </trkpt>
      <trkpt lat="46.00882" lon="5.36197">
        <ele>252.421875</ele>
      </trkpt>
      <trkpt lat="46.00882" lon="5.36197">
        <ele>252.421875</ele>
      </trkpt>
      <trkpt lat="46.00902" lon="5.36225">
        <ele>250.62113952637</ele>
        <time>2020-08-24T21:38:56Z</time>
      </trkpt>
      <trkpt lat="46.0186" lon="5.37502">
        <ele>259.58786010742</ele>
        <time>2020-08-24T21:39:10Z</time>
      </trkpt>
      <trkpt lat="46.0273" lon="5.38686">
        <ele>257.65805053711</ele>
        <time>2020-08-24T21:39:24Z</time>
      </trkpt>
      <trkpt lat="46.02796" lon="5.38785">
        <ele>258.8415222168</ele>
        <time>2020-08-24T21:39:39Z</time>
      </trkpt>
      <trkpt lat="46.02862" lon="5.38859">
        <ele>259.63912963867</ele>
        <time>2020-08-24T21:39:53Z</time>
      </trkpt>
      <trkpt lat="46.02921" lon="5.38961">
        <ele>262.51382446289</ele>
        <time>2020-08-24T21:40:08Z</time>
      </trkpt>
      <trkpt lat="46.0296" lon="5.39006">
        <ele>262.68222045898</ele>
        <time>2020-08-24T21:40:22Z</time>
      </trkpt>
      <trkpt lat="46.02953" lon="5.39199">
        <ele>264.90863037109</ele>
        <time>2020-08-24T21:40:37Z</time>
      </trkpt>
      <trkpt lat="46.02957" lon="5.39238">
        <ele>263.65951538086</ele>
        <time>2020-08-24T21:40:51Z</time>
      </trkpt>
      <trkpt lat="46.02971" lon="5.39275">
        <ele>262.07681274414</ele>
        <time>2020-08-24T21:41:06Z</time>
      </trkpt>
      <trkpt lat="46.02992" lon="5.39288">
        <ele>261.10565185547</ele>
        <time>2020-08-24T21:41:20Z</time>
      </trkpt>
      <trkpt lat="46.03042" lon="5.39288">
        <ele>259.87350463867</ele>
        <time>2020-08-24T21:41:35Z</time>
      </trkpt>
      <trkpt lat="46.03129" lon="5.39301">
        <ele>260.67932128906</ele>
        <time>2020-08-24T21:41:49Z</time>
      </trkpt>
      <trkpt lat="46.03165" lon="5.39322">
        <ele>261.54336547852</ele>
        <time>2020-08-24T21:42:04Z</time>
      </trkpt>
      <trkpt lat="46.03186" lon="5.39348">
        <ele>262.04156494141</ele>
        <time>2020-08-24T21:42:18Z</time>
      </trkpt>
      <trkpt lat="46.03245" lon="5.39488">
        <ele>264.96051025391</ele>
        <time>2020-08-24T21:42:33Z</time>
      </trkpt>
      <trkpt lat="46.03298" lon="5.39595">
        <ele>264.86465454102</ele>
        <time>2020-08-24T21:42:47Z</time>
      </trkpt>
      <trkpt lat="46.03311" lon="5.39632">
        <ele>265.0068359375</ele>
        <time>2020-08-24T21:43:02Z</time>
      </trkpt>
      <trkpt lat="46.03393" lon="5.3997">
        <ele>267.13021850586</ele>
        <time>2020-08-24T21:43:17Z</time>
      </trkpt>
      <trkpt lat="46.03435" lon="5.40278">
        <ele>273.70706176758</ele>
        <time>2020-08-24T21:43:31Z</time>
      </trkpt>
      <trkpt lat="46.03456" lon="5.40325">
        <ele>274.99185180664</ele>
        <time>2020-08-24T21:43:46Z</time>
      </trkpt>
      <trkpt lat="46.0349" lon="5.40367">
        <ele>275.59085083008</ele>
        <time>2020-08-24T21:44:01Z</time>
      </trkpt>
      <trkpt lat="46.03519" lon="5.40418">
        <ele>276.67172241211</ele>
        <time>2020-08-24T21:44:15Z</time>
      </trkpt>
      <trkpt lat="46.03537" lon="5.40473">
        <ele>277.81192016602</ele>
        <time>2020-08-24T21:44:30Z</time>
      </trkpt>
      <trkpt lat="46.03554" lon="5.4063">
        <ele>277.14657592773</ele>
        <time>2020-08-24T21:44:45Z</time>
      </trkpt>
      <trkpt lat="46.03559" lon="5.40772">
        <ele>277.0068359375</ele>
        <time>2020-08-24T21:45:00Z</time>
      </trkpt>
      <trkpt lat="46.03559" lon="5.41092">
        <ele>279.54788208008</ele>
        <time>2020-08-24T21:45:14Z</time>
      </trkpt>
      <trkpt lat="46.03616" lon="5.41392">
        <ele>294.51452636719</ele>
        <time>2020-08-24T21:45:29Z</time>
      </trkpt>
      <trkpt lat="46.03622" lon="5.41453">
        <ele>300.62255859375</ele>
        <time>2020-08-24T21:45:44Z</time>
      </trkpt>
      <trkpt lat="46.03619" lon="5.41489">
        <ele>301.29190063477</ele>
        <time>2020-08-24T21:45:59Z</time>
      </trkpt>
      <trkpt lat="46.03603" lon="5.41534">
        <ele>299.95660400391</ele>
        <time>2020-08-24T21:46:14Z</time>
      </trkpt>
      <trkpt lat="46.03556" lon="5.41641">
        <ele>300.47576904297</ele>
        <time>2020-08-24T21:46:29Z</time>
      </trkpt>
      <trkpt lat="46.03494" lon="5.41755">
        <ele>308.93432617188</ele>
        <time>2020-08-24T21:46:43Z</time>
      </trkpt>
      <trkpt lat="46.03451" lon="5.41871">
        <ele>315.79644775391</ele>
        <time>2020-08-24T21:46:58Z</time>
      </trkpt>
      <trkpt lat="46.03438" lon="5.41895">
        <ele>312.01782226562</ele>
        <time>2020-08-24T21:47:13Z</time>
      </trkpt>
      <trkpt lat="46.03377" lon="5.41973">
        <ele>297.80020141602</ele>
        <time>2020-08-24T21:47:28Z</time>
      </trkpt>
      <trkpt lat="46.03306" lon="5.42135">
        <ele>296.74493408203</ele>
        <time>2020-08-24T21:47:43Z</time>
      </trkpt>
      <trkpt lat="46.03281" lon="5.42225">
        <ele>298.5910949707</ele>
        <time>2020-08-24T21:47:58Z</time>
      </trkpt>
      <trkpt lat="46.03263" lon="5.42381">
        <ele>304.32427978516</ele>
        <time>2020-08-24T21:48:13Z</time>
      </trkpt>
      <trkpt lat="46.03254" lon="5.42422">
        <ele>304.0869140625</ele>
        <time>2020-08-24T21:48:28Z</time>
      </trkpt>
      <trkpt lat="46.03123" lon="5.42798">
        <ele>306.01528930664</ele>
        <time>2020-08-24T21:48:43Z</time>
      </trkpt>
      <trkpt lat="46.03073" lon="5.42919">
        <ele>306.49908447266</ele>
        <time>2020-08-24T21:48:58Z</time>
      </trkpt>
      <trkpt lat="46.0304" lon="5.43101">
        <ele>323.46762084961</ele>
        <time>2020-08-24T21:49:13Z</time>
      </trkpt>
      <trkpt lat="46.02989" lon="5.43278">
        <ele>323.38034057617</ele>
        <time>2020-08-24T21:49:28Z</time>
      </trkpt>
      <trkpt lat="46.02984" lon="5.43319">
        <ele>319.6589050293</ele>
        <time>2020-08-24T21:49:43Z</time>
      </trkpt>
      <trkpt lat="46.02997" lon="5.43367">
        <ele>322.16580200195</ele>
        <time>2020-08-24T21:49:58Z</time>
      </trkpt>
      <trkpt lat="46.0302" lon="5.43399">
        <ele>323.78927612305</ele>
        <time>2020-08-24T21:50:13Z</time>
      </trkpt>
      <trkpt lat="46.03069" lon="5.43443">
        <ele>327.8815612793</ele>
        <time>2020-08-24T21:50:28Z</time>
      </trkpt>
      <trkpt lat="46.03092" lon="5.43485">
        <ele>328.92794799805</ele>
        <time>2020-08-24T21:50:44Z</time>
      </trkpt>
      <trkpt lat="46.03116" lon="5.43619">
        <ele>325.81884765625</ele>
        <time>2020-08-24T21:50:59Z</time>
      </trkpt>
      <trkpt lat="46.03136" lon="5.43687">
        <ele>328.21002197266</ele>
        <time>2020-08-24T21:51:14Z</time>
      </trkpt>
      <trkpt lat="46.03121" lon="5.43701">
        <ele>328.69216918945</ele>
        <time>2020-08-24T21:51:29Z</time>
      </trkpt>
      <trkpt lat="46.0307" lon="5.43715">
        <ele>339.94982910156</ele>
        <time>2020-08-24T21:51:44Z</time>
      </trkpt>
      <trkpt lat="46.03032" lon="5.43731">
        <ele>347.74127197266</ele>
        <time>2020-08-24T21:51:59Z</time>
      </trkpt>
      <trkpt lat="46.02946" lon="5.43798">
        <ele>374.98709106445</ele>
        <time>2020-08-24T21:52:14Z</time>
      </trkpt>
      <trkpt lat="46.02868" lon="5.43815">
        <ele>367.55679321289</ele>
        <time>2020-08-24T21:52:30Z</time>
      </trkpt>
      <trkpt lat="46.02834" lon="5.43839">
        <ele>369.89788818359</ele>
        <time>2020-08-24T21:52:45Z</time>
      </trkpt>
      <trkpt lat="46.02797" lon="5.4388">
        <ele>363.23779296875</ele>
        <time>2020-08-24T21:53:00Z</time>
      </trkpt>
      <trkpt lat="46.0278" lon="5.4391">
        <ele>363.93920898438</ele>
        <time>2020-08-24T21:53:15Z</time>
      </trkpt>
      <trkpt lat="46.02754" lon="5.44027">
        <ele>357.95678710938</ele>
        <time>2020-08-24T21:53:30Z</time>
      </trkpt>
      <trkpt lat="46.02738" lon="5.44065">
        <ele>355.88571166992</ele>
        <time>2020-08-24T21:53:46Z</time>
      </trkpt>
      <trkpt lat="46.02697" lon="5.44108">
        <ele>359.68453979492</ele>
        <time>2020-08-24T21:54:01Z</time>
      </trkpt>
      <trkpt lat="46.0263" lon="5.44154">
        <ele>360.07864379883</ele>
        <time>2020-08-24T21:54:16Z</time>
      </trkpt>
      <trkpt lat="46.02605" lon="5.44186">
        <ele>364.14266967773</ele>
        <time>2020-08-24T21:54:31Z</time>
      </trkpt>
      <trkpt lat="46.02527" lon="5.44422">
        <ele>383.90530395508</ele>
        <time>2020-08-24T21:54:47Z</time>
      </trkpt>
      <trkpt lat="46.02492" lon="5.44479">
        <ele>376.15692138672</ele>
        <time>2020-08-24T21:55:02Z</time>
      </trkpt>
      <trkpt lat="46.02458" lon="5.44574">
        <ele>386.45330810547</ele>
        <time>2020-08-24T21:55:17Z</time>
      </trkpt>
      <trkpt lat="46.02447" lon="5.44621">
        <ele>385.27447509766</ele>
        <time>2020-08-24T21:55:33Z</time>
      </trkpt>
      <trkpt lat="46.02432" lon="5.44848">
        <ele>393.45230102539</ele>
        <time>2020-08-24T21:55:48Z</time>
      </trkpt>
      <trkpt lat="46.0242" lon="5.44942">
        <ele>393.84283447266</ele>
        <time>2020-08-24T21:56:03Z</time>
      </trkpt>
      <trkpt lat="46.02413" lon="5.44959">
        <ele>392.42764282227</ele>
        <time>2020-08-24T21:56:19Z</time>
      </trkpt>
      <trkpt lat="46.02382" lon="5.45005">
        <ele>382.80523681641</ele>
        <time>2020-08-24T21:56:34Z</time>
      </trkpt>
      <trkpt lat="46.024" lon="5.45081">
        <ele>390.75912475586</ele>
        <time>2020-08-24T21:56:49Z</time>
      </trkpt>
      <trkpt lat="46.02399" lon="5.45129">
        <ele>393.45581054688</ele>
        <time>2020-08-24T21:57:05Z</time>
      </trkpt>
      <trkpt lat="46.02387" lon="5.45173">
        <ele>396.37966918945</ele>
        <time>2020-08-24T21:57:20Z</time>
      </trkpt>
      <trkpt lat="46.02354" lon="5.45244">
        <ele>400.53063964844</ele>
        <time>2020-08-24T21:57:35Z</time>
      </trkpt>
      <trkpt lat="46.02319" lon="5.45361">
        <ele>396.17178344727</ele>
        <time>2020-08-24T21:57:51Z</time>
      </trkpt>
      <trkpt lat="46.02316" lon="5.45399">
        <ele>397.03182983398</ele>
        <time>2020-08-24T21:58:06Z</time>
      </trkpt>
      <trkpt lat="46.02325" lon="5.45489">
        <ele>403.08245849609</ele>
        <time>2020-08-24T21:58:22Z</time>
      </trkpt>
      <trkpt lat="46.02326" lon="5.45565">
        <ele>399.44009399414</ele>
        <time>2020-08-24T21:58:37Z</time>
      </trkpt>
      <trkpt lat="46.0229" lon="5.45657">
        <ele>399.76995849609</ele>
        <time>2020-08-24T21:58:53Z</time>
      </trkpt>
      <trkpt lat="46.02279" lon="5.45761">
        <ele>409.84527587891</ele>
        <time>2020-08-24T21:59:08Z</time>
      </trkpt>
      <trkpt lat="46.02272" lon="5.45784">
        <ele>411.67309570312</ele>
        <time>2020-08-24T21:59:23Z</time>
      </trkpt>
      <trkpt lat="46.02263" lon="5.45798">
        <ele>410.39730834961</ele>
        <time>2020-08-24T21:59:39Z</time>
      </trkpt>
      <trkpt lat="46.02251" lon="5.45803">
        <ele>407.0387878418</ele>
        <time>2020-08-24T21:59:54Z</time>
      </trkpt>
      <trkpt lat="46.02222" lon="5.45792">
        <ele>397.9348449707</ele>
        <time>2020-08-24T22:00:10Z</time>
      </trkpt>
      <trkpt lat="46.02204" lon="5.45794">
        <ele>396.91525268555</ele>
        <time>2020-08-24T22:00:25Z</time>
      </trkpt>
      <trkpt lat="46.02135" lon="5.45855">
        <ele>395.13571166992</ele>
        <time>2020-08-24T22:00:41Z</time>
      </trkpt>
      <trkpt lat="46.0208" lon="5.45883">
        <ele>395.93225097656</ele>
        <time>2020-08-24T22:00:56Z</time>
      </trkpt>
      <trkpt lat="46.02038" lon="5.4589">
        <ele>397.44076538086</ele>
        <time>2020-08-24T22:01:12Z</time>
      </trkpt>
      <trkpt lat="46.01987" lon="5.45884">
        <ele>397.85974121094</ele>
        <time>2020-08-24T22:01:27Z</time>
      </trkpt>
      <trkpt lat="46.01975" lon="5.45889">
        <ele>398.70166015625</ele>
        <time>2020-08-24T22:01:43Z</time>
      </trkpt>
      <trkpt lat="46.01962" lon="5.45902">
        <ele>400.55587768555</ele>
        <time>2020-08-24T22:01:58Z</time>
      </trkpt>
      <trkpt lat="46.01942" lon="5.45947">
        <ele>405.12118530273</ele>
        <time>2020-08-24T22:02:14Z</time>
      </trkpt>
      <trkpt lat="46.0194" lon="5.45985">
        <ele>407.96862792969</ele>
        <time>2020-08-24T22:02:29Z</time>
      </trkpt>
      <trkpt lat="46.01932" lon="5.45993">
        <ele>408.66836547852</ele>
        <time>2020-08-24T22:02:45Z</time>
      </trkpt>
      <trkpt lat="46.01905" lon="5.46001">
        <ele>407.91879272461</ele>
        <time>2020-08-24T22:03:00Z</time>
      </trkpt>
      <trkpt lat="46.01889" lon="5.46021">
        <ele>410.27221679688</ele>
        <time>2020-08-24T22:03:16Z</time>
      </trkpt>
      <trkpt lat="46.01882" lon="5.46052">
        <ele>415.91976928711</ele>
        <time>2020-08-24T22:03:32Z</time>
      </trkpt>
      <trkpt lat="46.01882" lon="5.46111">
        <ele>421.38494873047</ele>
        <time>2020-08-24T22:03:47Z</time>
      </trkpt>
      <trkpt lat="46.01889" lon="5.46153">
        <ele>421.3684387207</ele>
        <time>2020-08-24T22:04:03Z</time>
      </trkpt>
      <trkpt lat="46.01906" lon="5.46203">
        <ele>427.00106811523</ele>
        <time>2020-08-24T22:04:18Z</time>
      </trkpt>
      <trkpt lat="46.01918" lon="5.4622">
        <ele>430.8073425293</ele>
        <time>2020-08-24T22:04:34Z</time>
      </trkpt>
      <trkpt lat="46.01939" lon="5.46227">
        <ele>435.87075805664</ele>
        <time>2020-08-24T22:04:49Z</time>
      </trkpt>
      <trkpt lat="46.01968" lon="5.46173">
        <ele>434.7121887207</ele>
        <time>2020-08-24T22:05:05Z</time>
      </trkpt>
      <trkpt lat="46.01978" lon="5.46163">
        <ele>434.93957519531</ele>
        <time>2020-08-24T22:05:21Z</time>
      </trkpt>
      <trkpt lat="46.02015" lon="5.4615">
        <ele>439.10137939453</ele>
        <time>2020-08-24T22:05:36Z</time>
      </trkpt>
      <trkpt lat="46.02046" lon="5.46142">
        <ele>440.85806274414</ele>
        <time>2020-08-24T22:05:52Z</time>
      </trkpt>
      <trkpt lat="46.02099" lon="5.4614">
        <ele>449.32135009766</ele>
        <time>2020-08-24T22:06:07Z</time>
      </trkpt>
      <trkpt lat="46.02164" lon="5.46107">
        <ele>452.70053100586</ele>
        <time>2020-08-24T22:06:23Z</time>
      </trkpt>
      <trkpt lat="46.02183" lon="5.46102">
        <ele>455.95074462891</ele>
        <time>2020-08-24T22:06:39Z</time>
      </trkpt>
      <trkpt lat="46.02248" lon="5.46103">
        <ele>466.04904174805</ele>
        <time>2020-08-24T22:06:54Z</time>
      </trkpt>
      <trkpt lat="46.02311" lon="5.46085">
        <ele>469.12844848633</ele>
        <time>2020-08-24T22:07:10Z</time>
      </trkpt>
      <trkpt lat="46.02351" lon="5.4608">
        <ele>471.04037475586</ele>
        <time>2020-08-24T22:07:25Z</time>
      </trkpt>
      <trkpt lat="46.02385" lon="5.46089">
        <ele>478.01321411133</ele>
        <time>2020-08-24T22:07:41Z</time>
      </trkpt>
      <trkpt lat="46.02397" lon="5.46087">
        <ele>479.53076171875</ele>
        <time>2020-08-24T22:07:57Z</time>
      </trkpt>
      <trkpt lat="46.02415" lon="5.46067">
        <ele>478.57809448242</ele>
        <time>2020-08-24T22:08:12Z</time>
      </trkpt>
      <trkpt lat="46.02424" lon="5.46039">
        <ele>478.37884521484</ele>
        <time>2020-08-24T22:08:28Z</time>
      </trkpt>
      <trkpt lat="46.02424" lon="5.46001">
        <ele>475.69976806641</ele>
        <time>2020-08-24T22:08:44Z</time>
      </trkpt>
      <trkpt lat="46.0241" lon="5.45948">
        <ele>469.76995849609</ele>
        <time>2020-08-24T22:08:59Z</time>
      </trkpt>
      <trkpt lat="46.02412" lon="5.45938">
        <ele>470.43902587891</ele>
        <time>2020-08-24T22:09:15Z</time>
      </trkpt>
      <trkpt lat="46.0242" lon="5.45929">
        <ele>473.2346496582</ele>
        <time>2020-08-24T22:09:31Z</time>
      </trkpt>
      <trkpt lat="46.02448" lon="5.45928">
        <ele>480.49185180664</ele>
        <time>2020-08-24T22:09:46Z</time>
      </trkpt>
      <trkpt lat="46.02507" lon="5.45938">
        <ele>490.46789550781</ele>
        <time>2020-08-24T22:10:02Z</time>
      </trkpt>
      <trkpt lat="46.02544" lon="5.45931">
        <ele>493.49380493164</ele>
        <time>2020-08-24T22:10:18Z</time>
      </trkpt>
      <trkpt lat="46.02595" lon="5.45933">
        <ele>497.43634033203</ele>
        <time>2020-08-24T22:10:34Z</time>
      </trkpt>
      <trkpt lat="46.02695" lon="5.45983">
        <ele>508.26858520508</ele>
        <time>2020-08-24T22:10:49Z</time>
      </trkpt>
      <trkpt lat="46.02709" lon="5.45999">
        <ele>510.95593261719</ele>
        <time>2020-08-24T22:11:05Z</time>
      </trkpt>
      <trkpt lat="46.0271" lon="5.46011">
        <ele>512.81567382812</ele>
        <time>2020-08-24T22:11:21Z</time>
      </trkpt>
      <trkpt lat="46.02554" lon="5.4616">
        <ele>528.11151123047</ele>
        <time>2020-08-24T22:11:36Z</time>
      </trkpt>
      <trkpt lat="46.02542" lon="5.46186">
        <ele>531.22796630859</ele>
        <time>2020-08-24T22:11:52Z</time>
      </trkpt>
      <trkpt lat="46.02514" lon="5.46283">
        <ele>548.21295166016</ele>
        <time>2020-08-24T22:12:08Z</time>
      </trkpt>
      <trkpt lat="46.02492" lon="5.46329">
        <ele>559.2578125</ele>
        <time>2020-08-24T22:12:24Z</time>
      </trkpt>
      <trkpt lat="46.02478" lon="5.46345">
        <ele>564.03057861328</ele>
        <time>2020-08-24T22:12:40Z</time>
      </trkpt>
      <trkpt lat="46.02469" lon="5.46348">
        <ele>565.17071533203</ele>
        <time>2020-08-24T22:12:55Z</time>
      </trkpt>
      <trkpt lat="46.02455" lon="5.46343">
        <ele>563.91552734375</ele>
        <time>2020-08-24T22:13:11Z</time>
      </trkpt>
      <trkpt lat="46.02383" lon="5.46305">
        <ele>553.88128662109</ele>
        <time>2020-08-24T22:13:27Z</time>
      </trkpt>
      <trkpt lat="46.02342" lon="5.46306">
        <ele>559.66015625</ele>
        <time>2020-08-24T22:13:43Z</time>
      </trkpt>
      <trkpt lat="46.02293" lon="5.46319">
        <ele>568.46795654297</ele>
        <time>2020-08-24T22:13:59Z</time>
      </trkpt>
      <trkpt lat="46.02257" lon="5.46336">
        <ele>571.72192382812</ele>
        <time>2020-08-24T22:14:14Z</time>
      </trkpt>
      <trkpt lat="46.02156" lon="5.46418">
        <ele>568.12432861328</ele>
        <time>2020-08-24T22:14:30Z</time>
      </trkpt>
      <trkpt lat="46.02142" lon="5.46435">
        <ele>561.93127441406</ele>
        <time>2020-08-24T22:14:46Z</time>
      </trkpt>
      <trkpt lat="46.02144" lon="5.46462">
        <ele>563.77362060547</ele>
        <time>2020-08-24T22:15:02Z</time>
      </trkpt>
      <trkpt lat="46.02183" lon="5.46517">
        <ele>571.93139648438</ele>
        <time>2020-08-24T22:15:18Z</time>
      </trkpt>
      <trkpt lat="46.02274" lon="5.46607">
        <ele>590.13842773438</ele>
        <time>2020-08-24T22:15:34Z</time>
      </trkpt>
      <trkpt lat="46.02341" lon="5.46662">
        <ele>605.22991943359</ele>
        <time>2020-08-24T22:15:50Z</time>
      </trkpt>
      <trkpt lat="46.02366" lon="5.46712">
        <ele>608.51361083984</ele>
        <time>2020-08-24T22:16:06Z</time>
      </trkpt>
      <trkpt lat="46.02372" lon="5.46762">
        <ele>612.86773681641</ele>
        <time>2020-08-24T22:16:21Z</time>
      </trkpt>
      <trkpt lat="46.02361" lon="5.46824">
        <ele>618.56787109375</ele>
        <time>2020-08-24T22:16:37Z</time>
      </trkpt>
      <trkpt lat="46.02325" lon="5.46874">
        <ele>616.35430908203</ele>
        <time>2020-08-24T22:16:53Z</time>
      </trkpt>
      <trkpt lat="46.02309" lon="5.46916">
        <ele>625.3603515625</ele>
        <time>2020-08-24T22:17:09Z</time>
      </trkpt>
      <trkpt lat="46.02288" lon="5.46941">
        <ele>632.21374511719</ele>
        <time>2020-08-24T22:17:25Z</time>
      </trkpt>
      <trkpt lat="46.02272" lon="5.46972">
        <ele>633.11871337891</ele>
        <time>2020-08-24T22:17:41Z</time>
      </trkpt>
      <trkpt lat="46.02192" lon="5.47084">
        <ele>647.13372802734</ele>
        <time>2020-08-24T22:17:57Z</time>
      </trkpt>
      <trkpt lat="46.02176" lon="5.47099">
        <ele>646.14660644531</ele>
        <time>2020-08-24T22:18:13Z</time>
      </trkpt>
      <trkpt lat="46.0214" lon="5.47189">
        <ele>661.41296386719</ele>
        <time>2020-08-24T22:18:29Z</time>
      </trkpt>
      <trkpt lat="46.02118" lon="5.47202">
        <ele>662.18658447266</ele>
        <time>2020-08-24T22:18:45Z</time>
      </trkpt>
      <trkpt lat="46.02079" lon="5.47211">
        <ele>662.46960449219</ele>
        <time>2020-08-24T22:19:01Z</time>
      </trkpt>
      <trkpt lat="46.02046" lon="5.47235">
        <ele>670.84906005859</ele>
        <time>2020-08-24T22:19:17Z</time>
      </trkpt>
      <trkpt lat="46.01993" lon="5.47258">
        <ele>679.02764892578</ele>
        <time>2020-08-24T22:19:33Z</time>
      </trkpt>
      <trkpt lat="46.01961" lon="5.47258">
        <ele>678.17834472656</ele>
        <time>2020-08-24T22:19:49Z</time>
      </trkpt>
      <trkpt lat="46.01893" lon="5.47281">
        <ele>686.16650390625</ele>
        <time>2020-08-24T22:20:05Z</time>
      </trkpt>
      <trkpt lat="46.01848" lon="5.4729">
        <ele>688.43298339844</ele>
        <time>2020-08-24T22:20:21Z</time>
      </trkpt>
      <trkpt lat="46.01834" lon="5.47288">
        <ele>686.40515136719</ele>
        <time>2020-08-24T22:20:37Z</time>
      </trkpt>
      <trkpt lat="46.01753" lon="5.47321">
        <ele>701.40783691406</ele>
        <time>2020-08-24T22:20:53Z</time>
      </trkpt>
      <trkpt lat="46.0173" lon="5.47317">
        <ele>698.99151611328</ele>
        <time>2020-08-24T22:21:09Z</time>
      </trkpt>
      <trkpt lat="46.01705" lon="5.47295">
        <ele>695.22613525391</ele>
        <time>2020-08-24T22:21:25Z</time>
      </trkpt>
      <trkpt lat="46.0168" lon="5.47284">
        <ele>698.05700683594</ele>
        <time>2020-08-24T22:21:41Z</time>
      </trkpt>
      <trkpt lat="46.01667" lon="5.47287">
        <ele>702.73480224609</ele>
        <time>2020-08-24T22:21:57Z</time>
      </trkpt>
      <trkpt lat="46.0165" lon="5.47279">
        <ele>704.55316162109</ele>
        <time>2020-08-24T22:22:13Z</time>
      </trkpt>
      <trkpt lat="46.0163" lon="5.47282">
        <ele>709.87286376953</ele>
        <time>2020-08-24T22:22:29Z</time>
      </trkpt>
      <trkpt lat="46.01613" lon="5.47272">
        <ele>709.05914306641</ele>
        <time>2020-08-24T22:22:45Z</time>
      </trkpt>
      <trkpt lat="46.01549" lon="5.47265">
        <ele>716.66430664062</ele>
        <time>2020-08-24T22:23:02Z</time>
      </trkpt>
      <trkpt lat="46.01459" lon="5.47236">
        <ele>716.56896972656</ele>
        <time>2020-08-24T22:23:18Z</time>
      </trkpt>
      <trkpt lat="46.01446" lon="5.47236">
        <ele>719.64471435547</ele>
        <time>2020-08-24T22:23:34Z</time>
      </trkpt>
      <trkpt lat="46.01579" lon="5.47327">
        <ele>731.66961669922</ele>
        <time>2020-08-24T22:23:50Z</time>
      </trkpt>
      <trkpt lat="46.01637" lon="5.47358">
        <ele>730.49224853516</ele>
        <time>2020-08-24T22:24:06Z</time>
      </trkpt>
      <trkpt lat="46.01674" lon="5.47386">
        <ele>733.64758300781</ele>
        <time>2020-08-24T22:24:22Z</time>
      </trkpt>
      <trkpt lat="46.01692" lon="5.4742">
        <ele>735.41912841797</ele>
        <time>2020-08-24T22:24:38Z</time>
      </trkpt>
      <trkpt lat="46.01684" lon="5.47511">
        <ele>735.86999511719</ele>
        <time>2020-08-24T22:24:54Z</time>
      </trkpt>
      <trkpt lat="46.01692" lon="5.47576">
        <ele>731.07116699219</ele>
        <time>2020-08-24T22:25:11Z</time>
      </trkpt>
      <trkpt lat="46.01657" lon="5.47605">
        <ele>731.06518554688</ele>
        <time>2020-08-24T22:25:27Z</time>
      </trkpt>
      <trkpt lat="46.01587" lon="5.47687">
        <ele>732.63885498047</ele>
        <time>2020-08-24T22:25:43Z</time>
      </trkpt>
      <trkpt lat="46.01562" lon="5.47707">
        <ele>729.09533691406</ele>
        <time>2020-08-24T22:25:59Z</time>
      </trkpt>
      <trkpt lat="46.01507" lon="5.47721">
        <ele>728.90258789062</ele>
        <time>2020-08-24T22:26:15Z</time>
      </trkpt>
      <trkpt lat="46.01328" lon="5.47729">
        <ele>727.60693359375</ele>
        <time>2020-08-24T22:26:32Z</time>
      </trkpt>
      <trkpt lat="46.01314" lon="5.47737">
        <ele>728.40643310547</ele>
        <time>2020-08-24T22:26:48Z</time>
      </trkpt>
      <trkpt lat="46.0131" lon="5.47747">
        <ele>728.99652099609</ele>
        <time>2020-08-24T22:27:04Z</time>
      </trkpt>
      <trkpt lat="46.01343" lon="5.47904">
        <ele>735.70776367188</ele>
        <time>2020-08-24T22:27:20Z</time>
      </trkpt>
      <trkpt lat="46.01362" lon="5.47936">
        <ele>739.31091308594</ele>
        <time>2020-08-24T22:27:37Z</time>
      </trkpt>
      <trkpt lat="46.01386" lon="5.47959">
        <ele>742.11010742188</ele>
        <time>2020-08-24T22:27:53Z</time>
      </trkpt>
      <trkpt lat="46.01507" lon="5.48006">
        <ele>747.87573242188</ele>
        <time>2020-08-24T22:28:09Z</time>
      </trkpt>
      <trkpt lat="46.01657" lon="5.48096">
        <ele>766.78948974609</ele>
        <time>2020-08-24T22:28:26Z</time>
      </trkpt>
      <trkpt lat="46.01793" lon="5.48099">
        <ele>780.08764648438</ele>
        <time>2020-08-24T22:28:42Z</time>
      </trkpt>
      <trkpt lat="46.01838" lon="5.48118">
        <ele>783.57000732422</ele>
        <time>2020-08-24T22:28:58Z</time>
      </trkpt>
      <trkpt lat="46.01947" lon="5.48188">
        <ele>794.25549316406</ele>
        <time>2020-08-24T22:29:15Z</time>
      </trkpt>
      <trkpt lat="46.01998" lon="5.48201">
        <ele>797.76013183594</ele>
        <time>2020-08-24T22:29:31Z</time>
      </trkpt>
      <trkpt lat="46.02013" lon="5.48196">
        <ele>797.44958496094</ele>
        <time>2020-08-24T22:29:47Z</time>
      </trkpt>
      <trkpt lat="46.02023" lon="5.48198">
        <ele>797.88684082031</ele>
        <time>2020-08-24T22:30:04Z</time>
      </trkpt>
      <trkpt lat="46.0205" lon="5.48218">
        <ele>800.78210449219</ele>
        <time>2020-08-24T22:30:20Z</time>
      </trkpt>
      <trkpt lat="46.02097" lon="5.4832">
        <ele>799.18664550781</ele>
        <time>2020-08-24T22:30:37Z</time>
      </trkpt>
      <trkpt lat="46.02125" lon="5.48353">
        <ele>790.6611328125</ele>
        <time>2020-08-24T22:30:53Z</time>
      </trkpt>
      <trkpt lat="46.02148" lon="5.4837">
        <ele>787.70629882812</ele>
        <time>2020-08-24T22:31:09Z</time>
      </trkpt>
      <trkpt lat="46.02284" lon="5.48438">
        <ele>795.228515625</ele>
        <time>2020-08-24T22:31:26Z</time>
      </trkpt>
      <trkpt lat="46.02335" lon="5.48496">
        <ele>790.2666015625</ele>
        <time>2020-08-24T22:31:42Z</time>
      </trkpt>
      <trkpt lat="46.02351" lon="5.48505">
        <ele>792.77392578125</ele>
        <time>2020-08-24T22:31:59Z</time>
      </trkpt>
      <trkpt lat="46.0238" lon="5.4851">
        <ele>801.04675292969</ele>
        <time>2020-08-24T22:32:15Z</time>
      </trkpt>
      <trkpt lat="46.02395" lon="5.48523">
        <ele>802.17175292969</ele>
        <time>2020-08-24T22:32:32Z</time>
      </trkpt>
      <trkpt lat="46.0251" lon="5.48764">
        <ele>813.8037109375</ele>
        <time>2020-08-24T22:32:48Z</time>
      </trkpt>
      <trkpt lat="46.02524" lon="5.4881">
        <ele>821.66967773438</ele>
        <time>2020-08-24T22:33:05Z</time>
      </trkpt>
      <trkpt lat="46.02523" lon="5.48836">
        <ele>823.81427001953</ele>
        <time>2020-08-24T22:33:21Z</time>
      </trkpt>
      <trkpt lat="46.02514" lon="5.48857">
        <ele>823.28155517578</ele>
        <time>2020-08-24T22:33:38Z</time>
      </trkpt>
      <trkpt lat="46.02475" lon="5.48893">
        <ele>814.14385986328</ele>
        <time>2020-08-24T22:33:54Z</time>
      </trkpt>
      <trkpt lat="46.02461" lon="5.48921">
        <ele>816.603515625</ele>
        <time>2020-08-24T22:34:11Z</time>
      </trkpt>
      <trkpt lat="46.02442" lon="5.48982">
        <ele>820.10699462891</ele>
        <time>2020-08-24T22:34:27Z</time>
      </trkpt>
      <trkpt lat="46.02384" lon="5.49121">
        <ele>800.77075195312</ele>
        <time>2020-08-24T22:34:44Z</time>
      </trkpt>
      <trkpt lat="46.02379" lon="5.49153">
        <ele>796.16809082031</ele>
        <time>2020-08-24T22:35:00Z</time>
      </trkpt>
      <trkpt lat="46.02385" lon="5.49185">
        <ele>793.02380371094</ele>
        <time>2020-08-24T22:35:17Z</time>
      </trkpt>
      <trkpt lat="46.02458" lon="5.49301">
        <ele>795.53179931641</ele>
        <time>2020-08-24T22:35:33Z</time>
      </trkpt>
      <trkpt lat="46.02505" lon="5.49389">
        <ele>793.47857666016</ele>
        <time>2020-08-24T22:35:50Z</time>
      </trkpt>
      <trkpt lat="46.02522" lon="5.49432">
        <ele>790.75726318359</ele>
        <time>2020-08-24T22:36:07Z</time>
      </trkpt>
      <trkpt lat="46.02529" lon="5.49481">
        <ele>789.22454833984</ele>
        <time>2020-08-24T22:36:23Z</time>
      </trkpt>
      <trkpt lat="46.02524" lon="5.49575">
        <ele>786.53369140625</ele>
        <time>2020-08-24T22:36:40Z</time>
      </trkpt>
      <trkpt lat="46.02531" lon="5.49662">
        <ele>784.63305664062</ele>
        <time>2020-08-24T22:36:57Z</time>
      </trkpt>
      <trkpt lat="46.02541" lon="5.49757">
        <ele>781.81195068359</ele>
        <time>2020-08-24T22:37:13Z</time>
      </trkpt>
      <trkpt lat="46.02559" lon="5.49863">
        <ele>778.46142578125</ele>
        <time>2020-08-24T22:37:30Z</time>
      </trkpt>
      <trkpt lat="46.02576" lon="5.49894">
        <ele>776.83874511719</ele>
        <time>2020-08-24T22:37:46Z</time>
      </trkpt>
      <trkpt lat="46.02601" lon="5.49912">
        <ele>775.12951660156</ele>
        <time>2020-08-24T22:38:03Z</time>
      </trkpt>
      <trkpt lat="46.02772" lon="5.49934">
        <ele>773.94915771484</ele>
        <time>2020-08-24T22:38:20Z</time>
      </trkpt>
      <trkpt lat="46.02872" lon="5.49938">
        <ele>776.19226074219</ele>
        <time>2020-08-24T22:38:37Z</time>
      </trkpt>
      <trkpt lat="46.02887" lon="5.49949">
        <ele>776.29058837891</ele>
        <time>2020-08-24T22:38:53Z</time>
      </trkpt>
      <trkpt lat="46.02892" lon="5.49964">
        <ele>776.07482910156</ele>
        <time>2020-08-24T22:39:10Z</time>
      </trkpt>
      <trkpt lat="46.02881" lon="5.50027">
        <ele>776.44714355469</ele>
        <time>2020-08-24T22:39:27Z</time>
      </trkpt>
      <trkpt lat="46.02832" lon="5.50106">
        <ele>774.5517578125</ele>
        <time>2020-08-24T22:39:43Z</time>
      </trkpt>
      <trkpt lat="46.02827" lon="5.50122">
        <ele>774.42767333984</ele>
        <time>2020-08-24T22:40:00Z</time>
      </trkpt>
      <trkpt lat="46.02824" lon="5.50118">
        <ele>774.37438964844</ele>
        <time>2020-08-24T22:40:17Z</time>
      </trkpt>
      <trkpt lat="46.0281" lon="5.50129">
        <ele>774.03247070312</ele>
        <time>2020-08-24T22:40:34Z</time>
      </trkpt>
      <trkpt lat="46.02753" lon="5.50183">
        <ele>771.74444580078</ele>
        <time>2020-08-24T22:40:50Z</time>
      </trkpt>
      <trkpt lat="46.02726" lon="5.50202">
        <ele>771.18115234375</ele>
        <time>2020-08-24T22:41:07Z</time>
      </trkpt>
      <trkpt lat="46.02546" lon="5.50251">
        <ele>770.82397460938</ele>
        <time>2020-08-24T22:41:24Z</time>
      </trkpt>
      <trkpt lat="46.02485" lon="5.50278">
        <ele>771.47344970703</ele>
        <time>2020-08-24T22:41:41Z</time>
      </trkpt>
      <trkpt lat="46.02453" lon="5.50302">
        <ele>771.33343505859</ele>
        <time>2020-08-24T22:41:57Z</time>
      </trkpt>
      <trkpt lat="46.02422" lon="5.50336">
        <ele>771.84716796875</ele>
        <time>2020-08-24T22:42:14Z</time>
      </trkpt>
      <trkpt lat="46.02376" lon="5.50409">
        <ele>768.92266845703</ele>
        <time>2020-08-24T22:42:31Z</time>
      </trkpt>
      <trkpt lat="46.02356" lon="5.50456">
        <ele>768.84326171875</ele>
        <time>2020-08-24T22:42:48Z</time>
      </trkpt>
      <trkpt lat="46.02341" lon="5.5051">
        <ele>769.12426757812</ele>
        <time>2020-08-24T22:43:05Z</time>
      </trkpt>
      <trkpt lat="46.02328" lon="5.50613">
        <ele>768.54736328125</ele>
        <time>2020-08-24T22:43:22Z</time>
      </trkpt>
      <trkpt lat="46.02332" lon="5.50705">
        <ele>767.04028320312</ele>
        <time>2020-08-24T22:43:38Z</time>
      </trkpt>
      <trkpt lat="46.02356" lon="5.50854">
        <ele>763.61358642578</ele>
        <time>2020-08-24T22:43:55Z</time>
      </trkpt>
      <trkpt lat="46.02342" lon="5.5093">
        <ele>762.60168457031</ele>
        <time>2020-08-24T22:44:12Z</time>
      </trkpt>
      <trkpt lat="46.02311" lon="5.51008">
        <ele>760.64367675781</ele>
        <time>2020-08-24T22:44:29Z</time>
      </trkpt>
      <trkpt lat="46.02339" lon="5.50952">
        <ele>762.46533203125</ele>
        <time>2020-08-24T22:44:46Z</time>
      </trkpt>
      <trkpt lat="46.02335" lon="5.50978">
        <ele>762.39624023438</ele>
        <time>2020-08-24T22:45:03Z</time>
      </trkpt>
      <trkpt lat="46.02317" lon="5.51024">
        <ele>760.92291259766</ele>
        <time>2020-08-24T22:45:20Z</time>
      </trkpt>
      <trkpt lat="46.02301" lon="5.51041">
        <ele>760.10803222656</ele>
        <time>2020-08-24T22:45:37Z</time>
      </trkpt>
      <trkpt lat="46.02284" lon="5.51075">
        <ele>760.89392089844</ele>
        <time>2020-08-24T22:45:54Z</time>
      </trkpt>
      <trkpt lat="46.02269" lon="5.51119">
        <ele>761.82781982422</ele>
        <time>2020-08-24T22:46:11Z</time>
      </trkpt>
      <trkpt lat="46.02256" lon="5.51135">
        <ele>761.94995117188</ele>
        <time>2020-08-24T22:46:28Z</time>
      </trkpt>
      <trkpt lat="46.02097" lon="5.51487">
        <ele>761.79809570312</ele>
        <time>2020-08-24T22:46:45Z</time>
      </trkpt>
      <trkpt lat="46.0208" lon="5.51564">
        <ele>762.99206542969</ele>
        <time>2020-08-24T22:47:02Z</time>
      </trkpt>
      <trkpt lat="46.02063" lon="5.51724">
        <ele>774.39117431641</ele>
        <time>2020-08-24T22:47:19Z</time>
      </trkpt>
      <trkpt lat="46.02048" lon="5.51772">
        <ele>781.28558349609</ele>
        <time>2020-08-24T22:47:36Z</time>
      </trkpt>
      <trkpt lat="46.02018" lon="5.51825">
        <ele>788.72009277344</ele>
        <time>2020-08-24T22:47:53Z</time>
      </trkpt>
      <trkpt lat="46.01974" lon="5.51865">
        <ele>793.32879638672</ele>
        <time>2020-08-24T22:48:10Z</time>
      </trkpt>
      <trkpt lat="46.01924" lon="5.51936">
        <ele>797.39385986328</ele>
        <time>2020-08-24T22:48:27Z</time>
      </trkpt>
      <trkpt lat="46.01896" lon="5.52008">
        <ele>799.29943847656</ele>
        <time>2020-08-24T22:48:44Z</time>
      </trkpt>
      <trkpt lat="46.01844" lon="5.52182">
        <ele>801.10003662109</ele>
        <time>2020-08-24T22:49:01Z</time>
      </trkpt>
      <trkpt lat="46.01828" lon="5.52217">
        <ele>800.83319091797</ele>
        <time>2020-08-24T22:49:18Z</time>
      </trkpt>
      <trkpt lat="46.01785" lon="5.52277">
        <ele>798.84484863281</ele>
        <time>2020-08-24T22:49:35Z</time>
      </trkpt>
      <trkpt lat="46.01714" lon="5.52348">
        <ele>802.51458740234</ele>
        <time>2020-08-24T22:49:52Z</time>
      </trkpt>
      <trkpt lat="46.01664" lon="5.5238">
        <ele>803.45184326172</ele>
        <time>2020-08-24T22:50:09Z</time>
      </trkpt>
      <trkpt lat="46.01519" lon="5.52432">
        <ele>813.94494628906</ele>
        <time>2020-08-24T22:50:26Z</time>
      </trkpt>
      <trkpt lat="46.01461" lon="5.52465">
        <ele>816.29608154297</ele>
        <time>2020-08-24T22:50:44Z</time>
      </trkpt>
      <trkpt lat="46.01404" lon="5.52515">
        <ele>812.89270019531</ele>
        <time>2020-08-24T22:51:01Z</time>
      </trkpt>
      <trkpt lat="46.01268" lon="5.52659">
        <ele>813.28503417969</ele>
        <time>2020-08-24T22:51:18Z</time>
      </trkpt>
      <trkpt lat="46.01233" lon="5.52683">
        <ele>817.94805908203</ele>
        <time>2020-08-24T22:51:35Z</time>
      </trkpt>
      <trkpt lat="46.01172" lon="5.52715">
        <ele>822.04876708984</ele>
        <time>2020-08-24T22:51:52Z</time>
      </trkpt>
      <trkpt lat="46.01143" lon="5.52739">
        <ele>824.29595947266</ele>
        <time>2020-08-24T22:52:10Z</time>
      </trkpt>
      <trkpt lat="46.01067" lon="5.52843">
        <ele>824.82196044922</ele>
        <time>2020-08-24T22:52:27Z</time>
      </trkpt>
      <trkpt lat="46.00988" lon="5.52977">
        <ele>827.80474853516</ele>
        <time>2020-08-24T22:52:44Z</time>
      </trkpt>
      <trkpt lat="46.00964" lon="5.53052">
        <ele>830.22875976562</ele>
        <time>2020-08-24T22:53:01Z</time>
      </trkpt>
      <trkpt lat="46.00945" lon="5.53144">
        <ele>831.71936035156</ele>
        <time>2020-08-24T22:53:19Z</time>
      </trkpt>
      <trkpt lat="46.00924" lon="5.53194">
        <ele>833.85095214844</ele>
        <time>2020-08-24T22:53:36Z</time>
      </trkpt>
      <trkpt lat="46.00745" lon="5.53481">
        <ele>841.205078125</ele>
        <time>2020-08-24T22:53:53Z</time>
      </trkpt>
      <trkpt lat="46.00688" lon="5.53585">
        <ele>846.14166259766</ele>
        <time>2020-08-24T22:54:11Z</time>
      </trkpt>
      <trkpt lat="46.00665" lon="5.53614">
        <ele>846.10278320312</ele>
        <time>2020-08-24T22:54:28Z</time>
      </trkpt>
      <trkpt lat="46.00632" lon="5.53634">
        <ele>846.09594726562</ele>
        <time>2020-08-24T22:54:45Z</time>
      </trkpt>
      <trkpt lat="46.00524" lon="5.53641">
        <ele>846.88836669922</ele>
        <time>2020-08-24T22:55:03Z</time>
      </trkpt>
      <trkpt lat="46.00484" lon="5.53654">
        <ele>846.72467041016</ele>
        <time>2020-08-24T22:55:20Z</time>
      </trkpt>
      <trkpt lat="46.00457" lon="5.53669">
        <ele>847.8291015625</ele>
        <time>2020-08-24T22:55:38Z</time>
      </trkpt>
      <trkpt lat="46.00351" lon="5.53761">
        <ele>847.7041015625</ele>
        <time>2020-08-24T22:55:55Z</time>
      </trkpt>
      <trkpt lat="46.00162" lon="5.53965">
        <ele>849.33575439453</ele>
        <time>2020-08-24T22:56:12Z</time>
      </trkpt>
      <trkpt lat="46.00108" lon="5.54014">
        <ele>854.76898193359</ele>
        <time>2020-08-24T22:56:30Z</time>
      </trkpt>
      <trkpt lat="46.00006" lon="5.54082">
        <ele>855.86724853516</ele>
        <time>2020-08-24T22:56:47Z</time>
      </trkpt>
      <trkpt lat="45.99833" lon="5.54178">
        <ele>853.52978515625</ele>
        <time>2020-08-24T22:57:05Z</time>
      </trkpt>
      <trkpt lat="45.99754" lon="5.54239">
        <ele>862.14654541016</ele>
        <time>2020-08-24T22:57:22Z</time>
      </trkpt>
      <trkpt lat="45.99705" lon="5.54301">
        <ele>861.76617431641</ele>
        <time>2020-08-24T22:57:40Z</time>
      </trkpt>
      <trkpt lat="45.99632" lon="5.54421">
        <ele>855.99359130859</ele>
        <time>2020-08-24T22:57:58Z</time>
      </trkpt>
      <trkpt lat="45.99599" lon="5.54496">
        <ele>859.12274169922</ele>
        <time>2020-08-24T22:58:15Z</time>
      </trkpt>
      <trkpt lat="45.9952" lon="5.54742">
        <ele>882.54327392578</ele>
        <time>2020-08-24T22:58:33Z</time>
      </trkpt>
      <trkpt lat="45.99479" lon="5.54957">
        <ele>879.71612548828</ele>
        <time>2020-08-24T22:58:50Z</time>
      </trkpt>
      <trkpt lat="45.99465" lon="5.55062">
        <ele>885.90856933594</ele>
        <time>2020-08-24T22:59:08Z</time>
      </trkpt>
      <trkpt lat="45.99458" lon="5.55076">
        <ele>886.08428955078</ele>
        <time>2020-08-24T22:59:26Z</time>
      </trkpt>
      <trkpt lat="45.9944" lon="5.55169">
        <ele>882.68151855469</ele>
        <time>2020-08-24T22:59:43Z</time>
      </trkpt>
      <trkpt lat="45.99419" lon="5.55208">
        <ele>877.57806396484</ele>
        <time>2020-08-24T23:00:01Z</time>
      </trkpt>
      <trkpt lat="45.99313" lon="5.5531">
        <ele>863.75463867188</ele>
        <time>2020-08-24T23:00:19Z</time>
      </trkpt>
      <trkpt lat="45.99291" lon="5.55322">
        <ele>862.24835205078</ele>
        <time>2020-08-24T23:00:36Z</time>
      </trkpt>
      <trkpt lat="45.99221" lon="5.55348">
        <ele>858.43798828125</ele>
        <time>2020-08-24T23:00:54Z</time>
      </trkpt>
      <trkpt lat="45.99148" lon="5.55402">
        <ele>853.65789794922</ele>
        <time>2020-08-24T23:01:12Z</time>
      </trkpt>
      <trkpt lat="45.98966" lon="5.55608">
        <ele>849.90277099609</ele>
        <time>2020-08-24T23:01:30Z</time>
      </trkpt>
      <trkpt lat="45.98938" lon="5.55649">
        <ele>848.21240234375</ele>
        <time>2020-08-24T23:01:47Z</time>
      </trkpt>
      <trkpt lat="45.98899" lon="5.55722">
        <ele>841.17132568359</ele>
        <time>2020-08-24T23:02:05Z</time>
      </trkpt>
      <trkpt lat="45.98753" lon="5.56071">
        <ele>825.59918212891</ele>
        <time>2020-08-24T23:02:23Z</time>
      </trkpt>
      <trkpt lat="45.98733" lon="5.5611">
        <ele>822.35260009766</ele>
        <time>2020-08-24T23:02:41Z</time>
      </trkpt>
      <trkpt lat="45.98704" lon="5.56152">
        <ele>820.6689453125</ele>
        <time>2020-08-24T23:02:59Z</time>
      </trkpt>
      <trkpt lat="45.98671" lon="5.56184">
        <ele>821.19543457031</ele>
        <time>2020-08-24T23:03:17Z</time>
      </trkpt>
      <trkpt lat="45.98631" lon="5.5621">
        <ele>824.01123046875</ele>
        <time>2020-08-24T23:03:34Z</time>
      </trkpt>
      <trkpt lat="45.98581" lon="5.5623">
        <ele>826.75994873047</ele>
        <time>2020-08-24T23:03:52Z</time>
      </trkpt>
      <trkpt lat="45.98508" lon="5.5625">
        <ele>830.15228271484</ele>
        <time>2020-08-24T23:04:10Z</time>
      </trkpt>
      <trkpt lat="45.98429" lon="5.56295">
        <ele>832.78210449219</ele>
        <time>2020-08-24T23:04:28Z</time>
      </trkpt>
      <trkpt lat="45.98367" lon="5.56339">
        <ele>833.62469482422</ele>
        <time>2020-08-24T23:04:46Z</time>
      </trkpt>
      <trkpt lat="45.98326" lon="5.56387">
        <ele>833.45300292969</ele>
        <time>2020-08-24T23:05:04Z</time>
      </trkpt>
      <trkpt lat="45.98291" lon="5.5645">
        <ele>833.95562744141</ele>
        <time>2020-08-24T23:05:22Z</time>
      </trkpt>
      <trkpt lat="45.98246" lon="5.56549">
        <ele>833.45440673828</ele>
        <time>2020-08-24T23:05:40Z</time>
      </trkpt>
      <trkpt lat="45.982" lon="5.56665">
        <ele>838.63250732422</ele>
        <time>2020-08-24T23:05:58Z</time>
      </trkpt>
      <trkpt lat="45.98132" lon="5.56862">
        <ele>837.56298828125</ele>
        <time>2020-08-24T23:06:16Z</time>
      </trkpt>
      <trkpt lat="45.98098" lon="5.56909">
        <ele>835.63055419922</ele>
        <time>2020-08-24T23:06:34Z</time>
      </trkpt>
      <trkpt lat="45.98024" lon="5.56981">
        <ele>834.52362060547</ele>
        <time>2020-08-24T23:06:52Z</time>
      </trkpt>
      <trkpt lat="45.98009" lon="5.57007">
        <ele>833.38714599609</ele>
        <time>2020-08-24T23:07:10Z</time>
      </trkpt>
      <trkpt lat="45.97999" lon="5.57047">
        <ele>832.06756591797</ele>
        <time>2020-08-24T23:07:28Z</time>
      </trkpt>
      <trkpt lat="45.98" lon="5.57073">
        <ele>830.27465820312</ele>
        <time>2020-08-24T23:07:46Z</time>
      </trkpt>
      <trkpt lat="45.98007" lon="5.57096">
        <ele>829.08355712891</ele>
        <time>2020-08-24T23:08:04Z</time>
      </trkpt>
      <trkpt lat="45.98049" lon="5.57172">
        <ele>826.65002441406</ele>
        <time>2020-08-24T23:08:22Z</time>
      </trkpt>
      <trkpt lat="45.98063" lon="5.57214">
        <ele>824.79315185547</ele>
        <time>2020-08-24T23:08:40Z</time>
      </trkpt>
      <trkpt lat="45.98093" lon="5.57416">
        <ele>818.74676513672</ele>
        <time>2020-08-24T23:08:58Z</time>
      </trkpt>
      <trkpt lat="45.98149" lon="5.5763">
        <ele>814.59753417969</ele>
        <time>2020-08-24T23:09:16Z</time>
      </trkpt>
      <trkpt lat="45.98173" lon="5.57882">
        <ele>804.60278320312</ele>
        <time>2020-08-24T23:09:34Z</time>
      </trkpt>
      <trkpt lat="45.98172" lon="5.5793">
        <ele>803.77557373047</ele>
        <time>2020-08-24T23:09:52Z</time>
      </trkpt>
      <trkpt lat="45.98165" lon="5.57949">
        <ele>802.84875488281</ele>
        <time>2020-08-24T23:10:10Z</time>
      </trkpt>
      <trkpt lat="45.98144" lon="5.57959">
        <ele>801.40905761719</ele>
        <time>2020-08-24T23:10:28Z</time>
      </trkpt>
      <trkpt lat="45.97929" lon="5.58007">
        <ele>786.54974365234</ele>
        <time>2020-08-24T23:10:47Z</time>
      </trkpt>
      <trkpt lat="45.97683" lon="5.58047">
        <ele>772.12341308594</ele>
        <time>2020-08-24T23:11:05Z</time>
      </trkpt>
      <trkpt lat="45.97658" lon="5.58067">
        <ele>771.388671875</ele>
        <time>2020-08-24T23:11:23Z</time>
      </trkpt>
      <trkpt lat="45.97616" lon="5.58137">
        <ele>770.55078125</ele>
        <time>2020-08-24T23:11:41Z</time>
      </trkpt>
      <trkpt lat="45.97601" lon="5.58149">
        <ele>770.88586425781</ele>
        <time>2020-08-24T23:12:00Z</time>
      </trkpt>
      <trkpt lat="45.97562" lon="5.58165">
        <ele>769.94366455078</ele>
        <time>2020-08-24T23:12:18Z</time>
      </trkpt>
      <trkpt lat="45.97519" lon="5.58171">
        <ele>768.92346191406</ele>
        <time>2020-08-24T23:12:36Z</time>
      </trkpt>
      <trkpt lat="45.97449" lon="5.58157">
        <ele>766.296875</ele>
        <time>2020-08-24T23:12:54Z</time>
      </trkpt>
      <trkpt lat="45.97411" lon="5.5816">
        <ele>764.40869140625</ele>
        <time>2020-08-24T23:13:13Z</time>
      </trkpt>
      <trkpt lat="45.97406" lon="5.58169">
        <ele>764.09552001953</ele>
        <time>2020-08-24T23:13:31Z</time>
      </trkpt>
      <trkpt lat="45.97411" lon="5.58229">
        <ele>764.7919921875</ele>
        <time>2020-08-24T23:13:49Z</time>
      </trkpt>
      <trkpt lat="45.97402" lon="5.58269">
        <ele>766.57531738281</ele>
        <time>2020-08-24T23:14:07Z</time>
      </trkpt>
      <trkpt lat="45.97372" lon="5.58343">
        <ele>768.79901123047</ele>
        <time>2020-08-24T23:14:26Z</time>
      </trkpt>
      <trkpt lat="45.97322" lon="5.58407">
        <ele>768.20794677734</ele>
        <time>2020-08-24T23:14:44Z</time>
      </trkpt>
      <trkpt lat="45.97291" lon="5.58517">
        <ele>767.80413818359</ele>
        <time>2020-08-24T23:15:02Z</time>
      </trkpt>
      <trkpt lat="45.97271" lon="5.5856">
        <ele>767.11328125</ele>
      </trkpt>
      <trkpt lat="45.9729" lon="5.58603">
        <ele>767.86328125</ele>
      </trkpt>
      <trkpt lat="45.97308" lon="5.58651">
        <ele>768.83203125</ele>
      </trkpt>
      <trkpt lat="45.97318" lon="5.58666">
        <ele>769.0703125</ele>
      </trkpt>
      <trkpt lat="45.97326" lon="5.58708">
        <ele>769.484375</ele>
      </trkpt>
      <trkpt lat="45.97344" lon="5.58781">
        <ele>770.03125</ele>
      </trkpt>
      <trkpt lat="45.97365" lon="5.58859">
        <ele>770.13671875</ele>
      </trkpt>
      <trkpt lat="45.97389" lon="5.58936">
        <ele>771.00390625</ele>
      </trkpt>
      <trkpt lat="45.97397" lon="5.58958">
        <ele>771.57421875</ele>
      </trkpt>
      <trkpt lat="45.97403" lon="5.58976">
        <ele>771.98046875</ele>
      </trkpt>
      <trkpt lat="45.97421" lon="5.59025">
        <ele>772.81640625</ele>
      </trkpt>
      <trkpt lat="45.97437" lon="5.59074">
        <ele>773.3203125</ele>
      </trkpt>
      <trkpt lat="45.9744" lon="5.59088">
        <ele>773.71484375</ele>
      </trkpt>
      <trkpt lat="45.97444" lon="5.59102">
        <ele>774.03515625</ele>
      </trkpt>
      <trkpt lat="45.97446" lon="5.59115">
        <ele>774.17578125</ele>
      </trkpt>
      <trkpt lat="45.97452" lon="5.59173">
        <ele>774.33984375</ele>
      </trkpt>
      <trkpt lat="45.97455" lon="5.5921">
        <ele>774.38671875</ele>
      </trkpt>
      <trkpt lat="45.97462" lon="5.5929">
        <ele>774.90625</ele>
      </trkpt>
      <trkpt lat="45.97465" lon="5.59336">
        <ele>775.0234375</ele>
      </trkpt>
      <trkpt lat="45.97465" lon="5.59362">
        <ele>775.33203125</ele>
      </trkpt>
      <trkpt lat="45.97465" lon="5.59387">
        <ele>775.59765625</ele>
      </trkpt>
      <trkpt lat="45.97465" lon="5.59413">
        <ele>775.80859375</ele>
      </trkpt>
      <trkpt lat="45.97465" lon="5.59479">
        <ele>776.3828125</ele>
      </trkpt>
      <trkpt lat="45.97465" lon="5.59519">
        <ele>776.90625</ele>
      </trkpt>
      <trkpt lat="45.97466" lon="5.5955">
        <ele>777.30859375</ele>
      </trkpt>
      <trkpt lat="45.97468" lon="5.59586">
        <ele>777.8125</ele>
      </trkpt>
      <trkpt lat="45.9745" lon="5.59586">
        <ele>777.85546875</ele>
      </trkpt>
      <trkpt lat="45.97427" lon="5.59586">
        <ele>777.90625</ele>
      </trkpt>
      <trkpt lat="45.97387" lon="5.59584">
        <ele>777.88671875</ele>
      </trkpt>
      <trkpt lat="45.97356" lon="5.59583">
        <ele>777.85546875</ele>
      </trkpt>
      <trkpt lat="45.9733" lon="5.5958">
        <ele>777.68359375</ele>
      </trkpt>
      <trkpt lat="45.97314" lon="5.59578">
        <ele>777.40234375</ele>
      </trkpt>
      <trkpt lat="45.97245" lon="5.59569">
        <ele>776.3515625</ele>
      </trkpt>
      <trkpt lat="45.97209" lon="5.59565">
        <ele>775.8203125</ele>
      </trkpt>
      <trkpt lat="45.97188" lon="5.59562">
        <ele>775.5859375</ele>
      </trkpt>
      <trkpt lat="45.97168" lon="5.59559">
        <ele>775.43359375</ele>
      </trkpt>
      <trkpt lat="45.97143" lon="5.59554">
        <ele>775.41796875</ele>
      </trkpt>
      <trkpt lat="45.97119" lon="5.5955">
        <ele>775.578125</ele>
      </trkpt>
      <trkpt lat="45.97087" lon="5.59546">
        <ele>775.7578125</ele>
      </trkpt>
      <trkpt lat="45.97063" lon="5.59544">
        <ele>775.86328125</ele>
      </trkpt>
      <trkpt lat="45.97054" lon="5.59542">
        <ele>775.8671875</ele>
      </trkpt>
      <trkpt lat="45.97042" lon="5.59536">
        <ele>775.76171875</ele>
      </trkpt>
      <trkpt lat="45.97029" lon="5.59529">
        <ele>775.51953125</ele>
      </trkpt>
      <trkpt lat="45.97012" lon="5.59519">
        <ele>775.0859375</ele>
      </trkpt>
      <trkpt lat="45.96995" lon="5.5951">
        <ele>775.03515625</ele>
      </trkpt>
      <trkpt lat="45.96976" lon="5.595">
        <ele>774.71875</ele>
      </trkpt>
      <trkpt lat="45.96956" lon="5.59489">
        <ele>774.6015625</ele>
      </trkpt>
      <trkpt lat="45.96911" lon="5.59469">
        <ele>774.7578125</ele>
      </trkpt>
      <trkpt lat="45.96879" lon="5.59455">
        <ele>774.54296875</ele>
      </trkpt>
      <trkpt lat="45.96866" lon="5.59452">
        <ele>774.5234375</ele>
      </trkpt>
      <trkpt lat="45.96846" lon="5.59447">
        <ele>774.44140625</ele>
      </trkpt>
      <trkpt lat="45.9683" lon="5.59443">
        <ele>774.44921875</ele>
      </trkpt>
      <trkpt lat="45.96816" lon="5.59435">
        <ele>774.046875</ele>
      </trkpt>
      <trkpt lat="45.96785" lon="5.59424">
        <ele>773.78515625</ele>
      </trkpt>
      <trkpt lat="45.96763" lon="5.59419">
        <ele>773.82421875</ele>
      </trkpt>
      <trkpt lat="45.96738" lon="5.59418">
        <ele>773.96875</ele>
      </trkpt>
      <trkpt lat="45.96712" lon="5.59419">
        <ele>774.3125</ele>
      </trkpt>
      <trkpt lat="45.96688" lon="5.59419">
        <ele>774.63671875</ele>
      </trkpt>
      <trkpt lat="45.96668" lon="5.59419">
        <ele>774.78515625</ele>
      </trkpt>
      <trkpt lat="45.96657" lon="5.59417">
        <ele>774.8359375</ele>
      </trkpt>
      <trkpt lat="45.96638" lon="5.59412">
        <ele>774.9140625</ele>
      </trkpt>
      <trkpt lat="45.96606" lon="5.59405">
        <ele>774.91796875</ele>
      </trkpt>
      <trkpt lat="45.96598" lon="5.59403">
        <ele>774.91015625</ele>
      </trkpt>
      <trkpt lat="45.96586" lon="5.59399">
        <ele>774.85546875</ele>
      </trkpt>
      <trkpt lat="45.96576" lon="5.59395">
        <ele>774.79296875</ele>
      </trkpt>
      <trkpt lat="45.96554" lon="5.59388">
        <ele>774.640625</ele>
      </trkpt>
      <trkpt lat="45.9654" lon="5.59385">
        <ele>774.31640625</ele>
      </trkpt>
      <trkpt lat="45.96525" lon="5.59385">
        <ele>773.92578125</ele>
      </trkpt>
      <trkpt lat="45.96499" lon="5.59386">
        <ele>773.46484375</ele>
      </trkpt>
      <trkpt lat="45.96479" lon="5.59389">
        <ele>773.5625</ele>
      </trkpt>
      <trkpt lat="45.96441" lon="5.59397">
        <ele>773.41796875</ele>
      </trkpt>
      <trkpt lat="45.96413" lon="5.59406">
        <ele>773.18359375</ele>
      </trkpt>
      <trkpt lat="45.96384" lon="5.59418">
        <ele>772.8359375</ele>
      </trkpt>
      <trkpt lat="45.96364" lon="5.59427">
        <ele>772.69140625</ele>
      </trkpt>
      <trkpt lat="45.96349" lon="5.59435">
        <ele>773.46875</ele>
      </trkpt>
      <trkpt lat="45.96343" lon="5.59441">
        <ele>773.91015625</ele>
      </trkpt>
      <trkpt lat="45.96334" lon="5.59449">
        <ele>774.5625</ele>
      </trkpt>
      <trkpt lat="45.96334" lon="5.59449">
        <ele>774.5625</ele>
      </trkpt>
      <trkpt lat="45.96329" lon="5.59453">
        <ele>778.51062011719</ele>
        <time>2020-08-24T23:20:34Z</time>
      </trkpt>
      <trkpt lat="45.96307" lon="5.59488">
        <ele>780.69879150391</ele>
        <time>2020-08-24T23:20:52Z</time>
      </trkpt>
      <trkpt lat="45.96267" lon="5.59529">
        <ele>783.10894775391</ele>
        <time>2020-08-24T23:21:11Z</time>
      </trkpt>
      <trkpt lat="45.96231" lon="5.59548">
        <ele>785.50061035156</ele>
        <time>2020-08-24T23:21:29Z</time>
      </trkpt>
      <trkpt lat="45.96185" lon="5.59553">
        <ele>787.13067626953</ele>
        <time>2020-08-24T23:21:48Z</time>
      </trkpt>
      <trkpt lat="45.96153" lon="5.59551">
        <ele>787.67657470703</ele>
        <time>2020-08-24T23:22:07Z</time>
      </trkpt>
      <trkpt lat="45.96063" lon="5.59529">
        <ele>784.904296875</ele>
        <time>2020-08-24T23:22:25Z</time>
      </trkpt>
      <trkpt lat="45.96023" lon="5.5953">
        <ele>785.61199951172</ele>
        <time>2020-08-24T23:22:44Z</time>
      </trkpt>
      <trkpt lat="45.95962" lon="5.59552">
        <ele>787.90594482422</ele>
        <time>2020-08-24T23:23:02Z</time>
      </trkpt>
      <trkpt lat="45.95898" lon="5.59587">
        <ele>790.57769775391</ele>
        <time>2020-08-24T23:23:21Z</time>
      </trkpt>
      <trkpt lat="45.95875" lon="5.59604">
        <ele>791.11846923828</ele>
        <time>2020-08-24T23:23:40Z</time>
      </trkpt>
      <trkpt lat="45.95827" lon="5.59688">
        <ele>794.39447021484</ele>
        <time>2020-08-24T23:23:58Z</time>
      </trkpt>
      <trkpt lat="45.95805" lon="5.59737">
        <ele>795.77587890625</ele>
        <time>2020-08-24T23:24:17Z</time>
      </trkpt>
      <trkpt lat="45.95796" lon="5.59781">
        <ele>797.46459960938</ele>
        <time>2020-08-24T23:24:35Z</time>
      </trkpt>
      <trkpt lat="45.95786" lon="5.59899">
        <ele>801.75189208984</ele>
        <time>2020-08-24T23:24:54Z</time>
      </trkpt>
      <trkpt lat="45.95771" lon="5.59978">
        <ele>807.71331787109</ele>
        <time>2020-08-24T23:25:13Z</time>
      </trkpt>
      <trkpt lat="45.95729" lon="5.60104">
        <ele>812.84124755859</ele>
        <time>2020-08-24T23:25:31Z</time>
      </trkpt>
      <trkpt lat="45.95719" lon="5.60158">
        <ele>815.14990234375</ele>
        <time>2020-08-24T23:25:50Z</time>
      </trkpt>
      <trkpt lat="45.9566" lon="5.60251">
        <ele>815.92095947266</ele>
        <time>2020-08-24T23:26:09Z</time>
      </trkpt>
      <trkpt lat="45.95651" lon="5.60302">
        <ele>821.22381591797</ele>
        <time>2020-08-24T23:26:28Z</time>
      </trkpt>
      <trkpt lat="45.95631" lon="5.60324">
        <ele>822.02886962891</ele>
        <time>2020-08-24T23:26:46Z</time>
      </trkpt>
      <trkpt lat="45.95573" lon="5.60365">
        <ele>823.78649902344</ele>
        <time>2020-08-24T23:27:05Z</time>
      </trkpt>
      <trkpt lat="45.95468" lon="5.6048">
        <ele>827.916015625</ele>
        <time>2020-08-24T23:27:24Z</time>
      </trkpt>
      <trkpt lat="45.9539" lon="5.60611">
        <ele>835.14300537109</ele>
        <time>2020-08-24T23:27:43Z</time>
      </trkpt>
      <trkpt lat="45.95236" lon="5.60892">
        <ele>843.51904296875</ele>
        <time>2020-08-24T23:28:01Z</time>
      </trkpt>
      <trkpt lat="45.95193" lon="5.60931">
        <ele>845.38317871094</ele>
        <time>2020-08-24T23:28:20Z</time>
      </trkpt>
      <trkpt lat="45.95167" lon="5.60984">
        <ele>847.86938476562</ele>
        <time>2020-08-24T23:28:39Z</time>
      </trkpt>
      <trkpt lat="45.95108" lon="5.61057">
        <ele>852.00451660156</ele>
        <time>2020-08-24T23:28:58Z</time>
      </trkpt>
      <trkpt lat="45.95071" lon="5.61124">
        <ele>860.08367919922</ele>
        <time>2020-08-24T23:29:17Z</time>
      </trkpt>
      <trkpt lat="45.95036" lon="5.61125">
        <ele>863.00628662109</ele>
        <time>2020-08-24T23:29:36Z</time>
      </trkpt>
      <trkpt lat="45.95002" lon="5.6111">
        <ele>864.81707763672</ele>
        <time>2020-08-24T23:29:54Z</time>
      </trkpt>
      <trkpt lat="45.94963" lon="5.61088">
        <ele>865.97845458984</ele>
        <time>2020-08-24T23:30:13Z</time>
      </trkpt>
      <trkpt lat="45.9486" lon="5.61016">
        <ele>865.75628662109</ele>
        <time>2020-08-24T23:30:32Z</time>
      </trkpt>
      <trkpt lat="45.94692" lon="5.60949">
        <ele>873.24725341797</ele>
        <time>2020-08-24T23:30:51Z</time>
      </trkpt>
      <trkpt lat="45.94599" lon="5.60897">
        <ele>871.37982177734</ele>
        <time>2020-08-24T23:31:10Z</time>
      </trkpt>
      <trkpt lat="45.94537" lon="5.60872">
        <ele>871.01110839844</ele>
        <time>2020-08-24T23:31:29Z</time>
      </trkpt>
      <trkpt lat="45.94332" lon="5.60823">
        <ele>875.54339599609</ele>
        <time>2020-08-24T23:31:48Z</time>
      </trkpt>
      <trkpt lat="45.94247" lon="5.60829">
        <ele>877.09820556641</ele>
        <time>2020-08-24T23:32:07Z</time>
      </trkpt>
      <trkpt lat="45.94145" lon="5.60786">
        <ele>870.78350830078</ele>
        <time>2020-08-24T23:32:26Z</time>
      </trkpt>
      <trkpt lat="45.94112" lon="5.60778">
        <ele>868.82574462891</ele>
        <time>2020-08-24T23:32:45Z</time>
      </trkpt>
      <trkpt lat="45.94089" lon="5.60786">
        <ele>869.32104492188</ele>
        <time>2020-08-24T23:33:04Z</time>
      </trkpt>
      <trkpt lat="45.94056" lon="5.60819">
        <ele>873.27191162109</ele>
        <time>2020-08-24T23:33:23Z</time>
      </trkpt>
      <trkpt lat="45.94035" lon="5.60832">
        <ele>874.20355224609</ele>
        <time>2020-08-24T23:33:42Z</time>
      </trkpt>
      <trkpt lat="45.93976" lon="5.60846">
        <ele>876.91473388672</ele>
        <time>2020-08-24T23:34:01Z</time>
      </trkpt>
      <trkpt lat="45.93952" lon="5.60847">
        <ele>876.66522216797</ele>
        <time>2020-08-24T23:34:20Z</time>
      </trkpt>
      <trkpt lat="45.93846" lon="5.60825">
        <ele>871.74243164062</ele>
        <time>2020-08-24T23:34:39Z</time>
      </trkpt>
      <trkpt lat="45.93782" lon="5.60831">
        <ele>873.43530273438</ele>
        <time>2020-08-24T23:34:58Z</time>
      </trkpt>
      <trkpt lat="45.93743" lon="5.60829">
        <ele>873.68328857422</ele>
        <time>2020-08-24T23:35:17Z</time>
      </trkpt>
      <trkpt lat="45.93463" lon="5.60778">
        <ele>876.8740234375</ele>
        <time>2020-08-24T23:35:37Z</time>
      </trkpt>
      <trkpt lat="45.93285" lon="5.60779">
        <ele>877.45806884766</ele>
        <time>2020-08-24T23:35:56Z</time>
      </trkpt>
      <trkpt lat="45.93255" lon="5.60771">
        <ele>877.27056884766</ele>
        <time>2020-08-24T23:36:15Z</time>
      </trkpt>
      <trkpt lat="45.9303" lon="5.6066">
        <ele>873.92877197266</ele>
        <time>2020-08-24T23:36:34Z</time>
      </trkpt>
      <trkpt lat="45.92999" lon="5.60656">
        <ele>874.1943359375</ele>
        <time>2020-08-24T23:36:53Z</time>
      </trkpt>
      <trkpt lat="45.92949" lon="5.60667">
        <ele>875.22637939453</ele>
        <time>2020-08-24T23:37:13Z</time>
      </trkpt>
      <trkpt lat="45.92861" lon="5.60714">
        <ele>883.09796142578</ele>
        <time>2020-08-24T23:37:32Z</time>
      </trkpt>
      <trkpt lat="45.92821" lon="5.60743">
        <ele>891.16223144531</ele>
        <time>2020-08-24T23:37:51Z</time>
      </trkpt>
      <trkpt lat="45.92722" lon="5.60862">
        <ele>898.84735107422</ele>
        <time>2020-08-24T23:38:10Z</time>
      </trkpt>
      <trkpt lat="45.92707" lon="5.60894">
        <ele>900.26824951172</ele>
        <time>2020-08-24T23:38:30Z</time>
      </trkpt>
      <trkpt lat="45.92675" lon="5.61016">
        <ele>906.92095947266</ele>
        <time>2020-08-24T23:38:49Z</time>
      </trkpt>
      <trkpt lat="45.92662" lon="5.61047">
        <ele>907.8046875</ele>
        <time>2020-08-24T23:39:08Z</time>
      </trkpt>
      <trkpt lat="45.92538" lon="5.61264">
        <ele>918.82391357422</ele>
        <time>2020-08-24T23:39:28Z</time>
      </trkpt>
      <trkpt lat="45.92489" lon="5.61315">
        <ele>921.50756835938</ele>
        <time>2020-08-24T23:39:47Z</time>
      </trkpt>
      <trkpt lat="45.92445" lon="5.61352">
        <ele>922.08575439453</ele>
        <time>2020-08-24T23:40:06Z</time>
      </trkpt>
      <trkpt lat="45.92363" lon="5.61394">
        <ele>922.00897216797</ele>
        <time>2020-08-24T23:40:26Z</time>
      </trkpt>
      <trkpt lat="45.92308" lon="5.6147">
        <ele>923.06958007812</ele>
        <time>2020-08-24T23:40:45Z</time>
      </trkpt>
      <trkpt lat="45.92294" lon="5.61479">
        <ele>922.86798095703</ele>
        <time>2020-08-24T23:41:04Z</time>
      </trkpt>
      <trkpt lat="45.92235" lon="5.61496">
        <ele>920.29119873047</ele>
        <time>2020-08-24T23:41:24Z</time>
      </trkpt>
      <trkpt lat="45.92205" lon="5.61521">
        <ele>919.1748046875</ele>
        <time>2020-08-24T23:41:43Z</time>
      </trkpt>
      <trkpt lat="45.92163" lon="5.61577">
        <ele>919.55218505859</ele>
        <time>2020-08-24T23:42:03Z</time>
      </trkpt>
      <trkpt lat="45.92133" lon="5.61676">
        <ele>918.60754394531</ele>
        <time>2020-08-24T23:42:22Z</time>
      </trkpt>
      <trkpt lat="45.92112" lon="5.61714">
        <ele>918.68615722656</ele>
        <time>2020-08-24T23:42:41Z</time>
      </trkpt>
      <trkpt lat="45.91964" lon="5.61887">
        <ele>924.87829589844</ele>
        <time>2020-08-24T23:43:01Z</time>
      </trkpt>
      <trkpt lat="45.9186" lon="5.62001">
        <ele>918.7822265625</ele>
        <time>2020-08-24T23:43:20Z</time>
      </trkpt>
      <trkpt lat="45.91753" lon="5.62131">
        <ele>908.26361083984</ele>
        <time>2020-08-24T23:43:40Z</time>
      </trkpt>
      <trkpt lat="45.91735" lon="5.62145">
        <ele>906.60412597656</ele>
        <time>2020-08-24T23:43:59Z</time>
      </trkpt>
      <trkpt lat="45.91705" lon="5.62154">
        <ele>903.95532226562</ele>
        <time>2020-08-24T23:44:19Z</time>
      </trkpt>
      <trkpt lat="45.91553" lon="5.62135">
        <ele>894.89343261719</ele>
        <time>2020-08-24T23:44:38Z</time>
      </trkpt>
      <trkpt lat="45.9144" lon="5.62147">
        <ele>889.9794921875</ele>
        <time>2020-08-24T23:44:58Z</time>
      </trkpt>
      <trkpt lat="45.9139" lon="5.62138">
        <ele>887.88647460938</ele>
        <time>2020-08-24T23:45:18Z</time>
      </trkpt>
      <trkpt lat="45.91371" lon="5.62144">
        <ele>887.37786865234</ele>
        <time>2020-08-24T23:45:37Z</time>
      </trkpt>
      <trkpt lat="45.91363" lon="5.62151">
        <ele>886.90185546875</ele>
        <time>2020-08-24T23:45:57Z</time>
      </trkpt>
      <trkpt lat="45.9128" lon="5.62291">
        <ele>877.82385253906</ele>
        <time>2020-08-24T23:46:16Z</time>
      </trkpt>
      <trkpt lat="45.91235" lon="5.62354">
        <ele>874.25799560547</ele>
        <time>2020-08-24T23:46:36Z</time>
      </trkpt>
      <trkpt lat="45.91195" lon="5.62485">
        <ele>863.83587646484</ele>
        <time>2020-08-24T23:46:56Z</time>
      </trkpt>
      <trkpt lat="45.91175" lon="5.62505">
        <ele>862.37164306641</ele>
        <time>2020-08-24T23:47:15Z</time>
      </trkpt>
      <trkpt lat="45.91164" lon="5.62509">
        <ele>861.54864501953</ele>
        <time>2020-08-24T23:47:35Z</time>
      </trkpt>
      <trkpt lat="45.91128" lon="5.62506">
        <ele>860.83239746094</ele>
        <time>2020-08-24T23:47:54Z</time>
      </trkpt>
      <trkpt lat="45.91103" lon="5.62517">
        <ele>859.33526611328</ele>
        <time>2020-08-24T23:48:14Z</time>
      </trkpt>
      <trkpt lat="45.91061" lon="5.62557">
        <ele>852.69702148438</ele>
        <time>2020-08-24T23:48:34Z</time>
      </trkpt>
      <trkpt lat="45.91035" lon="5.62596">
        <ele>852.50128173828</ele>
        <time>2020-08-24T23:48:53Z</time>
      </trkpt>
      <trkpt lat="45.91008" lon="5.62647">
        <ele>851.09216308594</ele>
        <time>2020-08-24T23:49:13Z</time>
      </trkpt>
      <trkpt lat="45.90948" lon="5.62804">
        <ele>845.94451904297</ele>
        <time>2020-08-24T23:49:33Z</time>
      </trkpt>
      <trkpt lat="45.9094" lon="5.62848">
        <ele>844.30224609375</ele>
        <time>2020-08-24T23:49:52Z</time>
      </trkpt>
      <trkpt lat="45.90943" lon="5.62862">
        <ele>843.34326171875</ele>
        <time>2020-08-24T23:50:12Z</time>
      </trkpt>
      <trkpt lat="45.90956" lon="5.62881">
        <ele>840.78277587891</ele>
        <time>2020-08-24T23:50:32Z</time>
      </trkpt>
      <trkpt lat="45.90966" lon="5.62882">
        <ele>839.24633789062</ele>
        <time>2020-08-24T23:50:52Z</time>
      </trkpt>
      <trkpt lat="45.90985" lon="5.62874">
        <ele>838.83215332031</ele>
        <time>2020-08-24T23:51:11Z</time>
      </trkpt>
      <trkpt lat="45.91055" lon="5.62813">
        <ele>838.24420166016</ele>
        <time>2020-08-24T23:51:31Z</time>
      </trkpt>
      <trkpt lat="45.91086" lon="5.62799">
        <ele>836.7099609375</ele>
        <time>2020-08-24T23:51:51Z</time>
      </trkpt>
      <trkpt lat="45.91119" lon="5.62803">
        <ele>834.98913574219</ele>
        <time>2020-08-24T23:52:10Z</time>
      </trkpt>
      <trkpt lat="45.91141" lon="5.62812">
        <ele>833.76477050781</ele>
        <time>2020-08-24T23:52:30Z</time>
      </trkpt>
      <trkpt lat="45.91157" lon="5.62829">
        <ele>833.35247802734</ele>
        <time>2020-08-24T23:52:50Z</time>
      </trkpt>
      <trkpt lat="45.91166" lon="5.62854">
        <ele>832.74829101562</ele>
        <time>2020-08-24T23:53:10Z</time>
      </trkpt>
      <trkpt lat="45.91167" lon="5.62916">
        <ele>824.17846679688</ele>
        <time>2020-08-24T23:53:29Z</time>
      </trkpt>
      <trkpt lat="45.91157" lon="5.62944">
        <ele>820.06420898438</ele>
        <time>2020-08-24T23:53:49Z</time>
      </trkpt>
      <trkpt lat="45.91051" lon="5.63031">
        <ele>816.74157714844</ele>
        <time>2020-08-24T23:54:09Z</time>
      </trkpt>
      <trkpt lat="45.91036" lon="5.63058">
        <ele>813.71228027344</ele>
        <time>2020-08-24T23:54:29Z</time>
      </trkpt>
      <trkpt lat="45.9102" lon="5.63105">
        <ele>806.69244384766</ele>
        <time>2020-08-24T23:54:49Z</time>
      </trkpt>
      <trkpt lat="45.91005" lon="5.63127">
        <ele>801.22686767578</ele>
        <time>2020-08-24T23:55:08Z</time>
      </trkpt>
      <trkpt lat="45.90985" lon="5.63138">
        <ele>798.1845703125</ele>
        <time>2020-08-24T23:55:28Z</time>
      </trkpt>
      <trkpt lat="45.9095" lon="5.63146">
        <ele>796.48388671875</ele>
        <time>2020-08-24T23:55:48Z</time>
      </trkpt>
      <trkpt lat="45.90839" lon="5.63187">
        <ele>789.95648193359</ele>
        <time>2020-08-24T23:56:08Z</time>
      </trkpt>
      <trkpt lat="45.90791" lon="5.63197">
        <ele>789.99426269531</ele>
        <time>2020-08-24T23:56:28Z</time>
      </trkpt>
      <trkpt lat="45.90755" lon="5.63211">
        <ele>789.11004638672</ele>
        <time>2020-08-24T23:56:47Z</time>
      </trkpt>
      <trkpt lat="45.90561" lon="5.63343">
        <ele>776.37481689453</ele>
        <time>2020-08-24T23:57:07Z</time>
      </trkpt>
      <trkpt lat="45.90458" lon="5.63401">
        <ele>766.99871826172</ele>
        <time>2020-08-24T23:57:27Z</time>
      </trkpt>
      <trkpt lat="45.90328" lon="5.63457">
        <ele>758.33190917969</ele>
        <time>2020-08-24T23:57:47Z</time>
      </trkpt>
      <trkpt lat="45.90246" lon="5.63503">
        <ele>750.97631835938</ele>
        <time>2020-08-24T23:58:07Z</time>
      </trkpt>
      <trkpt lat="45.90222" lon="5.63525">
        <ele>746.35736083984</ele>
        <time>2020-08-24T23:58:27Z</time>
      </trkpt>
      <trkpt lat="45.90219" lon="5.63546">
        <ele>742.05029296875</ele>
        <time>2020-08-25T00:04:48Z</time>
      </trkpt>
      <trkpt lat="45.90194" lon="5.6355">
        <ele>742.67620849609</ele>
        <time>2020-08-25T00:05:08Z</time>
      </trkpt>
      <trkpt lat="45.90074" lon="5.63593">
        <ele>741.12756347656</ele>
        <time>2020-08-25T00:05:29Z</time>
      </trkpt>
      <trkpt lat="45.89996" lon="5.6363">
        <ele>737.44268798828</ele>
        <time>2020-08-25T00:05:49Z</time>
      </trkpt>
      <trkpt lat="45.89961" lon="5.63651">
        <ele>734.17926025391</ele>
        <time>2020-08-25T00:06:09Z</time>
      </trkpt>
      <trkpt lat="45.89919" lon="5.63689">
        <ele>730.89727783203</ele>
        <time>2020-08-25T00:06:29Z</time>
      </trkpt>
      <trkpt lat="45.89882" lon="5.63739">
        <ele>728.55432128906</ele>
        <time>2020-08-25T00:06:50Z</time>
      </trkpt>
      <trkpt lat="45.89856" lon="5.63786">
        <ele>728.21954345703</ele>
        <time>2020-08-25T00:07:10Z</time>
      </trkpt>
      <trkpt lat="45.89806" lon="5.63903">
        <ele>724.03247070312</ele>
        <time>2020-08-25T00:07:30Z</time>
      </trkpt>
      <trkpt lat="45.89867" lon="5.63976">
        <ele>718.46704101562</ele>
        <time>2020-08-25T00:07:50Z</time>
      </trkpt>
      <trkpt lat="45.8993" lon="5.64078">
        <ele>707.94421386719</ele>
        <time>2020-08-25T00:08:11Z</time>
      </trkpt>
      <trkpt lat="45.89959" lon="5.64175">
        <ele>700.72521972656</ele>
        <time>2020-08-25T00:08:31Z</time>
      </trkpt>
      <trkpt lat="45.89998" lon="5.64234">
        <ele>692.91839599609</ele>
        <time>2020-08-25T00:08:51Z</time>
      </trkpt>
      <trkpt lat="45.90007" lon="5.64256">
        <ele>690.51556396484</ele>
        <time>2020-08-25T00:09:12Z</time>
      </trkpt>
      <trkpt lat="45.90031" lon="5.64375">
        <ele>682.93707275391</ele>
        <time>2020-08-25T00:09:32Z</time>
      </trkpt>
      <trkpt lat="45.90056" lon="5.64425">
        <ele>677.22485351562</ele>
        <time>2020-08-25T00:09:52Z</time>
      </trkpt>
      <trkpt lat="45.90091" lon="5.6446">
        <ele>673.85266113281</ele>
        <time>2020-08-25T00:10:13Z</time>
      </trkpt>
      <trkpt lat="45.90103" lon="5.6448">
        <ele>672.50030517578</ele>
        <time>2020-08-25T00:10:33Z</time>
      </trkpt>
      <trkpt lat="45.9012" lon="5.64529">
        <ele>670.14019775391</ele>
        <time>2020-08-25T00:10:54Z</time>
      </trkpt>
      <trkpt lat="45.90134" lon="5.6459">
        <ele>663.54217529297</ele>
        <time>2020-08-25T00:11:14Z</time>
      </trkpt>
      <trkpt lat="45.90143" lon="5.64741">
        <ele>642.32165527344</ele>
        <time>2020-08-25T00:11:34Z</time>
      </trkpt>
      <trkpt lat="45.90137" lon="5.64786">
        <ele>638.76794433594</ele>
        <time>2020-08-25T00:11:55Z</time>
      </trkpt>
      <trkpt lat="45.9009" lon="5.64936">
        <ele>632.15594482422</ele>
        <time>2020-08-25T00:12:15Z</time>
      </trkpt>
      <trkpt lat="45.90078" lon="5.64959">
        <ele>630.39031982422</ele>
        <time>2020-08-25T00:12:36Z</time>
      </trkpt>
      <trkpt lat="45.90028" lon="5.65021">
        <ele>626.50671386719</ele>
        <time>2020-08-25T00:12:56Z</time>
      </trkpt>
      <trkpt lat="45.90019" lon="5.65045">
        <ele>625.29791259766</ele>
        <time>2020-08-25T00:13:16Z</time>
      </trkpt>
      <trkpt lat="45.90028" lon="5.65067">
        <ele>622.16857910156</ele>
        <time>2020-08-25T00:13:37Z</time>
      </trkpt>
      <trkpt lat="45.90082" lon="5.65097">
        <ele>615.34112548828</ele>
        <time>2020-08-25T00:13:57Z</time>
      </trkpt>
      <trkpt lat="45.90127" lon="5.6511">
        <ele>612.08801269531</ele>
        <time>2020-08-25T00:14:18Z</time>
      </trkpt>
      <trkpt lat="45.90139" lon="5.6512">
        <ele>610.55297851562</ele>
        <time>2020-08-25T00:14:38Z</time>
      </trkpt>
      <trkpt lat="45.90146" lon="5.65135">
        <ele>608.53204345703</ele>
        <time>2020-08-25T00:14:59Z</time>
      </trkpt>
      <trkpt lat="45.90124" lon="5.65233">
        <ele>602.73956298828</ele>
        <time>2020-08-25T00:15:19Z</time>
      </trkpt>
      <trkpt lat="45.90087" lon="5.65333">
        <ele>598.19995117188</ele>
        <time>2020-08-25T00:15:40Z</time>
      </trkpt>
      <trkpt lat="45.90085" lon="5.65357">
        <ele>595.98028564453</ele>
        <time>2020-08-25T00:16:00Z</time>
      </trkpt>
      <trkpt lat="45.90093" lon="5.65394">
        <ele>591.46435546875</ele>
        <time>2020-08-25T00:16:21Z</time>
      </trkpt>
      <trkpt lat="45.90102" lon="5.65415">
        <ele>587.72375488281</ele>
        <time>2020-08-25T00:16:41Z</time>
      </trkpt>
      <trkpt lat="45.90117" lon="5.65431">
        <ele>584.23944091797</ele>
        <time>2020-08-25T00:17:02Z</time>
      </trkpt>
      <trkpt lat="45.90153" lon="5.65447">
        <ele>577.23101806641</ele>
        <time>2020-08-25T00:17:22Z</time>
      </trkpt>
      <trkpt lat="45.90172" lon="5.65445">
        <ele>573.70837402344</ele>
        <time>2020-08-25T00:17:43Z</time>
      </trkpt>
      <trkpt lat="45.90238" lon="5.65405">
        <ele>566.07165527344</ele>
        <time>2020-08-25T00:18:03Z</time>
      </trkpt>
      <trkpt lat="45.90331" lon="5.65364">
        <ele>557.69134521484</ele>
        <time>2020-08-25T00:18:24Z</time>
      </trkpt>
      <trkpt lat="45.90379" lon="5.65329">
        <ele>556.81640625</ele>
        <time>2020-08-25T00:18:44Z</time>
      </trkpt>
      <trkpt lat="45.9041" lon="5.65297">
        <ele>558.1318359375</ele>
        <time>2020-08-25T00:19:05Z</time>
      </trkpt>
      <trkpt lat="45.90423" lon="5.65294">
        <ele>557.47839355469</ele>
        <time>2020-08-25T00:19:26Z</time>
      </trkpt>
      <trkpt lat="45.90425" lon="5.65288">
        <ele>555.94140625</ele>
      </trkpt>
      <trkpt lat="45.90426" lon="5.65281">
        <ele>556.203125</ele>
      </trkpt>
      <trkpt lat="45.90429" lon="5.65264">
        <ele>557.140625</ele>
      </trkpt>
      <trkpt lat="45.90431" lon="5.65243">
        <ele>558.625</ele>
      </trkpt>
      <trkpt lat="45.90435" lon="5.65215">
        <ele>560.44140625</ele>
      </trkpt>
      <trkpt lat="45.90442" lon="5.65177">
        <ele>561.953125</ele>
      </trkpt>
      <trkpt lat="45.90444" lon="5.6517">
        <ele>562.23828125</ele>
      </trkpt>
      <trkpt lat="45.90448" lon="5.65163">
        <ele>562.54296875</ele>
      </trkpt>
      <trkpt lat="45.90454" lon="5.65158">
        <ele>562.4921875</ele>
      </trkpt>
      <trkpt lat="45.90461" lon="5.65155">
        <ele>562.25</ele>
      </trkpt>
      <trkpt lat="45.90468" lon="5.65154">
        <ele>561.875</ele>
      </trkpt>
      <trkpt lat="45.90477" lon="5.65153">
        <ele>561.3828125</ele>
      </trkpt>
      <trkpt lat="45.90485" lon="5.65154">
        <ele>560.89453125</ele>
      </trkpt>
      <trkpt lat="45.90495" lon="5.65154">
        <ele>561.10546875</ele>
      </trkpt>
      <trkpt lat="45.90508" lon="5.65156">
        <ele>562.4296875</ele>
      </trkpt>
      <trkpt lat="45.90508" lon="5.65212">
        <ele>559.21875</ele>
      </trkpt>
      <trkpt lat="45.9051" lon="5.65229">
        <ele>558.3515625</ele>
      </trkpt>
      <trkpt lat="45.90514" lon="5.65248">
        <ele>557.73828125</ele>
      </trkpt>
      <trkpt lat="45.9052" lon="5.65284">
        <ele>556.6171875</ele>
      </trkpt>
      <trkpt lat="45.90526" lon="5.65313">
        <ele>555.3359375</ele>
      </trkpt>
      <trkpt lat="45.90533" lon="5.65339">
        <ele>553.9453125</ele>
      </trkpt>
      <trkpt lat="45.90537" lon="5.65355">
        <ele>553.13671875</ele>
      </trkpt>
      <trkpt lat="45.90539" lon="5.65368">
        <ele>552.37109375</ele>
      </trkpt>
      <trkpt lat="45.90542" lon="5.65385">
        <ele>551.44140625</ele>
      </trkpt>
      <trkpt lat="45.90544" lon="5.65402">
        <ele>550.4453125</ele>
      </trkpt>
      <trkpt lat="45.90548" lon="5.65439">
        <ele>548.01171875</ele>
      </trkpt>
      <trkpt lat="45.90549" lon="5.6546">
        <ele>547.2734375</ele>
      </trkpt>
      <trkpt lat="45.9055" lon="5.6548">
        <ele>546.44921875</ele>
      </trkpt>
      <trkpt lat="45.90549" lon="5.65494">
        <ele>545.75</ele>
      </trkpt>
      <trkpt lat="45.90549" lon="5.65512">
        <ele>545.03125</ele>
      </trkpt>
      <trkpt lat="45.90549" lon="5.65528">
        <ele>544.359375</ele>
      </trkpt>
      <trkpt lat="45.90549" lon="5.65544">
        <ele>543.91015625</ele>
      </trkpt>
      <trkpt lat="45.90547" lon="5.65557">
        <ele>543.48046875</ele>
      </trkpt>
      <trkpt lat="45.90541" lon="5.65587">
        <ele>542</ele>
      </trkpt>
      <trkpt lat="45.90541" lon="5.65587">
        <ele>542</ele>
      </trkpt>
      <trkpt lat="45.90538" lon="5.65588">
        <ele>549.68719482422</ele>
        <time>2020-08-25T00:23:12Z</time>
      </trkpt>
      <trkpt lat="45.90527" lon="5.6563">
        <ele>547.62255859375</ele>
        <time>2020-08-25T00:23:33Z</time>
      </trkpt>
      <trkpt lat="45.90494" lon="5.65717">
        <ele>539.20385742188</ele>
        <time>2020-08-25T00:23:53Z</time>
      </trkpt>
      <trkpt lat="45.9049" lon="5.65851">
        <ele>536.74389648438</ele>
        <time>2020-08-25T00:24:14Z</time>
      </trkpt>
      <trkpt lat="45.90446" lon="5.66037">
        <ele>529.10766601562</ele>
        <time>2020-08-25T00:24:35Z</time>
      </trkpt>
      <trkpt lat="45.90433" lon="5.6614">
        <ele>517.56878662109</ele>
        <time>2020-08-25T00:24:55Z</time>
      </trkpt>
      <trkpt lat="45.90441" lon="5.66176">
        <ele>512.59539794922</ele>
        <time>2020-08-25T00:25:16Z</time>
      </trkpt>
      <trkpt lat="45.90462" lon="5.66205">
        <ele>510.79827880859</ele>
        <time>2020-08-25T00:25:37Z</time>
      </trkpt>
      <trkpt lat="45.90507" lon="5.66244">
        <ele>508.58947753906</ele>
        <time>2020-08-25T00:25:58Z</time>
      </trkpt>
      <trkpt lat="45.90849" lon="5.66444">
        <ele>487.11758422852</ele>
        <time>2020-08-25T00:26:18Z</time>
      </trkpt>
      <trkpt lat="45.90868" lon="5.66465">
        <ele>485.92044067383</ele>
        <time>2020-08-25T00:26:39Z</time>
      </trkpt>
      <trkpt lat="45.90897" lon="5.66517">
        <ele>479.91357421875</ele>
        <time>2020-08-25T00:27:00Z</time>
      </trkpt>
      <trkpt lat="45.90914" lon="5.66534">
        <ele>478.16714477539</ele>
        <time>2020-08-25T00:27:21Z</time>
      </trkpt>
      <trkpt lat="45.90981" lon="5.66562">
        <ele>476.90139770508</ele>
        <time>2020-08-25T00:27:42Z</time>
      </trkpt>
      <trkpt lat="45.9105" lon="5.66605">
        <ele>471.42630004883</ele>
        <time>2020-08-25T00:28:02Z</time>
      </trkpt>
      <trkpt lat="45.91113" lon="5.66601">
        <ele>472.64672851562</ele>
        <time>2020-08-25T00:28:23Z</time>
      </trkpt>
      <trkpt lat="45.9113" lon="5.66612">
        <ele>471.51507568359</ele>
        <time>2020-08-25T00:28:44Z</time>
      </trkpt>
      <trkpt lat="45.91142" lon="5.66641">
        <ele>470.33935546875</ele>
        <time>2020-08-25T00:29:05Z</time>
      </trkpt>
      <trkpt lat="45.91145" lon="5.66751">
        <ele>472.55102539062</ele>
        <time>2020-08-25T00:29:26Z</time>
      </trkpt>
      <trkpt lat="45.91133" lon="5.66767">
        <ele>471.55746459961</ele>
        <time>2020-08-25T00:29:47Z</time>
      </trkpt>
      <trkpt lat="45.91092" lon="5.66789">
        <ele>472.84313964844</ele>
        <time>2020-08-25T00:30:07Z</time>
      </trkpt>
      <trkpt lat="45.91086" lon="5.66801">
        <ele>474.41397094727</ele>
        <time>2020-08-25T00:30:28Z</time>
      </trkpt>
      <trkpt lat="45.91085" lon="5.66827">
        <ele>474.65496826172</ele>
        <time>2020-08-25T00:30:49Z</time>
      </trkpt>
      <trkpt lat="45.91118" lon="5.66913">
        <ele>477.31967163086</ele>
        <time>2020-08-25T00:31:10Z</time>
      </trkpt>
      <trkpt lat="45.91191" lon="5.67033">
        <ele>483.013671875</ele>
        <time>2020-08-25T00:31:31Z</time>
      </trkpt>
      <trkpt lat="45.91197" lon="5.67053">
        <ele>485.24359130859</ele>
        <time>2020-08-25T00:31:52Z</time>
      </trkpt>
      <trkpt lat="45.91191" lon="5.67072">
        <ele>489.92636108398</ele>
        <time>2020-08-25T00:32:13Z</time>
      </trkpt>
      <trkpt lat="45.91178" lon="5.67077">
        <ele>492.35733032227</ele>
        <time>2020-08-25T00:32:34Z</time>
      </trkpt>
      <trkpt lat="45.91167" lon="5.67069">
        <ele>492.16293334961</ele>
        <time>2020-08-25T00:32:55Z</time>
      </trkpt>
      <trkpt lat="45.91107" lon="5.66997">
        <ele>488.42190551758</ele>
        <time>2020-08-25T00:33:15Z</time>
      </trkpt>
      <trkpt lat="45.91042" lon="5.66939">
        <ele>490.59286499023</ele>
        <time>2020-08-25T00:33:36Z</time>
      </trkpt>
      <trkpt lat="45.90994" lon="5.66882">
        <ele>493.53378295898</ele>
        <time>2020-08-25T00:33:57Z</time>
      </trkpt>
      <trkpt lat="45.90972" lon="5.6687">
        <ele>495.7673034668</ele>
        <time>2020-08-25T00:34:18Z</time>
      </trkpt>
      <trkpt lat="45.9095" lon="5.66868">
        <ele>496.98834228516</ele>
        <time>2020-08-25T00:34:39Z</time>
      </trkpt>
      <trkpt lat="45.9092" lon="5.66882">
        <ele>500.10165405273</ele>
        <time>2020-08-25T00:35:00Z</time>
      </trkpt>
      <trkpt lat="45.90857" lon="5.66934">
        <ele>506.8854675293</ele>
        <time>2020-08-25T00:35:21Z</time>
      </trkpt>
      <trkpt lat="45.90798" lon="5.66969">
        <ele>518.20483398438</ele>
        <time>2020-08-25T00:35:42Z</time>
      </trkpt>
      <trkpt lat="45.90751" lon="5.67007">
        <ele>527.18176269531</ele>
        <time>2020-08-25T00:36:03Z</time>
      </trkpt>
      <trkpt lat="45.90619" lon="5.67084">
        <ele>536.44616699219</ele>
        <time>2020-08-25T00:36:24Z</time>
      </trkpt>
      <trkpt lat="45.90588" lon="5.67107">
        <ele>532.39782714844</ele>
        <time>2020-08-25T00:36:45Z</time>
      </trkpt>
      <trkpt lat="45.90577" lon="5.67122">
        <ele>531.74865722656</ele>
        <time>2020-08-25T00:37:06Z</time>
      </trkpt>
      <trkpt lat="45.90572" lon="5.67148">
        <ele>532.40582275391</ele>
        <time>2020-08-25T00:37:27Z</time>
      </trkpt>
      <trkpt lat="45.9058" lon="5.67197">
        <ele>535.75787353516</ele>
        <time>2020-08-25T00:37:48Z</time>
      </trkpt>
      <trkpt lat="45.90603" lon="5.67271">
        <ele>539.43200683594</ele>
        <time>2020-08-25T00:38:09Z</time>
      </trkpt>
      <trkpt lat="45.90619" lon="5.67343">
        <ele>542.46264648438</ele>
        <time>2020-08-25T00:38:30Z</time>
      </trkpt>
      <trkpt lat="45.90623" lon="5.67413">
        <ele>543.173828125</ele>
        <time>2020-08-25T00:38:51Z</time>
      </trkpt>
      <trkpt lat="45.9062" lon="5.67475">
        <ele>543.75402832031</ele>
        <time>2020-08-25T00:39:13Z</time>
      </trkpt>
      <trkpt lat="45.90595" lon="5.67693">
        <ele>541.78479003906</ele>
        <time>2020-08-25T00:39:34Z</time>
      </trkpt>
      <trkpt lat="45.90584" lon="5.67746">
        <ele>541.01513671875</ele>
        <time>2020-08-25T00:39:55Z</time>
      </trkpt>
      <trkpt lat="45.9057" lon="5.67781">
        <ele>540.42572021484</ele>
        <time>2020-08-25T00:40:16Z</time>
      </trkpt>
      <trkpt lat="45.90546" lon="5.67821">
        <ele>539.65258789062</ele>
        <time>2020-08-25T00:40:37Z</time>
      </trkpt>
      <trkpt lat="45.90523" lon="5.6784">
        <ele>539.14007568359</ele>
        <time>2020-08-25T00:40:58Z</time>
      </trkpt>
      <trkpt lat="45.90478" lon="5.67855">
        <ele>536.71868896484</ele>
        <time>2020-08-25T00:41:19Z</time>
      </trkpt>
      <trkpt lat="45.90461" lon="5.67832">
        <ele>537.47790527344</ele>
        <time>2020-08-25T00:41:40Z</time>
      </trkpt>
      <trkpt lat="45.90497" lon="5.67929">
        <ele>535.62255859375</ele>
        <time>2020-08-25T00:42:01Z</time>
      </trkpt>
      <trkpt lat="45.90505" lon="5.67976">
        <ele>535.02685546875</ele>
        <time>2020-08-25T00:42:23Z</time>
      </trkpt>
      <trkpt lat="45.90543" lon="5.68078">
        <ele>530.75933837891</ele>
        <time>2020-08-25T00:42:44Z</time>
      </trkpt>
      <trkpt lat="45.9057" lon="5.68119">
        <ele>530.12835693359</ele>
        <time>2020-08-25T00:43:05Z</time>
      </trkpt>
      <trkpt lat="45.90796" lon="5.68329">
        <ele>529.84594726562</ele>
        <time>2020-08-25T00:43:26Z</time>
      </trkpt>
      <trkpt lat="45.90835" lon="5.68363">
        <ele>528.63452148438</ele>
        <time>2020-08-25T00:43:47Z</time>
      </trkpt>
      <trkpt lat="45.90874" lon="5.68388">
        <ele>528.07635498047</ele>
        <time>2020-08-25T00:44:09Z</time>
      </trkpt>
      <trkpt lat="45.90917" lon="5.68459">
        <ele>520.57263183594</ele>
        <time>2020-08-25T00:44:30Z</time>
      </trkpt>
      <trkpt lat="45.90938" lon="5.68463">
        <ele>519.55505371094</ele>
        <time>2020-08-25T00:44:51Z</time>
      </trkpt>
      <trkpt lat="45.9099" lon="5.68445">
        <ele>521.43090820312</ele>
        <time>2020-08-25T00:45:12Z</time>
      </trkpt>
      <trkpt lat="45.91006" lon="5.68449">
        <ele>521.78326416016</ele>
        <time>2020-08-25T00:45:34Z</time>
      </trkpt>
      <trkpt lat="45.9102" lon="5.68459">
        <ele>521.35107421875</ele>
        <time>2020-08-25T00:45:55Z</time>
      </trkpt>
      <trkpt lat="45.9107" lon="5.68509">
        <ele>519.74963378906</ele>
        <time>2020-08-25T00:46:16Z</time>
      </trkpt>
      <trkpt lat="45.91121" lon="5.68598">
        <ele>521.39508056641</ele>
        <time>2020-08-25T00:46:37Z</time>
      </trkpt>
      <trkpt lat="45.91143" lon="5.6869">
        <ele>521.45874023438</ele>
        <time>2020-08-25T00:46:59Z</time>
      </trkpt>
      <trkpt lat="45.91176" lon="5.68751">
        <ele>525.42553710938</ele>
        <time>2020-08-25T00:47:20Z</time>
      </trkpt>
      <trkpt lat="45.9119" lon="5.6881">
        <ele>526.0322265625</ele>
        <time>2020-08-25T00:47:41Z</time>
      </trkpt>
      <trkpt lat="45.91218" lon="5.69267">
        <ele>523.83264160156</ele>
        <time>2020-08-25T00:48:03Z</time>
      </trkpt>
      <trkpt lat="45.91228" lon="5.69344">
        <ele>522.07202148438</ele>
        <time>2020-08-25T00:48:24Z</time>
      </trkpt>
      <trkpt lat="45.91253" lon="5.69464">
        <ele>522.15264892578</ele>
        <time>2020-08-25T00:48:46Z</time>
      </trkpt>
      <trkpt lat="45.91269" lon="5.69506">
        <ele>522.71325683594</ele>
        <time>2020-08-25T00:49:07Z</time>
      </trkpt>
      <trkpt lat="45.91308" lon="5.69576">
        <ele>526.30224609375</ele>
        <time>2020-08-25T00:49:28Z</time>
      </trkpt>
      <trkpt lat="45.91323" lon="5.69615">
        <ele>528.35302734375</ele>
        <time>2020-08-25T00:49:50Z</time>
      </trkpt>
      <trkpt lat="45.91355" lon="5.69786">
        <ele>528.91613769531</ele>
        <time>2020-08-25T00:50:11Z</time>
      </trkpt>
      <trkpt lat="45.9139" lon="5.69913">
        <ele>528.51647949219</ele>
        <time>2020-08-25T00:50:33Z</time>
      </trkpt>
      <trkpt lat="45.91417" lon="5.70052">
        <ele>521.91748046875</ele>
        <time>2020-08-25T00:50:54Z</time>
      </trkpt>
      <trkpt lat="45.91444" lon="5.70107">
        <ele>515.41607666016</ele>
        <time>2020-08-25T00:51:16Z</time>
      </trkpt>
      <trkpt lat="45.915" lon="5.70164">
        <ele>517.70422363281</ele>
        <time>2020-08-25T00:51:37Z</time>
      </trkpt>
      <trkpt lat="45.91522" lon="5.70195">
        <ele>518.23352050781</ele>
        <time>2020-08-25T00:51:59Z</time>
      </trkpt>
      <trkpt lat="45.91537" lon="5.70236">
        <ele>514.83618164062</ele>
        <time>2020-08-25T00:52:20Z</time>
      </trkpt>
      <trkpt lat="45.91548" lon="5.70295">
        <ele>506.60244750977</ele>
        <time>2020-08-25T00:52:42Z</time>
      </trkpt>
      <trkpt lat="45.91558" lon="5.70321">
        <ele>503.84735107422</ele>
        <time>2020-08-25T00:53:03Z</time>
      </trkpt>
      <trkpt lat="45.91649" lon="5.7043">
        <ele>505.60317993164</ele>
        <time>2020-08-25T00:53:25Z</time>
      </trkpt>
      <trkpt lat="45.917" lon="5.70517">
        <ele>495.41110229492</ele>
        <time>2020-08-25T00:53:46Z</time>
      </trkpt>
      <trkpt lat="45.91756" lon="5.70589">
        <ele>487.12097167969</ele>
        <time>2020-08-25T00:54:08Z</time>
      </trkpt>
      <trkpt lat="45.9181" lon="5.70634">
        <ele>486.46783447266</ele>
        <time>2020-08-25T00:54:29Z</time>
      </trkpt>
      <trkpt lat="45.91876" lon="5.70719">
        <ele>480.98901367188</ele>
        <time>2020-08-25T00:54:51Z</time>
      </trkpt>
      <trkpt lat="45.91911" lon="5.70739">
        <ele>487.87557983398</ele>
        <time>2020-08-25T00:55:13Z</time>
      </trkpt>
      <trkpt lat="45.91929" lon="5.70754">
        <ele>490.42321777344</ele>
        <time>2020-08-25T00:55:34Z</time>
      </trkpt>
      <trkpt lat="45.91995" lon="5.70855">
        <ele>482.58743286133</ele>
        <time>2020-08-25T00:55:56Z</time>
      </trkpt>
      <trkpt lat="45.92061" lon="5.70923">
        <ele>483.35290527344</ele>
        <time>2020-08-25T00:56:17Z</time>
      </trkpt>
      <trkpt lat="45.92137" lon="5.71038">
        <ele>475.24011230469</ele>
        <time>2020-08-25T00:56:39Z</time>
      </trkpt>
      <trkpt lat="45.92148" lon="5.71063">
        <ele>472.07217407227</ele>
        <time>2020-08-25T00:57:01Z</time>
      </trkpt>
      <trkpt lat="45.92163" lon="5.71121">
        <ele>471.72894287109</ele>
        <time>2020-08-25T00:57:22Z</time>
      </trkpt>
      <trkpt lat="45.92198" lon="5.7118">
        <ele>473.94464111328</ele>
        <time>2020-08-25T00:57:44Z</time>
      </trkpt>
      <trkpt lat="45.92285" lon="5.71253">
        <ele>478.42306518555</ele>
        <time>2020-08-25T00:58:06Z</time>
      </trkpt>
      <trkpt lat="45.92314" lon="5.71271">
        <ele>479.72225952148</ele>
        <time>2020-08-25T00:58:27Z</time>
      </trkpt>
      <trkpt lat="45.92347" lon="5.71309">
        <ele>482.71890258789</ele>
        <time>2020-08-25T00:58:49Z</time>
      </trkpt>
      <trkpt lat="45.92363" lon="5.71312">
        <ele>482.83386230469</ele>
        <time>2020-08-25T00:59:11Z</time>
      </trkpt>
      <trkpt lat="45.92389" lon="5.71309">
        <ele>481.81039428711</ele>
        <time>2020-08-25T00:59:33Z</time>
      </trkpt>
      <trkpt lat="45.92402" lon="5.71315">
        <ele>481.46166992188</ele>
        <time>2020-08-25T00:59:54Z</time>
      </trkpt>
      <trkpt lat="45.92409" lon="5.7134">
        <ele>484.03927612305</ele>
        <time>2020-08-25T01:00:16Z</time>
      </trkpt>
      <trkpt lat="45.92405" lon="5.71352">
        <ele>485.97778320312</ele>
        <time>2020-08-25T01:00:38Z</time>
      </trkpt>
      <trkpt lat="45.92397" lon="5.71357">
        <ele>487.42663574219</ele>
        <time>2020-08-25T01:00:59Z</time>
      </trkpt>
      <trkpt lat="45.92337" lon="5.71367">
        <ele>491.08959960938</ele>
        <time>2020-08-25T01:01:21Z</time>
      </trkpt>
      <trkpt lat="45.92192" lon="5.71316">
        <ele>491.16131591797</ele>
        <time>2020-08-25T01:01:43Z</time>
      </trkpt>
      <trkpt lat="45.92098" lon="5.71308">
        <ele>502.15509033203</ele>
        <time>2020-08-25T01:02:05Z</time>
      </trkpt>
      <trkpt lat="45.92039" lon="5.71265">
        <ele>503.22143554688</ele>
        <time>2020-08-25T01:02:26Z</time>
      </trkpt>
      <trkpt lat="45.92016" lon="5.71254">
        <ele>504.9951171875</ele>
        <time>2020-08-25T01:02:48Z</time>
      </trkpt>
      <trkpt lat="45.91954" lon="5.7124">
        <ele>515.1513671875</ele>
        <time>2020-08-25T01:03:10Z</time>
      </trkpt>
      <trkpt lat="45.9186" lon="5.71189">
        <ele>521.31134033203</ele>
        <time>2020-08-25T01:03:32Z</time>
      </trkpt>
      <trkpt lat="45.91723" lon="5.71085">
        <ele>527.57257080078</ele>
        <time>2020-08-25T01:03:54Z</time>
      </trkpt>
      <trkpt lat="45.91681" lon="5.71059">
        <ele>526.87567138672</ele>
        <time>2020-08-25T01:04:16Z</time>
      </trkpt>
      <trkpt lat="45.91655" lon="5.71057">
        <ele>528.46380615234</ele>
        <time>2020-08-25T01:04:37Z</time>
      </trkpt>
      <trkpt lat="45.91643" lon="5.71066">
        <ele>529.75415039062</ele>
        <time>2020-08-25T01:04:59Z</time>
      </trkpt>
      <trkpt lat="45.91605" lon="5.71133">
        <ele>532.51275634766</ele>
        <time>2020-08-25T01:05:21Z</time>
      </trkpt>
      <trkpt lat="45.91605" lon="5.71168">
        <ele>534.58685302734</ele>
        <time>2020-08-25T01:05:43Z</time>
      </trkpt>
      <trkpt lat="45.91647" lon="5.71232">
        <ele>539.54931640625</ele>
        <time>2020-08-25T01:06:05Z</time>
      </trkpt>
      <trkpt lat="45.91696" lon="5.7128">
        <ele>541.880859375</ele>
        <time>2020-08-25T01:06:27Z</time>
      </trkpt>
      <trkpt lat="45.91733" lon="5.7133">
        <ele>544.49395751953</ele>
        <time>2020-08-25T01:06:49Z</time>
      </trkpt>
      <trkpt lat="45.91789" lon="5.71378">
        <ele>546.67059326172</ele>
        <time>2020-08-25T01:07:11Z</time>
      </trkpt>
      <trkpt lat="45.91798" lon="5.71405">
        <ele>548.18170166016</ele>
        <time>2020-08-25T01:07:32Z</time>
      </trkpt>
      <trkpt lat="45.91792" lon="5.71429">
        <ele>549.70086669922</ele>
        <time>2020-08-25T01:07:54Z</time>
      </trkpt>
      <trkpt lat="45.91743" lon="5.71483">
        <ele>553.52691650391</ele>
        <time>2020-08-25T01:08:16Z</time>
      </trkpt>
      <trkpt lat="45.91643" lon="5.71574">
        <ele>561.27819824219</ele>
        <time>2020-08-25T01:08:38Z</time>
      </trkpt>
      <trkpt lat="45.91599" lon="5.71629">
        <ele>564.59979248047</ele>
        <time>2020-08-25T01:09:00Z</time>
      </trkpt>
      <trkpt lat="45.91571" lon="5.71655">
        <ele>566.68957519531</ele>
        <time>2020-08-25T01:09:22Z</time>
      </trkpt>
      <trkpt lat="45.91427" lon="5.71725">
        <ele>576.11059570312</ele>
        <time>2020-08-25T01:09:44Z</time>
      </trkpt>
      <trkpt lat="45.91309" lon="5.71741">
        <ele>583.70452880859</ele>
        <time>2020-08-25T01:10:06Z</time>
      </trkpt>
      <trkpt lat="45.91264" lon="5.71756">
        <ele>585.01251220703</ele>
        <time>2020-08-25T01:10:28Z</time>
      </trkpt>
      <trkpt lat="45.91115" lon="5.71852">
        <ele>595.29577636719</ele>
        <time>2020-08-25T01:10:50Z</time>
      </trkpt>
      <trkpt lat="45.91077" lon="5.71883">
        <ele>597.88848876953</ele>
        <time>2020-08-25T01:11:12Z</time>
      </trkpt>
      <trkpt lat="45.91035" lon="5.7194">
        <ele>602.10107421875</ele>
        <time>2020-08-25T01:11:34Z</time>
      </trkpt>
      <trkpt lat="45.91" lon="5.72004">
        <ele>605.34838867188</ele>
        <time>2020-08-25T01:11:56Z</time>
      </trkpt>
      <trkpt lat="45.90974" lon="5.72108">
        <ele>610.26129150391</ele>
        <time>2020-08-25T01:12:19Z</time>
      </trkpt>
      <trkpt lat="45.90957" lon="5.72208">
        <ele>615.56225585938</ele>
        <time>2020-08-25T01:12:41Z</time>
      </trkpt>
      <trkpt lat="45.90951" lon="5.72275">
        <ele>621.27935791016</ele>
        <time>2020-08-25T01:13:03Z</time>
      </trkpt>
      <trkpt lat="45.90943" lon="5.72298">
        <ele>622.27819824219</ele>
        <time>2020-08-25T01:13:25Z</time>
      </trkpt>
      <trkpt lat="45.90916" lon="5.72339">
        <ele>624.68109130859</ele>
        <time>2020-08-25T01:13:47Z</time>
      </trkpt>
      <trkpt lat="45.90797" lon="5.72452">
        <ele>627.93548583984</ele>
        <time>2020-08-25T01:14:09Z</time>
      </trkpt>
      <trkpt lat="45.90794" lon="5.72461">
        <ele>628.78625488281</ele>
        <time>2020-08-25T01:14:31Z</time>
      </trkpt>
      <trkpt lat="45.90797" lon="5.7247">
        <ele>629.58001708984</ele>
        <time>2020-08-25T01:14:53Z</time>
      </trkpt>
      <trkpt lat="45.90809" lon="5.72479">
        <ele>631.4345703125</ele>
        <time>2020-08-25T01:15:16Z</time>
      </trkpt>
      <trkpt lat="45.90877" lon="5.72509">
        <ele>638.36529541016</ele>
        <time>2020-08-25T01:15:38Z</time>
      </trkpt>
      <trkpt lat="45.90908" lon="5.7251">
        <ele>639.95477294922</ele>
        <time>2020-08-25T01:16:00Z</time>
      </trkpt>
      <trkpt lat="45.90957" lon="5.72524">
        <ele>643.21759033203</ele>
        <time>2020-08-25T01:16:22Z</time>
      </trkpt>
      <trkpt lat="45.91015" lon="5.72526">
        <ele>644.51123046875</ele>
        <time>2020-08-25T01:16:44Z</time>
      </trkpt>
      <trkpt lat="45.91028" lon="5.72533">
        <ele>645.35760498047</ele>
        <time>2020-08-25T01:17:06Z</time>
      </trkpt>
      <trkpt lat="45.91058" lon="5.72564">
        <ele>649.13793945312</ele>
        <time>2020-08-25T01:17:29Z</time>
      </trkpt>
      <trkpt lat="45.91122" lon="5.72603">
        <ele>654.54913330078</ele>
        <time>2020-08-25T01:17:51Z</time>
      </trkpt>
      <trkpt lat="45.91163" lon="5.72645">
        <ele>660.74542236328</ele>
        <time>2020-08-25T01:18:13Z</time>
      </trkpt>
      <trkpt lat="45.91223" lon="5.72685">
        <ele>667.93408203125</ele>
        <time>2020-08-25T01:18:35Z</time>
      </trkpt>
      <trkpt lat="45.91267" lon="5.72721">
        <ele>669.40863037109</ele>
        <time>2020-08-25T01:18:57Z</time>
      </trkpt>
      <trkpt lat="45.91324" lon="5.72786">
        <ele>674.77124023438</ele>
        <time>2020-08-25T01:19:20Z</time>
      </trkpt>
      <trkpt lat="45.91345" lon="5.72826">
        <ele>677.63018798828</ele>
        <time>2020-08-25T01:19:42Z</time>
      </trkpt>
      <trkpt lat="45.91349" lon="5.72844">
        <ele>679.37298583984</ele>
        <time>2020-08-25T01:20:04Z</time>
      </trkpt>
      <trkpt lat="45.91344" lon="5.72876">
        <ele>683.32562255859</ele>
        <time>2020-08-25T01:20:26Z</time>
      </trkpt>
      <trkpt lat="45.91334" lon="5.72896">
        <ele>687.21032714844</ele>
        <time>2020-08-25T01:20:49Z</time>
      </trkpt>
      <trkpt lat="45.91315" lon="5.72913">
        <ele>692.44543457031</ele>
        <time>2020-08-25T01:21:11Z</time>
      </trkpt>
      <trkpt lat="45.91193" lon="5.72952">
        <ele>707.67816162109</ele>
        <time>2020-08-25T01:21:33Z</time>
      </trkpt>
      <trkpt lat="45.9116" lon="5.72955">
        <ele>711.07055664062</ele>
        <time>2020-08-25T01:21:56Z</time>
      </trkpt>
      <trkpt lat="45.91112" lon="5.72939">
        <ele>711.94659423828</ele>
        <time>2020-08-25T01:22:18Z</time>
      </trkpt>
      <trkpt lat="45.91098" lon="5.72948">
        <ele>713.8115234375</ele>
        <time>2020-08-25T01:22:40Z</time>
      </trkpt>
      <trkpt lat="45.91094" lon="5.72958">
        <ele>715.32098388672</ele>
        <time>2020-08-25T01:23:03Z</time>
      </trkpt>
      <trkpt lat="45.911" lon="5.72981">
        <ele>719.45361328125</ele>
        <time>2020-08-25T01:23:25Z</time>
      </trkpt>
      <trkpt lat="45.91118" lon="5.73011">
        <ele>726.24401855469</ele>
        <time>2020-08-25T01:23:47Z</time>
      </trkpt>
      <trkpt lat="45.91158" lon="5.73049">
        <ele>733.06860351562</ele>
        <time>2020-08-25T01:24:09Z</time>
      </trkpt>
      <trkpt lat="45.91189" lon="5.73069">
        <ele>734.29852294922</ele>
        <time>2020-08-25T01:24:32Z</time>
      </trkpt>
      <trkpt lat="45.91203" lon="5.73083">
        <ele>736.24407958984</ele>
        <time>2020-08-25T01:24:54Z</time>
      </trkpt>
      <trkpt lat="45.91259" lon="5.73174">
        <ele>750.26013183594</ele>
        <time>2020-08-25T01:25:16Z</time>
      </trkpt>
      <trkpt lat="45.91289" lon="5.73233">
        <ele>757.75213623047</ele>
        <time>2020-08-25T01:25:39Z</time>
      </trkpt>
      <trkpt lat="45.91314" lon="5.73328">
        <ele>767.30859375</ele>
        <time>2020-08-25T01:26:01Z</time>
      </trkpt>
      <trkpt lat="45.91339" lon="5.73383">
        <ele>768.98687744141</ele>
        <time>2020-08-25T01:26:24Z</time>
      </trkpt>
      <trkpt lat="45.9134" lon="5.734">
        <ele>769.986328125</ele>
        <time>2020-08-25T01:26:46Z</time>
      </trkpt>
      <trkpt lat="45.91334" lon="5.73416">
        <ele>771.82879638672</ele>
        <time>2020-08-25T01:27:08Z</time>
      </trkpt>
      <trkpt lat="45.91314" lon="5.7342">
        <ele>774.35083007812</ele>
        <time>2020-08-25T01:27:31Z</time>
      </trkpt>
      <trkpt lat="45.91283" lon="5.73409">
        <ele>775.66705322266</ele>
        <time>2020-08-25T01:27:53Z</time>
      </trkpt>
      <trkpt lat="45.91251" lon="5.73406">
        <ele>776.69226074219</ele>
        <time>2020-08-25T01:28:15Z</time>
      </trkpt>
      <trkpt lat="45.91235" lon="5.73399">
        <ele>776.98760986328</ele>
        <time>2020-08-25T01:28:38Z</time>
      </trkpt>
      <trkpt lat="45.91189" lon="5.73355">
        <ele>779.6728515625</ele>
        <time>2020-08-25T01:29:00Z</time>
      </trkpt>
      <trkpt lat="45.91175" lon="5.73358">
        <ele>781.87524414062</ele>
        <time>2020-08-25T01:29:23Z</time>
      </trkpt>
      <trkpt lat="45.91166" lon="5.73377">
        <ele>784.56762695312</ele>
        <time>2020-08-25T01:29:45Z</time>
      </trkpt>
      <trkpt lat="45.91176" lon="5.7341">
        <ele>786.02020263672</ele>
        <time>2020-08-25T01:30:08Z</time>
      </trkpt>
      <trkpt lat="45.91229" lon="5.7352">
        <ele>791.61883544922</ele>
        <time>2020-08-25T01:30:30Z</time>
      </trkpt>
      <trkpt lat="45.91242" lon="5.73558">
        <ele>794.24163818359</ele>
        <time>2020-08-25T01:30:52Z</time>
      </trkpt>
      <trkpt lat="45.91245" lon="5.73602">
        <ele>801.01831054688</ele>
        <time>2020-08-25T01:31:15Z</time>
      </trkpt>
      <trkpt lat="45.91262" lon="5.73654">
        <ele>805.18481445312</ele>
        <time>2020-08-25T01:31:37Z</time>
      </trkpt>
      <trkpt lat="45.91272" lon="5.73728">
        <ele>815.01037597656</ele>
        <time>2020-08-25T01:32:00Z</time>
      </trkpt>
      <trkpt lat="45.91273" lon="5.73781">
        <ele>823.16168212891</ele>
        <time>2020-08-25T01:32:22Z</time>
      </trkpt>
      <trkpt lat="45.91266" lon="5.73811">
        <ele>829.36761474609</ele>
        <time>2020-08-25T01:32:45Z</time>
      </trkpt>
      <trkpt lat="45.91274" lon="5.73872">
        <ele>836.74432373047</ele>
        <time>2020-08-25T01:33:07Z</time>
      </trkpt>
      <trkpt lat="45.91263" lon="5.73887">
        <ele>842.89654541016</ele>
        <time>2020-08-25T01:33:30Z</time>
      </trkpt>
      <trkpt lat="45.91248" lon="5.7388">
        <ele>847.14691162109</ele>
        <time>2020-08-25T01:33:52Z</time>
      </trkpt>
      <trkpt lat="45.91227" lon="5.7382">
        <ele>846.27801513672</ele>
        <time>2020-08-25T01:34:15Z</time>
      </trkpt>
      <trkpt lat="45.91181" lon="5.73739">
        <ele>853.60406494141</ele>
        <time>2020-08-25T01:34:37Z</time>
      </trkpt>
      <trkpt lat="45.91124" lon="5.73688">
        <ele>866.45397949219</ele>
        <time>2020-08-25T01:35:00Z</time>
      </trkpt>
      <trkpt lat="45.91105" lon="5.73661">
        <ele>867.69146728516</ele>
        <time>2020-08-25T01:35:22Z</time>
      </trkpt>
      <trkpt lat="45.91066" lon="5.73637">
        <ele>875.25543212891</ele>
        <time>2020-08-25T01:35:45Z</time>
      </trkpt>
      <trkpt lat="45.91053" lon="5.73638">
        <ele>878.79205322266</ele>
        <time>2020-08-25T01:36:07Z</time>
      </trkpt>
      <trkpt lat="45.90969" lon="5.73606">
        <ele>887.75067138672</ele>
        <time>2020-08-25T01:36:30Z</time>
      </trkpt>
      <trkpt lat="45.90914" lon="5.73626">
        <ele>902.80578613281</ele>
        <time>2020-08-25T01:36:52Z</time>
      </trkpt>
      <trkpt lat="45.9088" lon="5.73633">
        <ele>910.55450439453</ele>
        <time>2020-08-25T01:37:15Z</time>
      </trkpt>
      <trkpt lat="45.90824" lon="5.73624">
        <ele>916.83258056641</ele>
        <time>2020-08-25T01:37:37Z</time>
      </trkpt>
      <trkpt lat="45.90778" lon="5.73629">
        <ele>924.03369140625</ele>
        <time>2020-08-25T01:38:00Z</time>
      </trkpt>
      <trkpt lat="45.90761" lon="5.73641">
        <ele>929.25738525391</ele>
        <time>2020-08-25T01:38:23Z</time>
      </trkpt>
      <trkpt lat="45.90749" lon="5.7364">
        <ele>930.61712646484</ele>
        <time>2020-08-25T01:38:45Z</time>
      </trkpt>
      <trkpt lat="45.90704" lon="5.73679">
        <ele>945.66198730469</ele>
        <time>2020-08-25T01:39:08Z</time>
      </trkpt>
      <trkpt lat="45.90663" lon="5.7369">
        <ele>948.98541259766</ele>
        <time>2020-08-25T01:39:30Z</time>
      </trkpt>
      <trkpt lat="45.90626" lon="5.73719">
        <ele>955.57446289062</ele>
        <time>2020-08-25T01:39:53Z</time>
      </trkpt>
      <trkpt lat="45.90609" lon="5.73721">
        <ele>957.01995849609</ele>
        <time>2020-08-25T01:40:16Z</time>
      </trkpt>
      <trkpt lat="45.90601" lon="5.7373">
        <ele>960.19970703125</ele>
        <time>2020-08-25T01:40:38Z</time>
      </trkpt>
      <trkpt lat="45.9053" lon="5.73752">
        <ele>970.41796875</ele>
        <time>2020-08-25T01:41:01Z</time>
      </trkpt>
      <trkpt lat="45.90503" lon="5.73749">
        <ele>970.40466308594</ele>
        <time>2020-08-25T01:41:23Z</time>
      </trkpt>
      <trkpt lat="45.90494" lon="5.73753">
        <ele>971.46899414062</ele>
        <time>2020-08-25T01:41:46Z</time>
      </trkpt>
      <trkpt lat="45.90489" lon="5.73767">
        <ele>974.88665771484</ele>
        <time>2020-08-25T01:42:09Z</time>
      </trkpt>
      <trkpt lat="45.90492" lon="5.73783">
        <ele>978.99566650391</ele>
        <time>2020-08-25T01:42:31Z</time>
      </trkpt>
      <trkpt lat="45.905" lon="5.7379">
        <ele>980.78533935547</ele>
        <time>2020-08-25T01:42:54Z</time>
      </trkpt>
      <trkpt lat="45.9053" lon="5.73805">
        <ele>985.22039794922</ele>
        <time>2020-08-25T01:43:17Z</time>
      </trkpt>
      <trkpt lat="45.90551" lon="5.73809">
        <ele>987.3525390625</ele>
        <time>2020-08-25T01:43:39Z</time>
      </trkpt>
      <trkpt lat="45.90561" lon="5.73818">
        <ele>990.78729248047</ele>
        <time>2020-08-25T01:44:02Z</time>
      </trkpt>
      <trkpt lat="45.90571" lon="5.7382">
        <ele>990.82934570312</ele>
        <time>2020-08-25T01:44:24Z</time>
      </trkpt>
      <trkpt lat="45.90577" lon="5.73814">
        <ele>988.41400146484</ele>
        <time>2020-08-25T01:44:47Z</time>
      </trkpt>
      <trkpt lat="45.90606" lon="5.73837">
        <ele>996.6064453125</ele>
        <time>2020-08-25T01:45:10Z</time>
      </trkpt>
      <trkpt lat="45.90621" lon="5.73837">
        <ele>995.70947265625</ele>
        <time>2020-08-25T01:45:32Z</time>
      </trkpt>
      <trkpt lat="45.90651" lon="5.73859">
        <ele>1001.9447631836</ele>
        <time>2020-08-25T01:45:55Z</time>
      </trkpt>
      <trkpt lat="45.90714" lon="5.73891">
        <ele>1003.6072387695</ele>
        <time>2020-08-25T01:46:18Z</time>
      </trkpt>
      <trkpt lat="45.90749" lon="5.73921">
        <ele>1011.2449951172</ele>
        <time>2020-08-25T01:46:40Z</time>
      </trkpt>
      <trkpt lat="45.90784" lon="5.73963">
        <ele>1024.6282958984</ele>
        <time>2020-08-25T01:47:03Z</time>
      </trkpt>
      <trkpt lat="45.90816" lon="5.73981">
        <ele>1027.1180419922</ele>
        <time>2020-08-25T01:47:26Z</time>
      </trkpt>
      <trkpt lat="45.90825" lon="5.73997">
        <ele>1034.4481201172</ele>
        <time>2020-08-25T01:47:49Z</time>
      </trkpt>
      <trkpt lat="45.90866" lon="5.74024">
        <ele>1041.5281982422</ele>
        <time>2020-08-25T01:48:11Z</time>
      </trkpt>
      <trkpt lat="45.90881" lon="5.74041">
        <ele>1047.7017822266</ele>
        <time>2020-08-25T01:48:34Z</time>
      </trkpt>
      <trkpt lat="45.90907" lon="5.74052">
        <ele>1049.4482421875</ele>
        <time>2020-08-25T01:48:57Z</time>
      </trkpt>
      <trkpt lat="45.90911" lon="5.74058">
        <ele>1051.5556640625</ele>
        <time>2020-08-25T01:49:19Z</time>
      </trkpt>
      <trkpt lat="45.90924" lon="5.74055">
        <ele>1048.0610351562</ele>
        <time>2020-08-25T01:49:42Z</time>
      </trkpt>
      <trkpt lat="45.90932" lon="5.74061">
        <ele>1049.7736816406</ele>
        <time>2020-08-25T01:50:05Z</time>
      </trkpt>
      <trkpt lat="45.90972" lon="5.74072">
        <ele>1048.6716308594</ele>
        <time>2020-08-25T01:50:28Z</time>
      </trkpt>
      <trkpt lat="45.9102" lon="5.74107">
        <ele>1049.8876953125</ele>
        <time>2020-08-25T01:50:50Z</time>
      </trkpt>
      <trkpt lat="45.91039" lon="5.74135">
        <ele>1056.4842529297</ele>
        <time>2020-08-25T01:51:13Z</time>
      </trkpt>
      <trkpt lat="45.9105" lon="5.74168">
        <ele>1062.5355224609</ele>
        <time>2020-08-25T01:51:36Z</time>
      </trkpt>
      <trkpt lat="45.91066" lon="5.74192">
        <ele>1061.5970458984</ele>
        <time>2020-08-25T01:51:59Z</time>
      </trkpt>
      <trkpt lat="45.91095" lon="5.74338">
        <ele>1076.0899658203</ele>
        <time>2020-08-25T01:52:21Z</time>
      </trkpt>
      <trkpt lat="45.91092" lon="5.74366">
        <ele>1080.4321289062</ele>
        <time>2020-08-25T01:52:44Z</time>
      </trkpt>
      <trkpt lat="45.91055" lon="5.74482">
        <ele>1098.7933349609</ele>
        <time>2020-08-25T01:53:07Z</time>
      </trkpt>
      <trkpt lat="45.91033" lon="5.74518">
        <ele>1102.0938720703</ele>
        <time>2020-08-25T01:53:30Z</time>
      </trkpt>
      <trkpt lat="45.91008" lon="5.7453">
        <ele>1105.8580322266</ele>
        <time>2020-08-25T01:53:52Z</time>
      </trkpt>
      <trkpt lat="45.90973" lon="5.74533">
        <ele>1111.8515625</ele>
        <time>2020-08-25T01:54:15Z</time>
      </trkpt>
      <trkpt lat="45.90903" lon="5.74533">
        <ele>1120.2360839844</ele>
        <time>2020-08-25T01:54:38Z</time>
      </trkpt>
      <trkpt lat="45.9079" lon="5.74507">
        <ele>1141.1926269531</ele>
        <time>2020-08-25T01:55:01Z</time>
      </trkpt>
      <trkpt lat="45.90733" lon="5.74502">
        <ele>1149.5736083984</ele>
        <time>2020-08-25T01:55:24Z</time>
      </trkpt>
      <trkpt lat="45.90725" lon="5.74497">
        <ele>1151.6403808594</ele>
        <time>2020-08-25T01:55:47Z</time>
      </trkpt>
      <trkpt lat="45.90685" lon="5.74497">
        <ele>1156.5166015625</ele>
        <time>2020-08-25T01:56:09Z</time>
      </trkpt>
      <trkpt lat="45.90653" lon="5.7449">
        <ele>1162.2874755859</ele>
        <time>2020-08-25T01:56:32Z</time>
      </trkpt>
      <trkpt lat="45.90624" lon="5.74494">
        <ele>1166.5272216797</ele>
        <time>2020-08-25T01:56:55Z</time>
      </trkpt>
      <trkpt lat="45.9055" lon="5.74534">
        <ele>1174.9982910156</ele>
        <time>2020-08-25T01:57:18Z</time>
      </trkpt>
      <trkpt lat="45.90523" lon="5.74594">
        <ele>1178.1267089844</ele>
        <time>2020-08-25T01:57:41Z</time>
      </trkpt>
      <trkpt lat="45.90508" lon="5.74649">
        <ele>1184.0705566406</ele>
        <time>2020-08-25T01:58:04Z</time>
      </trkpt>
      <trkpt lat="45.90495" lon="5.74667">
        <ele>1187.9012451172</ele>
        <time>2020-08-25T01:58:27Z</time>
      </trkpt>
      <trkpt lat="45.90374" lon="5.74687">
        <ele>1196.9321289062</ele>
        <time>2020-08-25T01:58:50Z</time>
      </trkpt>
      <trkpt lat="45.90307" lon="5.74709">
        <ele>1203.0029296875</ele>
        <time>2020-08-25T01:59:13Z</time>
      </trkpt>
      <trkpt lat="45.902" lon="5.74706">
        <ele>1209.3988037109</ele>
        <time>2020-08-25T01:59:35Z</time>
      </trkpt>
      <trkpt lat="45.90122" lon="5.74721">
        <ele>1222.4958496094</ele>
        <time>2020-08-25T01:59:58Z</time>
      </trkpt>
      <trkpt lat="45.90068" lon="5.74779">
        <ele>1233.1042480469</ele>
        <time>2020-08-25T02:00:21Z</time>
      </trkpt>
      <trkpt lat="45.90034" lon="5.74799">
        <ele>1230.2331542969</ele>
        <time>2020-08-25T02:00:44Z</time>
      </trkpt>
      <trkpt lat="45.90017" lon="5.74818">
        <ele>1233.1104736328</ele>
        <time>2020-08-25T02:01:07Z</time>
      </trkpt>
      <trkpt lat="45.89999" lon="5.74852">
        <ele>1241.9836425781</ele>
        <time>2020-08-25T02:01:30Z</time>
      </trkpt>
      <trkpt lat="45.89924" lon="5.74885">
        <ele>1242.0734863281</ele>
        <time>2020-08-25T02:01:53Z</time>
      </trkpt>
      <trkpt lat="45.89854" lon="5.74936">
        <ele>1246.3447265625</ele>
        <time>2020-08-25T02:02:16Z</time>
      </trkpt>
      <trkpt lat="45.89816" lon="5.74991">
        <ele>1252.2971191406</ele>
        <time>2020-08-25T02:02:39Z</time>
      </trkpt>
      <trkpt lat="45.89765" lon="5.7509">
        <ele>1249.6988525391</ele>
        <time>2020-08-25T02:03:02Z</time>
      </trkpt>
      <trkpt lat="45.8972" lon="5.75164">
        <ele>1234.4207763672</ele>
        <time>2020-08-25T02:03:25Z</time>
      </trkpt>
      <trkpt lat="45.89722" lon="5.75187">
        <ele>1230.1275634766</ele>
        <time>2020-08-25T02:03:49Z</time>
      </trkpt>
      <trkpt lat="45.89735" lon="5.75206">
        <ele>1230.7751464844</ele>
        <time>2020-08-25T02:04:12Z</time>
      </trkpt>
      <trkpt lat="45.89772" lon="5.75237">
        <ele>1233.9676513672</ele>
        <time>2020-08-25T02:04:35Z</time>
      </trkpt>
      <trkpt lat="45.89854" lon="5.7529">
        <ele>1240.5533447266</ele>
        <time>2020-08-25T02:04:58Z</time>
      </trkpt>
      <trkpt lat="45.89987" lon="5.75397">
        <ele>1251.8229980469</ele>
        <time>2020-08-25T02:05:21Z</time>
      </trkpt>
      <trkpt lat="45.90032" lon="5.75439">
        <ele>1263.5729980469</ele>
        <time>2020-08-25T02:05:44Z</time>
      </trkpt>
      <trkpt lat="45.90057" lon="5.75473">
        <ele>1269.5035400391</ele>
        <time>2020-08-25T02:06:07Z</time>
      </trkpt>
      <trkpt lat="45.90061" lon="5.75523">
        <ele>1281.8985595703</ele>
        <time>2020-08-25T02:06:30Z</time>
      </trkpt>
      <trkpt lat="45.90057" lon="5.75538">
        <ele>1284.4685058594</ele>
        <time>2020-08-25T02:06:53Z</time>
      </trkpt>
      <trkpt lat="45.90035" lon="5.75571">
        <ele>1288.2971191406</ele>
        <time>2020-08-25T02:07:16Z</time>
      </trkpt>
      <trkpt lat="45.90012" lon="5.75595">
        <ele>1291.2491455078</ele>
        <time>2020-08-25T02:07:40Z</time>
      </trkpt>
      <trkpt lat="45.89977" lon="5.75614">
        <ele>1291.7677001953</ele>
        <time>2020-08-25T02:08:03Z</time>
      </trkpt>
      <trkpt lat="45.8994" lon="5.75644">
        <ele>1300.2839355469</ele>
        <time>2020-08-25T02:08:26Z</time>
      </trkpt>
      <trkpt lat="45.89876" lon="5.75685">
        <ele>1313.5380859375</ele>
        <time>2020-08-25T02:08:49Z</time>
      </trkpt>
      <trkpt lat="45.89873" lon="5.75691">
        <ele>1316.0614013672</ele>
        <time>2020-08-25T02:09:12Z</time>
      </trkpt>
      <trkpt lat="45.89876" lon="5.75699">
        <ele>1320.0640869141</ele>
        <time>2020-08-25T02:09:35Z</time>
      </trkpt>
      <trkpt lat="45.89899" lon="5.75699">
        <ele>1322.6324462891</ele>
        <time>2020-08-25T02:09:59Z</time>
      </trkpt>
      <trkpt lat="45.89949" lon="5.75683">
        <ele>1320.5988769531</ele>
        <time>2020-08-25T02:10:22Z</time>
      </trkpt>
      <trkpt lat="45.90007" lon="5.75681">
        <ele>1326.1442871094</ele>
        <time>2020-08-25T02:10:45Z</time>
      </trkpt>
      <trkpt lat="45.90042" lon="5.75673">
        <ele>1328.0749511719</ele>
        <time>2020-08-25T02:11:08Z</time>
      </trkpt>
      <trkpt lat="45.90095" lon="5.75672">
        <ele>1334.2958984375</ele>
        <time>2020-08-25T02:11:31Z</time>
      </trkpt>
      <trkpt lat="45.90137" lon="5.75656">
        <ele>1332.4151611328</ele>
        <time>2020-08-25T02:11:55Z</time>
      </trkpt>
      <trkpt lat="45.90159" lon="5.75655">
        <ele>1333.2424316406</ele>
        <time>2020-08-25T02:12:18Z</time>
      </trkpt>
      <trkpt lat="45.90208" lon="5.75635">
        <ele>1332.6625976562</ele>
        <time>2020-08-25T02:12:41Z</time>
      </trkpt>
      <trkpt lat="45.90314" lon="5.75608">
        <ele>1344.9201660156</ele>
        <time>2020-08-25T02:13:04Z</time>
      </trkpt>
      <trkpt lat="45.90423" lon="5.75616">
        <ele>1359.4564208984</ele>
        <time>2020-08-25T02:13:28Z</time>
      </trkpt>
      <trkpt lat="45.90489" lon="5.75633">
        <ele>1365.7755126953</ele>
        <time>2020-08-25T02:13:51Z</time>
      </trkpt>
      <trkpt lat="45.90697" lon="5.75714">
        <ele>1383.0513916016</ele>
        <time>2020-08-25T02:14:14Z</time>
      </trkpt>
      <trkpt lat="45.90762" lon="5.75735">
        <ele>1385.1868896484</ele>
        <time>2020-08-25T02:14:37Z</time>
      </trkpt>
      <trkpt lat="45.90818" lon="5.75762">
        <ele>1388.2703857422</ele>
        <time>2020-08-25T02:15:01Z</time>
      </trkpt>
      <trkpt lat="45.90843" lon="5.7579">
        <ele>1389.5318603516</ele>
        <time>2020-08-25T02:15:24Z</time>
      </trkpt>
      <trkpt lat="45.9093" lon="5.75947">
        <ele>1406.3428955078</ele>
        <time>2020-08-25T02:15:47Z</time>
      </trkpt>
      <trkpt lat="45.90948" lon="5.75969">
        <ele>1406.7805175781</ele>
        <time>2020-08-25T02:16:11Z</time>
      </trkpt>
      <trkpt lat="45.90978" lon="5.75993">
        <ele>1408.7159423828</ele>
        <time>2020-08-25T02:16:34Z</time>
      </trkpt>
      <trkpt lat="45.90979" lon="5.76014">
        <ele>1414.8054199219</ele>
        <time>2020-08-25T02:16:58Z</time>
      </trkpt>
      <trkpt lat="45.90965" lon="5.76016">
        <ele>1418.388671875</ele>
        <time>2020-08-25T02:17:21Z</time>
      </trkpt>
      <trkpt lat="45.90918" lon="5.76001">
        <ele>1421.0355224609</ele>
        <time>2020-08-25T02:17:44Z</time>
      </trkpt>
      <trkpt lat="45.90881" lon="5.75996">
        <ele>1426.6472167969</ele>
        <time>2020-08-25T02:18:08Z</time>
      </trkpt>
      <trkpt lat="45.90819" lon="5.75972">
        <ele>1429.9653320312</ele>
        <time>2020-08-25T02:18:31Z</time>
      </trkpt>
      <trkpt lat="45.90727" lon="5.75969">
        <ele>1445.7270507812</ele>
        <time>2020-08-25T02:18:55Z</time>
      </trkpt>
      <trkpt lat="45.90544" lon="5.75992">
        <ele>1473.3365478516</ele>
        <time>2020-08-25T02:19:18Z</time>
      </trkpt>
      <trkpt lat="45.90366" lon="5.76032">
        <ele>1489.2712402344</ele>
        <time>2020-08-25T02:19:42Z</time>
      </trkpt>
      <trkpt lat="45.90354" lon="5.76041">
        <ele>1491.9068603516</ele>
        <time>2020-08-25T02:20:05Z</time>
      </trkpt>
      <trkpt lat="45.90346" lon="5.76085">
        <ele>1497.8048095703</ele>
        <time>2020-08-25T02:20:29Z</time>
      </trkpt>
      <trkpt lat="45.90345" lon="5.76132">
        <ele>1500.0687255859</ele>
        <time>2020-08-25T02:20:52Z</time>
      </trkpt>
      <trkpt lat="45.90335" lon="5.76164">
        <ele>1496.2290039062</ele>
        <time>2020-08-25T02:21:16Z</time>
      </trkpt>
      <trkpt lat="45.90349" lon="5.76199">
        <ele>1492.6024169922</ele>
        <time>2020-08-25T02:21:39Z</time>
      </trkpt>
      <trkpt lat="45.90351" lon="5.76234">
        <ele>1486.5379638672</ele>
        <time>2020-08-25T02:22:03Z</time>
      </trkpt>
      <trkpt lat="45.90343" lon="5.76254">
        <ele>1480.1397705078</ele>
        <time>2020-08-25T02:22:26Z</time>
      </trkpt>
      <trkpt lat="45.90317" lon="5.76279">
        <ele>1477.4128417969</ele>
        <time>2020-08-25T02:22:50Z</time>
      </trkpt>
      <trkpt lat="45.90299" lon="5.7629">
        <ele>1475.4602050781</ele>
        <time>2020-08-25T02:23:13Z</time>
      </trkpt>
      <trkpt lat="45.90244" lon="5.76292">
        <ele>1471.6791992188</ele>
        <time>2020-08-25T02:23:37Z</time>
      </trkpt>
      <trkpt lat="45.90083" lon="5.76313">
        <ele>1454.3579101562</ele>
        <time>2020-08-25T02:24:00Z</time>
      </trkpt>
      <trkpt lat="45.89971" lon="5.76352">
        <ele>1440.3237304688</ele>
        <time>2020-08-25T02:24:24Z</time>
      </trkpt>
      <trkpt lat="45.89928" lon="5.76338">
        <ele>1439.0777587891</ele>
        <time>2020-08-25T02:24:47Z</time>
      </trkpt>
      <trkpt lat="45.89835" lon="5.76277">
        <ele>1441.4942626953</ele>
        <time>2020-08-25T02:25:11Z</time>
      </trkpt>
      <trkpt lat="45.89664" lon="5.76207">
        <ele>1426.0352783203</ele>
        <time>2020-08-25T02:25:35Z</time>
      </trkpt>
      <trkpt lat="45.89602" lon="5.76189">
        <ele>1420.2810058594</ele>
        <time>2020-08-25T02:25:58Z</time>
      </trkpt>
      <trkpt lat="45.89471" lon="5.76177">
        <ele>1407.3608398438</ele>
        <time>2020-08-25T02:26:22Z</time>
      </trkpt>
      <trkpt lat="45.89297" lon="5.76133">
        <ele>1402.5758056641</ele>
        <time>2020-08-25T02:26:46Z</time>
      </trkpt>
      <trkpt lat="45.89235" lon="5.76122">
        <ele>1398.8319091797</ele>
        <time>2020-08-25T02:27:09Z</time>
      </trkpt>
      <trkpt lat="45.8885" lon="5.76099">
        <ele>1373.7873535156</ele>
        <time>2020-08-25T02:27:33Z</time>
      </trkpt>
      <trkpt lat="45.88575" lon="5.76051">
        <ele>1360.2600097656</ele>
        <time>2020-08-25T02:27:57Z</time>
      </trkpt>
      <trkpt lat="45.88518" lon="5.76052">
        <ele>1357.4940185547</ele>
        <time>2020-08-25T02:28:21Z</time>
      </trkpt>
      <trkpt lat="45.88457" lon="5.76069">
        <ele>1352.7551269531</ele>
        <time>2020-08-25T02:28:45Z</time>
      </trkpt>
      <trkpt lat="45.88369" lon="5.76114">
        <ele>1342.5555419922</ele>
        <time>2020-08-25T02:29:08Z</time>
      </trkpt>
      <trkpt lat="45.88275" lon="5.7617">
        <ele>1335.7310791016</ele>
        <time>2020-08-25T02:29:32Z</time>
      </trkpt>
      <trkpt lat="45.8822" lon="5.76195">
        <ele>1340.3342285156</ele>
        <time>2020-08-25T02:29:56Z</time>
      </trkpt>
      <trkpt lat="45.882" lon="5.76222">
        <ele>1338.3864746094</ele>
        <time>2020-08-25T02:30:20Z</time>
      </trkpt>
      <trkpt lat="45.88204" lon="5.76246">
        <ele>1338.4669189453</ele>
        <time>2020-08-25T02:30:44Z</time>
      </trkpt>
      <trkpt lat="45.88216" lon="5.76262">
        <ele>1337.9310302734</ele>
        <time>2020-08-25T02:31:08Z</time>
      </trkpt>
      <trkpt lat="45.88288" lon="5.76276">
        <ele>1324.9140625</ele>
        <time>2020-08-25T02:31:32Z</time>
      </trkpt>
      <trkpt lat="45.88309" lon="5.76304">
        <ele>1320.6536865234</ele>
        <time>2020-08-25T02:31:56Z</time>
      </trkpt>
      <trkpt lat="45.88353" lon="5.76495">
        <ele>1307.8747558594</ele>
        <time>2020-08-25T02:32:20Z</time>
      </trkpt>
      <trkpt lat="45.88373" lon="5.76655">
        <ele>1300.1962890625</ele>
        <time>2020-08-25T02:32:44Z</time>
      </trkpt>
      <trkpt lat="45.88397" lon="5.76711">
        <ele>1297.0018310547</ele>
        <time>2020-08-25T02:33:08Z</time>
      </trkpt>
      <trkpt lat="45.88406" lon="5.76745">
        <ele>1295.1669921875</ele>
        <time>2020-08-25T02:33:32Z</time>
      </trkpt>
      <trkpt lat="45.88404" lon="5.76797">
        <ele>1292.1186523438</ele>
        <time>2020-08-25T02:33:56Z</time>
      </trkpt>
      <trkpt lat="45.88374" lon="5.76888">
        <ele>1292.1197509766</ele>
        <time>2020-08-25T02:34:20Z</time>
      </trkpt>
      <trkpt lat="45.88377" lon="5.76911">
        <ele>1290.8763427734</ele>
        <time>2020-08-25T02:34:44Z</time>
      </trkpt>
      <trkpt lat="45.88407" lon="5.76992">
        <ele>1285.5535888672</ele>
        <time>2020-08-25T02:35:08Z</time>
      </trkpt>
      <trkpt lat="45.88407" lon="5.77025">
        <ele>1283.5599365234</ele>
        <time>2020-08-25T02:35:32Z</time>
      </trkpt>
      <trkpt lat="45.88391" lon="5.77107">
        <ele>1278.2290039062</ele>
        <time>2020-08-25T02:35:56Z</time>
      </trkpt>
      <trkpt lat="45.88367" lon="5.77186">
        <ele>1282.5216064453</ele>
        <time>2020-08-25T02:36:20Z</time>
      </trkpt>
      <trkpt lat="45.88347" lon="5.77333">
        <ele>1272.8408203125</ele>
        <time>2020-08-25T02:36:44Z</time>
      </trkpt>
      <trkpt lat="45.88336" lon="5.77377">
        <ele>1268.8125</ele>
        <time>2020-08-25T02:37:08Z</time>
      </trkpt>
      <trkpt lat="45.88323" lon="5.774">
        <ele>1267.7827148438</ele>
        <time>2020-08-25T02:37:32Z</time>
      </trkpt>
      <trkpt lat="45.88306" lon="5.77415">
        <ele>1268.1126708984</ele>
        <time>2020-08-25T02:37:56Z</time>
      </trkpt>
      <trkpt lat="45.88222" lon="5.77448">
        <ele>1275.1324462891</ele>
        <time>2020-08-25T02:38:20Z</time>
      </trkpt>
      <trkpt lat="45.88125" lon="5.77502">
        <ele>1274.8227539062</ele>
        <time>2020-08-25T02:38:44Z</time>
      </trkpt>
      <trkpt lat="45.88081" lon="5.77506">
        <ele>1278.2386474609</ele>
        <time>2020-08-25T02:39:08Z</time>
      </trkpt>
      <trkpt lat="45.88048" lon="5.77501">
        <ele>1280.6774902344</ele>
        <time>2020-08-25T02:39:32Z</time>
      </trkpt>
      <trkpt lat="45.88003" lon="5.77503">
        <ele>1283.6666259766</ele>
        <time>2020-08-25T02:39:56Z</time>
      </trkpt>
      <trkpt lat="45.87952" lon="5.7753">
        <ele>1281.3566894531</ele>
        <time>2020-08-25T02:40:21Z</time>
      </trkpt>
      <trkpt lat="45.87912" lon="5.77563">
        <ele>1279.1810302734</ele>
        <time>2020-08-25T02:40:45Z</time>
      </trkpt>
      <trkpt lat="45.87874" lon="5.77579">
        <ele>1277.2055664062</ele>
        <time>2020-08-25T02:41:09Z</time>
      </trkpt>
      <trkpt lat="45.87784" lon="5.77584">
        <ele>1273.5364990234</ele>
        <time>2020-08-25T02:41:33Z</time>
      </trkpt>
      <trkpt lat="45.87657" lon="5.77575">
        <ele>1272.0705566406</ele>
        <time>2020-08-25T02:41:57Z</time>
      </trkpt>
      <trkpt lat="45.8762" lon="5.77579">
        <ele>1270.3459472656</ele>
        <time>2020-08-25T02:42:21Z</time>
      </trkpt>
      <trkpt lat="45.87574" lon="5.77593">
        <ele>1267.6278076172</ele>
        <time>2020-08-25T02:42:46Z</time>
      </trkpt>
      <trkpt lat="45.87481" lon="5.77644">
        <ele>1256.0671386719</ele>
        <time>2020-08-25T02:43:10Z</time>
      </trkpt>
      <trkpt lat="45.87421" lon="5.77638">
        <ele>1252.5892333984</ele>
        <time>2020-08-25T02:43:34Z</time>
      </trkpt>
      <trkpt lat="45.87347" lon="5.77662">
        <ele>1242.6953125</ele>
        <time>2020-08-25T02:43:58Z</time>
      </trkpt>
      <trkpt lat="45.87313" lon="5.77657">
        <ele>1240.431640625</ele>
        <time>2020-08-25T02:44:22Z</time>
      </trkpt>
      <trkpt lat="45.87207" lon="5.776">
        <ele>1236.1353759766</ele>
        <time>2020-08-25T02:44:47Z</time>
      </trkpt>
      <trkpt lat="45.87188" lon="5.77597">
        <ele>1234.6206054688</ele>
        <time>2020-08-25T02:45:11Z</time>
      </trkpt>
      <trkpt lat="45.87181" lon="5.77603">
        <ele>1233.0278320312</ele>
        <time>2020-08-25T02:45:35Z</time>
      </trkpt>
      <trkpt lat="45.87187" lon="5.77641">
        <ele>1227.591796875</ele>
        <time>2020-08-25T02:45:59Z</time>
      </trkpt>
      <trkpt lat="45.87218" lon="5.77712">
        <ele>1218.0946044922</ele>
        <time>2020-08-25T02:46:24Z</time>
      </trkpt>
      <trkpt lat="45.87426" lon="5.77859">
        <ele>1201.7481689453</ele>
        <time>2020-08-25T02:46:48Z</time>
      </trkpt>
      <trkpt lat="45.87467" lon="5.77881">
        <ele>1196.8773193359</ele>
        <time>2020-08-25T02:47:12Z</time>
      </trkpt>
      <trkpt lat="45.87526" lon="5.77881">
        <ele>1193.2863769531</ele>
        <time>2020-08-25T02:47:37Z</time>
      </trkpt>
      <trkpt lat="45.87607" lon="5.77865">
        <ele>1201.7261962891</ele>
        <time>2020-08-25T02:48:01Z</time>
      </trkpt>
      <trkpt lat="45.87696" lon="5.77882">
        <ele>1195.9543457031</ele>
        <time>2020-08-25T02:48:25Z</time>
      </trkpt>
      <trkpt lat="45.87819" lon="5.7789">
        <ele>1186.7100830078</ele>
        <time>2020-08-25T02:48:50Z</time>
      </trkpt>
      <trkpt lat="45.87935" lon="5.77919">
        <ele>1169.5867919922</ele>
        <time>2020-08-25T02:49:14Z</time>
      </trkpt>
      <trkpt lat="45.88051" lon="5.77925">
        <ele>1163.7843017578</ele>
        <time>2020-08-25T02:49:39Z</time>
      </trkpt>
      <trkpt lat="45.88159" lon="5.77939">
        <ele>1147.9505615234</ele>
        <time>2020-08-25T02:50:03Z</time>
      </trkpt>
      <trkpt lat="45.88226" lon="5.77937">
        <ele>1136.9344482422</ele>
        <time>2020-08-25T02:50:28Z</time>
      </trkpt>
      <trkpt lat="45.88344" lon="5.77923">
        <ele>1124.2114257812</ele>
        <time>2020-08-25T02:50:52Z</time>
      </trkpt>
      <trkpt lat="45.88416" lon="5.77939">
        <ele>1112.45703125</ele>
        <time>2020-08-25T02:51:17Z</time>
      </trkpt>
      <trkpt lat="45.88527" lon="5.77939">
        <ele>1110.25</ele>
        <time>2020-08-25T02:51:41Z</time>
      </trkpt>
      <trkpt lat="45.88617" lon="5.77948">
        <ele>1103.3834228516</ele>
        <time>2020-08-25T02:52:06Z</time>
      </trkpt>
      <trkpt lat="45.88642" lon="5.77954">
        <ele>1101.6097412109</ele>
        <time>2020-08-25T02:52:30Z</time>
      </trkpt>
      <trkpt lat="45.88675" lon="5.7797">
        <ele>1096.3909912109</ele>
        <time>2020-08-25T02:52:55Z</time>
      </trkpt>
      <trkpt lat="45.88804" lon="5.78055">
        <ele>1070.9342041016</ele>
        <time>2020-08-25T02:53:19Z</time>
      </trkpt>
      <trkpt lat="45.88882" lon="5.78116">
        <ele>1057.4488525391</ele>
        <time>2020-08-25T02:53:44Z</time>
      </trkpt>
      <trkpt lat="45.88964" lon="5.78162">
        <ele>1043.1419677734</ele>
        <time>2020-08-25T02:54:08Z</time>
      </trkpt>
      <trkpt lat="45.88987" lon="5.7817">
        <ele>1040.4163818359</ele>
        <time>2020-08-25T02:54:33Z</time>
      </trkpt>
      <trkpt lat="45.8909" lon="5.78196">
        <ele>1025.1120605469</ele>
        <time>2020-08-25T02:54:58Z</time>
      </trkpt>
      <trkpt lat="45.89187" lon="5.78175">
        <ele>1028.6735839844</ele>
        <time>2020-08-25T02:55:22Z</time>
      </trkpt>
      <trkpt lat="45.8941" lon="5.7821">
        <ele>996.44482421875</ele>
        <time>2020-08-25T02:55:47Z</time>
      </trkpt>
      <trkpt lat="45.89656" lon="5.78172">
        <ele>992.11907958984</ele>
        <time>2020-08-25T02:56:12Z</time>
      </trkpt>
      <trkpt lat="45.89678" lon="5.78181">
        <ele>990.3857421875</ele>
        <time>2020-08-25T02:56:36Z</time>
      </trkpt>
      <trkpt lat="45.8977" lon="5.78239">
        <ele>978.21746826172</ele>
        <time>2020-08-25T02:57:01Z</time>
      </trkpt>
      <trkpt lat="45.89777" lon="5.78256">
        <ele>973.12438964844</ele>
        <time>2020-08-25T02:57:26Z</time>
      </trkpt>
      <trkpt lat="45.89772" lon="5.78272">
        <ele>966.59796142578</ele>
        <time>2020-08-25T02:57:51Z</time>
      </trkpt>
      <trkpt lat="45.89767" lon="5.78273">
        <ele>965.8212890625</ele>
        <time>2020-08-25T02:58:15Z</time>
      </trkpt>
      <trkpt lat="45.8974" lon="5.7825">
        <ele>970.07873535156</ele>
        <time>2020-08-25T02:58:40Z</time>
      </trkpt>
      <trkpt lat="45.89662" lon="5.78245">
        <ele>963.35406494141</ele>
        <time>2020-08-25T02:59:05Z</time>
      </trkpt>
      <trkpt lat="45.89629" lon="5.78264">
        <ele>955.5888671875</ele>
        <time>2020-08-25T02:59:30Z</time>
      </trkpt>
      <trkpt lat="45.8959" lon="5.78318">
        <ele>938.3359375</ele>
        <time>2020-08-25T02:59:54Z</time>
      </trkpt>
      <trkpt lat="45.89535" lon="5.78329">
        <ele>938.35662841797</ele>
        <time>2020-08-25T03:00:19Z</time>
      </trkpt>
      <trkpt lat="45.89441" lon="5.78377">
        <ele>921.76489257812</ele>
        <time>2020-08-25T03:00:44Z</time>
      </trkpt>
      <trkpt lat="45.89381" lon="5.78381">
        <ele>921.55694580078</ele>
        <time>2020-08-25T03:01:09Z</time>
      </trkpt>
      <trkpt lat="45.8928" lon="5.78404">
        <ele>908.55847167969</ele>
        <time>2020-08-25T03:01:34Z</time>
      </trkpt>
      <trkpt lat="45.8919" lon="5.78404">
        <ele>902.59393310547</ele>
        <time>2020-08-25T03:01:58Z</time>
      </trkpt>
      <trkpt lat="45.89136" lon="5.78416">
        <ele>894.03979492188</ele>
        <time>2020-08-25T03:02:23Z</time>
      </trkpt>
      <trkpt lat="45.89086" lon="5.78441">
        <ele>887.45794677734</ele>
        <time>2020-08-25T03:02:48Z</time>
      </trkpt>
      <trkpt lat="45.89037" lon="5.78487">
        <ele>878.27624511719</ele>
        <time>2020-08-25T03:03:13Z</time>
      </trkpt>
      <trkpt lat="45.89004" lon="5.78498">
        <ele>880.50006103516</ele>
        <time>2020-08-25T03:03:38Z</time>
      </trkpt>
      <trkpt lat="45.88982" lon="5.78532">
        <ele>877.21545410156</ele>
        <time>2020-08-25T03:04:03Z</time>
      </trkpt>
      <trkpt lat="45.88967" lon="5.78545">
        <ele>876.37414550781</ele>
        <time>2020-08-25T03:04:28Z</time>
      </trkpt>
      <trkpt lat="45.88938" lon="5.78551">
        <ele>875.26190185547</ele>
        <time>2020-08-25T03:04:53Z</time>
      </trkpt>
      <trkpt lat="45.88875" lon="5.78554">
        <ele>874.31591796875</ele>
        <time>2020-08-25T03:05:17Z</time>
      </trkpt>
      <trkpt lat="45.88812" lon="5.78531">
        <ele>876.91094970703</ele>
        <time>2020-08-25T03:05:42Z</time>
      </trkpt>
      <trkpt lat="45.88753" lon="5.78525">
        <ele>874.01251220703</ele>
        <time>2020-08-25T03:06:07Z</time>
      </trkpt>
      <trkpt lat="45.88714" lon="5.7851">
        <ele>875.89978027344</ele>
        <time>2020-08-25T03:06:32Z</time>
      </trkpt>
      <trkpt lat="45.88598" lon="5.78506">
        <ele>866.75732421875</ele>
        <time>2020-08-25T03:06:57Z</time>
      </trkpt>
      <trkpt lat="45.88484" lon="5.78483">
        <ele>867.40667724609</ele>
        <time>2020-08-25T03:07:22Z</time>
      </trkpt>
      <trkpt lat="45.88389" lon="5.78446">
        <ele>875.54479980469</ele>
        <time>2020-08-25T03:07:47Z</time>
      </trkpt>
      <trkpt lat="45.88372" lon="5.78445">
        <ele>874.80059814453</ele>
        <time>2020-08-25T03:08:12Z</time>
      </trkpt>
      <trkpt lat="45.88344" lon="5.78448">
        <ele>871.66290283203</ele>
        <time>2020-08-25T03:08:37Z</time>
      </trkpt>
      <trkpt lat="45.88298" lon="5.78467">
        <ele>862.70404052734</ele>
        <time>2020-08-25T03:09:02Z</time>
      </trkpt>
      <trkpt lat="45.88226" lon="5.78481">
        <ele>859.50427246094</ele>
        <time>2020-08-25T03:09:27Z</time>
      </trkpt>
      <trkpt lat="45.88158" lon="5.78529">
        <ele>842.37036132812</ele>
        <time>2020-08-25T03:09:52Z</time>
      </trkpt>
      <trkpt lat="45.88132" lon="5.78537">
        <ele>844.11224365234</ele>
        <time>2020-08-25T03:10:17Z</time>
      </trkpt>
      <trkpt lat="45.88083" lon="5.78542">
        <ele>846.54919433594</ele>
        <time>2020-08-25T03:10:42Z</time>
      </trkpt>
      <trkpt lat="45.87945" lon="5.78541">
        <ele>847.99639892578</ele>
        <time>2020-08-25T03:11:07Z</time>
      </trkpt>
      <trkpt lat="45.87811" lon="5.78513">
        <ele>849.08294677734</ele>
        <time>2020-08-25T03:11:32Z</time>
      </trkpt>
      <trkpt lat="45.87675" lon="5.78549">
        <ele>832.49212646484</ele>
        <time>2020-08-25T03:11:58Z</time>
      </trkpt>
      <trkpt lat="45.87539" lon="5.78557">
        <ele>831.70928955078</ele>
        <time>2020-08-25T03:12:23Z</time>
      </trkpt>
      <trkpt lat="45.87424" lon="5.78559">
        <ele>832.11968994141</ele>
        <time>2020-08-25T03:12:48Z</time>
      </trkpt>
      <trkpt lat="45.87368" lon="5.78568">
        <ele>827.06048583984</ele>
        <time>2020-08-25T03:13:13Z</time>
      </trkpt>
      <trkpt lat="45.87313" lon="5.78558">
        <ele>829.6103515625</ele>
        <time>2020-08-25T03:13:38Z</time>
      </trkpt>
      <trkpt lat="45.87213" lon="5.78596">
        <ele>807.94024658203</ele>
        <time>2020-08-25T03:14:03Z</time>
      </trkpt>
      <trkpt lat="45.87141" lon="5.7859">
        <ele>813.90887451172</ele>
        <time>2020-08-25T03:14:29Z</time>
      </trkpt>
      <trkpt lat="45.87101" lon="5.786">
        <ele>805.67797851562</ele>
        <time>2020-08-25T03:14:54Z</time>
      </trkpt>
      <trkpt lat="45.87015" lon="5.78608">
        <ele>799.74230957031</ele>
        <time>2020-08-25T03:15:19Z</time>
      </trkpt>
      <trkpt lat="45.86943" lon="5.78643">
        <ele>784.07684326172</ele>
        <time>2020-08-25T03:15:44Z</time>
      </trkpt>
      <trkpt lat="45.86832" lon="5.78672">
        <ele>770.89343261719</ele>
        <time>2020-08-25T03:16:10Z</time>
      </trkpt>
      <trkpt lat="45.8672" lon="5.78718">
        <ele>750.41625976562</ele>
        <time>2020-08-25T03:16:35Z</time>
      </trkpt>
      <trkpt lat="45.86674" lon="5.78725">
        <ele>747.86865234375</ele>
        <time>2020-08-25T03:17:00Z</time>
      </trkpt>
      <trkpt lat="45.86603" lon="5.78716">
        <ele>753.31378173828</ele>
        <time>2020-08-25T03:17:26Z</time>
      </trkpt>
      <trkpt lat="45.86581" lon="5.78719">
        <ele>749.96673583984</ele>
        <time>2020-08-25T03:17:51Z</time>
      </trkpt>
      <trkpt lat="45.86549" lon="5.78741">
        <ele>737.68048095703</ele>
        <time>2020-08-25T03:18:16Z</time>
      </trkpt>
      <trkpt lat="45.86498" lon="5.78787">
        <ele>720.60754394531</ele>
        <time>2020-08-25T03:18:41Z</time>
      </trkpt>
      <trkpt lat="45.86434" lon="5.78862">
        <ele>693.13885498047</ele>
        <time>2020-08-25T03:19:07Z</time>
      </trkpt>
      <trkpt lat="45.86416" lon="5.78872">
        <ele>694.29193115234</ele>
        <time>2020-08-25T03:19:32Z</time>
      </trkpt>
      <trkpt lat="45.86386" lon="5.78876">
        <ele>698.01550292969</ele>
        <time>2020-08-25T03:19:57Z</time>
      </trkpt>
      <trkpt lat="45.86368" lon="5.78872">
        <ele>688.85748291016</ele>
        <time>2020-08-25T03:20:23Z</time>
      </trkpt>
      <trkpt lat="45.86359" lon="5.78858">
        <ele>682.97857666016</ele>
        <time>2020-08-25T03:20:48Z</time>
      </trkpt>
      <trkpt lat="45.86359" lon="5.78816">
        <ele>701.04217529297</ele>
        <time>2020-08-25T03:21:14Z</time>
      </trkpt>
      <trkpt lat="45.86351" lon="5.78813">
        <ele>695.57897949219</ele>
        <time>2020-08-25T03:21:39Z</time>
      </trkpt>
      <trkpt lat="45.86339" lon="5.7887">
        <ele>687.01440429688</ele>
        <time>2020-08-25T03:22:04Z</time>
      </trkpt>
      <trkpt lat="45.86342" lon="5.78898">
        <ele>688.82843017578</ele>
        <time>2020-08-25T03:22:30Z</time>
      </trkpt>
      <trkpt lat="45.8636" lon="5.78914">
        <ele>679.82995605469</ele>
        <time>2020-08-25T03:22:55Z</time>
      </trkpt>
      <trkpt lat="45.86388" lon="5.78922">
        <ele>676.57287597656</ele>
        <time>2020-08-25T03:23:20Z</time>
      </trkpt>
      <trkpt lat="45.8643" lon="5.78917">
        <ele>665.56280517578</ele>
        <time>2020-08-25T03:23:46Z</time>
      </trkpt>
      <trkpt lat="45.86547" lon="5.78859">
        <ele>667.02746582031</ele>
        <time>2020-08-25T03:24:11Z</time>
      </trkpt>
      <trkpt lat="45.8657" lon="5.78832">
        <ele>681.23681640625</ele>
        <time>2020-08-25T03:24:37Z</time>
      </trkpt>
      <trkpt lat="45.86579" lon="5.78827">
        <ele>682.80822753906</ele>
        <time>2020-08-25T03:25:02Z</time>
      </trkpt>
      <trkpt lat="45.8658" lon="5.78833">
        <ele>679.26843261719</ele>
        <time>2020-08-25T03:25:27Z</time>
      </trkpt>
      <trkpt lat="45.8657" lon="5.78851">
        <ele>669.12542724609</ele>
        <time>2020-08-25T03:25:53Z</time>
      </trkpt>
      <trkpt lat="45.86436" lon="5.78972">
        <ele>632.48736572266</ele>
        <time>2020-08-25T03:26:18Z</time>
      </trkpt>
      <trkpt lat="45.8636" lon="5.79015">
        <ele>630.38684082031</ele>
        <time>2020-08-25T03:26:44Z</time>
      </trkpt>
      <trkpt lat="45.86279" lon="5.79076">
        <ele>610.69018554688</ele>
        <time>2020-08-25T03:27:09Z</time>
      </trkpt>
      <trkpt lat="45.86262" lon="5.79081">
        <ele>609.39831542969</ele>
        <time>2020-08-25T03:27:35Z</time>
      </trkpt>
      <trkpt lat="45.86239" lon="5.79072">
        <ele>616.16906738281</ele>
        <time>2020-08-25T03:28:00Z</time>
      </trkpt>
      <trkpt lat="45.86229" lon="5.79074">
        <ele>617.03540039062</ele>
        <time>2020-08-25T03:28:26Z</time>
      </trkpt>
      <trkpt lat="45.86224" lon="5.7908">
        <ele>615.26702880859</ele>
        <time>2020-08-25T03:28:51Z</time>
      </trkpt>
      <trkpt lat="45.86223" lon="5.79093">
        <ele>609.56854248047</ele>
        <time>2020-08-25T03:29:17Z</time>
      </trkpt>
      <trkpt lat="45.8624" lon="5.79103">
        <ele>601.7314453125</ele>
        <time>2020-08-25T03:29:42Z</time>
      </trkpt>
      <trkpt lat="45.86242" lon="5.79115">
        <ele>595.94830322266</ele>
        <time>2020-08-25T03:30:08Z</time>
      </trkpt>
      <trkpt lat="45.86233" lon="5.79123">
        <ele>593.93853759766</ele>
        <time>2020-08-25T03:30:33Z</time>
      </trkpt>
      <trkpt lat="45.86222" lon="5.79122">
        <ele>596.15698242188</ele>
        <time>2020-08-25T03:30:59Z</time>
      </trkpt>
      <trkpt lat="45.86212" lon="5.791">
        <ele>601.30834960938</ele>
        <time>2020-08-25T03:31:24Z</time>
      </trkpt>
      <trkpt lat="45.86202" lon="5.79098">
        <ele>597.70471191406</ele>
        <time>2020-08-25T03:31:50Z</time>
      </trkpt>
      <trkpt lat="45.86198" lon="5.79111">
        <ele>590.05401611328</ele>
        <time>2020-08-25T03:32:15Z</time>
      </trkpt>
      <trkpt lat="45.86205" lon="5.79144">
        <ele>584.76782226562</ele>
        <time>2020-08-25T03:32:41Z</time>
      </trkpt>
      <trkpt lat="45.86198" lon="5.79153">
        <ele>578.82116699219</ele>
        <time>2020-08-25T03:33:06Z</time>
      </trkpt>
      <trkpt lat="45.8619" lon="5.79146">
        <ele>584.15881347656</ele>
        <time>2020-08-25T03:33:32Z</time>
      </trkpt>
      <trkpt lat="45.86185" lon="5.79114">
        <ele>589.15216064453</ele>
        <time>2020-08-25T03:33:57Z</time>
      </trkpt>
      <trkpt lat="45.86176" lon="5.79111">
        <ele>589.22900390625</ele>
        <time>2020-08-25T03:34:23Z</time>
      </trkpt>
      <trkpt lat="45.86149" lon="5.79164">
        <ele>575.77856445312</ele>
        <time>2020-08-25T03:34:48Z</time>
      </trkpt>
      <trkpt lat="45.86151" lon="5.79175">
        <ele>569.95245361328</ele>
        <time>2020-08-25T03:35:14Z</time>
      </trkpt>
      <trkpt lat="45.86173" lon="5.79169">
        <ele>567.51916503906</ele>
        <time>2020-08-25T03:35:39Z</time>
      </trkpt>
      <trkpt lat="45.86177" lon="5.79174">
        <ele>564.38305664062</ele>
        <time>2020-08-25T03:36:05Z</time>
      </trkpt>
      <trkpt lat="45.86176" lon="5.79186">
        <ele>558.29095458984</ele>
        <time>2020-08-25T03:36:30Z</time>
      </trkpt>
      <trkpt lat="45.86133" lon="5.79197">
        <ele>560.72692871094</ele>
        <time>2020-08-25T03:36:56Z</time>
      </trkpt>
      <trkpt lat="45.86122" lon="5.7919">
        <ele>560.29547119141</ele>
        <time>2020-08-25T03:37:21Z</time>
      </trkpt>
      <trkpt lat="45.86119" lon="5.79166">
        <ele>570.51251220703</ele>
        <time>2020-08-25T03:37:47Z</time>
      </trkpt>
      <trkpt lat="45.86156" lon="5.79072">
        <ele>589.00463867188</ele>
        <time>2020-08-25T03:38:13Z</time>
      </trkpt>
      <trkpt lat="45.86185" lon="5.79026">
        <ele>600.50708007812</ele>
        <time>2020-08-25T03:38:38Z</time>
      </trkpt>
      <trkpt lat="45.86203" lon="5.78964">
        <ele>612.51873779297</ele>
        <time>2020-08-25T03:39:04Z</time>
      </trkpt>
      <trkpt lat="45.86224" lon="5.78924">
        <ele>628.94604492188</ele>
        <time>2020-08-25T03:39:29Z</time>
      </trkpt>
      <trkpt lat="45.8623" lon="5.78899">
        <ele>629.84271240234</ele>
        <time>2020-08-25T03:39:55Z</time>
      </trkpt>
      <trkpt lat="45.86221" lon="5.78803">
        <ele>607.37603759766</ele>
        <time>2020-08-25T03:40:20Z</time>
      </trkpt>
      <trkpt lat="45.86178" lon="5.7862">
        <ele>559.02569580078</ele>
        <time>2020-08-25T03:40:46Z</time>
      </trkpt>
      <trkpt lat="45.86138" lon="5.78536">
        <ele>553.57904052734</ele>
        <time>2020-08-25T03:41:12Z</time>
      </trkpt>
      <trkpt lat="45.86088" lon="5.78397">
        <ele>555.66430664062</ele>
        <time>2020-08-25T03:41:37Z</time>
      </trkpt>
      <trkpt lat="45.86013" lon="5.78229">
        <ele>544.23223876953</ele>
        <time>2020-08-25T03:42:03Z</time>
      </trkpt>
      <trkpt lat="45.85992" lon="5.78154">
        <ele>539.84368896484</ele>
        <time>2020-08-25T03:42:29Z</time>
      </trkpt>
      <trkpt lat="45.85979" lon="5.78059">
        <ele>539.00286865234</ele>
        <time>2020-08-25T03:42:54Z</time>
      </trkpt>
      <trkpt lat="45.85931" lon="5.77943">
        <ele>521.15533447266</ele>
        <time>2020-08-25T03:43:20Z</time>
      </trkpt>
      <trkpt lat="45.85893" lon="5.77883">
        <ele>510.45373535156</ele>
        <time>2020-08-25T03:43:46Z</time>
      </trkpt>
      <trkpt lat="45.85877" lon="5.77868">
        <ele>511.18511962891</ele>
        <time>2020-08-25T03:44:12Z</time>
      </trkpt>
      <trkpt lat="45.8585" lon="5.77863">
        <ele>507.30255126953</ele>
        <time>2020-08-25T03:44:37Z</time>
      </trkpt>
      <trkpt lat="45.85796" lon="5.77877">
        <ele>488.01211547852</ele>
        <time>2020-08-25T03:45:03Z</time>
      </trkpt>
      <trkpt lat="45.85744" lon="5.77832">
        <ele>494.68008422852</ele>
        <time>2020-08-25T03:45:29Z</time>
      </trkpt>
      <trkpt lat="45.85724" lon="5.77821">
        <ele>495.55792236328</ele>
        <time>2020-08-25T03:45:54Z</time>
      </trkpt>
      <trkpt lat="45.85709" lon="5.77804">
        <ele>494.91516113281</ele>
        <time>2020-08-25T03:46:20Z</time>
      </trkpt>
      <trkpt lat="45.85702" lon="5.7774">
        <ele>497.19396972656</ele>
        <time>2020-08-25T03:46:46Z</time>
      </trkpt>
      <trkpt lat="45.8568" lon="5.77661">
        <ele>489.13229370117</ele>
        <time>2020-08-25T03:47:12Z</time>
      </trkpt>
      <trkpt lat="45.85681" lon="5.77577">
        <ele>488.28659057617</ele>
        <time>2020-08-25T03:47:38Z</time>
      </trkpt>
      <trkpt lat="45.85677" lon="5.77558">
        <ele>487.24694824219</ele>
        <time>2020-08-25T03:48:03Z</time>
      </trkpt>
      <trkpt lat="45.85667" lon="5.77555">
        <ele>482.99090576172</ele>
        <time>2020-08-25T03:48:29Z</time>
      </trkpt>
      <trkpt lat="45.85663" lon="5.77562">
        <ele>480.85516357422</ele>
        <time>2020-08-25T03:48:55Z</time>
      </trkpt>
      <trkpt lat="45.85647" lon="5.77608">
        <ele>475.28186035156</ele>
        <time>2020-08-25T03:49:21Z</time>
      </trkpt>
      <trkpt lat="45.8562" lon="5.77642">
        <ele>464.36392211914</ele>
        <time>2020-08-25T03:49:47Z</time>
      </trkpt>
      <trkpt lat="45.85611" lon="5.77665">
        <ele>460.73129272461</ele>
        <time>2020-08-25T03:50:12Z</time>
      </trkpt>
      <trkpt lat="45.85612" lon="5.77769">
        <ele>457.75802612305</ele>
        <time>2020-08-25T03:50:38Z</time>
      </trkpt>
      <trkpt lat="45.8562" lon="5.77867">
        <ele>442.87503051758</ele>
        <time>2020-08-25T03:51:04Z</time>
      </trkpt>
      <trkpt lat="45.8563" lon="5.77887">
        <ele>442.79302978516</ele>
        <time>2020-08-25T03:51:30Z</time>
      </trkpt>
      <trkpt lat="45.85704" lon="5.77994">
        <ele>430.52093505859</ele>
        <time>2020-08-25T03:51:56Z</time>
      </trkpt>
      <trkpt lat="45.85762" lon="5.78047">
        <ele>429.33795166016</ele>
        <time>2020-08-25T03:52:22Z</time>
      </trkpt>
      <trkpt lat="45.85789" lon="5.78081">
        <ele>428.70297241211</ele>
        <time>2020-08-25T03:52:47Z</time>
      </trkpt>
      <trkpt lat="45.85843" lon="5.78226">
        <ele>425.2399597168</ele>
        <time>2020-08-25T03:53:13Z</time>
      </trkpt>
      <trkpt lat="45.85839" lon="5.78242">
        <ele>420.84613037109</ele>
        <time>2020-08-25T03:53:39Z</time>
      </trkpt>
      <trkpt lat="45.85833" lon="5.78244">
        <ele>417.69369506836</ele>
        <time>2020-08-25T03:54:05Z</time>
      </trkpt>
      <trkpt lat="45.85736" lon="5.78177">
        <ele>395.69464111328</ele>
        <time>2020-08-25T03:54:31Z</time>
      </trkpt>
      <trkpt lat="45.85707" lon="5.7815">
        <ele>392.37536621094</ele>
        <time>2020-08-25T03:54:57Z</time>
      </trkpt>
      <trkpt lat="45.85695" lon="5.78147">
        <ele>389.494140625</ele>
        <time>2020-08-25T03:55:23Z</time>
      </trkpt>
      <trkpt lat="45.85691" lon="5.78152">
        <ele>387.20758056641</ele>
        <time>2020-08-25T03:55:49Z</time>
      </trkpt>
      <trkpt lat="45.85694" lon="5.78198">
        <ele>380.42752075195</ele>
        <time>2020-08-25T03:56:15Z</time>
      </trkpt>
      <trkpt lat="45.85726" lon="5.78335">
        <ele>368.36709594727</ele>
        <time>2020-08-25T03:56:41Z</time>
      </trkpt>
      <trkpt lat="45.85735" lon="5.78356">
        <ele>366.41159057617</ele>
        <time>2020-08-25T03:57:07Z</time>
      </trkpt>
      <trkpt lat="45.85764" lon="5.78395">
        <ele>365.70169067383</ele>
        <time>2020-08-25T03:57:32Z</time>
      </trkpt>
      <trkpt lat="45.85766" lon="5.78404">
        <ele>365.02627563477</ele>
        <time>2020-08-25T03:57:58Z</time>
      </trkpt>
      <trkpt lat="45.85761" lon="5.78413">
        <ele>363.18521118164</ele>
        <time>2020-08-25T03:58:24Z</time>
      </trkpt>
      <trkpt lat="45.85748" lon="5.78421">
        <ele>359.30950927734</ele>
        <time>2020-08-25T03:58:50Z</time>
      </trkpt>
      <trkpt lat="45.85701" lon="5.78407">
        <ele>352.49914550781</ele>
        <time>2020-08-25T03:59:16Z</time>
      </trkpt>
      <trkpt lat="45.85649" lon="5.78384">
        <ele>348.86679077148</ele>
        <time>2020-08-25T03:59:42Z</time>
      </trkpt>
      <trkpt lat="45.85621" lon="5.78368">
        <ele>346.42919921875</ele>
        <time>2020-08-25T04:00:08Z</time>
      </trkpt>
      <trkpt lat="45.856" lon="5.78348">
        <ele>345.18420410156</ele>
        <time>2020-08-25T04:00:34Z</time>
      </trkpt>
      <trkpt lat="45.85541" lon="5.78274">
        <ele>341.34536743164</ele>
        <time>2020-08-25T04:01:00Z</time>
      </trkpt>
      <trkpt lat="45.85521" lon="5.78241">
        <ele>339.01556396484</ele>
        <time>2020-08-25T04:01:26Z</time>
      </trkpt>
      <trkpt lat="45.85483" lon="5.78157">
        <ele>335.89401245117</ele>
        <time>2020-08-25T04:01:52Z</time>
      </trkpt>
      <trkpt lat="45.85453" lon="5.78073">
        <ele>332.20486450195</ele>
        <time>2020-08-25T04:02:18Z</time>
      </trkpt>
      <trkpt lat="45.8541" lon="5.77992">
        <ele>324.89880371094</ele>
        <time>2020-08-25T04:02:44Z</time>
      </trkpt>
      <trkpt lat="45.85356" lon="5.77935">
        <ele>316.1604309082</ele>
        <time>2020-08-25T04:03:10Z</time>
      </trkpt>
      <trkpt lat="45.85268" lon="5.77872">
        <ele>303.40957641602</ele>
        <time>2020-08-25T04:03:36Z</time>
      </trkpt>
      <trkpt lat="45.85232" lon="5.77853">
        <ele>299.32962036133</ele>
        <time>2020-08-25T04:04:03Z</time>
      </trkpt>
      <trkpt lat="45.85211" lon="5.77847">
        <ele>297.01150512695</ele>
        <time>2020-08-25T04:04:29Z</time>
      </trkpt>
      <trkpt lat="45.85171" lon="5.77857">
        <ele>291.13845825195</ele>
        <time>2020-08-25T04:04:55Z</time>
      </trkpt>
      <trkpt lat="45.8515" lon="5.7785">
        <ele>289.37503051758</ele>
        <time>2020-08-25T04:05:21Z</time>
      </trkpt>
      <trkpt lat="45.85149" lon="5.77831">
        <ele>291.37216186523</ele>
        <time>2020-08-25T04:10:08Z</time>
      </trkpt>
      <trkpt lat="45.8515" lon="5.77808">
        <ele>293.88479614258</ele>
        <time>2020-08-25T04:10:34Z</time>
      </trkpt>
      <trkpt lat="45.85146" lon="5.7779">
        <ele>295.3645324707</ele>
        <time>2020-08-25T04:11:00Z</time>
      </trkpt>
      <trkpt lat="45.8512" lon="5.77734">
        <ele>298.31817626953</ele>
        <time>2020-08-25T04:11:26Z</time>
      </trkpt>
      <trkpt lat="45.85111" lon="5.77656">
        <ele>299.11236572266</ele>
        <time>2020-08-25T04:11:53Z</time>
      </trkpt>
      <trkpt lat="45.8509" lon="5.77608">
        <ele>294.53359985352</ele>
        <time>2020-08-25T04:12:19Z</time>
      </trkpt>
      <trkpt lat="45.85065" lon="5.77588">
        <ele>289.44204711914</ele>
        <time>2020-08-25T04:12:45Z</time>
      </trkpt>
      <trkpt lat="45.85037" lon="5.77546">
        <ele>283.48187255859</ele>
        <time>2020-08-25T04:13:11Z</time>
      </trkpt>
      <trkpt lat="45.85012" lon="5.77485">
        <ele>276.87698364258</ele>
        <time>2020-08-25T04:13:37Z</time>
      </trkpt>
      <trkpt lat="45.8498" lon="5.77474">
        <ele>272.10070800781</ele>
        <time>2020-08-25T04:14:03Z</time>
      </trkpt>
      <trkpt lat="45.84907" lon="5.77465">
        <ele>264.75567626953</ele>
        <time>2020-08-25T04:14:30Z</time>
      </trkpt>
      <trkpt lat="45.84897" lon="5.77474">
        <ele>263.98110961914</ele>
        <time>2020-08-25T04:14:56Z</time>
      </trkpt>
      <trkpt lat="45.84889" lon="5.77509">
        <ele>263.4814453125</ele>
        <time>2020-08-25T04:15:22Z</time>
      </trkpt>
      <trkpt lat="45.84815" lon="5.77">
        <ele>242.79481506348</ele>
        <time>2020-08-25T04:15:48Z</time>
      </trkpt>
      <trkpt lat="45.84794" lon="5.76887">
        <ele>238.11541748047</ele>
        <time>2020-08-25T04:16:15Z</time>
      </trkpt>
      <trkpt lat="45.84794" lon="5.76817">
        <ele>241.54083251953</ele>
        <time>2020-08-25T04:16:41Z</time>
      </trkpt>
      <trkpt lat="45.84816" lon="5.76747">
        <ele>246.88172912598</ele>
        <time>2020-08-25T04:17:07Z</time>
      </trkpt>
      <trkpt lat="45.84963" lon="5.76418">
        <ele>253.92445373535</ele>
        <time>2020-08-25T04:17:33Z</time>
      </trkpt>
      <trkpt lat="45.85101" lon="5.76117">
        <ele>245.36553955078</ele>
        <time>2020-08-25T04:18:00Z</time>
      </trkpt>
      <trkpt lat="45.85169" lon="5.75994">
        <ele>244.52653503418</ele>
        <time>2020-08-25T04:18:26Z</time>
      </trkpt>
      <trkpt lat="45.85195" lon="5.75934">
        <ele>243.56434631348</ele>
        <time>2020-08-25T04:18:53Z</time>
      </trkpt>
      <trkpt lat="45.85215" lon="5.75854">
        <ele>241.88652038574</ele>
        <time>2020-08-25T04:19:19Z</time>
      </trkpt>
      <trkpt lat="45.85264" lon="5.7546">
        <ele>249.810546875</ele>
        <time>2020-08-25T04:19:46Z</time>
      </trkpt>
      <trkpt lat="45.84347" lon="5.73131">
        <ele>238.12170410156</ele>
        <time>2020-08-25T04:20:12Z</time>
      </trkpt>
      <trkpt lat="45.84329" lon="5.73107">
        <ele>238.27638244629</ele>
        <time>2020-08-25T04:20:39Z</time>
      </trkpt>
      <trkpt lat="45.84303" lon="5.73091">
        <ele>238.2611541748</ele>
        <time>2020-08-25T04:21:06Z</time>
      </trkpt>
      <trkpt lat="45.84197" lon="5.73053">
        <ele>243.12675476074</ele>
        <time>2020-08-25T04:21:33Z</time>
      </trkpt>
      <trkpt lat="45.84038" lon="5.72955">
        <ele>251.27967834473</ele>
        <time>2020-08-25T04:22:00Z</time>
      </trkpt>
      <trkpt lat="45.84005" lon="5.72946">
        <ele>251.38636779785</ele>
        <time>2020-08-25T04:22:27Z</time>
      </trkpt>
      <trkpt lat="45.83905" lon="5.72943">
        <ele>251.48889160156</ele>
        <time>2020-08-25T04:22:53Z</time>
      </trkpt>
      <trkpt lat="45.83853" lon="5.72925">
        <ele>254.69819641113</ele>
        <time>2020-08-25T04:23:20Z</time>
      </trkpt>
      <trkpt lat="45.83728" lon="5.72842">
        <ele>263.26473999023</ele>
        <time>2020-08-25T04:23:47Z</time>
      </trkpt>
      <trkpt lat="45.83709" lon="5.72806">
        <ele>265.35830688477</ele>
        <time>2020-08-25T04:24:14Z</time>
      </trkpt>
      <trkpt lat="45.83703" lon="5.72761">
        <ele>267.55853271484</ele>
        <time>2020-08-25T04:24:41Z</time>
      </trkpt>
      <trkpt lat="45.83687" lon="5.72744">
        <ele>268.15832519531</ele>
        <time>2020-08-25T04:25:08Z</time>
      </trkpt>
      <trkpt lat="45.83656" lon="5.72737">
        <ele>268.41235351562</ele>
        <time>2020-08-25T04:25:35Z</time>
      </trkpt>
      <trkpt lat="45.83622" lon="5.72718">
        <ele>269</ele>
        <time>2020-08-25T04:26:02Z</time>
      </trkpt>
      <trkpt lat="45.83548" lon="5.72714">
        <ele>269.12371826172</ele>
        <time>2020-08-25T04:26:29Z</time>
      </trkpt>
      <trkpt lat="45.83524" lon="5.72708">
        <ele>269.08480834961</ele>
        <time>2020-08-25T04:26:56Z</time>
      </trkpt>
      <trkpt lat="45.83518" lon="5.72691">
        <ele>269.61618041992</ele>
        <time>2020-08-25T04:27:23Z</time>
      </trkpt>
      <trkpt lat="45.83518" lon="5.72656">
        <ele>269.90032958984</ele>
        <time>2020-08-25T04:27:50Z</time>
      </trkpt>
      <trkpt lat="45.83491" lon="5.72604">
        <ele>272.1194152832</ele>
        <time>2020-08-25T04:28:17Z</time>
      </trkpt>
      <trkpt lat="45.8349" lon="5.72543">
        <ele>274.97250366211</ele>
        <time>2020-08-25T04:28:44Z</time>
      </trkpt>
      <trkpt lat="45.83474" lon="5.72415">
        <ele>279.31457519531</ele>
        <time>2020-08-25T04:29:11Z</time>
      </trkpt>
      <trkpt lat="45.83448" lon="5.72291">
        <ele>282.47174072266</ele>
        <time>2020-08-25T04:29:38Z</time>
      </trkpt>
      <trkpt lat="45.83442" lon="5.72215">
        <ele>285.82632446289</ele>
        <time>2020-08-25T04:30:05Z</time>
      </trkpt>
      <trkpt lat="45.83426" lon="5.72124">
        <ele>289.24310302734</ele>
        <time>2020-08-25T04:30:32Z</time>
      </trkpt>
      <trkpt lat="45.83425" lon="5.72005">
        <ele>294.2848815918</ele>
        <time>2020-08-25T04:30:59Z</time>
      </trkpt>
      <trkpt lat="45.83417" lon="5.71932">
        <ele>297.61276245117</ele>
        <time>2020-08-25T04:31:26Z</time>
      </trkpt>
      <trkpt lat="45.83378" lon="5.71795">
        <ele>305.61624145508</ele>
        <time>2020-08-25T04:31:53Z</time>
      </trkpt>
      <trkpt lat="45.83361" lon="5.71757">
        <ele>307.79641723633</ele>
        <time>2020-08-25T04:32:20Z</time>
      </trkpt>
      <trkpt lat="45.83328" lon="5.71703">
        <ele>310.6340637207</ele>
        <time>2020-08-25T04:32:47Z</time>
      </trkpt>
      <trkpt lat="45.83302" lon="5.71621">
        <ele>314.16934204102</ele>
        <time>2020-08-25T04:33:14Z</time>
      </trkpt>
      <trkpt lat="45.83288" lon="5.71597">
        <ele>315.89688110352</ele>
        <time>2020-08-25T04:33:41Z</time>
      </trkpt>
      <trkpt lat="45.83244" lon="5.71549">
        <ele>319.22296142578</ele>
        <time>2020-08-25T04:34:08Z</time>
      </trkpt>
      <trkpt lat="45.83204" lon="5.71455">
        <ele>323.94821166992</ele>
        <time>2020-08-25T04:34:35Z</time>
      </trkpt>
      <trkpt lat="45.83181" lon="5.71437">
        <ele>325.08499145508</ele>
        <time>2020-08-25T04:35:03Z</time>
      </trkpt>
      <trkpt lat="45.83113" lon="5.71405">
        <ele>328.36874389648</ele>
        <time>2020-08-25T04:35:30Z</time>
      </trkpt>
      <trkpt lat="45.83042" lon="5.71383">
        <ele>332.11477661133</ele>
        <time>2020-08-25T04:35:57Z</time>
      </trkpt>
      <trkpt lat="45.8297" lon="5.71368">
        <ele>332.85562133789</ele>
        <time>2020-08-25T04:36:24Z</time>
      </trkpt>
      <trkpt lat="45.82947" lon="5.71358">
        <ele>333.57608032227</ele>
        <time>2020-08-25T04:36:51Z</time>
      </trkpt>
      <trkpt lat="45.82925" lon="5.71342">
        <ele>334.16207885742</ele>
        <time>2020-08-25T04:37:18Z</time>
      </trkpt>
      <trkpt lat="45.829" lon="5.71311">
        <ele>334.69076538086</ele>
        <time>2020-08-25T04:37:46Z</time>
      </trkpt>
      <trkpt lat="45.82881" lon="5.71277">
        <ele>334.22885131836</ele>
        <time>2020-08-25T04:38:13Z</time>
      </trkpt>
      <trkpt lat="45.82837" lon="5.71153">
        <ele>332.61895751953</ele>
        <time>2020-08-25T04:38:40Z</time>
      </trkpt>
      <trkpt lat="45.82819" lon="5.71119">
        <ele>333.04742431641</ele>
        <time>2020-08-25T04:39:07Z</time>
      </trkpt>
      <trkpt lat="45.82797" lon="5.71093">
        <ele>333.73489379883</ele>
        <time>2020-08-25T04:39:34Z</time>
      </trkpt>
      <trkpt lat="45.82725" lon="5.71025">
        <ele>335.93688964844</ele>
        <time>2020-08-25T04:40:02Z</time>
      </trkpt>
      <trkpt lat="45.82654" lon="5.7093">
        <ele>344.22027587891</ele>
        <time>2020-08-25T04:40:29Z</time>
      </trkpt>
      <trkpt lat="45.82556" lon="5.70828">
        <ele>354.14636230469</ele>
        <time>2020-08-25T04:40:56Z</time>
      </trkpt>
      <trkpt lat="45.82527" lon="5.70811">
        <ele>353.43637084961</ele>
        <time>2020-08-25T04:41:23Z</time>
      </trkpt>
      <trkpt lat="45.82497" lon="5.70802">
        <ele>353.29690551758</ele>
        <time>2020-08-25T04:41:51Z</time>
      </trkpt>
      <trkpt lat="45.82433" lon="5.70808">
        <ele>354.75296020508</ele>
        <time>2020-08-25T04:42:18Z</time>
      </trkpt>
      <trkpt lat="45.82401" lon="5.70802">
        <ele>353.86801147461</ele>
        <time>2020-08-25T04:42:45Z</time>
      </trkpt>
      <trkpt lat="45.82326" lon="5.70765">
        <ele>352.15893554688</ele>
        <time>2020-08-25T04:43:13Z</time>
      </trkpt>
      <trkpt lat="45.82285" lon="5.70731">
        <ele>350.59503173828</ele>
        <time>2020-08-25T04:43:40Z</time>
      </trkpt>
      <trkpt lat="45.81621" lon="5.69938">
        <ele>330.28851318359</ele>
        <time>2020-08-25T04:44:07Z</time>
      </trkpt>
      <trkpt lat="45.81592" lon="5.69923">
        <ele>331.02239990234</ele>
        <time>2020-08-25T04:44:35Z</time>
      </trkpt>
      <trkpt lat="45.81555" lon="5.69929">
        <ele>332.58264160156</ele>
        <time>2020-08-25T04:45:02Z</time>
      </trkpt>
      <trkpt lat="45.81441" lon="5.70009">
        <ele>335.66641235352</ele>
        <time>2020-08-25T04:45:30Z</time>
      </trkpt>
      <trkpt lat="45.81403" lon="5.70026">
        <ele>335.87377929688</ele>
        <time>2020-08-25T04:45:57Z</time>
      </trkpt>
      <trkpt lat="45.81381" lon="5.70028">
        <ele>335.39886474609</ele>
        <time>2020-08-25T04:46:25Z</time>
      </trkpt>
      <trkpt lat="45.81358" lon="5.70022">
        <ele>334.05368041992</ele>
        <time>2020-08-25T04:46:52Z</time>
      </trkpt>
      <trkpt lat="45.81321" lon="5.7">
        <ele>331.99945068359</ele>
        <time>2020-08-25T04:47:20Z</time>
      </trkpt>
      <trkpt lat="45.81303" lon="5.69964">
        <ele>328.84088134766</ele>
        <time>2020-08-25T04:47:47Z</time>
      </trkpt>
      <trkpt lat="45.81292" lon="5.699">
        <ele>327.69915771484</ele>
        <time>2020-08-25T04:48:15Z</time>
      </trkpt>
      <trkpt lat="45.81291" lon="5.69854">
        <ele>328.26937866211</ele>
        <time>2020-08-25T04:48:42Z</time>
      </trkpt>
      <trkpt lat="45.81308" lon="5.69754">
        <ele>332.73287963867</ele>
        <time>2020-08-25T04:49:10Z</time>
      </trkpt>
      <trkpt lat="45.8131" lon="5.69659">
        <ele>338.69793701172</ele>
        <time>2020-08-25T04:49:38Z</time>
      </trkpt>
      <trkpt lat="45.81276" lon="5.69491">
        <ele>344.01025390625</ele>
        <time>2020-08-25T04:50:05Z</time>
      </trkpt>
      <trkpt lat="45.81263" lon="5.69455">
        <ele>341.93640136719</ele>
        <time>2020-08-25T04:50:33Z</time>
      </trkpt>
      <trkpt lat="45.81191" lon="5.69307">
        <ele>328.91506958008</ele>
        <time>2020-08-25T04:51:00Z</time>
      </trkpt>
      <trkpt lat="45.81146" lon="5.6924">
        <ele>322.40692138672</ele>
        <time>2020-08-25T04:51:28Z</time>
      </trkpt>
      <trkpt lat="45.81108" lon="5.69197">
        <ele>320.34811401367</ele>
        <time>2020-08-25T04:51:56Z</time>
      </trkpt>
      <trkpt lat="45.8093" lon="5.69076">
        <ele>314.90045166016</ele>
        <time>2020-08-25T04:52:23Z</time>
      </trkpt>
      <trkpt lat="45.80896" lon="5.69026">
        <ele>310.41058349609</ele>
        <time>2020-08-25T04:52:51Z</time>
      </trkpt>
      <trkpt lat="45.80876" lon="5.6901">
        <ele>308.79010009766</ele>
        <time>2020-08-25T04:53:19Z</time>
      </trkpt>
      <trkpt lat="45.80833" lon="5.68991">
        <ele>306.42700195312</ele>
        <time>2020-08-25T04:53:46Z</time>
      </trkpt>
      <trkpt lat="45.80775" lon="5.68978">
        <ele>305.85208129883</ele>
        <time>2020-08-25T04:54:14Z</time>
      </trkpt>
      <trkpt lat="45.80705" lon="5.68939">
        <ele>305.01971435547</ele>
        <time>2020-08-25T04:54:42Z</time>
      </trkpt>
      <trkpt lat="45.80635" lon="5.68925">
        <ele>302.36560058594</ele>
        <time>2020-08-25T04:55:09Z</time>
      </trkpt>
      <trkpt lat="45.80524" lon="5.68906">
        <ele>298.65002441406</ele>
        <time>2020-08-25T04:55:37Z</time>
      </trkpt>
      <trkpt lat="45.80483" lon="5.68907">
        <ele>296.90368652344</ele>
        <time>2020-08-25T04:56:05Z</time>
      </trkpt>
      <trkpt lat="45.80183" lon="5.69016">
        <ele>291.82830810547</ele>
        <time>2020-08-25T04:56:33Z</time>
      </trkpt>
      <trkpt lat="45.80166" lon="5.6902">
        <ele>291.39605712891</ele>
        <time>2020-08-25T04:57:00Z</time>
      </trkpt>
      <trkpt lat="45.80152" lon="5.69017">
        <ele>290.73526000977</ele>
        <time>2020-08-25T04:57:28Z</time>
      </trkpt>
      <trkpt lat="45.80139" lon="5.69004">
        <ele>289.6242980957</ele>
        <time>2020-08-25T04:57:56Z</time>
      </trkpt>
      <trkpt lat="45.8013" lon="5.68983">
        <ele>288.84149169922</ele>
        <time>2020-08-25T04:58:24Z</time>
      </trkpt>
      <trkpt lat="45.80101" lon="5.68839">
        <ele>285.98892211914</ele>
        <time>2020-08-25T04:58:52Z</time>
      </trkpt>
      <trkpt lat="45.80087" lon="5.68809">
        <ele>285.4563293457</ele>
        <time>2020-08-25T04:59:20Z</time>
      </trkpt>
      <trkpt lat="45.79999" lon="5.68762">
        <ele>286.01962280273</ele>
        <time>2020-08-25T04:59:47Z</time>
      </trkpt>
      <trkpt lat="45.7992" lon="5.68704">
        <ele>287.42709350586</ele>
        <time>2020-08-25T05:00:15Z</time>
      </trkpt>
      <trkpt lat="45.79902" lon="5.68699">
        <ele>287.92309570312</ele>
        <time>2020-08-25T05:00:43Z</time>
      </trkpt>
      <trkpt lat="45.79863" lon="5.687">
        <ele>288.06616210938</ele>
        <time>2020-08-25T05:01:11Z</time>
      </trkpt>
      <trkpt lat="45.79846" lon="5.68689">
        <ele>288.13073730469</ele>
        <time>2020-08-25T05:01:39Z</time>
      </trkpt>
      <trkpt lat="45.79767" lon="5.68572">
        <ele>286.31723022461</ele>
        <time>2020-08-25T05:02:07Z</time>
      </trkpt>
      <trkpt lat="45.7974" lon="5.6854">
        <ele>283.56661987305</ele>
        <time>2020-08-25T05:02:35Z</time>
      </trkpt>
      <trkpt lat="45.79719" lon="5.68529">
        <ele>281.13284301758</ele>
        <time>2020-08-25T05:03:03Z</time>
      </trkpt>
      <trkpt lat="45.7967" lon="5.68519">
        <ele>279.37716674805</ele>
        <time>2020-08-25T05:03:31Z</time>
      </trkpt>
      <trkpt lat="45.79635" lon="5.68499">
        <ele>277.51504516602</ele>
        <time>2020-08-25T05:03:58Z</time>
      </trkpt>
      <trkpt lat="45.79617" lon="5.68482">
        <ele>276.7692565918</ele>
        <time>2020-08-25T05:04:26Z</time>
      </trkpt>
      <trkpt lat="45.79585" lon="5.68427">
        <ele>269.45068359375</ele>
        <time>2020-08-25T05:04:54Z</time>
      </trkpt>
      <trkpt lat="45.79557" lon="5.68349">
        <ele>257.18121337891</ele>
        <time>2020-08-25T05:05:22Z</time>
      </trkpt>
      <trkpt lat="45.79537" lon="5.68321">
        <ele>254.58192443848</ele>
        <time>2020-08-25T05:05:50Z</time>
      </trkpt>
      <trkpt lat="45.79516" lon="5.68302">
        <ele>253.88975524902</ele>
        <time>2020-08-25T05:06:18Z</time>
      </trkpt>
      <trkpt lat="45.7948" lon="5.68285">
        <ele>254.05236816406</ele>
        <time>2020-08-25T05:06:46Z</time>
      </trkpt>
      <trkpt lat="45.79447" lon="5.6828">
        <ele>253.78311157227</ele>
        <time>2020-08-25T05:07:14Z</time>
      </trkpt>
      <trkpt lat="45.7942" lon="5.68282">
        <ele>254.44464111328</ele>
        <time>2020-08-25T05:07:42Z</time>
      </trkpt>
      <trkpt lat="45.79368" lon="5.68295">
        <ele>255.86276245117</ele>
        <time>2020-08-25T05:08:10Z</time>
      </trkpt>
      <trkpt lat="45.79354" lon="5.68289">
        <ele>252.36396789551</ele>
        <time>2020-08-25T05:08:38Z</time>
      </trkpt>
      <trkpt lat="45.79344" lon="5.68268">
        <ele>247.71530151367</ele>
        <time>2020-08-25T05:09:06Z</time>
      </trkpt>
      <trkpt lat="45.7934" lon="5.68266">
        <ele>236.55859375</ele>
      </trkpt>
      <trkpt lat="45.79339" lon="5.68257">
        <ele>235.84765625</ele>
      </trkpt>
      <trkpt lat="45.79267" lon="5.6826">
        <ele>234.41015625</ele>
      </trkpt>
      <trkpt lat="45.79232" lon="5.68264">
        <ele>233.83203125</ele>
      </trkpt>
      <trkpt lat="45.79217" lon="5.68266">
        <ele>233.7578125</ele>
      </trkpt>
      <trkpt lat="45.79217" lon="5.68266">
        <ele>233.7578125</ele>
      </trkpt>
      <trkpt lat="45.79212" lon="5.68263">
        <ele>234.4828338623</ele>
        <time>2020-08-25T05:11:54Z</time>
      </trkpt>
      <trkpt lat="45.79201" lon="5.68259">
        <ele>234.10319519043</ele>
        <time>2020-08-25T05:12:22Z</time>
      </trkpt>
      <trkpt lat="45.79191" lon="5.68236">
        <ele>232.60385131836</ele>
        <time>2020-08-25T05:12:50Z</time>
      </trkpt>
      <trkpt lat="45.79189" lon="5.68205">
        <ele>231.26124572754</ele>
        <time>2020-08-25T05:13:18Z</time>
      </trkpt>
      <trkpt lat="45.79173" lon="5.67745">
        <ele>237.06192016602</ele>
        <time>2020-08-25T05:13:46Z</time>
      </trkpt>
      <trkpt lat="45.7918" lon="5.67526">
        <ele>250.10250854492</ele>
        <time>2020-08-25T05:14:14Z</time>
      </trkpt>
      <trkpt lat="45.79169" lon="5.67496">
        <ele>250.4790802002</ele>
        <time>2020-08-25T05:14:42Z</time>
      </trkpt>
      <trkpt lat="45.79174" lon="5.67461">
        <ele>252.96426391602</ele>
        <time>2020-08-25T05:15:11Z</time>
      </trkpt>
      <trkpt lat="45.792" lon="5.67408">
        <ele>256.03314208984</ele>
        <time>2020-08-25T05:15:39Z</time>
      </trkpt>
      <trkpt lat="45.79248" lon="5.67255">
        <ele>260.04113769531</ele>
        <time>2020-08-25T05:16:07Z</time>
      </trkpt>
      <trkpt lat="45.7926" lon="5.67209">
        <ele>260.7998046875</ele>
        <time>2020-08-25T05:16:35Z</time>
      </trkpt>
      <trkpt lat="45.7927" lon="5.67134">
        <ele>255.35272216797</ele>
        <time>2020-08-25T05:17:03Z</time>
      </trkpt>
      <trkpt lat="45.79291" lon="5.67061">
        <ele>251.24069213867</ele>
        <time>2020-08-25T05:17:31Z</time>
      </trkpt>
      <trkpt lat="45.79347" lon="5.66927">
        <ele>264.86709594727</ele>
        <time>2020-08-25T05:18:00Z</time>
      </trkpt>
      <trkpt lat="45.79432" lon="5.66669">
        <ele>264.74618530273</ele>
        <time>2020-08-25T05:18:28Z</time>
      </trkpt>
      <trkpt lat="45.79448" lon="5.66606">
        <ele>266.57586669922</ele>
        <time>2020-08-25T05:18:56Z</time>
      </trkpt>
      <trkpt lat="45.7946" lon="5.66514">
        <ele>272.82891845703</ele>
        <time>2020-08-25T05:19:24Z</time>
      </trkpt>
      <trkpt lat="45.79473" lon="5.66469">
        <ele>273.99481201172</ele>
        <time>2020-08-25T05:19:53Z</time>
      </trkpt>
      <trkpt lat="45.79483" lon="5.66447">
        <ele>274.4111328125</ele>
        <time>2020-08-25T05:20:21Z</time>
      </trkpt>
      <trkpt lat="45.79497" lon="5.6643">
        <ele>274.64959716797</ele>
        <time>2020-08-25T05:20:49Z</time>
      </trkpt>
      <trkpt lat="45.79563" lon="5.66388">
        <ele>276.29034423828</ele>
        <time>2020-08-25T05:21:17Z</time>
      </trkpt>
      <trkpt lat="45.79575" lon="5.6636">
        <ele>279.12786865234</ele>
        <time>2020-08-25T05:21:46Z</time>
      </trkpt>
      <trkpt lat="45.79574" lon="5.6634">
        <ele>280.45867919922</ele>
        <time>2020-08-25T05:22:14Z</time>
      </trkpt>
      <trkpt lat="45.79562" lon="5.6631">
        <ele>281.91485595703</ele>
        <time>2020-08-25T05:22:42Z</time>
      </trkpt>
      <trkpt lat="45.79469" lon="5.66245">
        <ele>287.11114501953</ele>
        <time>2020-08-25T05:23:11Z</time>
      </trkpt>
      <trkpt lat="45.7945" lon="5.66223">
        <ele>289.19183349609</ele>
        <time>2020-08-25T05:23:39Z</time>
      </trkpt>
      <trkpt lat="45.79435" lon="5.66185">
        <ele>292.16519165039</ele>
        <time>2020-08-25T05:24:07Z</time>
      </trkpt>
      <trkpt lat="45.79428" lon="5.66142">
        <ele>295.85073852539</ele>
        <time>2020-08-25T05:24:36Z</time>
      </trkpt>
      <trkpt lat="45.7941" lon="5.65908">
        <ele>309.35140991211</ele>
        <time>2020-08-25T05:25:04Z</time>
      </trkpt>
      <trkpt lat="45.79456" lon="5.65724">
        <ele>313.09161376953</ele>
        <time>2020-08-25T05:25:32Z</time>
      </trkpt>
      <trkpt lat="45.79492" lon="5.65663">
        <ele>315.58032226562</ele>
        <time>2020-08-25T05:26:01Z</time>
      </trkpt>
      <trkpt lat="45.79496" lon="5.65647">
        <ele>315.86511230469</ele>
        <time>2020-08-25T05:26:29Z</time>
      </trkpt>
      <trkpt lat="45.79493" lon="5.65623">
        <ele>316.31192016602</ele>
        <time>2020-08-25T05:26:58Z</time>
      </trkpt>
      <trkpt lat="45.79453" lon="5.65494">
        <ele>317.96887207031</ele>
        <time>2020-08-25T05:27:26Z</time>
      </trkpt>
      <trkpt lat="45.79485" lon="5.65459">
        <ele>316.51803588867</ele>
        <time>2020-08-25T05:27:54Z</time>
      </trkpt>
      <trkpt lat="45.79666" lon="5.6533">
        <ele>318.29483032227</ele>
        <time>2020-08-25T05:28:23Z</time>
      </trkpt>
      <trkpt lat="45.79679" lon="5.65303">
        <ele>321.24169921875</ele>
        <time>2020-08-25T05:28:51Z</time>
      </trkpt>
      <trkpt lat="45.79676" lon="5.6523">
        <ele>321.73745727539</ele>
        <time>2020-08-25T05:29:20Z</time>
      </trkpt>
      <trkpt lat="45.7968" lon="5.65211">
        <ele>322.18203735352</ele>
        <time>2020-08-25T05:29:48Z</time>
      </trkpt>
      <trkpt lat="45.79696" lon="5.65201">
        <ele>324.37359619141</ele>
        <time>2020-08-25T05:30:17Z</time>
      </trkpt>
      <trkpt lat="45.79732" lon="5.65212">
        <ele>328.02365112305</ele>
        <time>2020-08-25T05:30:45Z</time>
      </trkpt>
      <trkpt lat="45.79751" lon="5.652">
        <ele>330.02893066406</ele>
        <time>2020-08-25T05:31:14Z</time>
      </trkpt>
      <trkpt lat="45.79766" lon="5.65173">
        <ele>330.98547363281</ele>
        <time>2020-08-25T05:31:42Z</time>
      </trkpt>
      <trkpt lat="45.79788" lon="5.65118">
        <ele>330.11935424805</ele>
        <time>2020-08-25T05:32:11Z</time>
      </trkpt>
      <trkpt lat="45.79825" lon="5.65066">
        <ele>333.14810180664</ele>
        <time>2020-08-25T05:32:39Z</time>
      </trkpt>
      <trkpt lat="45.79849" lon="5.65043">
        <ele>334.44485473633</ele>
        <time>2020-08-25T05:33:08Z</time>
      </trkpt>
      <trkpt lat="45.79921" lon="5.64994">
        <ele>338.80230712891</ele>
        <time>2020-08-25T05:33:36Z</time>
      </trkpt>
      <trkpt lat="45.79982" lon="5.64917">
        <ele>337</ele>
        <time>2020-08-25T05:34:05Z</time>
      </trkpt>
      <trkpt lat="45.80034" lon="5.64874">
        <ele>339.36611938477</ele>
        <time>2020-08-25T05:34:33Z</time>
      </trkpt>
      <trkpt lat="45.80075" lon="5.64807">
        <ele>340.94003295898</ele>
        <time>2020-08-25T05:35:02Z</time>
      </trkpt>
      <trkpt lat="45.80152" lon="5.64664">
        <ele>337.34588623047</ele>
        <time>2020-08-25T05:35:30Z</time>
      </trkpt>
      <trkpt lat="45.80194" lon="5.64614">
        <ele>335.75723266602</ele>
        <time>2020-08-25T05:35:59Z</time>
      </trkpt>
      <trkpt lat="45.80252" lon="5.64525">
        <ele>333.80368041992</ele>
        <time>2020-08-25T05:36:28Z</time>
      </trkpt>
      <trkpt lat="45.80335" lon="5.64424">
        <ele>331.01895141602</ele>
        <time>2020-08-25T05:36:56Z</time>
      </trkpt>
      <trkpt lat="45.80375" lon="5.64388">
        <ele>331.18270874023</ele>
        <time>2020-08-25T05:37:25Z</time>
      </trkpt>
      <trkpt lat="45.80394" lon="5.64379">
        <ele>331.81619262695</ele>
        <time>2020-08-25T05:37:53Z</time>
      </trkpt>
      <trkpt lat="45.80479" lon="5.64381">
        <ele>333.03085327148</ele>
        <time>2020-08-25T05:38:22Z</time>
      </trkpt>
      <trkpt lat="45.80595" lon="5.64355">
        <ele>334.21664428711</ele>
        <time>2020-08-25T05:38:51Z</time>
      </trkpt>
      <trkpt lat="45.80694" lon="5.64302">
        <ele>334.01553344727</ele>
        <time>2020-08-25T05:39:19Z</time>
      </trkpt>
      <trkpt lat="45.80741" lon="5.64267">
        <ele>334.4587097168</ele>
        <time>2020-08-25T05:39:48Z</time>
      </trkpt>
      <trkpt lat="45.80765" lon="5.64233">
        <ele>333.89889526367</ele>
        <time>2020-08-25T05:40:17Z</time>
      </trkpt>
      <trkpt lat="45.80811" lon="5.64145">
        <ele>332.68783569336</ele>
        <time>2020-08-25T05:40:45Z</time>
      </trkpt>
      <trkpt lat="45.80837" lon="5.64086">
        <ele>332.54400634766</ele>
        <time>2020-08-25T05:41:14Z</time>
      </trkpt>
      <trkpt lat="45.80878" lon="5.63964">
        <ele>332.07421875</ele>
        <time>2020-08-25T05:41:43Z</time>
      </trkpt>
      <trkpt lat="45.80876" lon="5.6376">
        <ele>332.95587158203</ele>
        <time>2020-08-25T05:42:12Z</time>
      </trkpt>
      <trkpt lat="45.80882" lon="5.63655">
        <ele>331.92706298828</ele>
        <time>2020-08-25T05:42:40Z</time>
      </trkpt>
      <trkpt lat="45.80868" lon="5.63556">
        <ele>332.71810913086</ele>
        <time>2020-08-25T05:43:09Z</time>
      </trkpt>
      <trkpt lat="45.80858" lon="5.63523">
        <ele>333.93466186523</ele>
        <time>2020-08-25T05:43:38Z</time>
      </trkpt>
      <trkpt lat="45.80822" lon="5.63478">
        <ele>337.6848449707</ele>
        <time>2020-08-25T05:44:07Z</time>
      </trkpt>
      <trkpt lat="45.80811" lon="5.6345">
        <ele>338.67764282227</ele>
        <time>2020-08-25T05:44:36Z</time>
      </trkpt>
      <trkpt lat="45.80798" lon="5.63395">
        <ele>339.58142089844</ele>
        <time>2020-08-25T05:45:04Z</time>
      </trkpt>
      <trkpt lat="45.80794" lon="5.63316">
        <ele>342.65216064453</ele>
        <time>2020-08-25T05:45:33Z</time>
      </trkpt>
      <trkpt lat="45.80784" lon="5.63286">
        <ele>344.47784423828</ele>
        <time>2020-08-25T05:46:02Z</time>
      </trkpt>
      <trkpt lat="45.8075" lon="5.63224">
        <ele>349.45648193359</ele>
        <time>2020-08-25T05:46:31Z</time>
      </trkpt>
      <trkpt lat="45.80666" lon="5.63141">
        <ele>354.92816162109</ele>
        <time>2020-08-25T05:47:00Z</time>
      </trkpt>
      <trkpt lat="45.80639" lon="5.63091">
        <ele>355.9853515625</ele>
        <time>2020-08-25T05:47:29Z</time>
      </trkpt>
      <trkpt lat="45.80633" lon="5.63059">
        <ele>356.25161743164</ele>
        <time>2020-08-25T05:47:58Z</time>
      </trkpt>
      <trkpt lat="45.8063" lon="5.6292">
        <ele>359.84857177734</ele>
        <time>2020-08-25T05:48:26Z</time>
      </trkpt>
      <trkpt lat="45.80632" lon="5.62809">
        <ele>363.34652709961</ele>
        <time>2020-08-25T05:48:55Z</time>
      </trkpt>
      <trkpt lat="45.80617" lon="5.62779">
        <ele>365.13864135742</ele>
        <time>2020-08-25T05:49:24Z</time>
      </trkpt>
      <trkpt lat="45.8061" lon="5.62753">
        <ele>366.19299316406</ele>
        <time>2020-08-25T05:49:53Z</time>
      </trkpt>
      <trkpt lat="45.80616" lon="5.62664">
        <ele>363.32653808594</ele>
        <time>2020-08-25T05:50:22Z</time>
      </trkpt>
      <trkpt lat="45.80612" lon="5.62586">
        <ele>361.53421020508</ele>
        <time>2020-08-25T05:50:51Z</time>
      </trkpt>
      <trkpt lat="45.80598" lon="5.62559">
        <ele>362.36184692383</ele>
        <time>2020-08-25T05:51:20Z</time>
      </trkpt>
      <trkpt lat="45.80583" lon="5.62542">
        <ele>362.64758300781</ele>
        <time>2020-08-25T05:51:49Z</time>
      </trkpt>
      <trkpt lat="45.80525" lon="5.62522">
        <ele>363.99514770508</ele>
        <time>2020-08-25T05:52:18Z</time>
      </trkpt>
      <trkpt lat="45.80516" lon="5.62511">
        <ele>363.92044067383</ele>
        <time>2020-08-25T05:52:47Z</time>
      </trkpt>
      <trkpt lat="45.80513" lon="5.62494">
        <ele>363.42175292969</ele>
        <time>2020-08-25T05:53:16Z</time>
      </trkpt>
      <trkpt lat="45.80521" lon="5.62457">
        <ele>362.77020263672</ele>
        <time>2020-08-25T05:53:45Z</time>
      </trkpt>
      <trkpt lat="45.8063" lon="5.62234">
        <ele>364.25765991211</ele>
        <time>2020-08-25T05:54:14Z</time>
      </trkpt>
      <trkpt lat="45.8065" lon="5.62175">
        <ele>366.06198120117</ele>
        <time>2020-08-25T05:54:43Z</time>
      </trkpt>
      <trkpt lat="45.8065" lon="5.62149">
        <ele>367.84701538086</ele>
        <time>2020-08-25T05:55:12Z</time>
      </trkpt>
      <trkpt lat="45.80644" lon="5.62126">
        <ele>370.20251464844</ele>
        <time>2020-08-25T05:55:41Z</time>
      </trkpt>
      <trkpt lat="45.80606" lon="5.62099">
        <ele>374.11340332031</ele>
        <time>2020-08-25T05:56:10Z</time>
      </trkpt>
      <trkpt lat="45.80596" lon="5.62083">
        <ele>375.59957885742</ele>
        <time>2020-08-25T05:56:39Z</time>
      </trkpt>
      <trkpt lat="45.80591" lon="5.6205">
        <ele>377.44479370117</ele>
        <time>2020-08-25T05:57:08Z</time>
      </trkpt>
      <trkpt lat="45.80598" lon="5.6201">
        <ele>377.48049926758</ele>
        <time>2020-08-25T05:57:37Z</time>
      </trkpt>
      <trkpt lat="45.80618" lon="5.61973">
        <ele>379.22027587891</ele>
        <time>2020-08-25T05:58:06Z</time>
      </trkpt>
      <trkpt lat="45.80663" lon="5.61922">
        <ele>383.69592285156</ele>
        <time>2020-08-25T05:58:35Z</time>
      </trkpt>
      <trkpt lat="45.80757" lon="5.61792">
        <ele>389.49639892578</ele>
        <time>2020-08-25T05:59:04Z</time>
      </trkpt>
      <trkpt lat="45.80802" lon="5.61714">
        <ele>393.87155151367</ele>
        <time>2020-08-25T05:59:33Z</time>
      </trkpt>
      <trkpt lat="45.8084" lon="5.61614">
        <ele>401.03601074219</ele>
        <time>2020-08-25T06:00:02Z</time>
      </trkpt>
      <trkpt lat="45.80884" lon="5.61449">
        <ele>408.75854492188</ele>
        <time>2020-08-25T06:00:31Z</time>
      </trkpt>
      <trkpt lat="45.80931" lon="5.61341">
        <ele>414.62451171875</ele>
        <time>2020-08-25T06:01:00Z</time>
      </trkpt>
      <trkpt lat="45.80934" lon="5.61316">
        <ele>415.65982055664</ele>
        <time>2020-08-25T06:01:29Z</time>
      </trkpt>
      <trkpt lat="45.80932" lon="5.61113">
        <ele>430.09689331055</ele>
        <time>2020-08-25T06:01:58Z</time>
      </trkpt>
      <trkpt lat="45.80927" lon="5.61097">
        <ele>432.10147094727</ele>
        <time>2020-08-25T06:02:27Z</time>
      </trkpt>
      <trkpt lat="45.80907" lon="5.61071">
        <ele>436.36819458008</ele>
        <time>2020-08-25T06:02:57Z</time>
      </trkpt>
      <trkpt lat="45.80905" lon="5.61054">
        <ele>438.38122558594</ele>
        <time>2020-08-25T06:03:26Z</time>
      </trkpt>
      <trkpt lat="45.80909" lon="5.61013">
        <ele>439.23092651367</ele>
        <time>2020-08-25T06:03:55Z</time>
      </trkpt>
      <trkpt lat="45.80937" lon="5.60984">
        <ele>439.13613891602</ele>
        <time>2020-08-25T06:04:24Z</time>
      </trkpt>
      <trkpt lat="45.80948" lon="5.60956">
        <ele>440.17672729492</ele>
        <time>2020-08-25T06:04:53Z</time>
      </trkpt>
      <trkpt lat="45.80954" lon="5.60908">
        <ele>443.60913085938</ele>
        <time>2020-08-25T06:05:22Z</time>
      </trkpt>
      <trkpt lat="45.80954" lon="5.60841">
        <ele>448.7487487793</ele>
        <time>2020-08-25T06:05:52Z</time>
      </trkpt>
      <trkpt lat="45.80948" lon="5.60807">
        <ele>451.02154541016</ele>
        <time>2020-08-25T06:06:21Z</time>
      </trkpt>
      <trkpt lat="45.80918" lon="5.6073">
        <ele>456.68551635742</ele>
        <time>2020-08-25T06:06:50Z</time>
      </trkpt>
      <trkpt lat="45.80887" lon="5.60692">
        <ele>459.43188476562</ele>
        <time>2020-08-25T06:07:19Z</time>
      </trkpt>
      <trkpt lat="45.80845" lon="5.60667">
        <ele>460.66500854492</ele>
        <time>2020-08-25T06:07:48Z</time>
      </trkpt>
      <trkpt lat="45.80796" lon="5.60655">
        <ele>460.35482788086</ele>
        <time>2020-08-25T06:08:18Z</time>
      </trkpt>
      <trkpt lat="45.80735" lon="5.60655">
        <ele>461.80136108398</ele>
        <time>2020-08-25T06:08:47Z</time>
      </trkpt>
      <trkpt lat="45.80722" lon="5.60645">
        <ele>463.57415771484</ele>
        <time>2020-08-25T06:09:16Z</time>
      </trkpt>
      <trkpt lat="45.80725" lon="5.60629">
        <ele>466.12112426758</ele>
        <time>2020-08-25T06:09:45Z</time>
      </trkpt>
      <trkpt lat="45.80733" lon="5.60619">
        <ele>467.82894897461</ele>
        <time>2020-08-25T06:10:15Z</time>
      </trkpt>
      <trkpt lat="45.80768" lon="5.60594">
        <ele>471.77261352539</ele>
        <time>2020-08-25T06:10:44Z</time>
      </trkpt>
      <trkpt lat="45.8083" lon="5.60579">
        <ele>474.21725463867</ele>
        <time>2020-08-25T06:11:13Z</time>
      </trkpt>
      <trkpt lat="45.80856" lon="5.60581">
        <ele>476.16952514648</ele>
        <time>2020-08-25T06:11:42Z</time>
      </trkpt>
      <trkpt lat="45.80863" lon="5.60575">
        <ele>478.19250488281</ele>
        <time>2020-08-25T06:12:12Z</time>
      </trkpt>
      <trkpt lat="45.80868" lon="5.60564">
        <ele>481.10479736328</ele>
        <time>2020-08-25T06:12:41Z</time>
      </trkpt>
      <trkpt lat="45.80864" lon="5.6054">
        <ele>485.31411743164</ele>
        <time>2020-08-25T06:13:10Z</time>
      </trkpt>
      <trkpt lat="45.80832" lon="5.60475">
        <ele>490.15249633789</ele>
        <time>2020-08-25T06:13:39Z</time>
      </trkpt>
      <trkpt lat="45.80821" lon="5.60471">
        <ele>490.21926879883</ele>
        <time>2020-08-25T06:14:09Z</time>
      </trkpt>
      <trkpt lat="45.80804" lon="5.60484">
        <ele>487.81848144531</ele>
        <time>2020-08-25T06:14:38Z</time>
      </trkpt>
      <trkpt lat="45.80784" lon="5.60487">
        <ele>489.35916137695</ele>
        <time>2020-08-25T06:15:07Z</time>
      </trkpt>
      <trkpt lat="45.80775" lon="5.60482">
        <ele>490.98068237305</ele>
        <time>2020-08-25T06:15:36Z</time>
      </trkpt>
      <trkpt lat="45.80768" lon="5.60465">
        <ele>494.14999389648</ele>
        <time>2020-08-25T06:16:06Z</time>
      </trkpt>
      <trkpt lat="45.80758" lon="5.60461">
        <ele>495.65798950195</ele>
        <time>2020-08-25T06:16:35Z</time>
      </trkpt>
      <trkpt lat="45.80696" lon="5.60503">
        <ele>493.67660522461</ele>
        <time>2020-08-25T06:17:04Z</time>
      </trkpt>
      <trkpt lat="45.80656" lon="5.60503">
        <ele>499.21307373047</ele>
        <time>2020-08-25T06:17:34Z</time>
      </trkpt>
      <trkpt lat="45.8063" lon="5.60512">
        <ele>501.56378173828</ele>
        <time>2020-08-25T06:18:03Z</time>
      </trkpt>
      <trkpt lat="45.80622" lon="5.60506">
        <ele>503.42706298828</ele>
        <time>2020-08-25T06:18:32Z</time>
      </trkpt>
      <trkpt lat="45.80624" lon="5.60492">
        <ele>505.11505126953</ele>
        <time>2020-08-25T06:19:02Z</time>
      </trkpt>
      <trkpt lat="45.80686" lon="5.60459">
        <ele>503.8356628418</ele>
        <time>2020-08-25T06:19:31Z</time>
      </trkpt>
      <trkpt lat="45.80717" lon="5.60434">
        <ele>504.16146850586</ele>
        <time>2020-08-25T06:20:00Z</time>
      </trkpt>
      <trkpt lat="45.80733" lon="5.60411">
        <ele>505.9001159668</ele>
        <time>2020-08-25T06:20:30Z</time>
      </trkpt>
      <trkpt lat="45.80744" lon="5.60317">
        <ele>523.49542236328</ele>
        <time>2020-08-25T06:20:59Z</time>
      </trkpt>
      <trkpt lat="45.80741" lon="5.60241">
        <ele>533.70190429688</ele>
        <time>2020-08-25T06:21:28Z</time>
      </trkpt>
      <trkpt lat="45.80751" lon="5.60217">
        <ele>535.48229980469</ele>
        <time>2020-08-25T06:21:58Z</time>
      </trkpt>
      <trkpt lat="45.80768" lon="5.60209">
        <ele>535.55126953125</ele>
        <time>2020-08-25T06:22:27Z</time>
      </trkpt>
      <trkpt lat="45.80779" lon="5.60214">
        <ele>534.09594726562</ele>
        <time>2020-08-25T06:22:56Z</time>
      </trkpt>
      <trkpt lat="45.80834" lon="5.60214">
        <ele>531.24816894531</ele>
        <time>2020-08-25T06:23:26Z</time>
      </trkpt>
      <trkpt lat="45.8089" lon="5.60144">
        <ele>536.87182617188</ele>
        <time>2020-08-25T06:23:55Z</time>
      </trkpt>
      <trkpt lat="45.80911" lon="5.60133">
        <ele>537.55743408203</ele>
        <time>2020-08-25T06:24:25Z</time>
      </trkpt>
      <trkpt lat="45.80952" lon="5.6012">
        <ele>537.81567382812</ele>
        <time>2020-08-25T06:24:54Z</time>
      </trkpt>
      <trkpt lat="45.80967" lon="5.601">
        <ele>538.75164794922</ele>
        <time>2020-08-25T06:25:23Z</time>
      </trkpt>
      <trkpt lat="45.80978" lon="5.60052">
        <ele>542.81848144531</ele>
        <time>2020-08-25T06:25:53Z</time>
      </trkpt>
      <trkpt lat="45.8099" lon="5.60022">
        <ele>547.53314208984</ele>
        <time>2020-08-25T06:26:22Z</time>
      </trkpt>
      <trkpt lat="45.81031" lon="5.59969">
        <ele>553.38549804688</ele>
        <time>2020-08-25T06:26:52Z</time>
      </trkpt>
      <trkpt lat="45.81053" lon="5.59949">
        <ele>556.77191162109</ele>
        <time>2020-08-25T06:27:21Z</time>
      </trkpt>
      <trkpt lat="45.8108" lon="5.59944">
        <ele>559.16558837891</ele>
        <time>2020-08-25T06:27:50Z</time>
      </trkpt>
      <trkpt lat="45.81123" lon="5.59949">
        <ele>559.68383789062</ele>
        <time>2020-08-25T06:28:20Z</time>
      </trkpt>
      <trkpt lat="45.81157" lon="5.59939">
        <ele>561.17236328125</ele>
        <time>2020-08-25T06:28:49Z</time>
      </trkpt>
      <trkpt lat="45.81203" lon="5.59939">
        <ele>560.33825683594</ele>
        <time>2020-08-25T06:29:19Z</time>
      </trkpt>
      <trkpt lat="45.81238" lon="5.59931">
        <ele>560.44366455078</ele>
        <time>2020-08-25T06:29:48Z</time>
      </trkpt>
      <trkpt lat="45.8135" lon="5.59841">
        <ele>574.24847412109</ele>
        <time>2020-08-25T06:30:18Z</time>
      </trkpt>
      <trkpt lat="45.81391" lon="5.59826">
        <ele>575.47979736328</ele>
        <time>2020-08-25T06:30:47Z</time>
      </trkpt>
      <trkpt lat="45.81421" lon="5.59806">
        <ele>579.94525146484</ele>
        <time>2020-08-25T06:31:17Z</time>
      </trkpt>
      <trkpt lat="45.81461" lon="5.59798">
        <ele>580.85357666016</ele>
        <time>2020-08-25T06:31:46Z</time>
      </trkpt>
      <trkpt lat="45.81488" lon="5.59754">
        <ele>584.77838134766</ele>
        <time>2020-08-25T06:32:16Z</time>
      </trkpt>
      <trkpt lat="45.81499" lon="5.59665">
        <ele>590.62915039062</ele>
        <time>2020-08-25T06:32:45Z</time>
      </trkpt>
      <trkpt lat="45.81511" lon="5.59632">
        <ele>593.91296386719</ele>
        <time>2020-08-25T06:33:15Z</time>
      </trkpt>
      <trkpt lat="45.81535" lon="5.59622">
        <ele>593.33563232422</ele>
        <time>2020-08-25T06:33:44Z</time>
      </trkpt>
      <trkpt lat="45.81521" lon="5.5963">
        <ele>593.509765625</ele>
        <time>2020-08-25T06:34:14Z</time>
      </trkpt>
      <trkpt lat="45.81562" lon="5.59619">
        <ele>592.50170898438</ele>
        <time>2020-08-25T06:34:43Z</time>
      </trkpt>
      <trkpt lat="45.81608" lon="5.59635">
        <ele>591.04388427734</ele>
        <time>2020-08-25T06:35:13Z</time>
      </trkpt>
      <trkpt lat="45.8163" lon="5.59623">
        <ele>592.23565673828</ele>
        <time>2020-08-25T06:35:43Z</time>
      </trkpt>
      <trkpt lat="45.81674" lon="5.59576">
        <ele>596.91101074219</ele>
        <time>2020-08-25T06:36:12Z</time>
      </trkpt>
      <trkpt lat="45.81692" lon="5.59513">
        <ele>605.25329589844</ele>
        <time>2020-08-25T06:36:42Z</time>
      </trkpt>
      <trkpt lat="45.81704" lon="5.59486">
        <ele>606.77972412109</ele>
        <time>2020-08-25T06:37:11Z</time>
      </trkpt>
      <trkpt lat="45.81819" lon="5.59385">
        <ele>616.95477294922</ele>
        <time>2020-08-25T06:37:41Z</time>
      </trkpt>
      <trkpt lat="45.81898" lon="5.59345">
        <ele>621.65081787109</ele>
        <time>2020-08-25T06:38:10Z</time>
      </trkpt>
      <trkpt lat="45.81951" lon="5.5929">
        <ele>631.62817382812</ele>
        <time>2020-08-25T06:38:40Z</time>
      </trkpt>
      <trkpt lat="45.82013" lon="5.59261">
        <ele>631.67883300781</ele>
        <time>2020-08-25T06:39:10Z</time>
      </trkpt>
      <trkpt lat="45.82117" lon="5.59142">
        <ele>636.99835205078</ele>
        <time>2020-08-25T06:39:39Z</time>
      </trkpt>
      <trkpt lat="45.82122" lon="5.59128">
        <ele>639.44372558594</ele>
        <time>2020-08-25T06:40:09Z</time>
      </trkpt>
      <trkpt lat="45.82116" lon="5.59116">
        <ele>642.849609375</ele>
        <time>2020-08-25T06:40:39Z</time>
      </trkpt>
      <trkpt lat="45.82084" lon="5.59104">
        <ele>650.68756103516</ele>
        <time>2020-08-25T06:41:08Z</time>
      </trkpt>
      <trkpt lat="45.8207" lon="5.59114">
        <ele>651.31103515625</ele>
        <time>2020-08-25T06:41:38Z</time>
      </trkpt>
      <trkpt lat="45.82059" lon="5.59145">
        <ele>647.24609375</ele>
        <time>2020-08-25T06:42:08Z</time>
      </trkpt>
      <trkpt lat="45.82051" lon="5.59151">
        <ele>647.49005126953</ele>
        <time>2020-08-25T06:42:37Z</time>
      </trkpt>
      <trkpt lat="45.82008" lon="5.59149">
        <ele>654.49084472656</ele>
        <time>2020-08-25T06:43:07Z</time>
      </trkpt>
      <trkpt lat="45.81969" lon="5.59158">
        <ele>659.14263916016</ele>
        <time>2020-08-25T06:43:37Z</time>
      </trkpt>
      <trkpt lat="45.81922" lon="5.59157">
        <ele>663.23577880859</ele>
        <time>2020-08-25T06:44:06Z</time>
      </trkpt>
      <trkpt lat="45.81824" lon="5.59213">
        <ele>662.63482666016</ele>
        <time>2020-08-25T06:44:36Z</time>
      </trkpt>
      <trkpt lat="45.8179" lon="5.59227">
        <ele>661.88372802734</ele>
        <time>2020-08-25T06:45:06Z</time>
      </trkpt>
      <trkpt lat="45.81784" lon="5.59219">
        <ele>664.91357421875</ele>
        <time>2020-08-25T06:45:36Z</time>
      </trkpt>
      <trkpt lat="45.81789" lon="5.59206">
        <ele>666.46569824219</ele>
        <time>2020-08-25T06:46:05Z</time>
      </trkpt>
      <trkpt lat="45.8185" lon="5.59149">
        <ele>673.12780761719</ele>
        <time>2020-08-25T06:46:35Z</time>
      </trkpt>
      <trkpt lat="45.81883" lon="5.59104">
        <ele>676.05706787109</ele>
        <time>2020-08-25T06:47:05Z</time>
      </trkpt>
      <trkpt lat="45.8191" lon="5.59025">
        <ele>685.48272705078</ele>
        <time>2020-08-25T06:47:35Z</time>
      </trkpt>
      <trkpt lat="45.81904" lon="5.59011">
        <ele>687.09411621094</ele>
        <time>2020-08-25T06:48:04Z</time>
      </trkpt>
      <trkpt lat="45.81886" lon="5.59007">
        <ele>688.97009277344</ele>
        <time>2020-08-25T06:48:34Z</time>
      </trkpt>
      <trkpt lat="45.81854" lon="5.59008">
        <ele>692.39538574219</ele>
        <time>2020-08-25T06:49:04Z</time>
      </trkpt>
      <trkpt lat="45.81803" lon="5.59018">
        <ele>696.61840820312</ele>
        <time>2020-08-25T06:49:34Z</time>
      </trkpt>
      <trkpt lat="45.81796" lon="5.5901">
        <ele>698.48706054688</ele>
        <time>2020-08-25T06:50:03Z</time>
      </trkpt>
      <trkpt lat="45.81797" lon="5.58999">
        <ele>699.30291748047</ele>
        <time>2020-08-25T06:50:33Z</time>
      </trkpt>
      <trkpt lat="45.81881" lon="5.58942">
        <ele>697.46795654297</ele>
        <time>2020-08-25T06:51:03Z</time>
      </trkpt>
      <trkpt lat="45.81911" lon="5.58913">
        <ele>698.66821289062</ele>
        <time>2020-08-25T06:51:33Z</time>
      </trkpt>
      <trkpt lat="45.81944" lon="5.58869">
        <ele>701.8056640625</ele>
        <time>2020-08-25T06:52:03Z</time>
      </trkpt>
      <trkpt lat="45.82012" lon="5.58755">
        <ele>720.47540283203</ele>
        <time>2020-08-25T06:52:32Z</time>
      </trkpt>
      <trkpt lat="45.82027" lon="5.58737">
        <ele>722.32507324219</ele>
        <time>2020-08-25T06:53:02Z</time>
      </trkpt>
      <trkpt lat="45.82077" lon="5.58701">
        <ele>723.818359375</ele>
        <time>2020-08-25T06:53:32Z</time>
      </trkpt>
      <trkpt lat="45.821" lon="5.58679">
        <ele>725.55090332031</ele>
        <time>2020-08-25T06:54:02Z</time>
      </trkpt>
      <trkpt lat="45.82147" lon="5.58597">
        <ele>734.79541015625</ele>
        <time>2020-08-25T06:54:32Z</time>
      </trkpt>
      <trkpt lat="45.82169" lon="5.58569">
        <ele>737.09362792969</ele>
        <time>2020-08-25T06:55:02Z</time>
      </trkpt>
      <trkpt lat="45.82201" lon="5.58548">
        <ele>735.16174316406</ele>
        <time>2020-08-25T06:55:32Z</time>
      </trkpt>
      <trkpt lat="45.82247" lon="5.58475">
        <ele>744.14447021484</ele>
        <time>2020-08-25T06:56:01Z</time>
      </trkpt>
      <trkpt lat="45.82284" lon="5.58442">
        <ele>751.22711181641</ele>
        <time>2020-08-25T06:56:31Z</time>
      </trkpt>
      <trkpt lat="45.8233" lon="5.58427">
        <ele>755.45642089844</ele>
        <time>2020-08-25T06:57:01Z</time>
      </trkpt>
      <trkpt lat="45.82367" lon="5.58391">
        <ele>758.11932373047</ele>
        <time>2020-08-25T06:57:31Z</time>
      </trkpt>
      <trkpt lat="45.8238" lon="5.58367">
        <ele>759.95397949219</ele>
        <time>2020-08-25T06:58:01Z</time>
      </trkpt>
      <trkpt lat="45.82399" lon="5.58293">
        <ele>760.71453857422</ele>
        <time>2020-08-25T06:58:31Z</time>
      </trkpt>
      <trkpt lat="45.82441" lon="5.58238">
        <ele>760.25390625</ele>
        <time>2020-08-25T06:59:01Z</time>
      </trkpt>
      <trkpt lat="45.8246" lon="5.5819">
        <ele>762.32885742188</ele>
        <time>2020-08-25T06:59:31Z</time>
      </trkpt>
      <trkpt lat="45.82527" lon="5.5807">
        <ele>767.34655761719</ele>
        <time>2020-08-25T07:00:01Z</time>
      </trkpt>
      <trkpt lat="45.82546" lon="5.58047">
        <ele>767.64739990234</ele>
        <time>2020-08-25T07:00:31Z</time>
      </trkpt>
      <trkpt lat="45.8266" lon="5.57931">
        <ele>769.50421142578</ele>
        <time>2020-08-25T07:01:01Z</time>
      </trkpt>
      <trkpt lat="45.82691" lon="5.57881">
        <ele>772.85601806641</ele>
        <time>2020-08-25T07:01:31Z</time>
      </trkpt>
      <trkpt lat="45.82723" lon="5.57806">
        <ele>770.02093505859</ele>
        <time>2020-08-25T07:02:01Z</time>
      </trkpt>
      <trkpt lat="45.82771" lon="5.57742">
        <ele>772.02716064453</ele>
        <time>2020-08-25T07:02:31Z</time>
      </trkpt>
      <trkpt lat="45.82797" lon="5.5768">
        <ele>768.52166748047</ele>
        <time>2020-08-25T07:03:01Z</time>
      </trkpt>
      <trkpt lat="45.82823" lon="5.57634">
        <ele>764.58074951172</ele>
        <time>2020-08-25T07:03:31Z</time>
      </trkpt>
      <trkpt lat="45.82866" lon="5.57521">
        <ele>770.66326904297</ele>
        <time>2020-08-25T07:04:01Z</time>
      </trkpt>
      <trkpt lat="45.82907" lon="5.57455">
        <ele>773.26336669922</ele>
        <time>2020-08-25T07:04:31Z</time>
      </trkpt>
      <trkpt lat="45.82947" lon="5.57407">
        <ele>773.23736572266</ele>
        <time>2020-08-25T07:05:01Z</time>
      </trkpt>
      <trkpt lat="45.82978" lon="5.57269">
        <ele>785.12939453125</ele>
        <time>2020-08-25T07:05:31Z</time>
      </trkpt>
      <trkpt lat="45.82998" lon="5.57241">
        <ele>784.99932861328</ele>
        <time>2020-08-25T07:06:01Z</time>
      </trkpt>
      <trkpt lat="45.83053" lon="5.57223">
        <ele>777.42907714844</ele>
        <time>2020-08-25T07:06:31Z</time>
      </trkpt>
      <trkpt lat="45.83071" lon="5.57205">
        <ele>776.81719970703</ele>
        <time>2020-08-25T07:07:01Z</time>
      </trkpt>
      <trkpt lat="45.83111" lon="5.57135">
        <ele>779.11877441406</ele>
        <time>2020-08-25T07:07:31Z</time>
      </trkpt>
      <trkpt lat="45.83165" lon="5.57063">
        <ele>780.82409667969</ele>
        <time>2020-08-25T07:08:01Z</time>
      </trkpt>
      <trkpt lat="45.83212" lon="5.56988">
        <ele>784.38146972656</ele>
        <time>2020-08-25T07:08:32Z</time>
      </trkpt>
      <trkpt lat="45.83265" lon="5.56917">
        <ele>785.46026611328</ele>
        <time>2020-08-25T07:09:02Z</time>
      </trkpt>
      <trkpt lat="45.83293" lon="5.56889">
        <ele>784.27984619141</ele>
        <time>2020-08-25T07:09:32Z</time>
      </trkpt>
      <trkpt lat="45.83315" lon="5.56794">
        <ele>796.59375</ele>
        <time>2020-08-25T07:10:02Z</time>
      </trkpt>
      <trkpt lat="45.83338" lon="5.56756">
        <ele>795.68664550781</ele>
        <time>2020-08-25T07:10:32Z</time>
      </trkpt>
      <trkpt lat="45.83388" lon="5.56708">
        <ele>788.57440185547</ele>
        <time>2020-08-25T07:11:02Z</time>
      </trkpt>
      <trkpt lat="45.834" lon="5.56686">
        <ele>784.73602294922</ele>
        <time>2020-08-25T07:11:33Z</time>
      </trkpt>
      <trkpt lat="45.83399" lon="5.56669">
        <ele>785.39575195312</ele>
        <time>2020-08-25T07:12:03Z</time>
      </trkpt>
      <trkpt lat="45.83371" lon="5.56623">
        <ele>795.63861083984</ele>
        <time>2020-08-25T07:12:33Z</time>
      </trkpt>
      <trkpt lat="45.83342" lon="5.56562">
        <ele>798.95666503906</ele>
        <time>2020-08-25T07:13:03Z</time>
      </trkpt>
      <trkpt lat="45.83273" lon="5.56448">
        <ele>807.70190429688</ele>
        <time>2020-08-25T07:13:33Z</time>
      </trkpt>
      <trkpt lat="45.83216" lon="5.56375">
        <ele>815.80718994141</ele>
        <time>2020-08-25T07:14:04Z</time>
      </trkpt>
      <trkpt lat="45.83194" lon="5.5632">
        <ele>814.39233398438</ele>
        <time>2020-08-25T07:14:34Z</time>
      </trkpt>
      <trkpt lat="45.83186" lon="5.56274">
        <ele>808.13433837891</ele>
        <time>2020-08-25T07:15:04Z</time>
      </trkpt>
      <trkpt lat="45.83203" lon="5.56185">
        <ele>800.06616210938</ele>
        <time>2020-08-25T07:15:34Z</time>
      </trkpt>
      <trkpt lat="45.83196" lon="5.56151">
        <ele>802.92034912109</ele>
        <time>2020-08-25T07:16:05Z</time>
      </trkpt>
      <trkpt lat="45.83149" lon="5.56022">
        <ele>811.11499023438</ele>
        <time>2020-08-25T07:16:35Z</time>
      </trkpt>
      <trkpt lat="45.83144" lon="5.55945">
        <ele>807.85723876953</ele>
        <time>2020-08-25T07:17:05Z</time>
      </trkpt>
      <trkpt lat="45.83165" lon="5.55899">
        <ele>802.09796142578</ele>
        <time>2020-08-25T07:17:36Z</time>
      </trkpt>
      <trkpt lat="45.8322" lon="5.55717">
        <ele>796.04992675781</ele>
        <time>2020-08-25T07:18:06Z</time>
      </trkpt>
      <trkpt lat="45.83245" lon="5.55661">
        <ele>795.48663330078</ele>
        <time>2020-08-25T07:18:36Z</time>
      </trkpt>
      <trkpt lat="45.83275" lon="5.5557">
        <ele>802.10717773438</ele>
        <time>2020-08-25T07:19:07Z</time>
      </trkpt>
      <trkpt lat="45.83395" lon="5.55398">
        <ele>810.55413818359</ele>
        <time>2020-08-25T07:19:37Z</time>
      </trkpt>
      <trkpt lat="45.83449" lon="5.55343">
        <ele>804.70147705078</ele>
        <time>2020-08-25T07:20:07Z</time>
      </trkpt>
      <trkpt lat="45.8346" lon="5.55324">
        <ele>805.06579589844</ele>
        <time>2020-08-25T07:20:38Z</time>
      </trkpt>
      <trkpt lat="45.83477" lon="5.55256">
        <ele>810.20227050781</ele>
        <time>2020-08-25T07:21:08Z</time>
      </trkpt>
      <trkpt lat="45.83475" lon="5.55173">
        <ele>818.48321533203</ele>
        <time>2020-08-25T07:21:38Z</time>
      </trkpt>
      <trkpt lat="45.83511" lon="5.55068">
        <ele>811.47729492188</ele>
        <time>2020-08-25T07:22:09Z</time>
      </trkpt>
      <trkpt lat="45.83535" lon="5.54914">
        <ele>812.55352783203</ele>
        <time>2020-08-25T07:22:39Z</time>
      </trkpt>
      <trkpt lat="45.83549" lon="5.54869">
        <ele>812.50360107422</ele>
        <time>2020-08-25T07:23:10Z</time>
      </trkpt>
      <trkpt lat="45.83628" lon="5.54752">
        <ele>812.91510009766</ele>
        <time>2020-08-25T07:23:40Z</time>
      </trkpt>
      <trkpt lat="45.83659" lon="5.54696">
        <ele>813.29156494141</ele>
        <time>2020-08-25T07:24:11Z</time>
      </trkpt>
      <trkpt lat="45.83722" lon="5.54607">
        <ele>812.31433105469</ele>
        <time>2020-08-25T07:24:41Z</time>
      </trkpt>
      <trkpt lat="45.83797" lon="5.5448">
        <ele>811.62060546875</ele>
        <time>2020-08-25T07:25:12Z</time>
      </trkpt>
      <trkpt lat="45.83864" lon="5.54379">
        <ele>812.25115966797</ele>
        <time>2020-08-25T07:25:42Z</time>
      </trkpt>
      <trkpt lat="45.83885" lon="5.54339">
        <ele>811.41394042969</ele>
        <time>2020-08-25T07:26:13Z</time>
      </trkpt>
      <trkpt lat="45.83892" lon="5.54316">
        <ele>811.12603759766</ele>
        <time>2020-08-25T07:26:43Z</time>
      </trkpt>
      <trkpt lat="45.83897" lon="5.54266">
        <ele>813.50915527344</ele>
        <time>2020-08-25T07:27:14Z</time>
      </trkpt>
      <trkpt lat="45.83903" lon="5.54128">
        <ele>821.03314208984</ele>
        <time>2020-08-25T07:27:44Z</time>
      </trkpt>
      <trkpt lat="45.83901" lon="5.54104">
        <ele>823.36743164062</ele>
        <time>2020-08-25T07:28:15Z</time>
      </trkpt>
      <trkpt lat="45.83893" lon="5.54088">
        <ele>826.08624267578</ele>
        <time>2020-08-25T07:28:45Z</time>
      </trkpt>
      <trkpt lat="45.83852" lon="5.54052">
        <ele>831.634765625</ele>
        <time>2020-08-25T07:29:16Z</time>
      </trkpt>
      <trkpt lat="45.83823" lon="5.54017">
        <ele>833.16870117188</ele>
        <time>2020-08-25T07:29:47Z</time>
      </trkpt>
      <trkpt lat="45.83695" lon="5.53825">
        <ele>846.37255859375</ele>
        <time>2020-08-25T07:30:17Z</time>
      </trkpt>
      <trkpt lat="45.83689" lon="5.53811">
        <ele>847.31402587891</ele>
        <time>2020-08-25T07:30:48Z</time>
      </trkpt>
      <trkpt lat="45.83591" lon="5.53865">
        <ele>849.80914306641</ele>
        <time>2020-08-25T07:31:18Z</time>
      </trkpt>
      <trkpt lat="45.83555" lon="5.53879">
        <ele>852.27435302734</ele>
        <time>2020-08-25T07:31:49Z</time>
      </trkpt>
      <trkpt lat="45.83544" lon="5.53878">
        <ele>852.42272949219</ele>
        <time>2020-08-25T07:32:20Z</time>
      </trkpt>
      <trkpt lat="45.83391" lon="5.53746">
        <ele>858.91101074219</ele>
        <time>2020-08-25T07:32:50Z</time>
      </trkpt>
      <trkpt lat="45.83294" lon="5.53697">
        <ele>861.32257080078</ele>
        <time>2020-08-25T07:33:21Z</time>
      </trkpt>
      <trkpt lat="45.83283" lon="5.53686">
        <ele>860.45819091797</ele>
        <time>2020-08-25T07:33:52Z</time>
      </trkpt>
      <trkpt lat="45.83277" lon="5.53668">
        <ele>860.28039550781</ele>
        <time>2020-08-25T07:34:22Z</time>
      </trkpt>
      <trkpt lat="45.83275" lon="5.53625">
        <ele>860.82403564453</ele>
        <time>2020-08-25T07:34:53Z</time>
      </trkpt>
      <trkpt lat="45.83287" lon="5.53587">
        <ele>861.03259277344</ele>
        <time>2020-08-25T07:35:24Z</time>
      </trkpt>
      <trkpt lat="45.83394" lon="5.53406">
        <ele>867.31530761719</ele>
        <time>2020-08-25T07:35:55Z</time>
      </trkpt>
      <trkpt lat="45.83435" lon="5.53326">
        <ele>870.78649902344</ele>
        <time>2020-08-25T07:36:25Z</time>
      </trkpt>
      <trkpt lat="45.83438" lon="5.53295">
        <ele>869.71838378906</ele>
        <time>2020-08-25T07:36:56Z</time>
      </trkpt>
      <trkpt lat="45.83418" lon="5.53237">
        <ele>865.15258789062</ele>
        <time>2020-08-25T07:37:27Z</time>
      </trkpt>
      <trkpt lat="45.83414" lon="5.53196">
        <ele>862.97277832031</ele>
        <time>2020-08-25T07:37:58Z</time>
      </trkpt>
      <trkpt lat="45.83427" lon="5.53139">
        <ele>862.14117431641</ele>
        <time>2020-08-25T07:38:28Z</time>
      </trkpt>
      <trkpt lat="45.83458" lon="5.53063">
        <ele>863.43078613281</ele>
        <time>2020-08-25T07:38:59Z</time>
      </trkpt>
      <trkpt lat="45.8346" lon="5.53045">
        <ele>863.88616943359</ele>
        <time>2020-08-25T07:39:30Z</time>
      </trkpt>
      <trkpt lat="45.83454" lon="5.53003">
        <ele>862.41394042969</ele>
        <time>2020-08-25T07:40:01Z</time>
      </trkpt>
      <trkpt lat="45.83434" lon="5.52937">
        <ele>860.51293945312</ele>
        <time>2020-08-25T07:40:32Z</time>
      </trkpt>
      <trkpt lat="45.83385" lon="5.52855">
        <ele>860.66357421875</ele>
        <time>2020-08-25T07:41:02Z</time>
      </trkpt>
      <trkpt lat="45.83364" lon="5.52756">
        <ele>864.99279785156</ele>
        <time>2020-08-25T07:41:33Z</time>
      </trkpt>
      <trkpt lat="45.83363" lon="5.52737">
        <ele>865.66363525391</ele>
        <time>2020-08-25T07:42:04Z</time>
      </trkpt>
      <trkpt lat="45.8337" lon="5.52708">
        <ele>867.18438720703</ele>
        <time>2020-08-25T07:42:35Z</time>
      </trkpt>
      <trkpt lat="45.83413" lon="5.52653">
        <ele>872.35424804688</ele>
        <time>2020-08-25T07:43:06Z</time>
      </trkpt>
      <trkpt lat="45.83409" lon="5.52622">
        <ele>875.73504638672</ele>
        <time>2020-08-25T07:43:36Z</time>
      </trkpt>
      <trkpt lat="45.8339" lon="5.52587">
        <ele>878.92230224609</ele>
        <time>2020-08-25T07:44:07Z</time>
      </trkpt>
      <trkpt lat="45.83347" lon="5.52553">
        <ele>881.24206542969</ele>
        <time>2020-08-25T07:44:38Z</time>
      </trkpt>
      <trkpt lat="45.83316" lon="5.52519">
        <ele>884.8779296875</ele>
        <time>2020-08-25T07:45:09Z</time>
      </trkpt>
      <trkpt lat="45.83239" lon="5.52362">
        <ele>893.98822021484</ele>
        <time>2020-08-25T07:45:40Z</time>
      </trkpt>
      <trkpt lat="45.83215" lon="5.52302">
        <ele>894.61169433594</ele>
        <time>2020-08-25T07:46:11Z</time>
      </trkpt>
      <trkpt lat="45.83219" lon="5.52252">
        <ele>897.03594970703</ele>
        <time>2020-08-25T07:46:42Z</time>
      </trkpt>
      <trkpt lat="45.83271" lon="5.5212">
        <ele>904.66809082031</ele>
        <time>2020-08-25T07:47:13Z</time>
      </trkpt>
      <trkpt lat="45.83298" lon="5.52024">
        <ele>904.17907714844</ele>
        <time>2020-08-25T07:47:44Z</time>
      </trkpt>
      <trkpt lat="45.83306" lon="5.52007">
        <ele>903.86889648438</ele>
        <time>2020-08-25T07:48:14Z</time>
      </trkpt>
      <trkpt lat="45.8332" lon="5.51993">
        <ele>905.20147705078</ele>
        <time>2020-08-25T07:48:45Z</time>
      </trkpt>
      <trkpt lat="45.83386" lon="5.51967">
        <ele>911.51971435547</ele>
        <time>2020-08-25T07:49:16Z</time>
      </trkpt>
      <trkpt lat="45.83431" lon="5.51934">
        <ele>913.22998046875</ele>
        <time>2020-08-25T07:49:47Z</time>
      </trkpt>
      <trkpt lat="45.83447" lon="5.51911">
        <ele>912.74005126953</ele>
        <time>2020-08-25T07:50:18Z</time>
      </trkpt>
      <trkpt lat="45.83476" lon="5.51851">
        <ele>911.23693847656</ele>
        <time>2020-08-25T07:50:49Z</time>
      </trkpt>
      <trkpt lat="45.83564" lon="5.51735">
        <ele>914.97393798828</ele>
        <time>2020-08-25T07:51:20Z</time>
      </trkpt>
      <trkpt lat="45.83656" lon="5.51689">
        <ele>916.63116455078</ele>
        <time>2020-08-25T07:51:51Z</time>
      </trkpt>
      <trkpt lat="45.83711" lon="5.5167">
        <ele>918.13690185547</ele>
        <time>2020-08-25T07:52:22Z</time>
      </trkpt>
      <trkpt lat="45.83721" lon="5.51661">
        <ele>918.13818359375</ele>
        <time>2020-08-25T07:52:53Z</time>
      </trkpt>
      <trkpt lat="45.83726" lon="5.51638">
        <ele>915.40679931641</ele>
        <time>2020-08-25T07:53:24Z</time>
      </trkpt>
      <trkpt lat="45.8371" lon="5.51587">
        <ele>911.12249755859</ele>
        <time>2020-08-25T07:53:55Z</time>
      </trkpt>
      <trkpt lat="45.83704" lon="5.51511">
        <ele>909.26806640625</ele>
        <time>2020-08-25T07:54:26Z</time>
      </trkpt>
      <trkpt lat="45.8371" lon="5.51477">
        <ele>909.85797119141</ele>
        <time>2020-08-25T07:54:57Z</time>
      </trkpt>
      <trkpt lat="45.83729" lon="5.51447">
        <ele>911.34350585938</ele>
        <time>2020-08-25T07:55:28Z</time>
      </trkpt>
      <trkpt lat="45.83902" lon="5.51275">
        <ele>911.38061523438</ele>
        <time>2020-08-25T07:55:59Z</time>
      </trkpt>
      <trkpt lat="45.83936" lon="5.51247">
        <ele>912.3408203125</ele>
        <time>2020-08-25T07:56:31Z</time>
      </trkpt>
      <trkpt lat="45.83971" lon="5.51223">
        <ele>912.05828857422</ele>
        <time>2020-08-25T07:57:02Z</time>
      </trkpt>
      <trkpt lat="45.84008" lon="5.51206">
        <ele>915.45550537109</ele>
        <time>2020-08-25T07:57:33Z</time>
      </trkpt>
      <trkpt lat="45.84091" lon="5.51181">
        <ele>924.90179443359</ele>
        <time>2020-08-25T07:58:04Z</time>
      </trkpt>
      <trkpt lat="45.84125" lon="5.51154">
        <ele>928.33465576172</ele>
        <time>2020-08-25T07:58:35Z</time>
      </trkpt>
      <trkpt lat="45.84139" lon="5.51124">
        <ele>926.55877685547</ele>
        <time>2020-08-25T07:59:06Z</time>
      </trkpt>
      <trkpt lat="45.84141" lon="5.51051">
        <ele>916.59259033203</ele>
        <time>2020-08-25T07:59:37Z</time>
      </trkpt>
      <trkpt lat="45.84147" lon="5.51023">
        <ele>914.28625488281</ele>
        <time>2020-08-25T08:00:08Z</time>
      </trkpt>
      <trkpt lat="45.84197" lon="5.50924">
        <ele>910.74096679688</ele>
        <time>2020-08-25T08:00:40Z</time>
      </trkpt>
      <trkpt lat="45.84248" lon="5.50768">
        <ele>896.70568847656</ele>
        <time>2020-08-25T08:01:11Z</time>
      </trkpt>
      <trkpt lat="45.84295" lon="5.50678">
        <ele>891.05718994141</ele>
        <time>2020-08-25T08:01:42Z</time>
      </trkpt>
      <trkpt lat="45.84348" lon="5.50612">
        <ele>884.99700927734</ele>
        <time>2020-08-25T08:02:13Z</time>
      </trkpt>
      <trkpt lat="45.84389" lon="5.50585">
        <ele>883.20446777344</ele>
        <time>2020-08-25T08:02:44Z</time>
      </trkpt>
      <trkpt lat="45.84451" lon="5.50568">
        <ele>882.58135986328</ele>
        <time>2020-08-25T08:03:16Z</time>
      </trkpt>
      <trkpt lat="45.84488" lon="5.50564">
        <ele>883.72894287109</ele>
        <time>2020-08-25T08:03:47Z</time>
      </trkpt>
      <trkpt lat="45.84563" lon="5.50526">
        <ele>885.55346679688</ele>
        <time>2020-08-25T08:04:18Z</time>
      </trkpt>
      <trkpt lat="45.84698" lon="5.50427">
        <ele>874.42785644531</ele>
        <time>2020-08-25T08:04:49Z</time>
      </trkpt>
      <trkpt lat="45.84816" lon="5.50359">
        <ele>863.16436767578</ele>
        <time>2020-08-25T08:05:21Z</time>
      </trkpt>
      <trkpt lat="45.84834" lon="5.50354">
        <ele>863.02203369141</ele>
        <time>2020-08-25T08:05:52Z</time>
      </trkpt>
      <trkpt lat="45.8486" lon="5.50358">
        <ele>865.52209472656</ele>
        <time>2020-08-25T08:06:23Z</time>
      </trkpt>
      <trkpt lat="45.84884" lon="5.50364">
        <ele>868.31396484375</ele>
        <time>2020-08-25T08:06:54Z</time>
      </trkpt>
      <trkpt lat="45.84937" lon="5.50389">
        <ele>883.35729980469</ele>
        <time>2020-08-25T08:07:26Z</time>
      </trkpt>
      <trkpt lat="45.84965" lon="5.50379">
        <ele>884.50836181641</ele>
        <time>2020-08-25T08:07:57Z</time>
      </trkpt>
      <trkpt lat="45.85039" lon="5.50334">
        <ele>887.0830078125</ele>
        <time>2020-08-25T08:08:28Z</time>
      </trkpt>
      <trkpt lat="45.85112" lon="5.50269">
        <ele>887.42724609375</ele>
        <time>2020-08-25T08:09:00Z</time>
      </trkpt>
      <trkpt lat="45.85168" lon="5.50244">
        <ele>889.12786865234</ele>
        <time>2020-08-25T08:09:31Z</time>
      </trkpt>
      <trkpt lat="45.85224" lon="5.50212">
        <ele>899.10302734375</ele>
        <time>2020-08-25T08:10:02Z</time>
      </trkpt>
      <trkpt lat="45.85274" lon="5.50167">
        <ele>900.16247558594</ele>
        <time>2020-08-25T08:10:34Z</time>
      </trkpt>
      <trkpt lat="45.85309" lon="5.50095">
        <ele>909.62780761719</ele>
        <time>2020-08-25T08:11:05Z</time>
      </trkpt>
      <trkpt lat="45.85368" lon="5.50013">
        <ele>914.51104736328</ele>
        <time>2020-08-25T08:11:37Z</time>
      </trkpt>
      <trkpt lat="45.85388" lon="5.49961">
        <ele>915.65325927734</ele>
        <time>2020-08-25T08:12:08Z</time>
      </trkpt>
      <trkpt lat="45.8539" lon="5.49921">
        <ele>910.08239746094</ele>
        <time>2020-08-25T08:12:39Z</time>
      </trkpt>
      <trkpt lat="45.85387" lon="5.49902">
        <ele>906.29333496094</ele>
        <time>2020-08-25T08:13:11Z</time>
      </trkpt>
      <trkpt lat="45.85364" lon="5.49835">
        <ele>906.20434570312</ele>
        <time>2020-08-25T08:13:42Z</time>
      </trkpt>
      <trkpt lat="45.85334" lon="5.4979">
        <ele>905.42535400391</ele>
        <time>2020-08-25T08:14:14Z</time>
      </trkpt>
      <trkpt lat="45.85332" lon="5.49776">
        <ele>905.85705566406</ele>
        <time>2020-08-25T08:14:45Z</time>
      </trkpt>
      <trkpt lat="45.85392" lon="5.49737">
        <ele>924.93041992188</ele>
        <time>2020-08-25T08:15:17Z</time>
      </trkpt>
      <trkpt lat="45.85407" lon="5.4971">
        <ele>929.88598632812</ele>
        <time>2020-08-25T08:15:48Z</time>
      </trkpt>
      <trkpt lat="45.85414" lon="5.49687">
        <ele>929.37878417969</ele>
        <time>2020-08-25T08:16:19Z</time>
      </trkpt>
      <trkpt lat="45.85415" lon="5.49623">
        <ele>929.32275390625</ele>
        <time>2020-08-25T08:16:51Z</time>
      </trkpt>
      <trkpt lat="45.85421" lon="5.49587">
        <ele>932.21765136719</ele>
        <time>2020-08-25T08:17:22Z</time>
      </trkpt>
      <trkpt lat="45.85445" lon="5.49529">
        <ele>944.30102539062</ele>
        <time>2020-08-25T08:17:54Z</time>
      </trkpt>
      <trkpt lat="45.85451" lon="5.49497">
        <ele>944.59735107422</ele>
        <time>2020-08-25T08:18:25Z</time>
      </trkpt>
      <trkpt lat="45.85487" lon="5.49417">
        <ele>951.96630859375</ele>
        <time>2020-08-25T08:18:57Z</time>
      </trkpt>
      <trkpt lat="45.85499" lon="5.49362">
        <ele>951.60314941406</ele>
        <time>2020-08-25T08:19:28Z</time>
      </trkpt>
      <trkpt lat="45.8552" lon="5.49305">
        <ele>956.18383789062</ele>
        <time>2020-08-25T08:20:00Z</time>
      </trkpt>
      <trkpt lat="45.8554" lon="5.49217">
        <ele>961.13610839844</ele>
        <time>2020-08-25T08:20:31Z</time>
      </trkpt>
      <trkpt lat="45.85545" lon="5.49166">
        <ele>959.65124511719</ele>
        <time>2020-08-25T08:21:03Z</time>
      </trkpt>
      <trkpt lat="45.8556" lon="5.49118">
        <ele>961.99029541016</ele>
        <time>2020-08-25T08:21:34Z</time>
      </trkpt>
      <trkpt lat="45.85612" lon="5.49024">
        <ele>967.0615234375</ele>
        <time>2020-08-25T08:22:06Z</time>
      </trkpt>
      <trkpt lat="45.85705" lon="5.4896">
        <ele>981.39715576172</ele>
        <time>2020-08-25T08:22:37Z</time>
      </trkpt>
      <trkpt lat="45.85799" lon="5.4885">
        <ele>990.73114013672</ele>
        <time>2020-08-25T08:23:09Z</time>
      </trkpt>
      <trkpt lat="45.85829" lon="5.48807">
        <ele>992.57135009766</ele>
        <time>2020-08-25T08:23:41Z</time>
      </trkpt>
      <trkpt lat="45.85874" lon="5.48759">
        <ele>997.89178466797</ele>
        <time>2020-08-25T08:24:12Z</time>
      </trkpt>
      <trkpt lat="45.85889" lon="5.4873">
        <ele>996.50756835938</ele>
        <time>2020-08-25T08:24:44Z</time>
      </trkpt>
      <trkpt lat="45.85892" lon="5.48695">
        <ele>997.16381835938</ele>
        <time>2020-08-25T08:25:15Z</time>
      </trkpt>
      <trkpt lat="45.85878" lon="5.48632">
        <ele>999.97912597656</ele>
        <time>2020-08-25T08:25:47Z</time>
      </trkpt>
      <trkpt lat="45.85886" lon="5.48589">
        <ele>1001.3869628906</ele>
        <time>2020-08-25T08:26:19Z</time>
      </trkpt>
      <trkpt lat="45.85902" lon="5.48545">
        <ele>1001.9030761719</ele>
        <time>2020-08-25T08:26:50Z</time>
      </trkpt>
      <trkpt lat="45.85904" lon="5.48493">
        <ele>1002.9135131836</ele>
        <time>2020-08-25T08:27:22Z</time>
      </trkpt>
      <trkpt lat="45.85888" lon="5.48381">
        <ele>1010.0841674805</ele>
        <time>2020-08-25T08:27:53Z</time>
      </trkpt>
      <trkpt lat="45.85877" lon="5.48388">
        <ele>1009.4323730469</ele>
        <time>2020-08-25T08:28:25Z</time>
      </trkpt>
      <trkpt lat="45.85886" lon="5.48383">
        <ele>1009.9460449219</ele>
        <time>2020-08-25T08:28:57Z</time>
      </trkpt>
      <trkpt lat="45.859" lon="5.48325">
        <ele>1014.6995239258</ele>
        <time>2020-08-25T08:29:28Z</time>
      </trkpt>
      <trkpt lat="45.85943" lon="5.48256">
        <ele>1012.7534179688</ele>
        <time>2020-08-25T08:30:00Z</time>
      </trkpt>
      <trkpt lat="45.86021" lon="5.48153">
        <ele>1004.3948364258</ele>
        <time>2020-08-25T08:30:32Z</time>
      </trkpt>
      <trkpt lat="45.86099" lon="5.48085">
        <ele>1002.2198486328</ele>
        <time>2020-08-25T08:31:03Z</time>
      </trkpt>
      <trkpt lat="45.86125" lon="5.48054">
        <ele>1001.0497436523</ele>
        <time>2020-08-25T08:31:35Z</time>
      </trkpt>
      <trkpt lat="45.86147" lon="5.47997">
        <ele>996.56732177734</ele>
        <time>2020-08-25T08:32:07Z</time>
      </trkpt>
      <trkpt lat="45.86169" lon="5.47897">
        <ele>984.68762207031</ele>
        <time>2020-08-25T08:32:39Z</time>
      </trkpt>
      <trkpt lat="45.86184" lon="5.47873">
        <ele>980.83038330078</ele>
        <time>2020-08-25T08:33:10Z</time>
      </trkpt>
      <trkpt lat="45.86239" lon="5.47833">
        <ele>972.32330322266</ele>
        <time>2020-08-25T08:33:42Z</time>
      </trkpt>
      <trkpt lat="45.86261" lon="5.47827">
        <ele>968.08325195312</ele>
        <time>2020-08-25T08:34:14Z</time>
      </trkpt>
      <trkpt lat="45.86296" lon="5.47837">
        <ele>964.34619140625</ele>
        <time>2020-08-25T08:34:46Z</time>
      </trkpt>
      <trkpt lat="45.86351" lon="5.47873">
        <ele>961.89959716797</ele>
        <time>2020-08-25T08:35:17Z</time>
      </trkpt>
      <trkpt lat="45.86365" lon="5.47878">
        <ele>960.26715087891</ele>
        <time>2020-08-25T08:35:49Z</time>
      </trkpt>
      <trkpt lat="45.86389" lon="5.47873">
        <ele>956.04217529297</ele>
        <time>2020-08-25T08:36:21Z</time>
      </trkpt>
      <trkpt lat="45.86407" lon="5.47859">
        <ele>951.07684326172</ele>
        <time>2020-08-25T08:36:53Z</time>
      </trkpt>
      <trkpt lat="45.86422" lon="5.47834">
        <ele>945.42791748047</ele>
        <time>2020-08-25T08:37:24Z</time>
      </trkpt>
      <trkpt lat="45.86426" lon="5.47806">
        <ele>944.52569580078</ele>
        <time>2020-08-25T08:37:56Z</time>
      </trkpt>
      <trkpt lat="45.86427" lon="5.47703">
        <ele>937.63568115234</ele>
        <time>2020-08-25T08:38:28Z</time>
      </trkpt>
      <trkpt lat="45.86441" lon="5.47661">
        <ele>933.76135253906</ele>
        <time>2020-08-25T08:39:00Z</time>
      </trkpt>
      <trkpt lat="45.86458" lon="5.47651">
        <ele>934.26403808594</ele>
        <time>2020-08-25T08:39:32Z</time>
      </trkpt>
      <trkpt lat="45.86506" lon="5.47677">
        <ele>932.36376953125</ele>
        <time>2020-08-25T08:40:03Z</time>
      </trkpt>
      <trkpt lat="45.86551" lon="5.47679">
        <ele>927.57739257812</ele>
        <time>2020-08-25T08:40:35Z</time>
      </trkpt>
      <trkpt lat="45.86574" lon="5.47675">
        <ele>925.05773925781</ele>
        <time>2020-08-25T08:41:07Z</time>
      </trkpt>
      <trkpt lat="45.86594" lon="5.4766">
        <ele>923.61315917969</ele>
        <time>2020-08-25T08:41:39Z</time>
      </trkpt>
      <trkpt lat="45.86608" lon="5.47635">
        <ele>925.23510742188</ele>
        <time>2020-08-25T08:42:11Z</time>
      </trkpt>
      <trkpt lat="45.86617" lon="5.47605">
        <ele>922.61267089844</ele>
        <time>2020-08-25T08:42:43Z</time>
      </trkpt>
      <trkpt lat="45.86631" lon="5.47527">
        <ele>922.06085205078</ele>
        <time>2020-08-25T08:43:14Z</time>
      </trkpt>
      <trkpt lat="45.86629" lon="5.47506">
        <ele>919.93060302734</ele>
        <time>2020-08-25T08:43:46Z</time>
      </trkpt>
      <trkpt lat="45.86615" lon="5.47498">
        <ele>917.37176513672</ele>
        <time>2020-08-25T08:44:18Z</time>
      </trkpt>
      <trkpt lat="45.86607" lon="5.47501">
        <ele>916.68530273438</ele>
        <time>2020-08-25T08:44:50Z</time>
      </trkpt>
      <trkpt lat="45.86571" lon="5.47568">
        <ele>918.06353759766</ele>
        <time>2020-08-25T08:45:22Z</time>
      </trkpt>
      <trkpt lat="45.86556" lon="5.4758">
        <ele>919.63305664062</ele>
        <time>2020-08-25T08:45:54Z</time>
      </trkpt>
      <trkpt lat="45.86549" lon="5.47581">
        <ele>920.32000732422</ele>
        <time>2020-08-25T08:46:25Z</time>
      </trkpt>
      <trkpt lat="45.86539" lon="5.47574">
        <ele>920.16815185547</ele>
        <time>2020-08-25T08:46:57Z</time>
      </trkpt>
      <trkpt lat="45.86534" lon="5.47548">
        <ele>917.34826660156</ele>
        <time>2020-08-25T08:47:29Z</time>
      </trkpt>
      <trkpt lat="45.8655" lon="5.47536">
        <ele>914.27716064453</ele>
        <time>2020-08-25T08:48:01Z</time>
      </trkpt>
      <trkpt lat="45.86566" lon="5.47508">
        <ele>912.51135253906</ele>
        <time>2020-08-25T08:48:33Z</time>
      </trkpt>
      <trkpt lat="45.86581" lon="5.47449">
        <ele>907.97595214844</ele>
        <time>2020-08-25T08:49:05Z</time>
      </trkpt>
      <trkpt lat="45.86641" lon="5.47323">
        <ele>904.76049804688</ele>
        <time>2020-08-25T08:49:37Z</time>
      </trkpt>
      <trkpt lat="45.86683" lon="5.47261">
        <ele>898.35705566406</ele>
        <time>2020-08-25T08:50:09Z</time>
      </trkpt>
      <trkpt lat="45.86752" lon="5.47195">
        <ele>893.28558349609</ele>
        <time>2020-08-25T08:50:41Z</time>
      </trkpt>
      <trkpt lat="45.86762" lon="5.47172">
        <ele>889.28466796875</ele>
        <time>2020-08-25T08:51:13Z</time>
      </trkpt>
      <trkpt lat="45.86761" lon="5.47111">
        <ele>880.35778808594</ele>
        <time>2020-08-25T08:51:44Z</time>
      </trkpt>
      <trkpt lat="45.86769" lon="5.47047">
        <ele>878.91809082031</ele>
        <time>2020-08-25T08:52:16Z</time>
      </trkpt>
      <trkpt lat="45.86783" lon="5.46982">
        <ele>879.69842529297</ele>
        <time>2020-08-25T08:52:48Z</time>
      </trkpt>
      <trkpt lat="45.86823" lon="5.46848">
        <ele>886.31457519531</ele>
        <time>2020-08-25T08:53:20Z</time>
      </trkpt>
      <trkpt lat="45.86835" lon="5.46747">
        <ele>888.9130859375</ele>
        <time>2020-08-25T08:53:52Z</time>
      </trkpt>
      <trkpt lat="45.86838" lon="5.46657">
        <ele>888.82604980469</ele>
        <time>2020-08-25T08:54:24Z</time>
      </trkpt>
      <trkpt lat="45.86894" lon="5.4639">
        <ele>890.78582763672</ele>
        <time>2020-08-25T08:54:56Z</time>
      </trkpt>
      <trkpt lat="45.86899" lon="5.4631">
        <ele>883.54895019531</ele>
        <time>2020-08-25T08:55:28Z</time>
      </trkpt>
      <trkpt lat="45.86891" lon="5.46214">
        <ele>869.76342773438</ele>
        <time>2020-08-25T08:56:00Z</time>
      </trkpt>
      <trkpt lat="45.86886" lon="5.45995">
        <ele>866.32659912109</ele>
        <time>2020-08-25T08:56:33Z</time>
      </trkpt>
      <trkpt lat="45.86892" lon="5.45932">
        <ele>865.90863037109</ele>
        <time>2020-08-25T08:57:05Z</time>
      </trkpt>
      <trkpt lat="45.86885" lon="5.45911">
        <ele>865.23040771484</ele>
        <time>2020-08-25T08:57:37Z</time>
      </trkpt>
      <trkpt lat="45.8686" lon="5.45895">
        <ele>864.43414306641</ele>
        <time>2020-08-25T08:58:09Z</time>
      </trkpt>
      <trkpt lat="45.86808" lon="5.45895">
        <ele>862.38842773438</ele>
        <time>2020-08-25T08:58:41Z</time>
      </trkpt>
      <trkpt lat="45.86755" lon="5.45903">
        <ele>864.26104736328</ele>
        <time>2020-08-25T08:59:13Z</time>
      </trkpt>
      <trkpt lat="45.86743" lon="5.45912">
        <ele>863.35510253906</ele>
        <time>2020-08-25T08:59:45Z</time>
      </trkpt>
      <trkpt lat="45.86706" lon="5.45968">
        <ele>854.48327636719</ele>
        <time>2020-08-25T09:00:17Z</time>
      </trkpt>
      <trkpt lat="45.86672" lon="5.45987">
        <ele>856.10870361328</ele>
        <time>2020-08-25T09:00:49Z</time>
      </trkpt>
      <trkpt lat="45.86629" lon="5.4599">
        <ele>857.28967285156</ele>
        <time>2020-08-25T09:01:21Z</time>
      </trkpt>
      <trkpt lat="45.86568" lon="5.45983">
        <ele>858.21228027344</ele>
        <time>2020-08-25T09:01:54Z</time>
      </trkpt>
      <trkpt lat="45.86335" lon="5.46017">
        <ele>850.53009033203</ele>
        <time>2020-08-25T09:02:26Z</time>
      </trkpt>
      <trkpt lat="45.86264" lon="5.45976">
        <ele>859.23303222656</ele>
        <time>2020-08-25T09:02:58Z</time>
      </trkpt>
      <trkpt lat="45.86252" lon="5.45953">
        <ele>860.95355224609</ele>
        <time>2020-08-25T09:03:30Z</time>
      </trkpt>
      <trkpt lat="45.86231" lon="5.45872">
        <ele>858.88732910156</ele>
        <time>2020-08-25T09:04:02Z</time>
      </trkpt>
      <trkpt lat="45.86217" lon="5.45852">
        <ele>855.79565429688</ele>
        <time>2020-08-25T09:04:35Z</time>
      </trkpt>
      <trkpt lat="45.86197" lon="5.45839">
        <ele>854.29791259766</ele>
        <time>2020-08-25T09:05:07Z</time>
      </trkpt>
      <trkpt lat="45.86139" lon="5.45819">
        <ele>853.09259033203</ele>
        <time>2020-08-25T09:05:39Z</time>
      </trkpt>
      <trkpt lat="45.86101" lon="5.45817">
        <ele>848.68023681641</ele>
        <time>2020-08-25T09:06:11Z</time>
      </trkpt>
      <trkpt lat="45.86055" lon="5.45837">
        <ele>846.04187011719</ele>
        <time>2020-08-25T09:06:44Z</time>
      </trkpt>
      <trkpt lat="45.86023" lon="5.45863">
        <ele>840.87042236328</ele>
        <time>2020-08-25T09:07:16Z</time>
      </trkpt>
      <trkpt lat="45.86015" lon="5.45867">
        <ele>838.51239013672</ele>
        <time>2020-08-25T09:07:48Z</time>
      </trkpt>
      <trkpt lat="45.86008" lon="5.45859">
        <ele>835.80352783203</ele>
        <time>2020-08-25T09:08:20Z</time>
      </trkpt>
      <trkpt lat="45.86038" lon="5.45805">
        <ele>837.54809570312</ele>
        <time>2020-08-25T09:08:53Z</time>
      </trkpt>
      <trkpt lat="45.8607" lon="5.4577">
        <ele>836.14703369141</ele>
        <time>2020-08-25T09:09:25Z</time>
      </trkpt>
      <trkpt lat="45.86087" lon="5.45764">
        <ele>836.63848876953</ele>
        <time>2020-08-25T09:09:57Z</time>
      </trkpt>
      <trkpt lat="45.86164" lon="5.45766">
        <ele>838.05841064453</ele>
        <time>2020-08-25T09:10:29Z</time>
      </trkpt>
      <trkpt lat="45.86256" lon="5.4575">
        <ele>833.3583984375</ele>
        <time>2020-08-25T09:11:02Z</time>
      </trkpt>
      <trkpt lat="45.86279" lon="5.45737">
        <ele>835.80615234375</ele>
        <time>2020-08-25T09:11:34Z</time>
      </trkpt>
      <trkpt lat="45.86288" lon="5.45726">
        <ele>835.83489990234</ele>
        <time>2020-08-25T09:12:06Z</time>
      </trkpt>
      <trkpt lat="45.86324" lon="5.45661">
        <ele>831.12512207031</ele>
        <time>2020-08-25T09:12:39Z</time>
      </trkpt>
      <trkpt lat="45.86372" lon="5.45503">
        <ele>818.54779052734</ele>
        <time>2020-08-25T09:13:11Z</time>
      </trkpt>
      <trkpt lat="45.86441" lon="5.45404">
        <ele>817.34185791016</ele>
        <time>2020-08-25T09:13:43Z</time>
      </trkpt>
      <trkpt lat="45.86453" lon="5.45377">
        <ele>814.41485595703</ele>
        <time>2020-08-25T09:14:16Z</time>
      </trkpt>
      <trkpt lat="45.86453" lon="5.45329">
        <ele>806.93743896484</ele>
        <time>2020-08-25T09:14:48Z</time>
      </trkpt>
      <trkpt lat="45.86437" lon="5.45233">
        <ele>793.67962646484</ele>
        <time>2020-08-25T09:15:20Z</time>
      </trkpt>
      <trkpt lat="45.8644" lon="5.45209">
        <ele>793.32141113281</ele>
        <time>2020-08-25T09:15:53Z</time>
      </trkpt>
      <trkpt lat="45.86457" lon="5.45171">
        <ele>792.37860107422</ele>
        <time>2020-08-25T09:16:25Z</time>
      </trkpt>
      <trkpt lat="45.86498" lon="5.45139">
        <ele>795.99322509766</ele>
        <time>2020-08-25T09:16:58Z</time>
      </trkpt>
      <trkpt lat="45.86505" lon="5.45124">
        <ele>795.69390869141</ele>
        <time>2020-08-25T09:17:30Z</time>
      </trkpt>
      <trkpt lat="45.86478" lon="5.45018">
        <ele>776.01782226562</ele>
        <time>2020-08-25T09:18:02Z</time>
      </trkpt>
      <trkpt lat="45.86488" lon="5.44958">
        <ele>773.39263916016</ele>
        <time>2020-08-25T09:18:35Z</time>
      </trkpt>
      <trkpt lat="45.86524" lon="5.44872">
        <ele>768.07305908203</ele>
        <time>2020-08-25T09:19:07Z</time>
      </trkpt>
      <trkpt lat="45.86547" lon="5.44837">
        <ele>764.76507568359</ele>
        <time>2020-08-25T09:19:40Z</time>
      </trkpt>
      <trkpt lat="45.86579" lon="5.4481">
        <ele>763.03277587891</ele>
        <time>2020-08-25T09:20:12Z</time>
      </trkpt>
      <trkpt lat="45.86657" lon="5.44783">
        <ele>768.09625244141</ele>
        <time>2020-08-25T09:20:45Z</time>
      </trkpt>
      <trkpt lat="45.86673" lon="5.44764">
        <ele>768.91424560547</ele>
        <time>2020-08-25T09:21:17Z</time>
      </trkpt>
      <trkpt lat="45.8668" lon="5.44736">
        <ele>764.84613037109</ele>
        <time>2020-08-25T09:21:50Z</time>
      </trkpt>
      <trkpt lat="45.86681" lon="5.44647">
        <ele>748.51232910156</ele>
        <time>2020-08-25T09:22:22Z</time>
      </trkpt>
      <trkpt lat="45.86703" lon="5.44577">
        <ele>743.78741455078</ele>
        <time>2020-08-25T09:22:55Z</time>
      </trkpt>
      <trkpt lat="45.867" lon="5.4455">
        <ele>739.19036865234</ele>
        <time>2020-08-25T09:23:27Z</time>
      </trkpt>
      <trkpt lat="45.86681" lon="5.44521">
        <ele>734.69171142578</ele>
        <time>2020-08-25T09:23:59Z</time>
      </trkpt>
      <trkpt lat="45.86636" lon="5.44474">
        <ele>724.43920898438</ele>
        <time>2020-08-25T09:24:32Z</time>
      </trkpt>
      <trkpt lat="45.86605" lon="5.4446">
        <ele>721.32794189453</ele>
        <time>2020-08-25T09:25:04Z</time>
      </trkpt>
      <trkpt lat="45.86536" lon="5.4444">
        <ele>714.95043945312</ele>
        <time>2020-08-25T09:25:37Z</time>
      </trkpt>
      <trkpt lat="45.86519" lon="5.44427">
        <ele>714.24389648438</ele>
        <time>2020-08-25T09:26:10Z</time>
      </trkpt>
      <trkpt lat="45.86508" lon="5.44403">
        <ele>714.90100097656</ele>
        <time>2020-08-25T09:26:42Z</time>
      </trkpt>
      <trkpt lat="45.86506" lon="5.44373">
        <ele>716.09204101562</ele>
        <time>2020-08-25T09:27:15Z</time>
      </trkpt>
      <trkpt lat="45.86519" lon="5.44296">
        <ele>717.10925292969</ele>
        <time>2020-08-25T09:27:47Z</time>
      </trkpt>
      <trkpt lat="45.86535" lon="5.4427">
        <ele>715.27252197266</ele>
        <time>2020-08-25T09:28:20Z</time>
      </trkpt>
      <trkpt lat="45.86567" lon="5.44239">
        <ele>711.37023925781</ele>
        <time>2020-08-25T09:28:52Z</time>
      </trkpt>
      <trkpt lat="45.86594" lon="5.44218">
        <ele>710.02679443359</ele>
        <time>2020-08-25T09:29:25Z</time>
      </trkpt>
      <trkpt lat="45.86629" lon="5.44203">
        <ele>708.11248779297</ele>
        <time>2020-08-25T09:29:57Z</time>
      </trkpt>
      <trkpt lat="45.86673" lon="5.44193">
        <ele>701.97674560547</ele>
        <time>2020-08-25T09:30:30Z</time>
      </trkpt>
      <trkpt lat="45.86752" lon="5.44187">
        <ele>698.73846435547</ele>
        <time>2020-08-25T09:31:02Z</time>
      </trkpt>
      <trkpt lat="45.8679" lon="5.44192">
        <ele>702.85662841797</ele>
        <time>2020-08-25T09:31:35Z</time>
      </trkpt>
      <trkpt lat="45.86798" lon="5.44188">
        <ele>703.53082275391</ele>
        <time>2020-08-25T09:32:08Z</time>
      </trkpt>
      <trkpt lat="45.86807" lon="5.44166">
        <ele>702.14123535156</ele>
        <time>2020-08-25T09:32:40Z</time>
      </trkpt>
      <trkpt lat="45.8681" lon="5.44136">
        <ele>698.47955322266</ele>
        <time>2020-08-25T09:33:13Z</time>
      </trkpt>
      <trkpt lat="45.86799" lon="5.44018">
        <ele>678.89959716797</ele>
        <time>2020-08-25T09:33:45Z</time>
      </trkpt>
      <trkpt lat="45.868" lon="5.4399">
        <ele>677.13189697266</ele>
        <time>2020-08-25T09:34:18Z</time>
      </trkpt>
      <trkpt lat="45.86811" lon="5.4396">
        <ele>678.26495361328</ele>
        <time>2020-08-25T09:34:51Z</time>
      </trkpt>
      <trkpt lat="45.86838" lon="5.43916">
        <ele>678.41180419922</ele>
        <time>2020-08-25T09:35:23Z</time>
      </trkpt>
      <trkpt lat="45.8684" lon="5.43847">
        <ele>671.52392578125</ele>
        <time>2020-08-25T09:35:56Z</time>
      </trkpt>
      <trkpt lat="45.86863" lon="5.43775">
        <ele>671.68432617188</ele>
        <time>2020-08-25T09:36:29Z</time>
      </trkpt>
      <trkpt lat="45.8689" lon="5.43741">
        <ele>680.21887207031</ele>
        <time>2020-08-25T09:37:01Z</time>
      </trkpt>
      <trkpt lat="45.86907" lon="5.4369">
        <ele>670.52661132812</ele>
        <time>2020-08-25T09:37:34Z</time>
      </trkpt>
      <trkpt lat="45.86931" lon="5.43658">
        <ele>666.24389648438</ele>
        <time>2020-08-25T09:38:07Z</time>
      </trkpt>
      <trkpt lat="45.8699" lon="5.43641">
        <ele>677.68444824219</ele>
        <time>2020-08-25T09:38:39Z</time>
      </trkpt>
      <trkpt lat="45.87037" lon="5.43616">
        <ele>679.70086669922</ele>
        <time>2020-08-25T09:39:12Z</time>
      </trkpt>
      <trkpt lat="45.87046" lon="5.43603">
        <ele>681.08245849609</ele>
        <time>2020-08-25T09:39:45Z</time>
      </trkpt>
      <trkpt lat="45.87042" lon="5.43587">
        <ele>677.05358886719</ele>
        <time>2020-08-25T09:40:17Z</time>
      </trkpt>
      <trkpt lat="45.87018" lon="5.43566">
        <ele>664.62750244141</ele>
        <time>2020-08-25T09:40:50Z</time>
      </trkpt>
      <trkpt lat="45.86988" lon="5.43555">
        <ele>651.08831787109</ele>
        <time>2020-08-25T09:41:23Z</time>
      </trkpt>
      <trkpt lat="45.86935" lon="5.43545">
        <ele>629.63006591797</ele>
        <time>2020-08-25T09:41:55Z</time>
      </trkpt>
      <trkpt lat="45.86928" lon="5.43538">
        <ele>628.05615234375</ele>
        <time>2020-08-25T09:42:28Z</time>
      </trkpt>
      <trkpt lat="45.86915" lon="5.43504">
        <ele>630.74835205078</ele>
        <time>2020-08-25T09:43:01Z</time>
      </trkpt>
      <trkpt lat="45.86902" lon="5.43487">
        <ele>629.35980224609</ele>
        <time>2020-08-25T09:43:34Z</time>
      </trkpt>
      <trkpt lat="45.86839" lon="5.43456">
        <ele>615.53399658203</ele>
        <time>2020-08-25T09:44:06Z</time>
      </trkpt>
      <trkpt lat="45.86813" lon="5.43431">
        <ele>614.05328369141</ele>
        <time>2020-08-25T09:44:39Z</time>
      </trkpt>
      <trkpt lat="45.86806" lon="5.43409">
        <ele>617.95257568359</ele>
        <time>2020-08-25T09:45:12Z</time>
      </trkpt>
      <trkpt lat="45.86812" lon="5.43274">
        <ele>622.10510253906</ele>
        <time>2020-08-25T09:45:45Z</time>
      </trkpt>
      <trkpt lat="45.86835" lon="5.4313">
        <ele>609.88812255859</ele>
        <time>2020-08-25T09:46:17Z</time>
      </trkpt>
      <trkpt lat="45.86899" lon="5.4296">
        <ele>599.150390625</ele>
        <time>2020-08-25T09:46:50Z</time>
      </trkpt>
      <trkpt lat="45.86958" lon="5.42829">
        <ele>593.17938232422</ele>
        <time>2020-08-25T09:47:23Z</time>
      </trkpt>
      <trkpt lat="45.86984" lon="5.4273">
        <ele>585.04486083984</ele>
        <time>2020-08-25T09:47:56Z</time>
      </trkpt>
      <trkpt lat="45.87029" lon="5.42603">
        <ele>576.822265625</ele>
        <time>2020-08-25T09:48:29Z</time>
      </trkpt>
      <trkpt lat="45.87166" lon="5.42374">
        <ele>561.01336669922</ele>
        <time>2020-08-25T09:49:01Z</time>
      </trkpt>
      <trkpt lat="45.87207" lon="5.42317">
        <ele>556.08618164062</ele>
        <time>2020-08-25T09:49:34Z</time>
      </trkpt>
      <trkpt lat="45.87252" lon="5.42265">
        <ele>549.65771484375</ele>
        <time>2020-08-25T09:50:07Z</time>
      </trkpt>
      <trkpt lat="45.87248" lon="5.4226">
        <ele>547.84814453125</ele>
        <time>2020-08-25T09:50:40Z</time>
      </trkpt>
      <trkpt lat="45.8724" lon="5.42261">
        <ele>547.13696289062</ele>
        <time>2020-08-25T09:51:13Z</time>
      </trkpt>
      <trkpt lat="45.87178" lon="5.42308">
        <ele>546.69665527344</ele>
        <time>2020-08-25T09:51:46Z</time>
      </trkpt>
      <trkpt lat="45.87126" lon="5.42332">
        <ele>541.13098144531</ele>
        <time>2020-08-25T09:52:19Z</time>
      </trkpt>
      <trkpt lat="45.87101" lon="5.42332">
        <ele>537.29309082031</ele>
        <time>2020-08-25T09:52:52Z</time>
      </trkpt>
      <trkpt lat="45.87081" lon="5.42324">
        <ele>532.12414550781</ele>
        <time>2020-08-25T09:53:25Z</time>
      </trkpt>
      <trkpt lat="45.87063" lon="5.42309">
        <ele>525.39868164062</ele>
        <time>2020-08-25T09:53:58Z</time>
      </trkpt>
      <trkpt lat="45.87057" lon="5.42296">
        <ele>522.02416992188</ele>
        <time>2020-08-25T09:54:31Z</time>
      </trkpt>
      <trkpt lat="45.87056" lon="5.42258">
        <ele>520.06829833984</ele>
        <time>2020-08-25T09:55:04Z</time>
      </trkpt>
      <trkpt lat="45.87067" lon="5.42236">
        <ele>520.65625</ele>
        <time>2020-08-25T09:55:36Z</time>
      </trkpt>
      <trkpt lat="45.87086" lon="5.42214">
        <ele>518.63531494141</ele>
        <time>2020-08-25T09:56:09Z</time>
      </trkpt>
      <trkpt lat="45.87126" lon="5.42183">
        <ele>516.57781982422</ele>
        <time>2020-08-25T09:56:42Z</time>
      </trkpt>
      <trkpt lat="45.87259" lon="5.4211">
        <ele>517.50396728516</ele>
        <time>2020-08-25T09:57:15Z</time>
      </trkpt>
      <trkpt lat="45.87271" lon="5.42091">
        <ele>515.96362304688</ele>
        <time>2020-08-25T09:57:48Z</time>
      </trkpt>
      <trkpt lat="45.87274" lon="5.4206">
        <ele>512.50988769531</ele>
        <time>2020-08-25T09:58:21Z</time>
      </trkpt>
      <trkpt lat="45.87268" lon="5.41968">
        <ele>503.66543579102</ele>
        <time>2020-08-25T09:58:54Z</time>
      </trkpt>
      <trkpt lat="45.87261" lon="5.41938">
        <ele>502.18551635742</ele>
        <time>2020-08-25T09:59:27Z</time>
      </trkpt>
      <trkpt lat="45.87232" lon="5.41893">
        <ele>494.37768554688</ele>
        <time>2020-08-25T10:00:00Z</time>
      </trkpt>
      <trkpt lat="45.87196" lon="5.41852">
        <ele>485.71646118164</ele>
        <time>2020-08-25T10:00:33Z</time>
      </trkpt>
      <trkpt lat="45.87183" lon="5.41828">
        <ele>484.53851318359</ele>
        <time>2020-08-25T10:01:06Z</time>
      </trkpt>
      <trkpt lat="45.87139" lon="5.41635">
        <ele>484.29483032227</ele>
        <time>2020-08-25T10:01:39Z</time>
      </trkpt>
      <trkpt lat="45.87055" lon="5.41454">
        <ele>468.87796020508</ele>
        <time>2020-08-25T10:02:13Z</time>
      </trkpt>
      <trkpt lat="45.87044" lon="5.41422">
        <ele>466.86685180664</ele>
        <time>2020-08-25T10:02:46Z</time>
      </trkpt>
      <trkpt lat="45.87039" lon="5.41389">
        <ele>468.95739746094</ele>
        <time>2020-08-25T10:03:19Z</time>
      </trkpt>
      <trkpt lat="45.87056" lon="5.41312">
        <ele>480.07208251953</ele>
        <time>2020-08-25T10:03:52Z</time>
      </trkpt>
      <trkpt lat="45.87184" lon="5.40944">
        <ele>460.32482910156</ele>
        <time>2020-08-25T10:04:25Z</time>
      </trkpt>
      <trkpt lat="45.87199" lon="5.40895">
        <ele>449.69317626953</ele>
        <time>2020-08-25T10:11:36Z</time>
      </trkpt>
      <trkpt lat="45.87377" lon="5.40498">
        <ele>459.87088012695</ele>
        <time>2020-08-25T10:12:10Z</time>
      </trkpt>
      <trkpt lat="45.87462" lon="5.40286">
        <ele>461.35360717773</ele>
        <time>2020-08-25T10:12:43Z</time>
      </trkpt>
      <trkpt lat="45.87492" lon="5.40192">
        <ele>458.40832519531</ele>
        <time>2020-08-25T10:13:16Z</time>
      </trkpt>
      <trkpt lat="45.8753" lon="5.40115">
        <ele>457.63403320312</ele>
        <time>2020-08-25T10:13:50Z</time>
      </trkpt>
      <trkpt lat="45.87623" lon="5.39973">
        <ele>449.14376831055</ele>
        <time>2020-08-25T10:14:23Z</time>
      </trkpt>
      <trkpt lat="45.87738" lon="5.39677">
        <ele>451.26098632812</ele>
        <time>2020-08-25T10:14:57Z</time>
      </trkpt>
      <trkpt lat="45.87757" lon="5.39643">
        <ele>455.32864379883</ele>
        <time>2020-08-25T10:15:30Z</time>
      </trkpt>
      <trkpt lat="45.87845" lon="5.39538">
        <ele>462.75677490234</ele>
        <time>2020-08-25T10:16:03Z</time>
      </trkpt>
      <trkpt lat="45.87903" lon="5.39448">
        <ele>460.39346313477</ele>
        <time>2020-08-25T10:16:37Z</time>
      </trkpt>
      <trkpt lat="45.87984" lon="5.39303">
        <ele>447.69784545898</ele>
        <time>2020-08-25T10:17:10Z</time>
      </trkpt>
      <trkpt lat="45.88001" lon="5.39198">
        <ele>439.86618041992</ele>
        <time>2020-08-25T10:17:44Z</time>
      </trkpt>
      <trkpt lat="45.88036" lon="5.39076">
        <ele>437.70169067383</ele>
        <time>2020-08-25T10:18:17Z</time>
      </trkpt>
      <trkpt lat="45.88056" lon="5.3897">
        <ele>430.41012573242</ele>
        <time>2020-08-25T10:18:51Z</time>
      </trkpt>
      <trkpt lat="45.88056" lon="5.38858">
        <ele>422.06365966797</ele>
        <time>2020-08-25T10:19:24Z</time>
      </trkpt>
      <trkpt lat="45.88033" lon="5.38755">
        <ele>412.37020874023</ele>
        <time>2020-08-25T10:19:58Z</time>
      </trkpt>
      <trkpt lat="45.88033" lon="5.3872">
        <ele>411.02655029297</ele>
        <time>2020-08-25T10:20:31Z</time>
      </trkpt>
      <trkpt lat="45.88051" lon="5.38625">
        <ele>408.36569213867</ele>
        <time>2020-08-25T10:21:05Z</time>
      </trkpt>
      <trkpt lat="45.88092" lon="5.38499">
        <ele>401.12335205078</ele>
        <time>2020-08-25T10:21:39Z</time>
      </trkpt>
      <trkpt lat="45.88097" lon="5.38466">
        <ele>398.69686889648</ele>
        <time>2020-08-25T10:22:12Z</time>
      </trkpt>
      <trkpt lat="45.88097" lon="5.38384">
        <ele>391.08563232422</ele>
        <time>2020-08-25T10:22:46Z</time>
      </trkpt>
      <trkpt lat="45.88108" lon="5.3834">
        <ele>386.08917236328</ele>
        <time>2020-08-25T10:23:19Z</time>
      </trkpt>
      <trkpt lat="45.88142" lon="5.38299">
        <ele>386.50427246094</ele>
        <time>2020-08-25T10:23:53Z</time>
      </trkpt>
      <trkpt lat="45.88195" lon="5.38266">
        <ele>384.95959472656</ele>
        <time>2020-08-25T10:24:26Z</time>
      </trkpt>
      <trkpt lat="45.88228" lon="5.38218">
        <ele>383.84588623047</ele>
        <time>2020-08-25T10:25:00Z</time>
      </trkpt>
      <trkpt lat="45.88248" lon="5.38168">
        <ele>381.05187988281</ele>
        <time>2020-08-25T10:25:34Z</time>
      </trkpt>
      <trkpt lat="45.88306" lon="5.37963">
        <ele>362.58212280273</ele>
        <time>2020-08-25T10:26:07Z</time>
      </trkpt>
      <trkpt lat="45.88325" lon="5.37943">
        <ele>364.63912963867</ele>
        <time>2020-08-25T10:26:41Z</time>
      </trkpt>
      <trkpt lat="45.88367" lon="5.37922">
        <ele>374.06909179688</ele>
        <time>2020-08-25T10:27:15Z</time>
      </trkpt>
      <trkpt lat="45.88399" lon="5.37893">
        <ele>377.53204345703</ele>
        <time>2020-08-25T10:27:48Z</time>
      </trkpt>
      <trkpt lat="45.88455" lon="5.37824">
        <ele>372.0446472168</ele>
        <time>2020-08-25T10:28:22Z</time>
      </trkpt>
      <trkpt lat="45.8849" lon="5.37771">
        <ele>367.64007568359</ele>
        <time>2020-08-25T10:28:56Z</time>
      </trkpt>
      <trkpt lat="45.88506" lon="5.37722">
        <ele>353.26696777344</ele>
        <time>2020-08-25T10:29:29Z</time>
      </trkpt>
      <trkpt lat="45.88504" lon="5.37646">
        <ele>335.13970947266</ele>
        <time>2020-08-25T10:30:03Z</time>
      </trkpt>
      <trkpt lat="45.8851" lon="5.37609">
        <ele>330.10101318359</ele>
        <time>2020-08-25T10:30:37Z</time>
      </trkpt>
      <trkpt lat="45.88556" lon="5.37465">
        <ele>322.8385925293</ele>
        <time>2020-08-25T10:31:11Z</time>
      </trkpt>
      <trkpt lat="45.88548" lon="5.37449">
        <ele>317.20947265625</ele>
        <time>2020-08-25T10:37:56Z</time>
      </trkpt>
      <trkpt lat="45.88539" lon="5.37455">
        <ele>314.98733520508</ele>
        <time>2020-08-25T10:38:30Z</time>
      </trkpt>
      <trkpt lat="45.88514" lon="5.37494">
        <ele>312.59936523438</ele>
        <time>2020-08-25T10:39:04Z</time>
      </trkpt>
      <trkpt lat="45.88476" lon="5.37575">
        <ele>311.23333740234</ele>
        <time>2020-08-25T10:39:38Z</time>
      </trkpt>
      <trkpt lat="45.88415" lon="5.3767">
        <ele>298.91220092773</ele>
        <time>2020-08-25T10:40:12Z</time>
      </trkpt>
      <trkpt lat="45.88387" lon="5.37702">
        <ele>289.81011962891</ele>
        <time>2020-08-25T10:40:45Z</time>
      </trkpt>
      <trkpt lat="45.88374" lon="5.37704">
        <ele>287.00048828125</ele>
        <time>2020-08-25T10:41:19Z</time>
      </trkpt>
      <trkpt lat="45.88372" lon="5.37694">
        <ele>285.40390014648</ele>
        <time>2020-08-25T10:41:53Z</time>
      </trkpt>
      <trkpt lat="45.88388" lon="5.37647">
        <ele>283.34191894531</ele>
        <time>2020-08-25T10:42:27Z</time>
      </trkpt>
      <trkpt lat="45.88398" lon="5.37573">
        <ele>273.70791625977</ele>
        <time>2020-08-25T10:43:01Z</time>
      </trkpt>
      <trkpt lat="45.88376" lon="5.37443">
        <ele>249.5030670166</ele>
        <time>2020-08-25T10:43:35Z</time>
      </trkpt>
      <trkpt lat="45.88368" lon="5.37426">
        <ele>247.03396606445</ele>
        <time>2020-08-25T10:44:09Z</time>
      </trkpt>
      <trkpt lat="45.88331" lon="5.37378">
        <ele>238.42404174805</ele>
        <time>2020-08-25T10:44:43Z</time>
      </trkpt>
      <trkpt lat="45.88309" lon="5.37376">
        <ele>236.37168884277</ele>
        <time>2020-08-25T10:45:17Z</time>
      </trkpt>
      <trkpt lat="45.8828" lon="5.37401">
        <ele>230.61044311523</ele>
        <time>2020-08-25T10:45:51Z</time>
      </trkpt>
      <trkpt lat="45.88271" lon="5.37397">
        <ele>228.71548461914</ele>
        <time>2020-08-25T10:46:24Z</time>
      </trkpt>
      <trkpt lat="45.88267" lon="5.37385">
        <ele>228.38542175293</ele>
        <time>2020-08-25T10:46:58Z</time>
      </trkpt>
      <trkpt lat="45.88272" lon="5.37368">
        <ele>227.71299743652</ele>
        <time>2020-08-25T10:47:32Z</time>
      </trkpt>
      <trkpt lat="45.88287" lon="5.3735">
        <ele>227.88168334961</ele>
        <time>2020-08-25T10:48:06Z</time>
      </trkpt>
      <trkpt lat="45.8835" lon="5.37308">
        <ele>228.21038818359</ele>
        <time>2020-08-25T10:48:40Z</time>
      </trkpt>
      <trkpt lat="45.88382" lon="5.3727">
        <ele>223.94291687012</ele>
        <time>2020-08-25T10:49:14Z</time>
      </trkpt>
      <trkpt lat="45.88384" lon="5.37264">
        <ele>222.78117370605</ele>
        <time>2020-08-25T10:49:48Z</time>
      </trkpt>
      <trkpt lat="45.88367" lon="5.37221">
        <ele>211.84140014648</ele>
        <time>2020-08-25T10:50:22Z</time>
      </trkpt>
      <trkpt lat="45.88369" lon="5.37218">
        <ele>211.30880737305</ele>
        <time>2020-08-25T10:50:56Z</time>
      </trkpt>
      <trkpt lat="45.88467" lon="5.37158">
        <ele>214.42710876465</ele>
        <time>2020-08-25T10:51:30Z</time>
      </trkpt>
      <trkpt lat="45.88496" lon="5.3695">
        <ele>202.66471862793</ele>
        <time>2020-08-25T10:52:04Z</time>
      </trkpt>
      <trkpt lat="45.8849" lon="5.36991">
        <ele>203.11221313477</ele>
        <time>2020-08-25T10:52:38Z</time>
      </trkpt>
      <trkpt lat="45.88495" lon="5.36999">
        <ele>203.4524230957</ele>
        <time>2020-08-25T10:53:12Z</time>
      </trkpt>
      <trkpt lat="45.88502" lon="5.36997">
        <ele>203.75775146484</ele>
        <time>2020-08-25T10:53:46Z</time>
      </trkpt>
      <trkpt lat="45.88492" lon="5.37">
        <ele>203.35960388184</ele>
        <time>2020-08-25T10:54:20Z</time>
      </trkpt>
      <trkpt lat="45.88491" lon="5.36978">
        <ele>202.98379516602</ele>
        <time>2020-08-25T10:54:54Z</time>
      </trkpt>
      <trkpt lat="45.88515" lon="5.3686">
        <ele>200.75102233887</ele>
        <time>2020-08-25T10:55:28Z</time>
      </trkpt>
      <trkpt lat="45.88576" lon="5.36452">
        <ele>197.6206817627</ele>
        <time>2020-08-25T10:56:02Z</time>
      </trkpt>
      <trkpt lat="45.88618" lon="5.36093">
        <ele>200.45687866211</ele>
        <time>2020-08-25T10:56:36Z</time>
      </trkpt>
      <trkpt lat="45.88644" lon="5.35551">
        <ele>196.09233093262</ele>
        <time>2020-08-25T10:57:11Z</time>
      </trkpt>
      <trkpt lat="45.88641" lon="5.3549">
        <ele>196.7113494873</ele>
        <time>2020-08-25T10:57:45Z</time>
      </trkpt>
      <trkpt lat="45.88628" lon="5.3542">
        <ele>197.27851867676</ele>
        <time>2020-08-25T10:58:19Z</time>
      </trkpt>
      <trkpt lat="45.88532" lon="5.35079">
        <ele>198.92184448242</ele>
        <time>2020-08-25T10:58:53Z</time>
      </trkpt>
      <trkpt lat="45.8851" lon="5.34971">
        <ele>200.67352294922</ele>
        <time>2020-08-25T10:59:28Z</time>
      </trkpt>
      <trkpt lat="45.88506" lon="5.34786">
        <ele>202.93533325195</ele>
        <time>2020-08-25T11:00:02Z</time>
      </trkpt>
      <trkpt lat="45.8851" lon="5.34767">
        <ele>202.38040161133</ele>
        <time>2020-08-25T11:00:36Z</time>
      </trkpt>
      <trkpt lat="45.8853" lon="5.34737">
        <ele>202</ele>
        <time>2020-08-25T11:01:11Z</time>
      </trkpt>
      <trkpt lat="45.88533" lon="5.34703">
        <ele>201.86343383789</ele>
        <time>2020-08-25T11:01:45Z</time>
      </trkpt>
      <trkpt lat="45.88521" lon="5.34679">
        <ele>201.57943725586</ele>
        <time>2020-08-25T11:02:19Z</time>
      </trkpt>
      <trkpt lat="45.88484" lon="5.3466">
        <ele>201.35073852539</ele>
        <time>2020-08-25T11:02:53Z</time>
      </trkpt>
      <trkpt lat="45.88469" lon="5.34646">
        <ele>201.22305297852</ele>
        <time>2020-08-25T11:03:28Z</time>
      </trkpt>
      <trkpt lat="45.88436" lon="5.34585">
        <ele>201.09805297852</ele>
        <time>2020-08-25T11:04:02Z</time>
      </trkpt>
      <trkpt lat="45.88419" lon="5.34533">
        <ele>201.35061645508</ele>
        <time>2020-08-25T11:04:36Z</time>
      </trkpt>
      <trkpt lat="45.8843" lon="5.34512">
        <ele>201.48164367676</ele>
        <time>2020-08-25T11:05:11Z</time>
      </trkpt>
      <trkpt lat="45.885" lon="5.34449">
        <ele>203.77995300293</ele>
        <time>2020-08-25T11:05:45Z</time>
      </trkpt>
      <trkpt lat="45.88514" lon="5.34426">
        <ele>204.90588378906</ele>
        <time>2020-08-25T11:06:20Z</time>
      </trkpt>
      <trkpt lat="45.8853" lon="5.3436">
        <ele>206.46270751953</ele>
        <time>2020-08-25T11:06:54Z</time>
      </trkpt>
      <trkpt lat="45.88547" lon="5.34207">
        <ele>206.77714538574</ele>
        <time>2020-08-25T11:07:28Z</time>
      </trkpt>
      <trkpt lat="45.88578" lon="5.34085">
        <ele>207.55322265625</ele>
        <time>2020-08-25T11:08:03Z</time>
      </trkpt>
      <trkpt lat="45.88677" lon="5.33814">
        <ele>210.8037109375</ele>
        <time>2020-08-25T11:08:37Z</time>
      </trkpt>
      <trkpt lat="45.8874" lon="5.33688">
        <ele>214.53689575195</ele>
        <time>2020-08-25T11:09:12Z</time>
      </trkpt>
      <trkpt lat="45.88772" lon="5.33573">
        <ele>218.28999328613</ele>
        <time>2020-08-25T11:09:46Z</time>
      </trkpt>
      <trkpt lat="45.88877" lon="5.33373">
        <ele>219.48104858398</ele>
        <time>2020-08-25T11:10:21Z</time>
      </trkpt>
      <trkpt lat="45.8889" lon="5.33335">
        <ele>218.4525604248</ele>
        <time>2020-08-25T11:10:55Z</time>
      </trkpt>
      <trkpt lat="45.88893" lon="5.33298">
        <ele>217.74066162109</ele>
        <time>2020-08-25T11:11:30Z</time>
      </trkpt>
      <trkpt lat="45.88833" lon="5.33036">
        <ele>213.76765441895</ele>
        <time>2020-08-25T11:12:04Z</time>
      </trkpt>
      <trkpt lat="45.88833" lon="5.32974">
        <ele>213.07150268555</ele>
        <time>2020-08-25T11:12:39Z</time>
      </trkpt>
      <trkpt lat="45.8885" lon="5.32904">
        <ele>214.7629699707</ele>
        <time>2020-08-25T11:13:13Z</time>
      </trkpt>
      <trkpt lat="45.88845" lon="5.32875">
        <ele>216.26892089844</ele>
        <time>2020-08-25T11:13:48Z</time>
      </trkpt>
      <trkpt lat="45.88773" lon="5.32806">
        <ele>213.29232788086</ele>
        <time>2020-08-25T11:14:22Z</time>
      </trkpt>
      <trkpt lat="45.88734" lon="5.32747">
        <ele>213.26795959473</ele>
        <time>2020-08-25T11:14:57Z</time>
      </trkpt>
      <trkpt lat="45.88646" lon="5.32541">
        <ele>211.51817321777</ele>
        <time>2020-08-25T11:15:32Z</time>
      </trkpt>
      <trkpt lat="45.8859" lon="5.32426">
        <ele>213.1012878418</ele>
        <time>2020-08-25T11:16:06Z</time>
      </trkpt>
      <trkpt lat="45.88531" lon="5.3226">
        <ele>212.30833435059</ele>
        <time>2020-08-25T11:16:41Z</time>
      </trkpt>
      <trkpt lat="45.88419" lon="5.32014">
        <ele>212.80397033691</ele>
        <time>2020-08-25T11:17:16Z</time>
      </trkpt>
      <trkpt lat="45.88368" lon="5.31833">
        <ele>215.78588867188</ele>
        <time>2020-08-25T11:17:50Z</time>
      </trkpt>
      <trkpt lat="45.8821" lon="5.31605">
        <ele>211</ele>
        <time>2020-08-25T11:18:25Z</time>
      </trkpt>
      <trkpt lat="45.88156" lon="5.31493">
        <ele>210.35134887695</ele>
        <time>2020-08-25T11:19:00Z</time>
      </trkpt>
      <trkpt lat="45.88128" lon="5.31422">
        <ele>209.50387573242</ele>
        <time>2020-08-25T11:19:35Z</time>
      </trkpt>
      <trkpt lat="45.8808" lon="5.31265">
        <ele>209</ele>
        <time>2020-08-25T11:20:09Z</time>
      </trkpt>
      <trkpt lat="45.88065" lon="5.31161">
        <ele>209.52725219727</ele>
        <time>2020-08-25T11:20:44Z</time>
      </trkpt>
      <trkpt lat="45.88072" lon="5.3094">
        <ele>210.18647766113</ele>
        <time>2020-08-25T11:21:19Z</time>
      </trkpt>
      <trkpt lat="45.88086" lon="5.30786">
        <ele>211.9772644043</ele>
        <time>2020-08-25T11:21:54Z</time>
      </trkpt>
      <trkpt lat="45.88594" lon="5.28718">
        <ele>219.23429870605</ele>
        <time>2020-08-25T11:22:29Z</time>
      </trkpt>
      <trkpt lat="45.88617" lon="5.28421">
        <ele>218.31106567383</ele>
        <time>2020-08-25T11:23:04Z</time>
      </trkpt>
      <trkpt lat="45.88627" lon="5.28366">
        <ele>218.78848266602</ele>
        <time>2020-08-25T11:23:39Z</time>
      </trkpt>
      <trkpt lat="45.88676" lon="5.28251">
        <ele>221.11373901367</ele>
        <time>2020-08-25T11:24:15Z</time>
      </trkpt>
      <trkpt lat="45.88742" lon="5.28126">
        <ele>222.04684448242</ele>
        <time>2020-08-25T11:24:50Z</time>
      </trkpt>
      <trkpt lat="45.88871" lon="5.27949">
        <ele>224</ele>
        <time>2020-08-25T11:25:25Z</time>
      </trkpt>
      <trkpt lat="45.88913" lon="5.27844">
        <ele>225.40969848633</ele>
        <time>2020-08-25T11:26:00Z</time>
      </trkpt>
      <trkpt lat="45.88922" lon="5.27785">
        <ele>226.25051879883</ele>
        <time>2020-08-25T11:26:36Z</time>
      </trkpt>
      <trkpt lat="45.8893" lon="5.27776">
        <ele>226.23382568359</ele>
        <time>2020-08-25T11:27:11Z</time>
      </trkpt>
      <trkpt lat="45.88944" lon="5.2777">
        <ele>226.33570861816</ele>
        <time>2020-08-25T11:27:46Z</time>
      </trkpt>
      <trkpt lat="45.89023" lon="5.27768">
        <ele>227.09419250488</ele>
        <time>2020-08-25T11:28:21Z</time>
      </trkpt>
      <trkpt lat="45.89039" lon="5.27763">
        <ele>226.81695556641</ele>
        <time>2020-08-25T11:28:57Z</time>
      </trkpt>
      <trkpt lat="45.89052" lon="5.27746">
        <ele>226.70532226562</ele>
        <time>2020-08-25T11:29:32Z</time>
      </trkpt>
      <trkpt lat="45.89065" lon="5.27709">
        <ele>226.89775085449</ele>
        <time>2020-08-25T11:30:07Z</time>
      </trkpt>
      <trkpt lat="45.89083" lon="5.27582">
        <ele>227.51045227051</ele>
        <time>2020-08-25T11:30:42Z</time>
      </trkpt>
      <trkpt lat="45.89085" lon="5.27531">
        <ele>226.9600982666</ele>
        <time>2020-08-25T11:31:18Z</time>
      </trkpt>
      <trkpt lat="45.89029" lon="5.27044">
        <ele>221.97229003906</ele>
        <time>2020-08-25T11:31:53Z</time>
      </trkpt>
      <trkpt lat="45.89018" lon="5.26829">
        <ele>221.90724182129</ele>
        <time>2020-08-25T11:32:29Z</time>
      </trkpt>
      <trkpt lat="45.8902" lon="5.26728">
        <ele>223.17158508301</ele>
        <time>2020-08-25T11:33:04Z</time>
      </trkpt>
      <trkpt lat="45.89072" lon="5.2638">
        <ele>227.55201721191</ele>
        <time>2020-08-25T11:33:39Z</time>
      </trkpt>
      <trkpt lat="45.89131" lon="5.26073">
        <ele>230.21742248535</ele>
        <time>2020-08-25T11:34:15Z</time>
      </trkpt>
      <trkpt lat="45.89235" lon="5.25653">
        <ele>236.54156494141</ele>
        <time>2020-08-25T11:34:50Z</time>
      </trkpt>
      <trkpt lat="45.89276" lon="5.25535">
        <ele>243.23081970215</ele>
        <time>2020-08-25T11:35:26Z</time>
      </trkpt>
      <trkpt lat="45.89283" lon="5.25525">
        <ele>244.05838012695</ele>
        <time>2020-08-25T11:36:02Z</time>
      </trkpt>
      <trkpt lat="45.89296" lon="5.25521">
        <ele>244.45184326172</ele>
        <time>2020-08-25T11:36:37Z</time>
      </trkpt>
      <trkpt lat="45.89387" lon="5.25526">
        <ele>242.8304901123</ele>
        <time>2020-08-25T11:37:13Z</time>
      </trkpt>
      <trkpt lat="45.89447" lon="5.25505">
        <ele>242.18453979492</ele>
        <time>2020-08-25T11:37:48Z</time>
      </trkpt>
      <trkpt lat="45.89487" lon="5.25477">
        <ele>243.14434814453</ele>
        <time>2020-08-25T11:38:24Z</time>
      </trkpt>
      <trkpt lat="45.89607" lon="5.25377">
        <ele>245.8656463623</ele>
        <time>2020-08-25T11:39:00Z</time>
      </trkpt>
      <trkpt lat="45.89735" lon="5.25248">
        <ele>243.71493530273</ele>
        <time>2020-08-25T11:39:35Z</time>
      </trkpt>
      <trkpt lat="45.89812" lon="5.25213">
        <ele>242.06318664551</ele>
        <time>2020-08-25T11:40:11Z</time>
      </trkpt>
      <trkpt lat="45.89846" lon="5.25189">
        <ele>240.45707702637</ele>
        <time>2020-08-25T11:40:46Z</time>
      </trkpt>
      <trkpt lat="45.89888" lon="5.25141">
        <ele>241.95745849609</ele>
        <time>2020-08-25T11:41:22Z</time>
      </trkpt>
      <trkpt lat="45.89961" lon="5.25019">
        <ele>225.49774169922</ele>
        <time>2020-08-25T11:41:58Z</time>
      </trkpt>
      <trkpt lat="45.90002" lon="5.24968">
        <ele>221.66079711914</ele>
        <time>2020-08-25T11:42:34Z</time>
      </trkpt>
      <trkpt lat="45.90126" lon="5.2484">
        <ele>218.75158691406</ele>
        <time>2020-08-25T11:43:09Z</time>
      </trkpt>
      <trkpt lat="45.90291" lon="5.24658">
        <ele>212.80551147461</ele>
        <time>2020-08-25T11:43:45Z</time>
      </trkpt>
      <trkpt lat="45.90421" lon="5.24534">
        <ele>215.36981201172</ele>
        <time>2020-08-25T11:44:21Z</time>
      </trkpt>
      <trkpt lat="45.90672" lon="5.24236">
        <ele>215.32783508301</ele>
        <time>2020-08-25T11:44:57Z</time>
      </trkpt>
      <trkpt lat="45.9071" lon="5.24209">
        <ele>215.09107971191</ele>
        <time>2020-08-25T11:45:33Z</time>
      </trkpt>
      <trkpt lat="45.90751" lon="5.24199">
        <ele>215.49114990234</ele>
        <time>2020-08-25T11:46:08Z</time>
      </trkpt>
      <trkpt lat="45.90762" lon="5.2418">
        <ele>215.84434509277</ele>
        <time>2020-08-25T11:46:44Z</time>
      </trkpt>
      <trkpt lat="45.90747" lon="5.24053">
        <ele>215.09323120117</ele>
        <time>2020-08-25T11:47:20Z</time>
      </trkpt>
      <trkpt lat="45.90731" lon="5.23823">
        <ele>215.98754882812</ele>
        <time>2020-08-25T11:47:56Z</time>
      </trkpt>
      <trkpt lat="45.90604" lon="5.21795">
        <ele>218.00119018555</ele>
        <time>2020-08-25T11:48:32Z</time>
      </trkpt>
      <trkpt lat="45.90598" lon="5.2166">
        <ele>217.51156616211</ele>
        <time>2020-08-25T11:49:08Z</time>
      </trkpt>
      <trkpt lat="45.90604" lon="5.21606">
        <ele>216.87942504883</ele>
        <time>2020-08-25T11:49:45Z</time>
      </trkpt>
      <trkpt lat="45.90592" lon="5.21563">
        <ele>216.42649841309</ele>
        <time>2020-08-25T11:50:21Z</time>
      </trkpt>
      <trkpt lat="45.90584" lon="5.21466">
        <ele>216.60981750488</ele>
        <time>2020-08-25T11:50:57Z</time>
      </trkpt>
      <trkpt lat="45.90524" lon="5.20537">
        <ele>216.09423828125</ele>
        <time>2020-08-25T11:51:33Z</time>
      </trkpt>
      <trkpt lat="45.9051" lon="5.20473">
        <ele>217.16407775879</ele>
        <time>2020-08-25T11:52:10Z</time>
      </trkpt>
      <trkpt lat="45.90486" lon="5.20413">
        <ele>217.73947143555</ele>
        <time>2020-08-25T11:52:46Z</time>
      </trkpt>
      <trkpt lat="45.90338" lon="5.20212">
        <ele>215.11630249023</ele>
        <time>2020-08-25T11:53:22Z</time>
      </trkpt>
      <trkpt lat="45.90297" lon="5.20138">
        <ele>215.76097106934</ele>
        <time>2020-08-25T11:53:59Z</time>
      </trkpt>
      <trkpt lat="45.90258" lon="5.20049">
        <ele>216.36431884766</ele>
        <time>2020-08-25T11:54:35Z</time>
      </trkpt>
      <trkpt lat="45.90257" lon="5.20034">
        <ele>216.53085327148</ele>
        <time>2020-08-25T11:55:12Z</time>
      </trkpt>
      <trkpt lat="45.90265" lon="5.20016">
        <ele>216.8508605957</ele>
        <time>2020-08-25T11:55:48Z</time>
      </trkpt>
      <trkpt lat="45.90328" lon="5.19969">
        <ele>216.75636291504</ele>
        <time>2020-08-25T11:56:24Z</time>
      </trkpt>
      <trkpt lat="45.90398" lon="5.19873">
        <ele>221.01934814453</ele>
        <time>2020-08-25T11:57:01Z</time>
      </trkpt>
      <trkpt lat="45.90422" lon="5.19834">
        <ele>223.73211669922</ele>
        <time>2020-08-25T11:57:37Z</time>
      </trkpt>
      <trkpt lat="45.90425" lon="5.19823">
        <ele>223.89424133301</ele>
        <time>2020-08-25T11:58:14Z</time>
      </trkpt>
      <trkpt lat="45.9042" lon="5.19817">
        <ele>223.1775970459</ele>
        <time>2020-08-25T11:58:50Z</time>
      </trkpt>
      <trkpt lat="45.90399" lon="5.1982">
        <ele>220.47680664062</ele>
        <time>2020-08-25T11:59:26Z</time>
      </trkpt>
      <trkpt lat="45.90387" lon="5.19816">
        <ele>219.18101501465</ele>
        <time>2020-08-25T12:00:03Z</time>
      </trkpt>
      <trkpt lat="45.90361" lon="5.19777">
        <ele>218.30715942383</ele>
        <time>2020-08-25T12:00:39Z</time>
      </trkpt>
      <trkpt lat="45.90335" lon="5.19699">
        <ele>218.48277282715</ele>
        <time>2020-08-25T12:01:16Z</time>
      </trkpt>
      <trkpt lat="45.903" lon="5.19554">
        <ele>219.54527282715</ele>
        <time>2020-08-25T12:01:52Z</time>
      </trkpt>
      <trkpt lat="45.90223" lon="5.19351">
        <ele>218.99601745605</ele>
        <time>2020-08-25T12:02:29Z</time>
      </trkpt>
      <trkpt lat="45.90204" lon="5.19314">
        <ele>219.84741210938</ele>
        <time>2020-08-25T12:03:05Z</time>
      </trkpt>
      <trkpt lat="45.90162" lon="5.19281">
        <ele>219.6990814209</ele>
        <time>2020-08-25T12:03:42Z</time>
      </trkpt>
      <trkpt lat="45.90106" lon="5.19149">
        <ele>218.84547424316</ele>
        <time>2020-08-25T12:04:18Z</time>
      </trkpt>
      <trkpt lat="45.90101" lon="5.19122">
        <ele>218.61317443848</ele>
        <time>2020-08-25T12:04:55Z</time>
      </trkpt>
      <trkpt lat="45.90102" lon="5.19096">
        <ele>218.93811035156</ele>
        <time>2020-08-25T12:05:31Z</time>
      </trkpt>
      <trkpt lat="45.90157" lon="5.19004">
        <ele>219.3117980957</ele>
        <time>2020-08-25T12:06:08Z</time>
      </trkpt>
      <trkpt lat="45.9016" lon="5.1898">
        <ele>219.71034240723</ele>
        <time>2020-08-25T12:06:45Z</time>
      </trkpt>
      <trkpt lat="45.90028" lon="5.18799">
        <ele>218.70121765137</ele>
        <time>2020-08-25T12:07:21Z</time>
      </trkpt>
      <trkpt lat="45.90023" lon="5.18784">
        <ele>218.47212219238</ele>
        <time>2020-08-25T12:07:58Z</time>
      </trkpt>
      <trkpt lat="45.90033" lon="5.18742">
        <ele>217.72074890137</ele>
        <time>2020-08-25T12:08:34Z</time>
      </trkpt>
      <trkpt lat="45.90174" lon="5.18397">
        <ele>229.00215148926</ele>
        <time>2020-08-25T12:09:11Z</time>
      </trkpt>
      <trkpt lat="45.90187" lon="5.18344">
        <ele>233.46708679199</ele>
        <time>2020-08-25T12:09:48Z</time>
      </trkpt>
      <trkpt lat="45.90171" lon="5.18047">
        <ele>251.03479003906</ele>
        <time>2020-08-25T12:10:24Z</time>
      </trkpt>
      <trkpt lat="45.90121" lon="5.17812">
        <ele>246.75875854492</ele>
        <time>2020-08-25T12:11:01Z</time>
      </trkpt>
      <trkpt lat="45.90119" lon="5.17763">
        <ele>247.62644958496</ele>
        <time>2020-08-25T12:11:38Z</time>
      </trkpt>
      <trkpt lat="45.90123" lon="5.17721">
        <ele>248.08683776855</ele>
        <time>2020-08-25T12:12:14Z</time>
      </trkpt>
      <trkpt lat="45.90162" lon="5.17587">
        <ele>251.24816894531</ele>
        <time>2020-08-25T12:12:51Z</time>
      </trkpt>
      <trkpt lat="45.90177" lon="5.17561">
        <ele>251.75944519043</ele>
        <time>2020-08-25T12:13:28Z</time>
      </trkpt>
      <trkpt lat="45.90205" lon="5.17541">
        <ele>251.58576965332</ele>
        <time>2020-08-25T12:14:05Z</time>
      </trkpt>
      <trkpt lat="45.90262" lon="5.17525">
        <ele>259.28137207031</ele>
        <time>2020-08-25T12:14:41Z</time>
      </trkpt>
      <trkpt lat="45.90284" lon="5.17512">
        <ele>262.63354492188</ele>
        <time>2020-08-25T12:15:18Z</time>
      </trkpt>
      <trkpt lat="45.90333" lon="5.17449">
        <ele>263.03451538086</ele>
        <time>2020-08-25T12:15:55Z</time>
      </trkpt>
      <trkpt lat="45.90349" lon="5.17434">
        <ele>265.94046020508</ele>
        <time>2020-08-25T12:16:32Z</time>
      </trkpt>
      <trkpt lat="45.90371" lon="5.17432">
        <ele>266.97665405273</ele>
        <time>2020-08-25T12:17:09Z</time>
      </trkpt>
      <trkpt lat="45.90417" lon="5.17441">
        <ele>268.45367431641</ele>
        <time>2020-08-25T12:17:45Z</time>
      </trkpt>
      <trkpt lat="45.90441" lon="5.17441">
        <ele>270.46267700195</ele>
        <time>2020-08-25T12:18:22Z</time>
      </trkpt>
      <trkpt lat="45.90498" lon="5.17419">
        <ele>272.00946044922</ele>
        <time>2020-08-25T12:18:59Z</time>
      </trkpt>
      <trkpt lat="45.90522" lon="5.17416">
        <ele>272.47741699219</ele>
        <time>2020-08-25T12:19:36Z</time>
      </trkpt>
      <trkpt lat="45.90605" lon="5.17428">
        <ele>272.41458129883</ele>
        <time>2020-08-25T12:20:13Z</time>
      </trkpt>
      <trkpt lat="45.90647" lon="5.1741">
        <ele>275.10485839844</ele>
        <time>2020-08-25T12:20:49Z</time>
      </trkpt>
      <trkpt lat="45.90673" lon="5.17383">
        <ele>277.98190307617</ele>
        <time>2020-08-25T12:21:26Z</time>
      </trkpt>
      <trkpt lat="45.90743" lon="5.17281">
        <ele>285.72436523438</ele>
        <time>2020-08-25T12:22:03Z</time>
      </trkpt>
      <trkpt lat="45.90816" lon="5.17138">
        <ele>289.98709106445</ele>
        <time>2020-08-25T12:22:40Z</time>
      </trkpt>
      <trkpt lat="45.90822" lon="5.1711">
        <ele>289.64666748047</ele>
        <time>2020-08-25T12:23:17Z</time>
      </trkpt>
      <trkpt lat="45.90822" lon="5.17022">
        <ele>289.63418579102</ele>
        <time>2020-08-25T12:23:54Z</time>
      </trkpt>
      <trkpt lat="45.90813" lon="5.16887">
        <ele>290.07629394531</ele>
        <time>2020-08-25T12:24:31Z</time>
      </trkpt>
      <trkpt lat="45.90795" lon="5.1669">
        <ele>291.96459960938</ele>
        <time>2020-08-25T12:25:08Z</time>
      </trkpt>
      <trkpt lat="45.90762" lon="5.1653">
        <ele>291.17910766602</ele>
        <time>2020-08-25T12:25:45Z</time>
      </trkpt>
      <trkpt lat="45.90757" lon="5.16458">
        <ele>290.68374633789</ele>
        <time>2020-08-25T12:26:22Z</time>
      </trkpt>
      <trkpt lat="45.90804" lon="5.15871">
        <ele>291.18490600586</ele>
        <time>2020-08-25T12:26:59Z</time>
      </trkpt>
      <trkpt lat="45.90815" lon="5.15807">
        <ele>293.7451171875</ele>
        <time>2020-08-25T12:27:36Z</time>
      </trkpt>
      <trkpt lat="45.90829" lon="5.15763">
        <ele>293.6203918457</ele>
        <time>2020-08-25T12:28:13Z</time>
      </trkpt>
      <trkpt lat="45.9094" lon="5.15508">
        <ele>288.96411132812</ele>
        <time>2020-08-25T12:28:50Z</time>
      </trkpt>
      <trkpt lat="45.91219" lon="5.14996">
        <ele>292.77590942383</ele>
        <time>2020-08-25T12:29:27Z</time>
      </trkpt>
      <trkpt lat="45.91593" lon="5.1393">
        <ele>298.74761962891</ele>
        <time>2020-08-25T12:30:04Z</time>
      </trkpt>
      <trkpt lat="45.91624" lon="5.13876">
        <ele>298.41363525391</ele>
        <time>2020-08-25T12:30:42Z</time>
      </trkpt>
      <trkpt lat="45.92095" lon="5.13166">
        <ele>294.84512329102</ele>
        <time>2020-08-25T12:31:19Z</time>
      </trkpt>
      <trkpt lat="45.92198" lon="5.12924">
        <ele>287.74868774414</ele>
        <time>2020-08-25T12:31:57Z</time>
      </trkpt>
      <trkpt lat="45.92231" lon="5.12882">
        <ele>287.85317993164</ele>
        <time>2020-08-25T12:32:34Z</time>
      </trkpt>
      <trkpt lat="45.92239" lon="5.12833">
        <ele>288.35317993164</ele>
        <time>2020-08-25T12:33:12Z</time>
      </trkpt>
      <trkpt lat="45.92259" lon="5.12775">
        <ele>288.76971435547</ele>
        <time>2020-08-25T12:33:49Z</time>
      </trkpt>
      <trkpt lat="45.92608" lon="5.11931">
        <ele>284.03378295898</ele>
        <time>2020-08-25T12:34:27Z</time>
      </trkpt>
      <trkpt lat="45.92627" lon="5.11842">
        <ele>283.16351318359</ele>
        <time>2020-08-25T12:35:04Z</time>
      </trkpt>
      <trkpt lat="45.92701" lon="5.11071">
        <ele>287.228515625</ele>
        <time>2020-08-25T12:35:42Z</time>
      </trkpt>
      <trkpt lat="45.92725" lon="5.10757">
        <ele>286.57485961914</ele>
        <time>2020-08-25T12:36:20Z</time>
      </trkpt>
      <trkpt lat="45.92921" lon="5.08641">
        <ele>290.53756713867</ele>
        <time>2020-08-25T12:36:58Z</time>
      </trkpt>
      <trkpt lat="45.92943" lon="5.08442">
        <ele>288.9397277832</ele>
        <time>2020-08-25T12:37:36Z</time>
      </trkpt>
      <trkpt lat="45.92994" lon="5.08071">
        <ele>287.47653198242</ele>
        <time>2020-08-25T12:38:14Z</time>
      </trkpt>
      <trkpt lat="45.93022" lon="5.07388">
        <ele>290.99639892578</ele>
        <time>2020-08-25T12:38:52Z</time>
      </trkpt>
      <trkpt lat="45.92997" lon="5.07222">
        <ele>291.29318237305</ele>
        <time>2020-08-25T12:39:30Z</time>
      </trkpt>
      <trkpt lat="45.9297" lon="5.06631">
        <ele>280.220703125</ele>
        <time>2020-08-25T12:40:08Z</time>
      </trkpt>
      <trkpt lat="45.92741" lon="5.04553">
        <ele>295.34780883789</ele>
        <time>2020-08-25T12:40:47Z</time>
      </trkpt>
      <trkpt lat="45.92691" lon="5.04061">
        <ele>295.30389404297</ele>
        <time>2020-08-25T12:41:26Z</time>
      </trkpt>
      <trkpt lat="45.92686" lon="5.03883">
        <ele>292.5061340332</ele>
        <time>2020-08-25T12:42:04Z</time>
      </trkpt>
      <trkpt lat="45.92692" lon="5.03246">
        <ele>289.26522827148</ele>
        <time>2020-08-25T12:42:43Z</time>
      </trkpt>
      <trkpt lat="45.92689" lon="5.03167">
        <ele>288.08584594727</ele>
        <time>2020-08-25T12:43:21Z</time>
      </trkpt>
      <trkpt lat="45.9256" lon="5.02039">
        <ele>289.83877563477</ele>
        <time>2020-08-25T12:44:00Z</time>
      </trkpt>
      <trkpt lat="45.92381" lon="5.01106">
        <ele>287.90438842773</ele>
        <time>2020-08-25T12:44:39Z</time>
      </trkpt>
      <trkpt lat="45.92335" lon="5.00649">
        <ele>287.66891479492</ele>
        <time>2020-08-25T12:45:18Z</time>
      </trkpt>
      <trkpt lat="45.92347" lon="5.00302">
        <ele>287.55697631836</ele>
        <time>2020-08-25T12:45:57Z</time>
      </trkpt>
      <trkpt lat="45.92505" lon="4.98108">
        <ele>289.82595825195</ele>
        <time>2020-08-25T12:46:37Z</time>
      </trkpt>
      <trkpt lat="45.92621" lon="4.97248">
        <ele>292.56549072266</ele>
        <time>2020-08-25T12:47:16Z</time>
      </trkpt>
      <trkpt lat="45.92621" lon="4.97151">
        <ele>293.04507446289</ele>
        <time>2020-08-25T12:47:55Z</time>
      </trkpt>
      <trkpt lat="45.92601" lon="4.96662">
        <ele>287.92459106445</ele>
        <time>2020-08-25T12:48:35Z</time>
      </trkpt>
      <trkpt lat="45.92608" lon="4.96596">
        <ele>287.39147949219</ele>
        <time>2020-08-25T12:49:14Z</time>
      </trkpt>
      <trkpt lat="45.92639" lon="4.96455">
        <ele>289.9612121582</ele>
        <time>2020-08-25T12:49:54Z</time>
      </trkpt>
      <trkpt lat="45.92644" lon="4.96404">
        <ele>289.27774047852</ele>
        <time>2020-08-25T12:50:33Z</time>
      </trkpt>
      <trkpt lat="45.92611" lon="4.96038">
        <ele>292.74356079102</ele>
        <time>2020-08-25T12:51:13Z</time>
      </trkpt>
      <trkpt lat="45.92614" lon="4.95996">
        <ele>292.96267700195</ele>
        <time>2020-08-25T12:51:52Z</time>
      </trkpt>
      <trkpt lat="45.92625" lon="4.95963">
        <ele>292.5517578125</ele>
        <time>2020-08-25T12:52:32Z</time>
      </trkpt>
      <trkpt lat="45.92621" lon="4.95952">
        <ele>292.63369750977</ele>
        <time>2020-08-25T12:53:12Z</time>
      </trkpt>
      <trkpt lat="45.92605" lon="4.95936">
        <ele>293.00830078125</ele>
        <time>2020-08-25T12:53:51Z</time>
      </trkpt>
      <trkpt lat="45.92602" lon="4.95921">
        <ele>292.94766235352</ele>
        <time>2020-08-25T12:54:31Z</time>
      </trkpt>
      <trkpt lat="45.9263" lon="4.95255">
        <ele>296.55368041992</ele>
        <time>2020-08-25T12:55:10Z</time>
      </trkpt>
      <trkpt lat="45.92616" lon="4.95158">
        <ele>297</ele>
        <time>2020-08-25T12:55:50Z</time>
      </trkpt>
      <trkpt lat="45.92622" lon="4.95124">
        <ele>297</ele>
        <time>2020-08-25T12:56:30Z</time>
      </trkpt>
      <trkpt lat="45.92602" lon="4.95071">
        <ele>296.82165527344</ele>
        <time>2020-08-25T12:57:09Z</time>
      </trkpt>
      <trkpt lat="45.92641" lon="4.94938">
        <ele>298.22241210938</ele>
        <time>2020-08-25T12:57:49Z</time>
      </trkpt>
      <trkpt lat="45.92643" lon="4.94909">
        <ele>298.51272583008</ele>
        <time>2020-08-25T12:58:29Z</time>
      </trkpt>
      <trkpt lat="45.92618" lon="4.94861">
        <ele>298.57650756836</ele>
        <time>2020-08-25T12:59:08Z</time>
      </trkpt>
      <trkpt lat="45.92559" lon="4.94772">
        <ele>296.82766723633</ele>
        <time>2020-08-25T12:59:48Z</time>
      </trkpt>
      <trkpt lat="45.92538" lon="4.94727">
        <ele>296.22961425781</ele>
        <time>2020-08-25T13:00:28Z</time>
      </trkpt>
      <trkpt lat="45.92466" lon="4.94344">
        <ele>296.71377563477</ele>
        <time>2020-08-25T13:01:08Z</time>
      </trkpt>
      <trkpt lat="45.9244" lon="4.9426">
        <ele>298.36776733398</ele>
        <time>2020-08-25T13:01:47Z</time>
      </trkpt>
      <trkpt lat="45.91983" lon="4.93154">
        <ele>296.39721679688</ele>
        <time>2020-08-25T13:02:27Z</time>
      </trkpt>
      <trkpt lat="45.91956" lon="4.93093">
        <ele>298.19705200195</ele>
        <time>2020-08-25T13:03:07Z</time>
      </trkpt>
      <trkpt lat="45.91565" lon="4.92347">
        <ele>291.16687011719</ele>
        <time>2020-08-25T13:03:47Z</time>
      </trkpt>
      <trkpt lat="45.91298" lon="4.91653">
        <ele>295.57391357422</ele>
        <time>2020-08-25T13:04:28Z</time>
      </trkpt>
      <trkpt lat="45.91286" lon="4.916">
        <ele>298.49658203125</ele>
        <time>2020-08-25T13:05:08Z</time>
      </trkpt>
      <trkpt lat="45.91271" lon="4.91431">
        <ele>301.56466674805</ele>
        <time>2020-08-25T13:05:48Z</time>
      </trkpt>
      <trkpt lat="45.91101" lon="4.90268">
        <ele>297.79071044922</ele>
        <time>2020-08-25T13:06:28Z</time>
      </trkpt>
      <trkpt lat="45.91064" lon="4.90165">
        <ele>298.26779174805</ele>
        <time>2020-08-25T13:07:09Z</time>
      </trkpt>
      <trkpt lat="45.90923" lon="4.89862">
        <ele>299.52328491211</ele>
        <time>2020-08-25T13:07:49Z</time>
      </trkpt>
      <trkpt lat="45.90902" lon="4.8979">
        <ele>299.85452270508</ele>
        <time>2020-08-25T13:08:29Z</time>
      </trkpt>
      <trkpt lat="45.90707" lon="4.88938">
        <ele>293.98007202148</ele>
        <time>2020-08-25T13:09:10Z</time>
      </trkpt>
      <trkpt lat="45.9058" lon="4.88059">
        <ele>290.76727294922</ele>
        <time>2020-08-25T13:09:50Z</time>
      </trkpt>
      <trkpt lat="45.90564" lon="4.88022">
        <ele>290.57907104492</ele>
        <time>2020-08-25T13:10:31Z</time>
      </trkpt>
      <trkpt lat="45.90534" lon="4.87988">
        <ele>290.03973388672</ele>
        <time>2020-08-25T13:11:12Z</time>
      </trkpt>
      <trkpt lat="45.90522" lon="4.87962">
        <ele>289.56475830078</ele>
        <time>2020-08-25T13:11:52Z</time>
      </trkpt>
      <trkpt lat="45.9052" lon="4.87903">
        <ele>288.56042480469</ele>
        <time>2020-08-25T13:12:33Z</time>
      </trkpt>
      <trkpt lat="45.90493" lon="4.87812">
        <ele>287.50253295898</ele>
        <time>2020-08-25T13:13:14Z</time>
      </trkpt>
      <trkpt lat="45.90439" lon="4.87579">
        <ele>285.18740844727</ele>
        <time>2020-08-25T13:13:54Z</time>
      </trkpt>
      <trkpt lat="45.90372" lon="4.87356">
        <ele>287.64855957031</ele>
        <time>2020-08-25T13:14:35Z</time>
      </trkpt>
      <trkpt lat="45.90374" lon="4.87376">
        <ele>287.53381347656</ele>
        <time>2020-08-25T13:15:16Z</time>
      </trkpt>
      <trkpt lat="45.90397" lon="4.87434">
        <ele>286.10720825195</ele>
        <time>2020-08-25T13:15:56Z</time>
      </trkpt>
      <trkpt lat="45.90376" lon="4.87357">
        <ele>287.54251098633</ele>
        <time>2020-08-25T13:16:37Z</time>
      </trkpt>
      <trkpt lat="45.90354" lon="4.87222">
        <ele>288.12771606445</ele>
        <time>2020-08-25T13:17:18Z</time>
      </trkpt>
      <trkpt lat="45.90331" lon="4.87159">
        <ele>288.28125</ele>
        <time>2020-08-25T13:17:59Z</time>
      </trkpt>
      <trkpt lat="45.90302" lon="4.87109">
        <ele>289.12548828125</ele>
        <time>2020-08-25T13:18:39Z</time>
      </trkpt>
      <trkpt lat="45.90229" lon="4.8701">
        <ele>290.14739990234</ele>
        <time>2020-08-25T13:19:20Z</time>
      </trkpt>
      <trkpt lat="45.90121" lon="4.86924">
        <ele>289</ele>
        <time>2020-08-25T13:20:01Z</time>
      </trkpt>
      <trkpt lat="45.89697" lon="4.86499">
        <ele>283.51998901367</ele>
        <time>2020-08-25T13:20:42Z</time>
      </trkpt>
      <trkpt lat="45.89572" lon="4.86347">
        <ele>279.85180664062</ele>
        <time>2020-08-25T13:21:23Z</time>
      </trkpt>
      <trkpt lat="45.8953" lon="4.86314">
        <ele>278.51428222656</ele>
        <time>2020-08-25T13:22:04Z</time>
      </trkpt>
      <trkpt lat="45.89435" lon="4.86263">
        <ele>273.10791015625</ele>
        <time>2020-08-25T13:22:45Z</time>
      </trkpt>
      <trkpt lat="45.89402" lon="4.86232">
        <ele>270.70257568359</ele>
        <time>2020-08-25T13:23:26Z</time>
      </trkpt>
      <trkpt lat="45.89299" lon="4.86116">
        <ele>264.015625</ele>
        <time>2020-08-25T13:24:06Z</time>
      </trkpt>
      <trkpt lat="45.89168" lon="4.86032">
        <ele>260.98516845703</ele>
        <time>2020-08-25T13:24:47Z</time>
      </trkpt>
      <trkpt lat="45.89136" lon="4.85998">
        <ele>255.18231201172</ele>
        <time>2020-08-25T13:25:28Z</time>
      </trkpt>
      <trkpt lat="45.89065" lon="4.85889">
        <ele>241.31161499023</ele>
        <time>2020-08-25T13:26:09Z</time>
      </trkpt>
      <trkpt lat="45.89045" lon="4.85842">
        <ele>237.97688293457</ele>
        <time>2020-08-25T13:26:51Z</time>
      </trkpt>
      <trkpt lat="45.89039" lon="4.85787">
        <ele>237.7568359375</ele>
        <time>2020-08-25T13:27:32Z</time>
      </trkpt>
      <trkpt lat="45.89059" lon="4.85598">
        <ele>241.24423217773</ele>
        <time>2020-08-25T13:28:13Z</time>
      </trkpt>
      <trkpt lat="45.89055" lon="4.85537">
        <ele>242.70893859863</ele>
        <time>2020-08-25T13:28:54Z</time>
      </trkpt>
      <trkpt lat="45.88972" lon="4.8529">
        <ele>244.54402160645</ele>
        <time>2020-08-25T13:29:35Z</time>
      </trkpt>
      <trkpt lat="45.8895" lon="4.85248">
        <ele>243.7995300293</ele>
        <time>2020-08-25T13:30:16Z</time>
      </trkpt>
      <trkpt lat="45.88915" lon="4.85204">
        <ele>238.96548461914</ele>
        <time>2020-08-25T13:30:57Z</time>
      </trkpt>
      <trkpt lat="45.88769" lon="4.85094">
        <ele>227.37229919434</ele>
        <time>2020-08-25T13:31:38Z</time>
      </trkpt>
      <trkpt lat="45.88694" lon="4.85045">
        <ele>229.0718536377</ele>
        <time>2020-08-25T13:32:19Z</time>
      </trkpt>
      <trkpt lat="45.88656" lon="4.85034">
        <ele>227.58868408203</ele>
        <time>2020-08-25T13:33:00Z</time>
      </trkpt>
      <trkpt lat="45.88564" lon="4.85023">
        <ele>222.69651794434</ele>
        <time>2020-08-25T13:33:42Z</time>
      </trkpt>
      <trkpt lat="45.88531" lon="4.85008">
        <ele>223.64334106445</ele>
        <time>2020-08-25T13:34:23Z</time>
      </trkpt>
      <trkpt lat="45.88106" lon="4.84713">
        <ele>214.56007385254</ele>
        <time>2020-08-25T13:35:04Z</time>
      </trkpt>
      <trkpt lat="45.88065" lon="4.84675">
        <ele>210.67324829102</ele>
        <time>2020-08-25T13:35:45Z</time>
      </trkpt>
      <trkpt lat="45.87848" lon="4.84511">
        <ele>200.57691955566</ele>
        <time>2020-08-25T13:36:27Z</time>
      </trkpt>
      <trkpt lat="45.8773" lon="4.84394">
        <ele>187.74096679688</ele>
        <time>2020-08-25T13:37:08Z</time>
      </trkpt>
      <trkpt lat="45.87671" lon="4.84331">
        <ele>183.50465393066</ele>
        <time>2020-08-25T13:37:49Z</time>
      </trkpt>
      <trkpt lat="45.87648" lon="4.843">
        <ele>181.65927124023</ele>
        <time>2020-08-25T13:38:31Z</time>
      </trkpt>
      <trkpt lat="45.87611" lon="4.84268">
        <ele>179.96842956543</ele>
        <time>2020-08-25T13:39:12Z</time>
      </trkpt>
      <trkpt lat="45.87521" lon="4.84161">
        <ele>177.14106750488</ele>
        <time>2020-08-25T13:39:53Z</time>
      </trkpt>
      <trkpt lat="45.87516" lon="4.84148">
        <ele>177.02198791504</ele>
        <time>2020-08-25T13:40:35Z</time>
      </trkpt>
      <trkpt lat="45.87504" lon="4.83995">
        <ele>174.60641479492</ele>
        <time>2020-08-25T13:41:16Z</time>
      </trkpt>
      <trkpt lat="45.87514" lon="4.83917">
        <ele>173.02809143066</ele>
        <time>2020-08-25T13:41:58Z</time>
      </trkpt>
      <trkpt lat="45.87525" lon="4.83893">
        <ele>172.4850769043</ele>
        <time>2020-08-25T13:42:39Z</time>
      </trkpt>
      <trkpt lat="45.87553" lon="4.8387">
        <ele>171.90278625488</ele>
        <time>2020-08-25T13:43:21Z</time>
      </trkpt>
      <trkpt lat="45.87583" lon="4.83857">
        <ele>170.73622131348</ele>
        <time>2020-08-25T13:44:02Z</time>
      </trkpt>
      <trkpt lat="45.87629" lon="4.83849">
        <ele>170.04351806641</ele>
        <time>2020-08-25T13:44:43Z</time>
      </trkpt>
      <trkpt lat="45.87673" lon="4.83848">
        <ele>169.59039306641</ele>
        <time>2020-08-25T13:45:25Z</time>
      </trkpt>
      <trkpt lat="45.87706" lon="4.83854">
        <ele>169.67539978027</ele>
        <time>2020-08-25T13:46:06Z</time>
      </trkpt>
      <trkpt lat="45.87714" lon="4.83846">
        <ele>169.09010314941</ele>
        <time>2020-08-25T13:46:48Z</time>
      </trkpt>
      <trkpt lat="45.87713" lon="4.83832">
        <ele>168.10536193848</ele>
        <time>2020-08-25T13:47:29Z</time>
      </trkpt>
      <trkpt lat="45.877" lon="4.83808">
        <ele>166.36456298828</ele>
        <time>2020-08-25T13:48:11Z</time>
      </trkpt>
      <trkpt lat="45.87696" lon="4.83777">
        <ele>165</ele>
        <time>2020-08-25T13:48:52Z</time>
      </trkpt>
      <trkpt lat="45.87682" lon="4.83567">
        <ele>169.35702514648</ele>
        <time>2020-08-25T13:49:34Z</time>
      </trkpt>
      <trkpt lat="45.87689" lon="4.83551">
        <ele>171.01094055176</ele>
        <time>2020-08-25T13:50:15Z</time>
      </trkpt>
      <trkpt lat="45.87758" lon="4.83471">
        <ele>169.08201599121</ele>
        <time>2020-08-25T13:50:57Z</time>
      </trkpt>
      <trkpt lat="45.87785" lon="4.83426">
        <ele>166.50344848633</ele>
        <time>2020-08-25T13:51:38Z</time>
      </trkpt>
      <trkpt lat="45.87828" lon="4.83324">
        <ele>168.4556427002</ele>
        <time>2020-08-25T13:52:20Z</time>
      </trkpt>
      <trkpt lat="45.87857" lon="4.8321">
        <ele>168.49217224121</ele>
        <time>2020-08-25T13:53:01Z</time>
      </trkpt>
      <trkpt lat="45.87873" lon="4.83115">
        <ele>166.59492492676</ele>
        <time>2020-08-25T13:53:43Z</time>
      </trkpt>
      <trkpt lat="45.87891" lon="4.82937">
        <ele>165</ele>
        <time>2020-08-25T13:54:24Z</time>
      </trkpt>
      <trkpt lat="45.87882" lon="4.82728">
        <ele>165.61128234863</ele>
        <time>2020-08-25T13:55:06Z</time>
      </trkpt>
      <trkpt lat="45.87886" lon="4.82666">
        <ele>165.20481872559</ele>
        <time>2020-08-25T13:55:48Z</time>
      </trkpt>
      <trkpt lat="45.87936" lon="4.82434">
        <ele>166.67538452148</ele>
        <time>2020-08-25T13:56:29Z</time>
      </trkpt>
      <trkpt lat="45.87971" lon="4.82149">
        <ele>169.81532287598</ele>
        <time>2020-08-25T13:57:11Z</time>
      </trkpt>
      <trkpt lat="45.87982" lon="4.82114">
        <ele>169.71018981934</ele>
        <time>2020-08-25T13:57:53Z</time>
      </trkpt>
      <trkpt lat="45.88001" lon="4.82102">
        <ele>169.04946899414</ele>
        <time>2020-08-25T13:58:34Z</time>
      </trkpt>
      <trkpt lat="45.88007" lon="4.82091">
        <ele>169.0806427002</ele>
        <time>2020-08-25T13:59:16Z</time>
      </trkpt>
      <trkpt lat="45.88004" lon="4.82071">
        <ele>169.99388122559</ele>
        <time>2020-08-25T13:59:58Z</time>
      </trkpt>
      <trkpt lat="45.8798" lon="4.82038">
        <ele>172.33393859863</ele>
        <time>2020-08-25T14:00:39Z</time>
      </trkpt>
      <trkpt lat="45.87947" lon="4.82015">
        <ele>174.54708862305</ele>
        <time>2020-08-25T14:01:21Z</time>
      </trkpt>
      <trkpt lat="45.87931" lon="4.81993">
        <ele>175.50628662109</ele>
        <time>2020-08-25T14:02:03Z</time>
      </trkpt>
      <trkpt lat="45.87909" lon="4.81927">
        <ele>177.30024719238</ele>
        <time>2020-08-25T14:02:44Z</time>
      </trkpt>
      <trkpt lat="45.87884" lon="4.81874">
        <ele>180.1940612793</ele>
        <time>2020-08-25T14:03:26Z</time>
      </trkpt>
      <trkpt lat="45.87821" lon="4.81806">
        <ele>188.02522277832</ele>
        <time>2020-08-25T14:04:08Z</time>
      </trkpt>
      <trkpt lat="45.878" lon="4.81737">
        <ele>196.96594238281</ele>
        <time>2020-08-25T14:04:50Z</time>
      </trkpt>
      <trkpt lat="45.87779" lon="4.81624">
        <ele>209.44505310059</ele>
        <time>2020-08-25T14:05:31Z</time>
      </trkpt>
      <trkpt lat="45.87753" lon="4.81539">
        <ele>216.0404510498</ele>
        <time>2020-08-25T14:06:13Z</time>
      </trkpt>
      <trkpt lat="45.87733" lon="4.81488">
        <ele>220.20397949219</ele>
        <time>2020-08-25T14:06:55Z</time>
      </trkpt>
      <trkpt lat="45.87723" lon="4.81475">
        <ele>221.14326477051</ele>
        <time>2020-08-25T14:07:37Z</time>
      </trkpt>
      <trkpt lat="45.87715" lon="4.81474">
        <ele>221.59616088867</ele>
        <time>2020-08-25T14:08:18Z</time>
      </trkpt>
      <trkpt lat="45.87708" lon="4.8148">
        <ele>221.35198974609</ele>
        <time>2020-08-25T14:09:00Z</time>
      </trkpt>
      <trkpt lat="45.87703" lon="4.81558">
        <ele>215.9832611084</ele>
        <time>2020-08-25T14:09:42Z</time>
      </trkpt>
      <trkpt lat="45.87695" lon="4.81562">
        <ele>216.6990814209</ele>
        <time>2020-08-25T14:10:24Z</time>
      </trkpt>
      <trkpt lat="45.87688" lon="4.81555">
        <ele>218.00343322754</ele>
        <time>2020-08-25T14:11:06Z</time>
      </trkpt>
      <trkpt lat="45.87669" lon="4.81393">
        <ele>229.54766845703</ele>
        <time>2020-08-25T14:11:47Z</time>
      </trkpt>
      <trkpt lat="45.87618" lon="4.81304">
        <ele>240.1282043457</ele>
        <time>2020-08-25T14:12:29Z</time>
      </trkpt>
      <trkpt lat="45.87623" lon="4.81293">
        <ele>240.75212097168</ele>
        <time>2020-08-25T14:13:11Z</time>
      </trkpt>
      <trkpt lat="45.87662" lon="4.81282">
        <ele>239.48310852051</ele>
        <time>2020-08-25T14:13:53Z</time>
      </trkpt>
      <trkpt lat="45.87687" lon="4.81246">
        <ele>241.14883422852</ele>
        <time>2020-08-25T14:14:35Z</time>
      </trkpt>
      <trkpt lat="45.87743" lon="4.81094">
        <ele>245.54974365234</ele>
        <time>2020-08-25T14:15:17Z</time>
      </trkpt>
      <trkpt lat="45.87753" lon="4.81044">
        <ele>246.90600585938</ele>
        <time>2020-08-25T14:15:58Z</time>
      </trkpt>
      <trkpt lat="45.87755" lon="4.80971">
        <ele>248.86885070801</ele>
        <time>2020-08-25T14:16:40Z</time>
      </trkpt>
      <trkpt lat="45.87762" lon="4.8093">
        <ele>252.12409973145</ele>
        <time>2020-08-25T14:17:22Z</time>
      </trkpt>
      <trkpt lat="45.87786" lon="4.80877">
        <ele>254.44947814941</ele>
        <time>2020-08-25T14:18:04Z</time>
      </trkpt>
      <trkpt lat="45.87854" lon="4.80769">
        <ele>256.90350341797</ele>
        <time>2020-08-25T14:18:46Z</time>
      </trkpt>
      <trkpt lat="45.87863" lon="4.80746">
        <ele>256.7639465332</ele>
        <time>2020-08-25T14:19:28Z</time>
      </trkpt>
      <trkpt lat="45.87868" lon="4.80709">
        <ele>256.08541870117</ele>
        <time>2020-08-25T14:20:10Z</time>
      </trkpt>
      <trkpt lat="45.87866" lon="4.8058">
        <ele>250.2742767334</ele>
        <time>2020-08-25T14:20:52Z</time>
      </trkpt>
      <trkpt lat="45.87899" lon="4.80127">
        <ele>261.01840209961</ele>
        <time>2020-08-25T14:21:34Z</time>
      </trkpt>
      <trkpt lat="45.87911" lon="4.80099">
        <ele>259.70501708984</ele>
        <time>2020-08-25T14:22:16Z</time>
      </trkpt>
      <trkpt lat="45.87958" lon="4.80064">
        <ele>253.7059173584</ele>
        <time>2020-08-25T14:22:58Z</time>
      </trkpt>
      <trkpt lat="45.87993" lon="4.80012">
        <ele>250.29193115234</ele>
        <time>2020-08-25T14:23:40Z</time>
      </trkpt>
      <trkpt lat="45.88019" lon="4.79916">
        <ele>246.77891540527</ele>
        <time>2020-08-25T14:24:22Z</time>
      </trkpt>
      <trkpt lat="45.88034" lon="4.79834">
        <ele>240.54272460938</ele>
        <time>2020-08-25T14:25:04Z</time>
      </trkpt>
      <trkpt lat="45.88023" lon="4.79762">
        <ele>234.9559173584</ele>
        <time>2020-08-25T14:25:46Z</time>
      </trkpt>
      <trkpt lat="45.87946" lon="4.79583">
        <ele>236.55569458008</ele>
        <time>2020-08-25T14:26:28Z</time>
      </trkpt>
      <trkpt lat="45.87909" lon="4.79458">
        <ele>235.78903198242</ele>
        <time>2020-08-25T14:27:10Z</time>
      </trkpt>
      <trkpt lat="45.87898" lon="4.79403">
        <ele>233.95932006836</ele>
        <time>2020-08-25T14:27:52Z</time>
      </trkpt>
      <trkpt lat="45.87837" lon="4.78968">
        <ele>224.39498901367</ele>
        <time>2020-08-25T14:28:34Z</time>
      </trkpt>
      <trkpt lat="45.87851" lon="4.78789">
        <ele>224.23486328125</ele>
        <time>2020-08-25T14:29:16Z</time>
      </trkpt>
      <trkpt lat="45.8785" lon="4.78714">
        <ele>224.35180664062</ele>
        <time>2020-08-25T14:29:58Z</time>
      </trkpt>
      <trkpt lat="45.87841" lon="4.78633">
        <ele>225.39154052734</ele>
        <time>2020-08-25T14:30:41Z</time>
      </trkpt>
      <trkpt lat="45.8781" lon="4.78484">
        <ele>223.70962524414</ele>
        <time>2020-08-25T14:31:23Z</time>
      </trkpt>
      <trkpt lat="45.87811" lon="4.78449">
        <ele>222.49513244629</ele>
        <time>2020-08-25T14:32:05Z</time>
      </trkpt>
      <trkpt lat="45.87727" lon="4.78254">
        <ele>225.22761535645</ele>
        <time>2020-08-25T14:32:47Z</time>
      </trkpt>
      <trkpt lat="45.87688" lon="4.78133">
        <ele>227.67700195312</ele>
        <time>2020-08-25T14:33:30Z</time>
      </trkpt>
      <trkpt lat="45.87655" lon="4.77768">
        <ele>227.62211608887</ele>
        <time>2020-08-25T14:34:12Z</time>
      </trkpt>
      <trkpt lat="45.87643" lon="4.77708">
        <ele>227.91516113281</ele>
        <time>2020-08-25T14:34:54Z</time>
      </trkpt>
      <trkpt lat="45.87587" lon="4.77543">
        <ele>230.87753295898</ele>
        <time>2020-08-25T14:35:36Z</time>
      </trkpt>
      <trkpt lat="45.87486" lon="4.77388">
        <ele>233.31462097168</ele>
        <time>2020-08-25T14:36:19Z</time>
      </trkpt>
      <trkpt lat="45.87466" lon="4.77296">
        <ele>234.07609558105</ele>
        <time>2020-08-25T14:37:01Z</time>
      </trkpt>
      <trkpt lat="45.87452" lon="4.77255">
        <ele>234.48661804199</ele>
        <time>2020-08-25T14:37:44Z</time>
      </trkpt>
      <trkpt lat="45.87422" lon="4.77227">
        <ele>235.59092712402</ele>
        <time>2020-08-25T14:38:26Z</time>
      </trkpt>
      <trkpt lat="45.87389" lon="4.77213">
        <ele>236.91760253906</ele>
        <time>2020-08-25T14:39:08Z</time>
      </trkpt>
      <trkpt lat="45.87369" lon="4.77211">
        <ele>237.91773986816</ele>
        <time>2020-08-25T14:39:51Z</time>
      </trkpt>
      <trkpt lat="45.873" lon="4.77219">
        <ele>241.57588195801</ele>
        <time>2020-08-25T14:40:33Z</time>
      </trkpt>
      <trkpt lat="45.8728" lon="4.77201">
        <ele>241.7755279541</ele>
        <time>2020-08-25T14:41:15Z</time>
      </trkpt>
      <trkpt lat="45.8727" lon="4.7716">
        <ele>240.10342407227</ele>
        <time>2020-08-25T14:41:58Z</time>
      </trkpt>
      <trkpt lat="45.8726" lon="4.76609">
        <ele>234.81747436523</ele>
        <time>2020-08-25T14:42:40Z</time>
      </trkpt>
      <trkpt lat="45.87238" lon="4.76051">
        <ele>227.97689819336</ele>
        <time>2020-08-25T14:43:23Z</time>
      </trkpt>
      <trkpt lat="45.87214" lon="4.75827">
        <ele>223.15316772461</ele>
        <time>2020-08-25T14:44:05Z</time>
      </trkpt>
      <trkpt lat="45.87187" lon="4.75731">
        <ele>222.17588806152</ele>
        <time>2020-08-25T14:44:48Z</time>
      </trkpt>
      <trkpt lat="45.87177" lon="4.75675">
        <ele>222.10534667969</ele>
        <time>2020-08-25T14:45:31Z</time>
      </trkpt>
      <trkpt lat="45.87177" lon="4.75497">
        <ele>222.0938873291</ele>
        <time>2020-08-25T14:46:13Z</time>
      </trkpt>
      <trkpt lat="45.8717" lon="4.75308">
        <ele>222.63081359863</ele>
        <time>2020-08-25T14:46:56Z</time>
      </trkpt>
      <trkpt lat="45.87165" lon="4.75261">
        <ele>223.01065063477</ele>
        <time>2020-08-25T14:47:38Z</time>
      </trkpt>
      <trkpt lat="45.87136" lon="4.75115">
        <ele>224.16648864746</ele>
        <time>2020-08-25T14:48:21Z</time>
      </trkpt>
      <trkpt lat="45.87126" lon="4.75028">
        <ele>225.22416687012</ele>
        <time>2020-08-25T14:49:04Z</time>
      </trkpt>
      <trkpt lat="45.87128" lon="4.74965">
        <ele>225.86596679688</ele>
        <time>2020-08-25T14:49:46Z</time>
      </trkpt>
      <trkpt lat="45.8714" lon="4.74924">
        <ele>224.90144348145</ele>
        <time>2020-08-25T14:50:29Z</time>
      </trkpt>
      <trkpt lat="45.87132" lon="4.74874">
        <ele>223.2202911377</ele>
        <time>2020-08-25T14:51:12Z</time>
      </trkpt>
      <trkpt lat="45.87115" lon="4.74591">
        <ele>220.1752166748</ele>
        <time>2020-08-25T14:51:55Z</time>
      </trkpt>
      <trkpt lat="45.87104" lon="4.74542">
        <ele>218.05567932129</ele>
        <time>2020-08-25T14:52:37Z</time>
      </trkpt>
      <trkpt lat="45.87113" lon="4.745">
        <ele>217.49742126465</ele>
        <time>2020-08-25T14:53:20Z</time>
      </trkpt>
      <trkpt lat="45.87078" lon="4.74317">
        <ele>215.00146484375</ele>
        <time>2020-08-25T14:54:03Z</time>
      </trkpt>
      <trkpt lat="45.87073" lon="4.74227">
        <ele>211.8360748291</ele>
        <time>2020-08-25T14:54:45Z</time>
      </trkpt>
      <trkpt lat="45.87072" lon="4.73768">
        <ele>214.67736816406</ele>
        <time>2020-08-25T14:55:28Z</time>
      </trkpt>
      <trkpt lat="45.87099" lon="4.73552">
        <ele>211.59989929199</ele>
        <time>2020-08-25T14:56:11Z</time>
      </trkpt>
      <trkpt lat="45.87106" lon="4.73378">
        <ele>208.67974853516</ele>
        <time>2020-08-25T14:56:54Z</time>
      </trkpt>
      <trkpt lat="45.87118" lon="4.73288">
        <ele>205.12393188477</ele>
        <time>2020-08-25T14:57:37Z</time>
      </trkpt>
      <trkpt lat="45.87124" lon="4.73251">
        <ele>203.92065429688</ele>
        <time>2020-08-25T14:58:20Z</time>
      </trkpt>
      <trkpt lat="45.87156" lon="4.73162">
        <ele>202.42404174805</ele>
        <time>2020-08-25T14:59:03Z</time>
      </trkpt>
      <trkpt lat="45.87163" lon="4.73122">
        <ele>201.35464477539</ele>
        <time>2020-08-25T14:59:46Z</time>
      </trkpt>
      <trkpt lat="45.87171" lon="4.72753">
        <ele>198.68566894531</ele>
        <time>2020-08-25T15:00:28Z</time>
      </trkpt>
      <trkpt lat="45.87179" lon="4.72703">
        <ele>198.13708496094</ele>
        <time>2020-08-25T15:01:11Z</time>
      </trkpt>
      <trkpt lat="45.87208" lon="4.72582">
        <ele>196.61987304688</ele>
        <time>2020-08-25T15:01:54Z</time>
      </trkpt>
      <trkpt lat="45.87208" lon="4.72516">
        <ele>192.84182739258</ele>
        <time>2020-08-25T15:02:37Z</time>
      </trkpt>
      <trkpt lat="45.87195" lon="4.72467">
        <ele>190.80989074707</ele>
        <time>2020-08-25T15:03:20Z</time>
      </trkpt>
      <trkpt lat="45.87127" lon="4.7231">
        <ele>190.53759765625</ele>
        <time>2020-08-25T15:04:03Z</time>
      </trkpt>
      <trkpt lat="45.87105" lon="4.72274">
        <ele>191.62228393555</ele>
        <time>2020-08-25T15:04:46Z</time>
      </trkpt>
      <trkpt lat="45.8706" lon="4.72224">
        <ele>190.93843078613</ele>
        <time>2020-08-25T15:05:29Z</time>
      </trkpt>
      <trkpt lat="45.86929" lon="4.72132">
        <ele>192.72473144531</ele>
        <time>2020-08-25T15:06:12Z</time>
      </trkpt>
      <trkpt lat="45.86751" lon="4.72055">
        <ele>194.21728515625</ele>
        <time>2020-08-25T15:06:55Z</time>
      </trkpt>
      <trkpt lat="45.86697" lon="4.72024">
        <ele>194.84631347656</ele>
        <time>2020-08-25T15:07:39Z</time>
      </trkpt>
      <trkpt lat="45.86217" lon="4.71647">
        <ele>194.45703125</ele>
        <time>2020-08-25T15:08:22Z</time>
      </trkpt>
      <trkpt lat="45.86205" lon="4.71606">
        <ele>194.25891113281</ele>
        <time>2020-08-25T15:09:05Z</time>
      </trkpt>
      <trkpt lat="45.86198" lon="4.71598">
        <ele>194.32629394531</ele>
        <time>2020-08-25T15:09:48Z</time>
      </trkpt>
      <trkpt lat="45.86175" lon="4.71602">
        <ele>194.93531799316</ele>
        <time>2020-08-25T15:10:31Z</time>
      </trkpt>
      <trkpt lat="45.86162" lon="4.71598">
        <ele>195.18682861328</ele>
        <time>2020-08-25T15:11:14Z</time>
      </trkpt>
      <trkpt lat="45.86019" lon="4.71489">
        <ele>196.01126098633</ele>
        <time>2020-08-25T15:11:58Z</time>
      </trkpt>
      <trkpt lat="45.85886" lon="4.71353">
        <ele>198.95722961426</ele>
        <time>2020-08-25T15:12:41Z</time>
      </trkpt>
      <trkpt lat="45.85824" lon="4.7126">
        <ele>198.85664367676</ele>
        <time>2020-08-25T15:13:24Z</time>
      </trkpt>
      <trkpt lat="45.85805" lon="4.71215">
        <ele>199.76951599121</ele>
        <time>2020-08-25T15:14:07Z</time>
      </trkpt>
      <trkpt lat="45.85773" lon="4.71045">
        <ele>198.89024353027</ele>
        <time>2020-08-25T15:14:51Z</time>
      </trkpt>
      <trkpt lat="45.8573" lon="4.70558">
        <ele>195.90786743164</ele>
        <time>2020-08-25T15:15:34Z</time>
      </trkpt>
      <trkpt lat="45.85731" lon="4.70497">
        <ele>196.37745666504</ele>
        <time>2020-08-25T15:16:17Z</time>
      </trkpt>
      <trkpt lat="45.85716" lon="4.7041">
        <ele>196.92297363281</ele>
        <time>2020-08-25T15:17:01Z</time>
      </trkpt>
      <trkpt lat="45.85696" lon="4.70225">
        <ele>197.67608642578</ele>
        <time>2020-08-25T15:17:44Z</time>
      </trkpt>
      <trkpt lat="45.85678" lon="4.70131">
        <ele>196.26007080078</ele>
        <time>2020-08-25T15:18:28Z</time>
      </trkpt>
      <trkpt lat="45.85678" lon="4.7009">
        <ele>195.6397857666</ele>
        <time>2020-08-25T15:19:11Z</time>
      </trkpt>
      <trkpt lat="45.8569" lon="4.69989">
        <ele>194.57113647461</ele>
        <time>2020-08-25T15:19:54Z</time>
      </trkpt>
      <trkpt lat="45.85668" lon="4.69884">
        <ele>195</ele>
        <time>2020-08-25T15:20:38Z</time>
      </trkpt>
      <trkpt lat="45.8566" lon="4.69821">
        <ele>194.40888977051</ele>
        <time>2020-08-25T15:21:21Z</time>
      </trkpt>
      <trkpt lat="45.85494" lon="4.68022">
        <ele>205.41975402832</ele>
        <time>2020-08-25T15:22:05Z</time>
      </trkpt>
      <trkpt lat="45.85497" lon="4.68008">
        <ele>205.91464233398</ele>
        <time>2020-08-25T15:22:49Z</time>
      </trkpt>
      <trkpt lat="45.85508" lon="4.6799">
        <ele>206.06036376953</ele>
        <time>2020-08-25T15:23:32Z</time>
      </trkpt>
      <trkpt lat="45.85577" lon="4.67923">
        <ele>205.35902404785</ele>
        <time>2020-08-25T15:24:16Z</time>
      </trkpt>
      <trkpt lat="45.85574" lon="4.67865">
        <ele>208.51248168945</ele>
        <time>2020-08-25T15:25:00Z</time>
      </trkpt>
      <trkpt lat="45.85579" lon="4.67827">
        <ele>208.58045959473</ele>
        <time>2020-08-25T15:25:43Z</time>
      </trkpt>
      <trkpt lat="45.85588" lon="4.67788">
        <ele>210.00494384766</ele>
        <time>2020-08-25T15:26:27Z</time>
      </trkpt>
      <trkpt lat="45.85614" lon="4.67734">
        <ele>211.67680358887</ele>
        <time>2020-08-25T15:27:11Z</time>
      </trkpt>
      <trkpt lat="45.85651" lon="4.67689">
        <ele>209.98815917969</ele>
        <time>2020-08-25T15:27:55Z</time>
      </trkpt>
      <trkpt lat="45.85761" lon="4.67615">
        <ele>213.13681030273</ele>
        <time>2020-08-25T15:28:38Z</time>
      </trkpt>
      <trkpt lat="45.858" lon="4.67578">
        <ele>213.77676391602</ele>
        <time>2020-08-25T15:29:22Z</time>
      </trkpt>
      <trkpt lat="45.85834" lon="4.67532">
        <ele>214.19444274902</ele>
        <time>2020-08-25T15:30:06Z</time>
      </trkpt>
      <trkpt lat="45.85846" lon="4.67508">
        <ele>216.73745727539</ele>
        <time>2020-08-25T15:30:50Z</time>
      </trkpt>
      <trkpt lat="45.85866" lon="4.67435">
        <ele>216.32147216797</ele>
        <time>2020-08-25T15:31:33Z</time>
      </trkpt>
      <trkpt lat="45.85899" lon="4.67087">
        <ele>206.29612731934</ele>
        <time>2020-08-25T15:32:17Z</time>
      </trkpt>
      <trkpt lat="45.8591" lon="4.67021">
        <ele>207.95587158203</ele>
        <time>2020-08-25T15:33:01Z</time>
      </trkpt>
      <trkpt lat="45.85925" lon="4.66982">
        <ele>209.59382629395</ele>
        <time>2020-08-25T15:33:45Z</time>
      </trkpt>
      <trkpt lat="45.85925" lon="4.6697">
        <ele>209.59866333008</ele>
        <time>2020-08-25T15:34:29Z</time>
      </trkpt>
      <trkpt lat="45.85916" lon="4.66959">
        <ele>208.94458007812</ele>
        <time>2020-08-25T15:35:12Z</time>
      </trkpt>
      <trkpt lat="45.85819" lon="4.66933">
        <ele>211.18719482422</ele>
        <time>2020-08-25T15:35:56Z</time>
      </trkpt>
      <trkpt lat="45.85747" lon="4.66931">
        <ele>214.68515014648</ele>
        <time>2020-08-25T15:36:40Z</time>
      </trkpt>
      <trkpt lat="45.85679" lon="4.66905">
        <ele>214.31893920898</ele>
        <time>2020-08-25T15:37:24Z</time>
      </trkpt>
      <trkpt lat="45.8565" lon="4.66889">
        <ele>213.35440063477</ele>
        <time>2020-08-25T15:38:08Z</time>
      </trkpt>
      <trkpt lat="45.85639" lon="4.66872">
        <ele>213.74736022949</ele>
        <time>2020-08-25T15:38:52Z</time>
      </trkpt>
      <trkpt lat="45.85633" lon="4.6685">
        <ele>213.91941833496</ele>
        <time>2020-08-25T15:39:36Z</time>
      </trkpt>
      <trkpt lat="45.8562" lon="4.66668">
        <ele>216.39688110352</ele>
        <time>2020-08-25T15:40:19Z</time>
      </trkpt>
      <trkpt lat="45.85643" lon="4.66408">
        <ele>219.08253479004</ele>
        <time>2020-08-25T15:41:03Z</time>
      </trkpt>
      <trkpt lat="45.85692" lon="4.66251">
        <ele>224.66271972656</ele>
        <time>2020-08-25T15:41:47Z</time>
      </trkpt>
      <trkpt lat="45.85736" lon="4.66024">
        <ele>220.65953063965</ele>
        <time>2020-08-25T15:42:31Z</time>
      </trkpt>
      <trkpt lat="45.85747" lon="4.65995">
        <ele>222.32661437988</ele>
        <time>2020-08-25T15:43:15Z</time>
      </trkpt>
      <trkpt lat="45.85761" lon="4.65972">
        <ele>222.25712585449</ele>
        <time>2020-08-25T15:43:59Z</time>
      </trkpt>
      <trkpt lat="45.85829" lon="4.65906">
        <ele>220.28991699219</ele>
        <time>2020-08-25T15:44:43Z</time>
      </trkpt>
      <trkpt lat="45.85855" lon="4.65871">
        <ele>213.35626220703</ele>
        <time>2020-08-25T15:45:27Z</time>
      </trkpt>
      <trkpt lat="45.85875" lon="4.6582">
        <ele>210.24505615234</ele>
        <time>2020-08-25T15:46:11Z</time>
      </trkpt>
      <trkpt lat="45.85879" lon="4.65753">
        <ele>207.32347106934</ele>
        <time>2020-08-25T15:46:55Z</time>
      </trkpt>
      <trkpt lat="45.85862" lon="4.65679">
        <ele>210.46990966797</ele>
        <time>2020-08-25T15:47:39Z</time>
      </trkpt>
      <trkpt lat="45.85774" lon="4.65508">
        <ele>216.28341674805</ele>
        <time>2020-08-25T15:48:23Z</time>
      </trkpt>
      <trkpt lat="45.85732" lon="4.65384">
        <ele>220.00730895996</ele>
        <time>2020-08-25T15:49:07Z</time>
      </trkpt>
      <trkpt lat="45.85711" lon="4.65339">
        <ele>221.7131652832</ele>
        <time>2020-08-25T15:49:52Z</time>
      </trkpt>
      <trkpt lat="45.85679" lon="4.65298">
        <ele>222.01034545898</ele>
        <time>2020-08-25T15:50:36Z</time>
      </trkpt>
      <trkpt lat="45.85653" lon="4.65273">
        <ele>221.04725646973</ele>
        <time>2020-08-25T15:51:20Z</time>
      </trkpt>
      <trkpt lat="45.85551" lon="4.65217">
        <ele>217.35330200195</ele>
        <time>2020-08-25T15:52:04Z</time>
      </trkpt>
      <trkpt lat="45.85523" lon="4.65196">
        <ele>217.73052978516</ele>
        <time>2020-08-25T15:52:48Z</time>
      </trkpt>
      <trkpt lat="45.85316" lon="4.64996">
        <ele>222.10626220703</ele>
        <time>2020-08-25T15:53:32Z</time>
      </trkpt>
      <trkpt lat="45.85292" lon="4.64967">
        <ele>221.56176757812</ele>
        <time>2020-08-25T15:54:16Z</time>
      </trkpt>
      <trkpt lat="45.85229" lon="4.64879">
        <ele>222.77436828613</ele>
        <time>2020-08-25T15:55:01Z</time>
      </trkpt>
      <trkpt lat="45.85176" lon="4.64778">
        <ele>228.08088684082</ele>
        <time>2020-08-25T15:55:45Z</time>
      </trkpt>
      <trkpt lat="45.8515" lon="4.64704">
        <ele>229.61639404297</ele>
        <time>2020-08-25T15:56:29Z</time>
      </trkpt>
      <trkpt lat="45.85128" lon="4.6459">
        <ele>229.61694335938</ele>
        <time>2020-08-25T15:57:13Z</time>
      </trkpt>
      <trkpt lat="45.85131" lon="4.64557">
        <ele>230.68214416504</ele>
        <time>2020-08-25T15:57:57Z</time>
      </trkpt>
      <trkpt lat="45.85158" lon="4.64504">
        <ele>236.1435546875</ele>
        <time>2020-08-25T15:58:42Z</time>
      </trkpt>
      <trkpt lat="45.8516" lon="4.64458">
        <ele>236.5798034668</ele>
        <time>2020-08-25T15:59:26Z</time>
      </trkpt>
      <trkpt lat="45.85173" lon="4.64407">
        <ele>237.50701904297</ele>
        <time>2020-08-25T16:00:10Z</time>
      </trkpt>
      <trkpt lat="45.85188" lon="4.64375">
        <ele>235.26037597656</ele>
        <time>2020-08-25T16:00:54Z</time>
      </trkpt>
      <trkpt lat="45.85231" lon="4.64324">
        <ele>237.7492980957</ele>
        <time>2020-08-25T16:01:39Z</time>
      </trkpt>
      <trkpt lat="45.85247" lon="4.64288">
        <ele>239.06712341309</ele>
        <time>2020-08-25T16:02:23Z</time>
      </trkpt>
      <trkpt lat="45.85252" lon="4.64247">
        <ele>242.26431274414</ele>
        <time>2020-08-25T16:03:07Z</time>
      </trkpt>
      <trkpt lat="45.85242" lon="4.64168">
        <ele>246.28070068359</ele>
        <time>2020-08-25T16:03:51Z</time>
      </trkpt>
      <trkpt lat="45.85243" lon="4.64125">
        <ele>247.13665771484</ele>
        <time>2020-08-25T16:04:36Z</time>
      </trkpt>
      <trkpt lat="45.85253" lon="4.6403">
        <ele>249.70677185059</ele>
        <time>2020-08-25T16:05:20Z</time>
      </trkpt>
      <trkpt lat="45.85265" lon="4.63971">
        <ele>251.04005432129</ele>
        <time>2020-08-25T16:06:04Z</time>
      </trkpt>
      <trkpt lat="45.85296" lon="4.63913">
        <ele>254.12202453613</ele>
        <time>2020-08-25T16:06:49Z</time>
      </trkpt>
      <trkpt lat="45.85418" lon="4.63742">
        <ele>256.92672729492</ele>
        <time>2020-08-25T16:07:33Z</time>
      </trkpt>
      <trkpt lat="45.85434" lon="4.63691">
        <ele>258.95431518555</ele>
        <time>2020-08-25T16:08:17Z</time>
      </trkpt>
      <trkpt lat="45.85438" lon="4.63659">
        <ele>260.46105957031</ele>
        <time>2020-08-25T16:09:02Z</time>
      </trkpt>
      <trkpt lat="45.85437" lon="4.6349">
        <ele>265.80847167969</ele>
        <time>2020-08-25T16:09:46Z</time>
      </trkpt>
      <trkpt lat="45.85445" lon="4.63452">
        <ele>266.08267211914</ele>
        <time>2020-08-25T16:10:30Z</time>
      </trkpt>
      <trkpt lat="45.85466" lon="4.63412">
        <ele>269.65927124023</ele>
        <time>2020-08-25T16:11:15Z</time>
      </trkpt>
      <trkpt lat="45.85522" lon="4.63357">
        <ele>269.70208740234</ele>
        <time>2020-08-25T16:11:59Z</time>
      </trkpt>
      <trkpt lat="45.85537" lon="4.63336">
        <ele>269.51138305664</ele>
        <time>2020-08-25T16:12:44Z</time>
      </trkpt>
      <trkpt lat="45.85548" lon="4.63306">
        <ele>271.01013183594</ele>
        <time>2020-08-25T16:13:28Z</time>
      </trkpt>
      <trkpt lat="45.85564" lon="4.63226">
        <ele>281.55709838867</ele>
        <time>2020-08-25T16:14:12Z</time>
      </trkpt>
      <trkpt lat="45.85608" lon="4.6315">
        <ele>285.99105834961</ele>
        <time>2020-08-25T16:14:57Z</time>
      </trkpt>
      <trkpt lat="45.85624" lon="4.63114">
        <ele>291.69216918945</ele>
        <time>2020-08-25T16:15:41Z</time>
      </trkpt>
      <trkpt lat="45.85636" lon="4.63042">
        <ele>291.95846557617</ele>
        <time>2020-08-25T16:16:26Z</time>
      </trkpt>
      <trkpt lat="45.85609" lon="4.62939">
        <ele>287.67074584961</ele>
        <time>2020-08-25T16:17:10Z</time>
      </trkpt>
      <trkpt lat="45.85615" lon="4.62843">
        <ele>288.97268676758</ele>
        <time>2020-08-25T16:17:55Z</time>
      </trkpt>
      <trkpt lat="45.85643" lon="4.6268">
        <ele>294.22161865234</ele>
        <time>2020-08-25T16:18:39Z</time>
      </trkpt>
      <trkpt lat="45.85701" lon="4.62481">
        <ele>295.13430786133</ele>
        <time>2020-08-25T16:19:24Z</time>
      </trkpt>
      <trkpt lat="45.8576" lon="4.62361">
        <ele>296.6379699707</ele>
        <time>2020-08-25T16:20:08Z</time>
      </trkpt>
      <trkpt lat="45.8579" lon="4.62318">
        <ele>298.02648925781</ele>
        <time>2020-08-25T16:20:53Z</time>
      </trkpt>
      <trkpt lat="45.85842" lon="4.62257">
        <ele>298.66278076172</ele>
        <time>2020-08-25T16:21:37Z</time>
      </trkpt>
      <trkpt lat="45.85886" lon="4.62182">
        <ele>301.16290283203</ele>
        <time>2020-08-25T16:22:22Z</time>
      </trkpt>
      <trkpt lat="45.8596" lon="4.61995">
        <ele>308.6891784668</ele>
        <time>2020-08-25T16:23:06Z</time>
      </trkpt>
      <trkpt lat="45.85977" lon="4.619">
        <ele>310.56494140625</ele>
        <time>2020-08-25T16:23:51Z</time>
      </trkpt>
      <trkpt lat="45.8599" lon="4.61866">
        <ele>311.51425170898</ele>
        <time>2020-08-25T16:24:36Z</time>
      </trkpt>
      <trkpt lat="45.86034" lon="4.61797">
        <ele>315.08609008789</ele>
        <time>2020-08-25T16:25:20Z</time>
      </trkpt>
      <trkpt lat="45.86077" lon="4.61761">
        <ele>318.29196166992</ele>
        <time>2020-08-25T16:26:05Z</time>
      </trkpt>
      <trkpt lat="45.86092" lon="4.61743">
        <ele>319.85870361328</ele>
        <time>2020-08-25T16:26:49Z</time>
      </trkpt>
      <trkpt lat="45.86129" lon="4.61639">
        <ele>318.87915039062</ele>
        <time>2020-08-25T16:27:34Z</time>
      </trkpt>
      <trkpt lat="45.86158" lon="4.6159">
        <ele>320.66748046875</ele>
        <time>2020-08-25T16:28:19Z</time>
      </trkpt>
      <trkpt lat="45.86175" lon="4.61573">
        <ele>321.90536499023</ele>
        <time>2020-08-25T16:29:03Z</time>
      </trkpt>
      <trkpt lat="45.86207" lon="4.61553">
        <ele>323.18511962891</ele>
        <time>2020-08-25T16:29:48Z</time>
      </trkpt>
      <trkpt lat="45.8623" lon="4.61511">
        <ele>324.85321044922</ele>
        <time>2020-08-25T16:30:33Z</time>
      </trkpt>
      <trkpt lat="45.86264" lon="4.61416">
        <ele>327.55551147461</ele>
        <time>2020-08-25T16:31:17Z</time>
      </trkpt>
      <trkpt lat="45.863" lon="4.6123">
        <ele>333.69000244141</ele>
        <time>2020-08-25T16:32:02Z</time>
      </trkpt>
      <trkpt lat="45.86388" lon="4.60977">
        <ele>339.29495239258</ele>
        <time>2020-08-25T16:32:47Z</time>
      </trkpt>
      <trkpt lat="45.86394" lon="4.60932">
        <ele>341.58068847656</ele>
        <time>2020-08-25T16:33:32Z</time>
      </trkpt>
      <trkpt lat="45.86384" lon="4.60889">
        <ele>343.55953979492</ele>
        <time>2020-08-25T16:34:16Z</time>
      </trkpt>
      <trkpt lat="45.86356" lon="4.60854">
        <ele>345.02267456055</ele>
        <time>2020-08-25T16:35:01Z</time>
      </trkpt>
      <trkpt lat="45.86283" lon="4.60816">
        <ele>344.3893737793</ele>
        <time>2020-08-25T16:35:46Z</time>
      </trkpt>
      <trkpt lat="45.86259" lon="4.60793">
        <ele>344.40838623047</ele>
        <time>2020-08-25T16:36:31Z</time>
      </trkpt>
      <trkpt lat="45.86242" lon="4.60755">
        <ele>343.58804321289</ele>
        <time>2020-08-25T16:37:15Z</time>
      </trkpt>
      <trkpt lat="45.8623" lon="4.60683">
        <ele>342.7331237793</ele>
        <time>2020-08-25T16:38:00Z</time>
      </trkpt>
      <trkpt lat="45.86235" lon="4.60526">
        <ele>342.45071411133</ele>
        <time>2020-08-25T16:38:45Z</time>
      </trkpt>
      <trkpt lat="45.86273" lon="4.60355">
        <ele>346.07348632812</ele>
        <time>2020-08-25T16:39:30Z</time>
      </trkpt>
      <trkpt lat="45.86289" lon="4.60232">
        <ele>346.7548828125</ele>
        <time>2020-08-25T16:40:15Z</time>
      </trkpt>
      <trkpt lat="45.86325" lon="4.60114">
        <ele>343.7922668457</ele>
        <time>2020-08-25T16:41:00Z</time>
      </trkpt>
      <trkpt lat="45.86356" lon="4.60038">
        <ele>345.81875610352</ele>
        <time>2020-08-25T16:41:44Z</time>
      </trkpt>
      <trkpt lat="45.86386" lon="4.5999">
        <ele>347.56188964844</ele>
        <time>2020-08-25T16:42:29Z</time>
      </trkpt>
      <trkpt lat="45.86428" lon="4.59946">
        <ele>349.7815246582</ele>
        <time>2020-08-25T16:43:14Z</time>
      </trkpt>
      <trkpt lat="45.86616" lon="4.59795">
        <ele>352.67340087891</ele>
        <time>2020-08-25T16:43:59Z</time>
      </trkpt>
      <trkpt lat="45.86653" lon="4.59757">
        <ele>354.33294677734</ele>
        <time>2020-08-25T16:44:44Z</time>
      </trkpt>
      <trkpt lat="45.86674" lon="4.59727">
        <ele>354.59036254883</ele>
        <time>2020-08-25T16:45:29Z</time>
      </trkpt>
      <trkpt lat="45.86711" lon="4.59646">
        <ele>355.47286987305</ele>
        <time>2020-08-25T16:46:14Z</time>
      </trkpt>
      <trkpt lat="45.86811" lon="4.59324">
        <ele>357.74609375</ele>
        <time>2020-08-25T16:46:59Z</time>
      </trkpt>
      <trkpt lat="45.86844" lon="4.59273">
        <ele>359.2802734375</ele>
        <time>2020-08-25T16:47:44Z</time>
      </trkpt>
      <trkpt lat="45.86991" lon="4.59099">
        <ele>369.08068847656</ele>
        <time>2020-08-25T16:48:29Z</time>
      </trkpt>
      <trkpt lat="45.8704" lon="4.59022">
        <ele>370.8821105957</ele>
        <time>2020-08-25T16:49:14Z</time>
      </trkpt>
      <trkpt lat="45.87079" lon="4.5895">
        <ele>375.56970214844</ele>
        <time>2020-08-25T16:49:59Z</time>
      </trkpt>
      <trkpt lat="45.8722" lon="4.58637">
        <ele>377.85961914062</ele>
        <time>2020-08-25T16:50:44Z</time>
      </trkpt>
      <trkpt lat="45.87243" lon="4.58596">
        <ele>380.57534790039</ele>
        <time>2020-08-25T16:51:29Z</time>
      </trkpt>
      <trkpt lat="45.87273" lon="4.58562">
        <ele>384.45904541016</ele>
        <time>2020-08-25T16:52:14Z</time>
      </trkpt>
      <trkpt lat="45.87321" lon="4.58532">
        <ele>391.18594360352</ele>
        <time>2020-08-25T16:52:59Z</time>
      </trkpt>
      <trkpt lat="45.87345" lon="4.58523">
        <ele>394.29342651367</ele>
        <time>2020-08-25T16:53:45Z</time>
      </trkpt>
      <trkpt lat="45.87414" lon="4.58512">
        <ele>395.53912353516</ele>
        <time>2020-08-25T16:54:30Z</time>
      </trkpt>
      <trkpt lat="45.87445" lon="4.585">
        <ele>395.29132080078</ele>
        <time>2020-08-25T16:55:15Z</time>
      </trkpt>
      <trkpt lat="45.87496" lon="4.58471">
        <ele>398.30230712891</ele>
        <time>2020-08-25T16:56:00Z</time>
      </trkpt>
      <trkpt lat="45.87556" lon="4.58457">
        <ele>397.67626953125</ele>
        <time>2020-08-25T16:56:45Z</time>
      </trkpt>
      <trkpt lat="45.87577" lon="4.58437">
        <ele>396.56866455078</ele>
        <time>2020-08-25T16:57:30Z</time>
      </trkpt>
      <trkpt lat="45.87586" lon="4.58405">
        <ele>395.68869018555</ele>
        <time>2020-08-25T16:58:15Z</time>
      </trkpt>
      <trkpt lat="45.87583" lon="4.58378">
        <ele>395.53161621094</ele>
        <time>2020-08-25T16:59:01Z</time>
      </trkpt>
      <trkpt lat="45.87571" lon="4.58342">
        <ele>396.14492797852</ele>
        <time>2020-08-25T16:59:46Z</time>
      </trkpt>
      <trkpt lat="45.87545" lon="4.58301">
        <ele>398.19879150391</ele>
        <time>2020-08-25T17:00:31Z</time>
      </trkpt>
      <trkpt lat="45.87536" lon="4.58268">
        <ele>398.59674072266</ele>
        <time>2020-08-25T17:01:16Z</time>
      </trkpt>
      <trkpt lat="45.87536" lon="4.58106">
        <ele>394.23049926758</ele>
        <time>2020-08-25T17:02:01Z</time>
      </trkpt>
      <trkpt lat="45.87531" lon="4.57968">
        <ele>396.69094848633</ele>
        <time>2020-08-25T17:02:47Z</time>
      </trkpt>
      <trkpt lat="45.87537" lon="4.57923">
        <ele>398.58212280273</ele>
        <time>2020-08-25T17:03:32Z</time>
      </trkpt>
      <trkpt lat="45.87587" lon="4.57801">
        <ele>397.65539550781</ele>
        <time>2020-08-25T17:04:17Z</time>
      </trkpt>
      <trkpt lat="45.876" lon="4.57661">
        <ele>395.33197021484</ele>
        <time>2020-08-25T17:05:02Z</time>
      </trkpt>
      <trkpt lat="45.876" lon="4.57579">
        <ele>393.4079284668</ele>
        <time>2020-08-25T17:05:48Z</time>
      </trkpt>
      <trkpt lat="45.87574" lon="4.57222">
        <ele>408.90878295898</ele>
        <time>2020-08-25T17:06:33Z</time>
      </trkpt>
      <trkpt lat="45.87559" lon="4.57147">
        <ele>414.93447875977</ele>
        <time>2020-08-25T17:07:18Z</time>
      </trkpt>
      <trkpt lat="45.87506" lon="4.57049">
        <ele>411.68322753906</ele>
        <time>2020-08-25T17:08:04Z</time>
      </trkpt>
      <trkpt lat="45.87504" lon="4.56997">
        <ele>411.42855834961</ele>
        <time>2020-08-25T17:08:49Z</time>
      </trkpt>
      <trkpt lat="45.87667" lon="4.56596">
        <ele>399.87686157227</ele>
        <time>2020-08-25T17:09:34Z</time>
      </trkpt>
      <trkpt lat="45.87684" lon="4.56539">
        <ele>398.59280395508</ele>
        <time>2020-08-25T17:10:20Z</time>
      </trkpt>
      <trkpt lat="45.87691" lon="4.5648">
        <ele>394.4587097168</ele>
        <time>2020-08-25T17:11:05Z</time>
      </trkpt>
      <trkpt lat="45.87704" lon="4.5645">
        <ele>391.88430786133</ele>
        <time>2020-08-25T17:11:51Z</time>
      </trkpt>
      <trkpt lat="45.87734" lon="4.56426">
        <ele>389.47219848633</ele>
        <time>2020-08-25T17:12:36Z</time>
      </trkpt>
      <trkpt lat="45.87816" lon="4.5638">
        <ele>387.0276184082</ele>
        <time>2020-08-25T17:13:22Z</time>
      </trkpt>
      <trkpt lat="45.87971" lon="4.56337">
        <ele>380.42919921875</ele>
        <time>2020-08-25T17:14:07Z</time>
      </trkpt>
      <trkpt lat="45.88004" lon="4.56322">
        <ele>379.05163574219</ele>
        <time>2020-08-25T17:14:53Z</time>
      </trkpt>
      <trkpt lat="45.88034" lon="4.56297">
        <ele>377.94320678711</ele>
        <time>2020-08-25T17:15:38Z</time>
      </trkpt>
      <trkpt lat="45.8812" lon="4.56207">
        <ele>373.19723510742</ele>
        <time>2020-08-25T17:16:24Z</time>
      </trkpt>
      <trkpt lat="45.88134" lon="4.56189">
        <ele>371.92984008789</ele>
        <time>2020-08-25T17:17:09Z</time>
      </trkpt>
      <trkpt lat="45.88144" lon="4.56167">
        <ele>369.00289916992</ele>
        <time>2020-08-25T17:17:55Z</time>
      </trkpt>
      <trkpt lat="45.88144" lon="4.56126">
        <ele>364.60202026367</ele>
        <time>2020-08-25T17:18:40Z</time>
      </trkpt>
      <trkpt lat="45.88112" lon="4.56063">
        <ele>360.42611694336</ele>
        <time>2020-08-25T17:19:26Z</time>
      </trkpt>
      <trkpt lat="45.88094" lon="4.56043">
        <ele>359.59967041016</ele>
        <time>2020-08-25T17:20:11Z</time>
      </trkpt>
      <trkpt lat="45.88051" lon="4.56016">
        <ele>359.83868408203</ele>
        <time>2020-08-25T17:20:57Z</time>
      </trkpt>
      <trkpt lat="45.87992" lon="4.55997">
        <ele>362.18316650391</ele>
        <time>2020-08-25T17:21:42Z</time>
      </trkpt>
      <trkpt lat="45.87969" lon="4.55983">
        <ele>362.46453857422</ele>
        <time>2020-08-25T17:22:28Z</time>
      </trkpt>
      <trkpt lat="45.87927" lon="4.55926">
        <ele>360.7590637207</ele>
        <time>2020-08-25T17:23:13Z</time>
      </trkpt>
      <trkpt lat="45.87902" lon="4.55855">
        <ele>358.23736572266</ele>
        <time>2020-08-25T17:23:59Z</time>
      </trkpt>
      <trkpt lat="45.87895" lon="4.55775">
        <ele>356.47250366211</ele>
        <time>2020-08-25T17:24:44Z</time>
      </trkpt>
      <trkpt lat="45.87896" lon="4.55625">
        <ele>354.60546875</ele>
        <time>2020-08-25T17:25:30Z</time>
      </trkpt>
      <trkpt lat="45.8787" lon="4.5525">
        <ele>358.7746887207</ele>
        <time>2020-08-25T17:26:16Z</time>
      </trkpt>
      <trkpt lat="45.8787" lon="4.54854">
        <ele>347.53793334961</ele>
        <time>2020-08-25T17:27:01Z</time>
      </trkpt>
      <trkpt lat="45.87858" lon="4.54657">
        <ele>347.70599365234</ele>
        <time>2020-08-25T17:27:47Z</time>
      </trkpt>
      <trkpt lat="45.87866" lon="4.54631">
        <ele>347.59790039062</ele>
        <time>2020-08-25T17:28:33Z</time>
      </trkpt>
      <trkpt lat="45.87917" lon="4.54593">
        <ele>348.70611572266</ele>
        <time>2020-08-25T17:29:19Z</time>
      </trkpt>
      <trkpt lat="45.87943" lon="4.5454">
        <ele>348.970703125</ele>
        <time>2020-08-25T17:30:04Z</time>
      </trkpt>
      <trkpt lat="45.87955" lon="4.54485">
        <ele>348.177734375</ele>
        <time>2020-08-25T17:30:50Z</time>
      </trkpt>
      <trkpt lat="45.87968" lon="4.54377">
        <ele>346.98745727539</ele>
        <time>2020-08-25T17:31:36Z</time>
      </trkpt>
      <trkpt lat="45.87978" lon="4.54343">
        <ele>346.57809448242</ele>
        <time>2020-08-25T17:32:22Z</time>
      </trkpt>
      <trkpt lat="45.88117" lon="4.54123">
        <ele>350.12716674805</ele>
        <time>2020-08-25T17:33:07Z</time>
      </trkpt>
      <trkpt lat="45.88139" lon="4.54104">
        <ele>351.15896606445</ele>
        <time>2020-08-25T17:33:53Z</time>
      </trkpt>
      <trkpt lat="45.88237" lon="4.54063">
        <ele>352.38558959961</ele>
        <time>2020-08-25T17:34:39Z</time>
      </trkpt>
      <trkpt lat="45.88324" lon="4.54012">
        <ele>354.04376220703</ele>
        <time>2020-08-25T17:35:25Z</time>
      </trkpt>
      <trkpt lat="45.88355" lon="4.54">
        <ele>355.12908935547</ele>
        <time>2020-08-25T17:36:11Z</time>
      </trkpt>
      <trkpt lat="45.88379" lon="4.53999">
        <ele>356.2326965332</ele>
        <time>2020-08-25T17:36:57Z</time>
      </trkpt>
      <trkpt lat="45.88385" lon="4.53992">
        <ele>356.24588012695</ele>
        <time>2020-08-25T17:37:42Z</time>
      </trkpt>
      <trkpt lat="45.88328" lon="4.53813">
        <ele>349.05355834961</ele>
        <time>2020-08-25T17:38:28Z</time>
      </trkpt>
      <trkpt lat="45.88298" lon="4.53654">
        <ele>346</ele>
        <time>2020-08-25T17:39:14Z</time>
      </trkpt>
      <trkpt lat="45.88277" lon="4.53589">
        <ele>346</ele>
        <time>2020-08-25T17:40:00Z</time>
      </trkpt>
      <trkpt lat="45.88274" lon="4.53505">
        <ele>347.56652832031</ele>
        <time>2020-08-25T17:40:46Z</time>
      </trkpt>
      <trkpt lat="45.88263" lon="4.53406">
        <ele>348.95593261719</ele>
        <time>2020-08-25T17:41:32Z</time>
      </trkpt>
      <trkpt lat="45.88281" lon="4.53281">
        <ele>351.42834472656</ele>
        <time>2020-08-25T17:42:18Z</time>
      </trkpt>
      <trkpt lat="45.88301" lon="4.53198">
        <ele>351.90200805664</ele>
        <time>2020-08-25T17:43:04Z</time>
      </trkpt>
      <trkpt lat="45.88307" lon="4.52993">
        <ele>355.0061340332</ele>
        <time>2020-08-25T17:43:50Z</time>
      </trkpt>
      <trkpt lat="45.88343" lon="4.52696">
        <ele>357.14849853516</ele>
        <time>2020-08-25T17:44:36Z</time>
      </trkpt>
      <trkpt lat="45.88357" lon="4.52633">
        <ele>356.25582885742</ele>
        <time>2020-08-25T17:45:22Z</time>
      </trkpt>
      <trkpt lat="45.88409" lon="4.52496">
        <ele>356.02813720703</ele>
        <time>2020-08-25T17:46:08Z</time>
      </trkpt>
      <trkpt lat="45.88408" lon="4.5237">
        <ele>349.30026245117</ele>
        <time>2020-08-25T17:46:54Z</time>
      </trkpt>
      <trkpt lat="45.88415" lon="4.52297">
        <ele>347.56311035156</ele>
        <time>2020-08-25T17:47:40Z</time>
      </trkpt>
      <trkpt lat="45.88402" lon="4.52173">
        <ele>350.56286621094</ele>
        <time>2020-08-25T17:48:26Z</time>
      </trkpt>
      <trkpt lat="45.88369" lon="4.52032">
        <ele>354.00375366211</ele>
        <time>2020-08-25T17:49:12Z</time>
      </trkpt>
      <trkpt lat="45.88362" lon="4.51972">
        <ele>354.92132568359</ele>
        <time>2020-08-25T17:49:58Z</time>
      </trkpt>
      <trkpt lat="45.88357" lon="4.5182">
        <ele>356.60592651367</ele>
        <time>2020-08-25T17:50:44Z</time>
      </trkpt>
      <trkpt lat="45.88351" lon="4.51806">
        <ele>356.53109741211</ele>
        <time>2020-08-25T17:51:30Z</time>
      </trkpt>
      <trkpt lat="45.88324" lon="4.51776">
        <ele>356.59234619141</ele>
        <time>2020-08-25T17:52:17Z</time>
      </trkpt>
      <trkpt lat="45.88279" lon="4.51738">
        <ele>357.21255493164</ele>
        <time>2020-08-25T17:53:03Z</time>
      </trkpt>
      <trkpt lat="45.88274" lon="4.5172">
        <ele>357.89379882812</ele>
        <time>2020-08-25T17:53:49Z</time>
      </trkpt>
      <trkpt lat="45.88279" lon="4.51677">
        <ele>359.56323242188</ele>
        <time>2020-08-25T17:54:35Z</time>
      </trkpt>
      <trkpt lat="45.88285" lon="4.51661">
        <ele>360.17840576172</ele>
        <time>2020-08-25T17:55:21Z</time>
      </trkpt>
      <trkpt lat="45.88316" lon="4.51666">
        <ele>361.15267944336</ele>
        <time>2020-08-25T17:56:07Z</time>
      </trkpt>
      <trkpt lat="45.88407" lon="4.51655">
        <ele>364.22808837891</ele>
        <time>2020-08-25T17:56:54Z</time>
      </trkpt>
      <trkpt lat="45.88445" lon="4.51655">
        <ele>363.52307128906</ele>
        <time>2020-08-25T17:57:40Z</time>
      </trkpt>
      <trkpt lat="45.88452" lon="4.51649">
        <ele>363.69946289062</ele>
        <time>2020-08-25T17:58:26Z</time>
      </trkpt>
      <trkpt lat="45.8848" lon="4.51481">
        <ele>370.69174194336</ele>
        <time>2020-08-25T17:59:12Z</time>
      </trkpt>
      <trkpt lat="45.88497" lon="4.51425">
        <ele>372.70651245117</ele>
        <time>2020-08-25T17:59:58Z</time>
      </trkpt>
      <trkpt lat="45.88575" lon="4.51266">
        <ele>376.23016357422</ele>
        <time>2020-08-25T18:00:45Z</time>
      </trkpt>
      <trkpt lat="45.88722" lon="4.51">
        <ele>391.11441040039</ele>
        <time>2020-08-25T18:01:31Z</time>
      </trkpt>
      <trkpt lat="45.88726" lon="4.50969">
        <ele>392.57186889648</ele>
        <time>2020-08-25T18:02:17Z</time>
      </trkpt>
      <trkpt lat="45.88724" lon="4.50827">
        <ele>391.17001342773</ele>
        <time>2020-08-25T18:03:03Z</time>
      </trkpt>
      <trkpt lat="45.88733" lon="4.50788">
        <ele>391.08932495117</ele>
        <time>2020-08-25T18:03:50Z</time>
      </trkpt>
      <trkpt lat="45.88747" lon="4.50763">
        <ele>392.62799072266</ele>
        <time>2020-08-25T18:04:36Z</time>
      </trkpt>
      <trkpt lat="45.88784" lon="4.50729">
        <ele>396.96298217773</ele>
        <time>2020-08-25T18:05:22Z</time>
      </trkpt>
      <trkpt lat="45.88799" lon="4.50703">
        <ele>399.01782226562</ele>
        <time>2020-08-25T18:06:09Z</time>
      </trkpt>
      <trkpt lat="45.88849" lon="4.50559">
        <ele>404.61437988281</ele>
        <time>2020-08-25T18:06:55Z</time>
      </trkpt>
      <trkpt lat="45.89" lon="4.50267">
        <ele>417.26327514648</ele>
        <time>2020-08-25T18:07:41Z</time>
      </trkpt>
      <trkpt lat="45.89009" lon="4.50183">
        <ele>418.7541809082</ele>
        <time>2020-08-25T18:08:28Z</time>
      </trkpt>
      <trkpt lat="45.89009" lon="4.49912">
        <ele>432.09365844727</ele>
        <time>2020-08-25T18:09:14Z</time>
      </trkpt>
      <trkpt lat="45.89022" lon="4.49843">
        <ele>436.0969543457</ele>
        <time>2020-08-25T18:10:00Z</time>
      </trkpt>
      <trkpt lat="45.89024" lon="4.49776">
        <ele>437.126953125</ele>
        <time>2020-08-25T18:10:47Z</time>
      </trkpt>
      <trkpt lat="45.89041" lon="4.49626">
        <ele>441.19036865234</ele>
        <time>2020-08-25T18:11:33Z</time>
      </trkpt>
      <trkpt lat="45.89034" lon="4.49568">
        <ele>445.76123046875</ele>
        <time>2020-08-25T18:12:20Z</time>
      </trkpt>
      <trkpt lat="45.89022" lon="4.49524">
        <ele>449.33090209961</ele>
        <time>2020-08-25T18:13:06Z</time>
      </trkpt>
      <trkpt lat="45.88998" lon="4.49469">
        <ele>454.73571777344</ele>
        <time>2020-08-25T18:13:53Z</time>
      </trkpt>
      <trkpt lat="45.8897" lon="4.49444">
        <ele>457.00219726562</ele>
        <time>2020-08-25T18:14:39Z</time>
      </trkpt>
      <trkpt lat="45.88958" lon="4.49427">
        <ele>456.84915161133</ele>
        <time>2020-08-25T18:15:26Z</time>
      </trkpt>
      <trkpt lat="45.88955" lon="4.49388">
        <ele>459.34176635742</ele>
        <time>2020-08-25T18:16:12Z</time>
      </trkpt>
      <trkpt lat="45.88963" lon="4.49375">
        <ele>461.19702148438</ele>
        <time>2020-08-25T18:16:59Z</time>
      </trkpt>
      <trkpt lat="45.88991" lon="4.49402">
        <ele>459.84585571289</ele>
        <time>2020-08-25T18:17:45Z</time>
      </trkpt>
      <trkpt lat="45.89017" lon="4.49404">
        <ele>458.69549560547</ele>
        <time>2020-08-25T18:18:32Z</time>
      </trkpt>
      <trkpt lat="45.89036" lon="4.49395">
        <ele>458.6689453125</ele>
        <time>2020-08-25T18:19:18Z</time>
      </trkpt>
      <trkpt lat="45.89059" lon="4.4937">
        <ele>459.46865844727</ele>
        <time>2020-08-25T18:20:05Z</time>
      </trkpt>
      <trkpt lat="45.89083" lon="4.49328">
        <ele>460.62191772461</ele>
        <time>2020-08-25T18:20:51Z</time>
      </trkpt>
      <trkpt lat="45.89118" lon="4.49234">
        <ele>464.52938842773</ele>
        <time>2020-08-25T18:21:38Z</time>
      </trkpt>
      <trkpt lat="45.8913" lon="4.49136">
        <ele>469.32983398438</ele>
        <time>2020-08-25T18:22:24Z</time>
      </trkpt>
      <trkpt lat="45.89143" lon="4.49118">
        <ele>469.86614990234</ele>
        <time>2020-08-25T18:23:11Z</time>
      </trkpt>
      <trkpt lat="45.89162" lon="4.49103">
        <ele>470.45059204102</ele>
        <time>2020-08-25T18:23:57Z</time>
      </trkpt>
      <trkpt lat="45.89167" lon="4.49093">
        <ele>471.04635620117</ele>
        <time>2020-08-25T18:24:44Z</time>
      </trkpt>
      <trkpt lat="45.8916" lon="4.49077">
        <ele>472.38830566406</ele>
        <time>2020-08-25T18:25:30Z</time>
      </trkpt>
      <trkpt lat="45.89132" lon="4.49072">
        <ele>473.69235229492</ele>
        <time>2020-08-25T18:26:17Z</time>
      </trkpt>
      <trkpt lat="45.89051" lon="4.49023">
        <ele>481.79138183594</ele>
        <time>2020-08-25T18:27:04Z</time>
      </trkpt>
      <trkpt lat="45.88989" lon="4.49013">
        <ele>480.24642944336</ele>
        <time>2020-08-25T18:27:50Z</time>
      </trkpt>
      <trkpt lat="45.8896" lon="4.48992">
        <ele>479.51879882812</ele>
        <time>2020-08-25T18:28:37Z</time>
      </trkpt>
      <trkpt lat="45.88935" lon="4.48947">
        <ele>479.65902709961</ele>
        <time>2020-08-25T18:29:23Z</time>
      </trkpt>
      <trkpt lat="45.8892" lon="4.48845">
        <ele>483.67224121094</ele>
        <time>2020-08-25T18:30:10Z</time>
      </trkpt>
      <trkpt lat="45.88904" lon="4.48805">
        <ele>483.80508422852</ele>
        <time>2020-08-25T18:30:57Z</time>
      </trkpt>
      <trkpt lat="45.88869" lon="4.48746">
        <ele>482.78817749023</ele>
        <time>2020-08-25T18:31:43Z</time>
      </trkpt>
      <trkpt lat="45.88798" lon="4.48653">
        <ele>478.17706298828</ele>
        <time>2020-08-25T18:32:30Z</time>
      </trkpt>
      <trkpt lat="45.88757" lon="4.48589">
        <ele>475.93524169922</ele>
        <time>2020-08-25T18:33:17Z</time>
      </trkpt>
      <trkpt lat="45.88753" lon="4.48569">
        <ele>475.3583984375</ele>
        <time>2020-08-25T18:34:03Z</time>
      </trkpt>
      <trkpt lat="45.88755" lon="4.4854">
        <ele>475.8837890625</ele>
        <time>2020-08-25T18:34:50Z</time>
      </trkpt>
      <trkpt lat="45.88775" lon="4.48454">
        <ele>479.46826171875</ele>
        <time>2020-08-25T18:35:36Z</time>
      </trkpt>
      <trkpt lat="45.88739" lon="4.48283">
        <ele>480.5783996582</ele>
        <time>2020-08-25T18:36:23Z</time>
      </trkpt>
      <trkpt lat="45.88734" lon="4.48233">
        <ele>477.39227294922</ele>
        <time>2020-08-25T18:37:10Z</time>
      </trkpt>
      <trkpt lat="45.88765" lon="4.48049">
        <ele>464.20004272461</ele>
        <time>2020-08-25T18:37:57Z</time>
      </trkpt>
      <trkpt lat="45.88782" lon="4.47981">
        <ele>460.66195678711</ele>
        <time>2020-08-25T18:38:43Z</time>
      </trkpt>
      <trkpt lat="45.88779" lon="4.47964">
        <ele>458.93713378906</ele>
        <time>2020-08-25T18:39:30Z</time>
      </trkpt>
      <trkpt lat="45.88625" lon="4.48038">
        <ele>446.93984985352</ele>
        <time>2020-08-25T18:40:17Z</time>
      </trkpt>
      <trkpt lat="45.88586" lon="4.48065">
        <ele>445.54284667969</ele>
        <time>2020-08-25T18:41:04Z</time>
      </trkpt>
      <trkpt lat="45.88517" lon="4.48128">
        <ele>442.87017822266</ele>
        <time>2020-08-25T18:41:50Z</time>
      </trkpt>
      <trkpt lat="45.88418" lon="4.48187">
        <ele>431.77627563477</ele>
        <time>2020-08-25T18:42:37Z</time>
      </trkpt>
      <trkpt lat="45.88406" lon="4.48199">
        <ele>431.35693359375</ele>
        <time>2020-08-25T18:43:24Z</time>
      </trkpt>
      <trkpt lat="45.88408" lon="4.48239">
        <ele>430.86663818359</ele>
        <time>2020-08-25T18:44:11Z</time>
      </trkpt>
      <trkpt lat="45.8843" lon="4.48303">
        <ele>430.26641845703</ele>
        <time>2020-08-25T18:44:58Z</time>
      </trkpt>
      <trkpt lat="45.88481" lon="4.48388">
        <ele>427.56771850586</ele>
        <time>2020-08-25T18:45:44Z</time>
      </trkpt>
      <trkpt lat="45.88504" lon="4.48438">
        <ele>429.37390136719</ele>
        <time>2020-08-25T18:46:31Z</time>
      </trkpt>
      <trkpt lat="45.88561" lon="4.48644">
        <ele>433.30920410156</ele>
        <time>2020-08-25T18:47:18Z</time>
      </trkpt>
      <trkpt lat="45.88555" lon="4.48672">
        <ele>430.4309387207</ele>
        <time>2020-08-25T18:48:05Z</time>
      </trkpt>
      <trkpt lat="45.88518" lon="4.48732">
        <ele>424.43237304688</ele>
        <time>2020-08-25T18:48:52Z</time>
      </trkpt>
      <trkpt lat="45.88512" lon="4.48761">
        <ele>423.23352050781</ele>
        <time>2020-08-25T18:49:39Z</time>
      </trkpt>
      <trkpt lat="45.88518" lon="4.48799">
        <ele>422.84664916992</ele>
        <time>2020-08-25T18:50:26Z</time>
      </trkpt>
      <trkpt lat="45.88545" lon="4.48856">
        <ele>423.98120117188</ele>
        <time>2020-08-25T18:51:12Z</time>
      </trkpt>
      <trkpt lat="45.88544" lon="4.48852">
        <ele>424.00354003906</ele>
        <time>2020-08-25T18:51:59Z</time>
      </trkpt>
    </trkseg>
  </trk>
</gpx>